<?xml version="1.0" encoding="UTF-8"?><gpx xmlns="http://www.topografix.com/GPX/1/1" version="1.1" creator="iOrient"><trk><name>Зимне-весенний Кубок 2026. Этап 2</name><trkseg><trkpt lat="55.7957465" lon="49.2241854"><time>2026-01-18T08:51:42.083</time></trkpt><trkpt lat="55.7957271" lon="49.2242589"><time>2026-01-18T08:51:53.010</time></trkpt><trkpt lat="55.7956627" lon="49.2242450"><time>2026-01-18T08:51:57.020</time></trkpt><trkpt lat="55.7956129" lon="49.2242411"><time>2026-01-18T08:52:00.040</time></trkpt><trkpt lat="55.7955653" lon="49.2242027"><time>2026-01-18T08:52:05.037</time></trkpt><trkpt lat="55.7955468" lon="49.2240796"><time>2026-01-18T08:52:07.013</time></trkpt><trkpt lat="55.7954996" lon="49.2240402"><time>2026-01-18T08:52:09.023</time></trkpt><trkpt lat="55.7954549" lon="49.2240111"><time>2026-01-18T08:52:11.033</time></trkpt><trkpt lat="55.7954220" lon="49.2239171"><time>2026-01-18T08:52:14.040</time></trkpt><trkpt lat="55.7954295" lon="49.2238356"><time>2026-01-18T08:52:16.033</time></trkpt><trkpt lat="55.7954568" lon="49.2237487"><time>2026-01-18T08:52:18.037</time></trkpt><trkpt lat="55.7954793" lon="49.2236570"><time>2026-01-18T08:52:20.033</time></trkpt><trkpt lat="55.7954574" lon="49.2235789"><time>2026-01-18T08:52:22.023</time></trkpt><trkpt lat="55.7954051" lon="49.2235244"><time>2026-01-18T08:52:25.030</time></trkpt><trkpt lat="55.7953456" lon="49.2234925"><time>2026-01-18T08:52:27.010</time></trkpt><trkpt lat="55.7952942" lon="49.2234184"><time>2026-01-18T08:52:29.037</time></trkpt><trkpt lat="55.7952483" lon="49.2233715"><time>2026-01-18T08:52:31.037</time></trkpt><trkpt lat="55.7952037" lon="49.2233325"><time>2026-01-18T08:52:33.037</time></trkpt><trkpt lat="55.7951571" lon="49.2232815"><time>2026-01-18T08:52:35.023</time></trkpt><trkpt lat="55.7951139" lon="49.2232387"><time>2026-01-18T08:52:37.040</time></trkpt><trkpt lat="55.7950731" lon="49.2231874"><time>2026-01-18T08:52:39.040</time></trkpt><trkpt lat="55.7950289" lon="49.2231393"><time>2026-01-18T08:52:41.033</time></trkpt><trkpt lat="55.7949791" lon="49.2230947"><time>2026-01-18T08:52:43.037</time></trkpt><trkpt lat="55.7949269" lon="49.2230293"><time>2026-01-18T08:52:45.020</time></trkpt><trkpt lat="55.7948700" lon="49.2229789"><time>2026-01-18T08:52:47.043</time></trkpt><trkpt lat="55.7948272" lon="49.2229412"><time>2026-01-18T08:52:49.017</time></trkpt><trkpt lat="55.7947746" lon="49.2228820"><time>2026-01-18T08:52:52.017</time></trkpt><trkpt lat="55.7947181" lon="49.2228208"><time>2026-01-18T08:52:55.040</time></trkpt><trkpt lat="55.7946817" lon="49.2227701"><time>2026-01-18T08:52:58.030</time></trkpt><trkpt lat="55.7946428" lon="49.2227297"><time>2026-01-18T08:53:02.033</time></trkpt><trkpt lat="55.7946136" lon="49.2228058"><time>2026-01-18T08:53:11.040</time></trkpt><trkpt lat="55.7946245" lon="49.2228903"><time>2026-01-18T08:53:17.997</time></trkpt><trkpt lat="55.7946245" lon="49.2228903"><time>2026-01-18T08:53:18.203</time></trkpt><trkpt lat="55.7946181" lon="49.2228036"><time>2026-01-18T08:53:26.013</time></trkpt><trkpt lat="55.7946065" lon="49.2227230"><time>2026-01-18T08:53:28.037</time></trkpt><trkpt lat="55.7945613" lon="49.2226815"><time>2026-01-18T08:53:31.033</time></trkpt><trkpt lat="55.7945201" lon="49.2226436"><time>2026-01-18T08:53:33.037</time></trkpt><trkpt lat="55.7944793" lon="49.2226066"><time>2026-01-18T08:53:35.037</time></trkpt><trkpt lat="55.7944255" lon="49.2225525"><time>2026-01-18T08:53:37.037</time></trkpt><trkpt lat="55.7943787" lon="49.2225010"><time>2026-01-18T08:53:39.037</time></trkpt><trkpt lat="55.7943415" lon="49.2224292"><time>2026-01-18T08:53:41.033</time></trkpt><trkpt lat="55.7943030" lon="49.2223707"><time>2026-01-18T08:53:43.033</time></trkpt><trkpt lat="55.7942455" lon="49.2223378"><time>2026-01-18T08:53:45.037</time></trkpt><trkpt lat="55.7941926" lon="49.2222841"><time>2026-01-18T08:53:47.033</time></trkpt><trkpt lat="55.7941436" lon="49.2222107"><time>2026-01-18T08:53:49.037</time></trkpt><trkpt lat="55.7940899" lon="49.2221576"><time>2026-01-18T08:53:51.037</time></trkpt><trkpt lat="55.7940405" lon="49.2221233"><time>2026-01-18T08:53:53.030</time></trkpt><trkpt lat="55.7939874" lon="49.2221028"><time>2026-01-18T08:53:55.037</time></trkpt><trkpt lat="55.7939319" lon="49.2220545"><time>2026-01-18T08:53:57.037</time></trkpt><trkpt lat="55.7938784" lon="49.2219937"><time>2026-01-18T08:53:59.040</time></trkpt><trkpt lat="55.7938263" lon="49.2219915"><time>2026-01-18T08:54:01.020</time></trkpt><trkpt lat="55.7937920" lon="49.2220569"><time>2026-01-18T08:54:03.037</time></trkpt><trkpt lat="55.7937608" lon="49.2221431"><time>2026-01-18T08:54:05.030</time></trkpt><trkpt lat="55.7937304" lon="49.2222230"><time>2026-01-18T08:54:07.020</time></trkpt><trkpt lat="55.7936958" lon="49.2222975"><time>2026-01-18T08:54:09.027</time></trkpt><trkpt lat="55.7936596" lon="49.2223601"><time>2026-01-18T08:54:11.040</time></trkpt><trkpt lat="55.7936233" lon="49.2224143"><time>2026-01-18T08:54:13.067</time></trkpt><trkpt lat="55.7935849" lon="49.2224743"><time>2026-01-18T08:54:15.037</time></trkpt><trkpt lat="55.7935546" lon="49.2225413"><time>2026-01-18T08:54:17.013</time></trkpt><trkpt lat="55.7935208" lon="49.2225958"><time>2026-01-18T08:54:19.067</time></trkpt><trkpt lat="55.7934836" lon="49.2226530"><time>2026-01-18T08:54:21.030</time></trkpt><trkpt lat="55.7934350" lon="49.2227313"><time>2026-01-18T08:54:24.017</time></trkpt><trkpt lat="55.7934028" lon="49.2227911"><time>2026-01-18T08:54:26.037</time></trkpt><trkpt lat="55.7933635" lon="49.2228497"><time>2026-01-18T08:54:28.040</time></trkpt><trkpt lat="55.7933191" lon="49.2229216"><time>2026-01-18T08:54:30.033</time></trkpt><trkpt lat="55.7932719" lon="49.2229981"><time>2026-01-18T08:54:32.043</time></trkpt><trkpt lat="55.7932249" lon="49.2230752"><time>2026-01-18T08:54:34.037</time></trkpt><trkpt lat="55.7931876" lon="49.2231502"><time>2026-01-18T08:54:36.037</time></trkpt><trkpt lat="55.7931557" lon="49.2232460"><time>2026-01-18T08:54:39.050</time></trkpt><trkpt lat="55.7931122" lon="49.2233471"><time>2026-01-18T08:54:41.037</time></trkpt><trkpt lat="55.7930633" lon="49.2234422"><time>2026-01-18T08:54:43.050</time></trkpt><trkpt lat="55.7930162" lon="49.2235253"><time>2026-01-18T08:54:45.043</time></trkpt><trkpt lat="55.7929771" lon="49.2235895"><time>2026-01-18T08:54:47.037</time></trkpt><trkpt lat="55.7929465" lon="49.2236554"><time>2026-01-18T08:54:49.017</time></trkpt><trkpt lat="55.7929052" lon="49.2237135"><time>2026-01-18T08:54:51.040</time></trkpt><trkpt lat="55.7928637" lon="49.2237736"><time>2026-01-18T08:54:53.040</time></trkpt><trkpt lat="55.7928220" lon="49.2238374"><time>2026-01-18T08:54:56.037</time></trkpt><trkpt lat="55.7927739" lon="49.2239106"><time>2026-01-18T08:54:59.063</time></trkpt><trkpt lat="55.7927339" lon="49.2239717"><time>2026-01-18T08:55:01.040</time></trkpt><trkpt lat="55.7926939" lon="49.2240481"><time>2026-01-18T08:55:03.037</time></trkpt><trkpt lat="55.7926506" lon="49.2241351"><time>2026-01-18T08:55:05.067</time></trkpt><trkpt lat="55.7926067" lon="49.2242086"><time>2026-01-18T08:55:07.037</time></trkpt><trkpt lat="55.7925649" lon="49.2242778"><time>2026-01-18T08:55:09.033</time></trkpt><trkpt lat="55.7925254" lon="49.2243381"><time>2026-01-18T08:55:11.063</time></trkpt><trkpt lat="55.7924877" lon="49.2244030"><time>2026-01-18T08:55:13.033</time></trkpt><trkpt lat="55.7924541" lon="49.2244637"><time>2026-01-18T08:55:15.037</time></trkpt><trkpt lat="55.7924119" lon="49.2245457"><time>2026-01-18T08:55:18.037</time></trkpt><trkpt lat="55.7923646" lon="49.2246249"><time>2026-01-18T08:55:21.037</time></trkpt><trkpt lat="55.7923357" lon="49.2246932"><time>2026-01-18T08:55:23.067</time></trkpt><trkpt lat="55.7923049" lon="49.2247383"><time>2026-01-18T08:55:25.883</time></trkpt><trkpt lat="55.7922970" lon="49.2247466"><time>2026-01-18T08:55:26.113</time></trkpt><trkpt lat="55.7923444" lon="49.2247215"><time>2026-01-18T08:55:44.037</time></trkpt><trkpt lat="55.7923746" lon="49.2246506"><time>2026-01-18T08:55:47.023</time></trkpt><trkpt lat="55.7923866" lon="49.2245409"><time>2026-01-18T08:55:52.060</time></trkpt><trkpt lat="55.7924091" lon="49.2244679"><time>2026-01-18T08:55:54.040</time></trkpt><trkpt lat="55.7924601" lon="49.2243621"><time>2026-01-18T08:55:57.037</time></trkpt><trkpt lat="55.7925039" lon="49.2242696"><time>2026-01-18T08:55:59.037</time></trkpt><trkpt lat="55.7925421" lon="49.2241897"><time>2026-01-18T08:56:01.033</time></trkpt><trkpt lat="55.7925715" lon="49.2241223"><time>2026-01-18T08:56:03.013</time></trkpt><trkpt lat="55.7926141" lon="49.2240480"><time>2026-01-18T08:56:05.040</time></trkpt><trkpt lat="55.7926651" lon="49.2239739"><time>2026-01-18T08:56:07.033</time></trkpt><trkpt lat="55.7927165" lon="49.2238922"><time>2026-01-18T08:56:09.037</time></trkpt><trkpt lat="55.7927581" lon="49.2238080"><time>2026-01-18T08:56:11.037</time></trkpt><trkpt lat="55.7928039" lon="49.2237270"><time>2026-01-18T08:56:13.037</time></trkpt><trkpt lat="55.7928221" lon="49.2236349"><time>2026-01-18T08:56:16.037</time></trkpt><trkpt lat="55.7928647" lon="49.2235912"><time>2026-01-18T08:56:17.037</time></trkpt><trkpt lat="55.7929419" lon="49.2235158"><time>2026-01-18T08:56:19.037</time></trkpt><trkpt lat="55.7929918" lon="49.2234339"><time>2026-01-18T08:56:21.067</time></trkpt><trkpt lat="55.7930439" lon="49.2233632"><time>2026-01-18T08:56:23.037</time></trkpt><trkpt lat="55.7930867" lon="49.2232870"><time>2026-01-18T08:56:25.043</time></trkpt><trkpt lat="55.7930789" lon="49.2231905"><time>2026-01-18T08:56:27.057</time></trkpt><trkpt lat="55.7930423" lon="49.2231218"><time>2026-01-18T08:56:29.033</time></trkpt><trkpt lat="55.7930033" lon="49.2230786"><time>2026-01-18T08:56:31.033</time></trkpt><trkpt lat="55.7929477" lon="49.2230125"><time>2026-01-18T08:56:34.040</time></trkpt><trkpt lat="55.7929007" lon="49.2229837"><time>2026-01-18T08:56:36.020</time></trkpt><trkpt lat="55.7928609" lon="49.2229311"><time>2026-01-18T08:56:38.033</time></trkpt><trkpt lat="55.7928292" lon="49.2228570"><time>2026-01-18T08:56:40.040</time></trkpt><trkpt lat="55.7927884" lon="49.2228007"><time>2026-01-18T08:56:42.070</time></trkpt><trkpt lat="55.7927550" lon="49.2227181"><time>2026-01-18T08:56:44.037</time></trkpt><trkpt lat="55.7927275" lon="49.2226203"><time>2026-01-18T08:56:46.040</time></trkpt><trkpt lat="55.7927072" lon="49.2225478"><time>2026-01-18T08:56:48.073</time></trkpt><trkpt lat="55.7927208" lon="49.2224467"><time>2026-01-18T08:56:51.017</time></trkpt><trkpt lat="55.7927289" lon="49.2223294"><time>2026-01-18T08:56:54.023</time></trkpt><trkpt lat="55.7927359" lon="49.2222379"><time>2026-01-18T08:56:56.037</time></trkpt><trkpt lat="55.7927348" lon="49.2221357"><time>2026-01-18T08:56:58.040</time></trkpt><trkpt lat="55.7927286" lon="49.2220385"><time>2026-01-18T08:57:00.040</time></trkpt><trkpt lat="55.7927112" lon="49.2219342"><time>2026-01-18T08:57:02.047</time></trkpt><trkpt lat="55.7927028" lon="49.2218148"><time>2026-01-18T08:57:04.053</time></trkpt><trkpt lat="55.7927004" lon="49.2217085"><time>2026-01-18T08:57:06.050</time></trkpt><trkpt lat="55.7926953" lon="49.2216051"><time>2026-01-18T08:57:08.053</time></trkpt><trkpt lat="55.7926803" lon="49.2215132"><time>2026-01-18T08:57:10.043</time></trkpt><trkpt lat="55.7926386" lon="49.2214680"><time>2026-01-18T08:57:12.047</time></trkpt><trkpt lat="55.7925846" lon="49.2214051"><time>2026-01-18T08:57:15.017</time></trkpt><trkpt lat="55.7925567" lon="49.2213065"><time>2026-01-18T08:57:18.033</time></trkpt><trkpt lat="55.7925320" lon="49.2212004"><time>2026-01-18T08:57:20.043</time></trkpt><trkpt lat="55.7924758" lon="49.2210993"><time>2026-01-18T08:57:22.040</time></trkpt><trkpt lat="55.7924413" lon="49.2210289"><time>2026-01-18T08:57:24.040</time></trkpt><trkpt lat="55.7924323" lon="49.2209270"><time>2026-01-18T08:57:26.040</time></trkpt><trkpt lat="55.7924434" lon="49.2208441"><time>2026-01-18T08:57:28.040</time></trkpt><trkpt lat="55.7924511" lon="49.2207601"><time>2026-01-18T08:57:30.050</time></trkpt><trkpt lat="55.7924170" lon="49.2207014"><time>2026-01-18T08:57:33.037</time></trkpt><trkpt lat="55.7923504" lon="49.2207268"><time>2026-01-18T08:57:36.030</time></trkpt><trkpt lat="55.7922880" lon="49.2207144"><time>2026-01-18T08:57:39.033</time></trkpt><trkpt lat="55.7922242" lon="49.2207126"><time>2026-01-18T08:57:42.037</time></trkpt><trkpt lat="55.7921738" lon="49.2207104"><time>2026-01-18T08:57:44.037</time></trkpt><trkpt lat="55.7921308" lon="49.2206393"><time>2026-01-18T08:57:47.027</time></trkpt><trkpt lat="55.7921354" lon="49.2205367"><time>2026-01-18T08:57:50.030</time></trkpt><trkpt lat="55.7921325" lon="49.2204551"><time>2026-01-18T08:57:54.037</time></trkpt><trkpt lat="55.7921012" lon="49.2203796"><time>2026-01-18T08:57:57.037</time></trkpt><trkpt lat="55.7920597" lon="49.2203185"><time>2026-01-18T08:58:00.050</time></trkpt><trkpt lat="55.7920128" lon="49.2202349"><time>2026-01-18T08:58:03.037</time></trkpt><trkpt lat="55.7919860" lon="49.2201235"><time>2026-01-18T08:58:05.300</time></trkpt><trkpt lat="55.7919804" lon="49.2200185"><time>2026-01-18T08:58:07.020</time></trkpt><trkpt lat="55.7919692" lon="49.2199384"><time>2026-01-18T08:58:09.020</time></trkpt><trkpt lat="55.7919211" lon="49.2199114"><time>2026-01-18T08:58:12.027</time></trkpt><trkpt lat="55.7918644" lon="49.2198979"><time>2026-01-18T08:58:15.020</time></trkpt><trkpt lat="55.7918919" lon="49.2199856"><time>2026-01-18T08:59:02.013</time></trkpt><trkpt lat="55.7919235" lon="49.2200754"><time>2026-01-18T08:59:20.047</time></trkpt><trkpt lat="55.7919720" lon="49.2201677"><time>2026-01-18T08:59:23.040</time></trkpt><trkpt lat="55.7920146" lon="49.2202818"><time>2026-01-18T08:59:25.030</time></trkpt><trkpt lat="55.7920497" lon="49.2203774"><time>2026-01-18T08:59:27.020</time></trkpt><trkpt lat="55.7920660" lon="49.2204582"><time>2026-01-18T08:59:29.070</time></trkpt><trkpt lat="55.7920737" lon="49.2205797"><time>2026-01-18T08:59:31.027</time></trkpt><trkpt lat="55.7920831" lon="49.2206973"><time>2026-01-18T08:59:33.020</time></trkpt><trkpt lat="55.7920894" lon="49.2208347"><time>2026-01-18T08:59:35.020</time></trkpt><trkpt lat="55.7920938" lon="49.2209289"><time>2026-01-18T08:59:37.007</time></trkpt><trkpt lat="55.7920346" lon="49.2209745"><time>2026-01-18T08:59:39.010</time></trkpt><trkpt lat="55.7919789" lon="49.2209733"><time>2026-01-18T08:59:41.043</time></trkpt><trkpt lat="55.7919158" lon="49.2209616"><time>2026-01-18T08:59:43.027</time></trkpt><trkpt lat="55.7918581" lon="49.2209284"><time>2026-01-18T08:59:45.017</time></trkpt><trkpt lat="55.7918076" lon="49.2208794"><time>2026-01-18T08:59:47.037</time></trkpt><trkpt lat="55.7917570" lon="49.2208528"><time>2026-01-18T08:59:49.017</time></trkpt><trkpt lat="55.7916979" lon="49.2208520"><time>2026-01-18T08:59:51.017</time></trkpt><trkpt lat="55.7916330" lon="49.2208618"><time>2026-01-18T08:59:54.010</time></trkpt><trkpt lat="55.7915852" lon="49.2208631"><time>2026-01-18T08:59:56.037</time></trkpt><trkpt lat="55.7915228" lon="49.2208684"><time>2026-01-18T08:59:58.027</time></trkpt><trkpt lat="55.7914663" lon="49.2208627"><time>2026-01-18T09:00:00.040</time></trkpt><trkpt lat="55.7914158" lon="49.2208621"><time>2026-01-18T09:00:02.017</time></trkpt><trkpt lat="55.7913690" lon="49.2208560"><time>2026-01-18T09:00:04.037</time></trkpt><trkpt lat="55.7913232" lon="49.2208624"><time>2026-01-18T09:00:06.043</time></trkpt><trkpt lat="55.7912734" lon="49.2208893"><time>2026-01-18T09:00:08.040</time></trkpt><trkpt lat="55.7912259" lon="49.2209421"><time>2026-01-18T09:00:10.040</time></trkpt><trkpt lat="55.7912056" lon="49.2210499"><time>2026-01-18T09:00:13.040</time></trkpt><trkpt lat="55.7912089" lon="49.2211496"><time>2026-01-18T09:00:15.067</time></trkpt><trkpt lat="55.7911966" lon="49.2212520"><time>2026-01-18T09:00:17.037</time></trkpt><trkpt lat="55.7911832" lon="49.2213587"><time>2026-01-18T09:00:19.013</time></trkpt><trkpt lat="55.7911727" lon="49.2214706"><time>2026-01-18T09:00:21.070</time></trkpt><trkpt lat="55.7911511" lon="49.2215679"><time>2026-01-18T09:00:23.037</time></trkpt><trkpt lat="55.7911064" lon="49.2216123"><time>2026-01-18T09:00:25.037</time></trkpt><trkpt lat="55.7910582" lon="49.2216049"><time>2026-01-18T09:00:27.063</time></trkpt><trkpt lat="55.7910116" lon="49.2215925"><time>2026-01-18T09:00:29.037</time></trkpt><trkpt lat="55.7909659" lon="49.2215850"><time>2026-01-18T09:00:31.040</time></trkpt><trkpt lat="55.7909201" lon="49.2215987"><time>2026-01-18T09:00:33.007</time></trkpt><trkpt lat="55.7909150" lon="49.2217209"><time>2026-01-18T09:00:36.010</time></trkpt><trkpt lat="55.7909241" lon="49.2218185"><time>2026-01-18T09:00:38.037</time></trkpt><trkpt lat="55.7909332" lon="49.2219115"><time>2026-01-18T09:00:40.043</time></trkpt><trkpt lat="55.7909212" lon="49.2220153"><time>2026-01-18T09:00:42.017</time></trkpt><trkpt lat="55.7909084" lon="49.2221206"><time>2026-01-18T09:00:44.063</time></trkpt><trkpt lat="55.7909001" lon="49.2222258"><time>2026-01-18T09:00:46.040</time></trkpt><trkpt lat="55.7908944" lon="49.2223363"><time>2026-01-18T09:00:48.053</time></trkpt><trkpt lat="55.7908907" lon="49.2224481"><time>2026-01-18T09:00:50.020</time></trkpt><trkpt lat="55.7908915" lon="49.2225573"><time>2026-01-18T09:00:52.040</time></trkpt><trkpt lat="55.7908847" lon="49.2226465"><time>2026-01-18T09:00:54.037</time></trkpt><trkpt lat="55.7908233" lon="49.2226549"><time>2026-01-18T09:00:57.040</time></trkpt><trkpt lat="55.7907678" lon="49.2226436"><time>2026-01-18T09:00:59.047</time></trkpt><trkpt lat="55.7907068" lon="49.2226308"><time>2026-01-18T09:01:01.067</time></trkpt><trkpt lat="55.7906462" lon="49.2226239"><time>2026-01-18T09:01:03.050</time></trkpt><trkpt lat="55.7905893" lon="49.2226270"><time>2026-01-18T09:01:05.047</time></trkpt><trkpt lat="55.7905318" lon="49.2226101"><time>2026-01-18T09:01:07.073</time></trkpt><trkpt lat="55.7904839" lon="49.2226141"><time>2026-01-18T09:01:09.050</time></trkpt><trkpt lat="55.7904835" lon="49.2227217"><time>2026-01-18T09:01:12.033</time></trkpt><trkpt lat="55.7904973" lon="49.2228258"><time>2026-01-18T09:01:14.040</time></trkpt><trkpt lat="55.7904973" lon="49.2229320"><time>2026-01-18T09:01:16.040</time></trkpt><trkpt lat="55.7904932" lon="49.2230383"><time>2026-01-18T09:01:18.040</time></trkpt><trkpt lat="55.7904924" lon="49.2231357"><time>2026-01-18T09:01:20.050</time></trkpt><trkpt lat="55.7904817" lon="49.2232424"><time>2026-01-18T09:01:22.037</time></trkpt><trkpt lat="55.7904560" lon="49.2233131"><time>2026-01-18T09:01:24.020</time></trkpt><trkpt lat="55.7904065" lon="49.2233284"><time>2026-01-18T09:01:26.033</time></trkpt><trkpt lat="55.7903411" lon="49.2233293"><time>2026-01-18T09:01:28.043</time></trkpt><trkpt lat="55.7902824" lon="49.2233183"><time>2026-01-18T09:01:30.037</time></trkpt><trkpt lat="55.7902341" lon="49.2233015"><time>2026-01-18T09:01:32.040</time></trkpt><trkpt lat="55.7901863" lon="49.2232882"><time>2026-01-18T09:01:34.043</time></trkpt><trkpt lat="55.7901328" lon="49.2232974"><time>2026-01-18T09:01:36.060</time></trkpt><trkpt lat="55.7900865" lon="49.2233002"><time>2026-01-18T09:01:38.037</time></trkpt><trkpt lat="55.7900269" lon="49.2233017"><time>2026-01-18T09:01:41.037</time></trkpt><trkpt lat="55.7899644" lon="49.2232997"><time>2026-01-18T09:01:44.007</time></trkpt><trkpt lat="55.7899148" lon="49.2232953"><time>2026-01-18T09:01:46.017</time></trkpt><trkpt lat="55.7898622" lon="49.2232951"><time>2026-01-18T09:01:48.067</time></trkpt><trkpt lat="55.7898090" lon="49.2232958"><time>2026-01-18T09:01:50.020</time></trkpt><trkpt lat="55.7897613" lon="49.2232993"><time>2026-01-18T09:01:52.027</time></trkpt><trkpt lat="55.7897049" lon="49.2233483"><time>2026-01-18T09:01:55.020</time></trkpt><trkpt lat="55.7897170" lon="49.2234492"><time>2026-01-18T09:01:58.037</time></trkpt><trkpt lat="55.7897207" lon="49.2235353"><time>2026-01-18T09:02:00.037</time></trkpt><trkpt lat="55.7897208" lon="49.2236308"><time>2026-01-18T09:02:02.043</time></trkpt><trkpt lat="55.7897177" lon="49.2237148"><time>2026-01-18T09:02:04.010</time></trkpt><trkpt lat="55.7896831" lon="49.2237871"><time>2026-01-18T09:02:06.033</time></trkpt><trkpt lat="55.7896360" lon="49.2238146"><time>2026-01-18T09:02:08.013</time></trkpt><trkpt lat="55.7895852" lon="49.2238239"><time>2026-01-18T09:02:10.037</time></trkpt><trkpt lat="55.7895357" lon="49.2238469"><time>2026-01-18T09:02:12.040</time></trkpt><trkpt lat="55.7894829" lon="49.2238939"><time>2026-01-18T09:02:14.033</time></trkpt><trkpt lat="55.7894332" lon="49.2239459"><time>2026-01-18T09:02:16.067</time></trkpt><trkpt lat="55.7894160" lon="49.2240362"><time>2026-01-18T09:02:19.037</time></trkpt><trkpt lat="55.7894132" lon="49.2241481"><time>2026-01-18T09:02:22.063</time></trkpt><trkpt lat="55.7894038" lon="49.2242471"><time>2026-01-18T09:02:24.033</time></trkpt><trkpt lat="55.7894016" lon="49.2243295"><time>2026-01-18T09:02:26.037</time></trkpt><trkpt lat="55.7893606" lon="49.2243986"><time>2026-01-18T09:02:29.013</time></trkpt><trkpt lat="55.7893086" lon="49.2244020"><time>2026-01-18T09:02:31.017</time></trkpt><trkpt lat="55.7892615" lon="49.2243776"><time>2026-01-18T09:02:33.017</time></trkpt><trkpt lat="55.7892164" lon="49.2243625"><time>2026-01-18T09:02:35.110</time></trkpt><trkpt lat="55.7891596" lon="49.2243743"><time>2026-01-18T09:02:38.003</time></trkpt><trkpt lat="55.7891078" lon="49.2243665"><time>2026-01-18T09:02:40.033</time></trkpt><trkpt lat="55.7890575" lon="49.2243713"><time>2026-01-18T09:02:42.027</time></trkpt><trkpt lat="55.7890172" lon="49.2244122"><time>2026-01-18T09:02:56.027</time></trkpt><trkpt lat="55.7890366" lon="49.2244841"><time>2026-01-18T09:03:09.017</time></trkpt><trkpt lat="55.7890404" lon="49.2245701"><time>2026-01-18T09:03:15.070</time></trkpt><trkpt lat="55.7890369" lon="49.2246811"><time>2026-01-18T09:03:22.050</time></trkpt><trkpt lat="55.7890487" lon="49.2247962"><time>2026-01-18T09:03:24.037</time></trkpt><trkpt lat="55.7890716" lon="49.2249174"><time>2026-01-18T09:03:26.047</time></trkpt><trkpt lat="55.7890697" lon="49.2250413"><time>2026-01-18T09:03:28.043</time></trkpt><trkpt lat="55.7890645" lon="49.2251424"><time>2026-01-18T09:03:30.037</time></trkpt><trkpt lat="55.7890749" lon="49.2252598"><time>2026-01-18T09:03:32.040</time></trkpt><trkpt lat="55.7890805" lon="49.2253749"><time>2026-01-18T09:03:34.027</time></trkpt><trkpt lat="55.7890860" lon="49.2254761"><time>2026-01-18T09:03:36.020</time></trkpt><trkpt lat="55.7890864" lon="49.2255864"><time>2026-01-18T09:03:38.043</time></trkpt><trkpt lat="55.7890771" lon="49.2257056"><time>2026-01-18T09:03:40.040</time></trkpt><trkpt lat="55.7890740" lon="49.2258209"><time>2026-01-18T09:03:42.050</time></trkpt><trkpt lat="55.7890655" lon="49.2259494"><time>2026-01-18T09:03:44.040</time></trkpt><trkpt lat="55.7890623" lon="49.2260595"><time>2026-01-18T09:03:46.037</time></trkpt><trkpt lat="55.7890612" lon="49.2261628"><time>2026-01-18T09:03:48.047</time></trkpt><trkpt lat="55.7890534" lon="49.2262742"><time>2026-01-18T09:03:50.043</time></trkpt><trkpt lat="55.7890546" lon="49.2263924"><time>2026-01-18T09:03:52.040</time></trkpt><trkpt lat="55.7890567" lon="49.2265082"><time>2026-01-18T09:03:54.037</time></trkpt><trkpt lat="55.7890547" lon="49.2266271"><time>2026-01-18T09:03:56.043</time></trkpt><trkpt lat="55.7890508" lon="49.2267351"><time>2026-01-18T09:03:58.017</time></trkpt><trkpt lat="55.7890528" lon="49.2268346"><time>2026-01-18T09:04:00.043</time></trkpt><trkpt lat="55.7890506" lon="49.2269312"><time>2026-01-18T09:04:02.037</time></trkpt><trkpt lat="55.7890425" lon="49.2270283"><time>2026-01-18T09:04:04.047</time></trkpt><trkpt lat="55.7890422" lon="49.2271191"><time>2026-01-18T09:04:06.047</time></trkpt><trkpt lat="55.7890340" lon="49.2272048"><time>2026-01-18T09:04:08.027</time></trkpt><trkpt lat="55.7890225" lon="49.2272914"><time>2026-01-18T09:04:10.043</time></trkpt><trkpt lat="55.7890084" lon="49.2273743"><time>2026-01-18T09:04:12.047</time></trkpt><trkpt lat="55.7889980" lon="49.2274644"><time>2026-01-18T09:04:14.053</time></trkpt><trkpt lat="55.7889899" lon="49.2275616"><time>2026-01-18T09:04:16.043</time></trkpt><trkpt lat="55.7889808" lon="49.2276553"><time>2026-01-18T09:04:18.047</time></trkpt><trkpt lat="55.7889645" lon="49.2277486"><time>2026-01-18T09:04:20.040</time></trkpt><trkpt lat="55.7889552" lon="49.2278466"><time>2026-01-18T09:04:22.027</time></trkpt><trkpt lat="55.7889394" lon="49.2279297"><time>2026-01-18T09:04:24.033</time></trkpt><trkpt lat="55.7889769" lon="49.2279978"><time>2026-01-18T09:04:28.017</time></trkpt><trkpt lat="55.7890377" lon="49.2280141"><time>2026-01-18T09:04:33.063</time></trkpt><trkpt lat="55.7890813" lon="49.2280843"><time>2026-01-18T09:04:35.043</time></trkpt><trkpt lat="55.7891609" lon="49.2281116"><time>2026-01-18T09:04:37.023</time></trkpt><trkpt lat="55.7892227" lon="49.2281610"><time>2026-01-18T09:04:39.067</time></trkpt><trkpt lat="55.7892437" lon="49.2282745"><time>2026-01-18T09:04:41.040</time></trkpt><trkpt lat="55.7892365" lon="49.2283793"><time>2026-01-18T09:04:43.033</time></trkpt><trkpt lat="55.7892370" lon="49.2284809"><time>2026-01-18T09:04:45.063</time></trkpt><trkpt lat="55.7892419" lon="49.2285799"><time>2026-01-18T09:04:47.040</time></trkpt><trkpt lat="55.7892506" lon="49.2286684"><time>2026-01-18T09:04:49.027</time></trkpt><trkpt lat="55.7892623" lon="49.2287567"><time>2026-01-18T09:04:51.057</time></trkpt><trkpt lat="55.7892686" lon="49.2288541"><time>2026-01-18T09:04:53.020</time></trkpt><trkpt lat="55.7892745" lon="49.2289473"><time>2026-01-18T09:04:55.040</time></trkpt><trkpt lat="55.7892686" lon="49.2290305"><time>2026-01-18T09:04:57.060</time></trkpt><trkpt lat="55.7892334" lon="49.2291047"><time>2026-01-18T09:04:59.027</time></trkpt><trkpt lat="55.7891894" lon="49.2291926"><time>2026-01-18T09:05:01.047</time></trkpt><trkpt lat="55.7891320" lon="49.2292504"><time>2026-01-18T09:05:03.050</time></trkpt><trkpt lat="55.7890775" lon="49.2292970"><time>2026-01-18T09:05:05.050</time></trkpt><trkpt lat="55.7890292" lon="49.2293564"><time>2026-01-18T09:05:07.020</time></trkpt><trkpt lat="55.7889857" lon="49.2294198"><time>2026-01-18T09:05:09.047</time></trkpt><trkpt lat="55.7889568" lon="49.2294964"><time>2026-01-18T09:05:11.043</time></trkpt><trkpt lat="55.7889787" lon="49.2296017"><time>2026-01-18T09:05:14.013</time></trkpt><trkpt lat="55.7890086" lon="49.2296733"><time>2026-01-18T09:05:16.027</time></trkpt><trkpt lat="55.7890344" lon="49.2297483"><time>2026-01-18T09:05:18.033</time></trkpt><trkpt lat="55.7890547" lon="49.2298322"><time>2026-01-18T09:05:20.040</time></trkpt><trkpt lat="55.7890742" lon="49.2299157"><time>2026-01-18T09:05:22.023</time></trkpt><trkpt lat="55.7890968" lon="49.2300076"><time>2026-01-18T09:05:24.033</time></trkpt><trkpt lat="55.7891273" lon="49.2300836"><time>2026-01-18T09:05:26.020</time></trkpt><trkpt lat="55.7891581" lon="49.2301891"><time>2026-01-18T09:05:29.027</time></trkpt><trkpt lat="55.7891682" lon="49.2302739"><time>2026-01-18T09:05:32.047</time></trkpt><trkpt lat="55.7891602" lon="49.2303694"><time>2026-01-18T09:05:37.033</time></trkpt><trkpt lat="55.7891749" lon="49.2304054"><time>2026-01-18T09:05:45.567</time></trkpt><trkpt lat="55.7891157" lon="49.2303312"><time>2026-01-18T09:06:01.043</time></trkpt><trkpt lat="55.7890495" lon="49.2303476"><time>2026-01-18T09:06:03.043</time></trkpt><trkpt lat="55.7890054" lon="49.2303885"><time>2026-01-18T09:06:06.047</time></trkpt><trkpt lat="55.7889509" lon="49.2303637"><time>2026-01-18T09:06:09.033</time></trkpt><trkpt lat="55.7889177" lon="49.2302883"><time>2026-01-18T09:06:11.043</time></trkpt><trkpt lat="55.7888895" lon="49.2302167"><time>2026-01-18T09:06:13.023</time></trkpt><trkpt lat="55.7888578" lon="49.2300994"><time>2026-01-18T09:06:16.017</time></trkpt><trkpt lat="55.7888358" lon="49.2300063"><time>2026-01-18T09:06:18.040</time></trkpt><trkpt lat="55.7888191" lon="49.2299061"><time>2026-01-18T09:06:20.047</time></trkpt><trkpt lat="55.7887961" lon="49.2298269"><time>2026-01-18T09:06:22.047</time></trkpt><trkpt lat="55.7887494" lon="49.2297760"><time>2026-01-18T09:06:24.040</time></trkpt><trkpt lat="55.7886865" lon="49.2297631"><time>2026-01-18T09:06:26.040</time></trkpt><trkpt lat="55.7886310" lon="49.2297875"><time>2026-01-18T09:06:28.043</time></trkpt><trkpt lat="55.7885767" lon="49.2297898"><time>2026-01-18T09:06:31.033</time></trkpt><trkpt lat="55.7885309" lon="49.2297821"><time>2026-01-18T09:06:33.070</time></trkpt><trkpt lat="55.7884747" lon="49.2297590"><time>2026-01-18T09:06:35.033</time></trkpt><trkpt lat="55.7884227" lon="49.2297714"><time>2026-01-18T09:06:37.037</time></trkpt><trkpt lat="55.7883868" lon="49.2298447"><time>2026-01-18T09:06:39.067</time></trkpt><trkpt lat="55.7883446" lon="49.2299239"><time>2026-01-18T09:06:41.037</time></trkpt><trkpt lat="55.7882984" lon="49.2300259"><time>2026-01-18T09:06:43.017</time></trkpt><trkpt lat="55.7882539" lon="49.2301206"><time>2026-01-18T09:06:45.057</time></trkpt><trkpt lat="55.7882063" lon="49.2301988"><time>2026-01-18T09:06:47.050</time></trkpt><trkpt lat="55.7881603" lon="49.2302715"><time>2026-01-18T09:06:49.040</time></trkpt><trkpt lat="55.7881095" lon="49.2303522"><time>2026-01-18T09:06:51.077</time></trkpt><trkpt lat="55.7880526" lon="49.2304110"><time>2026-01-18T09:06:53.023</time></trkpt><trkpt lat="55.7879986" lon="49.2304772"><time>2026-01-18T09:06:55.043</time></trkpt><trkpt lat="55.7879550" lon="49.2305400"><time>2026-01-18T09:06:57.020</time></trkpt><trkpt lat="55.7879268" lon="49.2306025"><time>2026-01-18T09:06:59.040</time></trkpt><trkpt lat="55.7878931" lon="49.2306638"><time>2026-01-18T09:07:01.053</time></trkpt><trkpt lat="55.7878558" lon="49.2307161"><time>2026-01-18T09:07:03.047</time></trkpt><trkpt lat="55.7878119" lon="49.2307621"><time>2026-01-18T09:07:05.047</time></trkpt><trkpt lat="55.7877637" lon="49.2308088"><time>2026-01-18T09:07:08.077</time></trkpt><trkpt lat="55.7877074" lon="49.2308492"><time>2026-01-18T09:07:11.037</time></trkpt><trkpt lat="55.7876503" lon="49.2308944"><time>2026-01-18T09:07:14.073</time></trkpt><trkpt lat="55.7875964" lon="49.2309615"><time>2026-01-18T09:07:17.053</time></trkpt><trkpt lat="55.7875543" lon="49.2309980"><time>2026-01-18T09:07:19.047</time></trkpt><trkpt lat="55.7875100" lon="49.2310359"><time>2026-01-18T09:07:21.047</time></trkpt><trkpt lat="55.7874679" lon="49.2310804"><time>2026-01-18T09:07:23.047</time></trkpt><trkpt lat="55.7874288" lon="49.2311305"><time>2026-01-18T09:07:25.027</time></trkpt><trkpt lat="55.7873905" lon="49.2311792"><time>2026-01-18T09:07:27.040</time></trkpt><trkpt lat="55.7873371" lon="49.2312310"><time>2026-01-18T09:07:30.050</time></trkpt><trkpt lat="55.7872766" lon="49.2312855"><time>2026-01-18T09:07:33.040</time></trkpt><trkpt lat="55.7872275" lon="49.2313394"><time>2026-01-18T09:07:35.043</time></trkpt><trkpt lat="55.7871806" lon="49.2313978"><time>2026-01-18T09:07:37.047</time></trkpt><trkpt lat="55.7871312" lon="49.2314373"><time>2026-01-18T09:07:39.047</time></trkpt><trkpt lat="55.7870810" lon="49.2314893"><time>2026-01-18T09:07:41.037</time></trkpt><trkpt lat="55.7870342" lon="49.2315449"><time>2026-01-18T09:07:43.037</time></trkpt><trkpt lat="55.7869920" lon="49.2315876"><time>2026-01-18T09:07:45.080</time></trkpt><trkpt lat="55.7869766" lon="49.2316865"><time>2026-01-18T09:07:49.023</time></trkpt><trkpt lat="55.7869872" lon="49.2317124"><time>2026-01-18T09:07:50.173</time></trkpt><trkpt lat="55.7870142" lon="49.2317345"><time>2026-01-18T09:07:52.013</time></trkpt><trkpt lat="55.7870171" lon="49.2318187"><time>2026-01-18T09:07:59.037</time></trkpt><trkpt lat="55.7869727" lon="49.2318748"><time>2026-01-18T09:08:02.037</time></trkpt><trkpt lat="55.7869161" lon="49.2319137"><time>2026-01-18T09:08:05.037</time></trkpt><trkpt lat="55.7868580" lon="49.2319129"><time>2026-01-18T09:08:07.047</time></trkpt><trkpt lat="55.7867944" lon="49.2318817"><time>2026-01-18T09:08:09.047</time></trkpt><trkpt lat="55.7867559" lon="49.2319291"><time>2026-01-18T09:08:16.033</time></trkpt><trkpt lat="55.7867674" lon="49.2320245"><time>2026-01-18T09:08:19.043</time></trkpt><trkpt lat="55.7867897" lon="49.2321069"><time>2026-01-18T09:08:21.067</time></trkpt><trkpt lat="55.7868005" lon="49.2321923"><time>2026-01-18T09:08:23.037</time></trkpt><trkpt lat="55.7868056" lon="49.2322797"><time>2026-01-18T09:08:25.040</time></trkpt><trkpt lat="55.7868065" lon="49.2323796"><time>2026-01-18T09:08:27.017</time></trkpt><trkpt lat="55.7868207" lon="49.2324652"><time>2026-01-18T09:08:29.057</time></trkpt><trkpt lat="55.7868467" lon="49.2325505"><time>2026-01-18T09:08:31.057</time></trkpt><trkpt lat="55.7868715" lon="49.2326392"><time>2026-01-18T09:08:33.073</time></trkpt><trkpt lat="55.7868991" lon="49.2327259"><time>2026-01-18T09:08:35.057</time></trkpt><trkpt lat="55.7869197" lon="49.2328270"><time>2026-01-18T09:08:37.053</time></trkpt><trkpt lat="55.7869416" lon="49.2329289"><time>2026-01-18T09:08:39.027</time></trkpt><trkpt lat="55.7869664" lon="49.2330262"><time>2026-01-18T09:08:41.053</time></trkpt><trkpt lat="55.7869957" lon="49.2331072"><time>2026-01-18T09:08:43.047</time></trkpt><trkpt lat="55.7870287" lon="49.2331835"><time>2026-01-18T09:08:45.047</time></trkpt><trkpt lat="55.7870606" lon="49.2332744"><time>2026-01-18T09:08:47.043</time></trkpt><trkpt lat="55.7870926" lon="49.2333704"><time>2026-01-18T09:08:49.023</time></trkpt><trkpt lat="55.7871200" lon="49.2334545"><time>2026-01-18T09:08:51.057</time></trkpt><trkpt lat="55.7871573" lon="49.2335463"><time>2026-01-18T09:08:53.047</time></trkpt><trkpt lat="55.7871907" lon="49.2336413"><time>2026-01-18T09:08:55.073</time></trkpt><trkpt lat="55.7872267" lon="49.2337360"><time>2026-01-18T09:08:57.047</time></trkpt><trkpt lat="55.7872609" lon="49.2338207"><time>2026-01-18T09:08:59.047</time></trkpt><trkpt lat="55.7873010" lon="49.2339106"><time>2026-01-18T09:09:01.077</time></trkpt><trkpt lat="55.7873436" lon="49.2339878"><time>2026-01-18T09:09:03.050</time></trkpt><trkpt lat="55.7873794" lon="49.2340485"><time>2026-01-18T09:09:05.047</time></trkpt><trkpt lat="55.7874153" lon="49.2341308"><time>2026-01-18T09:09:07.080</time></trkpt><trkpt lat="55.7874448" lon="49.2342379"><time>2026-01-18T09:09:09.033</time></trkpt><trkpt lat="55.7874686" lon="49.2343391"><time>2026-01-18T09:09:11.047</time></trkpt><trkpt lat="55.7875017" lon="49.2344325"><time>2026-01-18T09:09:13.047</time></trkpt><trkpt lat="55.7875356" lon="49.2345185"><time>2026-01-18T09:09:15.043</time></trkpt><trkpt lat="55.7875490" lon="49.2345981"><time>2026-01-18T09:09:17.037</time></trkpt><trkpt lat="55.7875308" lon="49.2346813"><time>2026-01-18T09:09:19.037</time></trkpt><trkpt lat="55.7874798" lon="49.2347524"><time>2026-01-18T09:09:22.017</time></trkpt><trkpt lat="55.7874145" lon="49.2347802"><time>2026-01-18T09:09:25.020</time></trkpt><trkpt lat="55.7873682" lon="49.2347959"><time>2026-01-18T09:09:27.020</time></trkpt><trkpt lat="55.7873217" lon="49.2348206"><time>2026-01-18T09:09:29.017</time></trkpt><trkpt lat="55.7872603" lon="49.2348658"><time>2026-01-18T09:09:31.017</time></trkpt><trkpt lat="55.7872102" lon="49.2349159"><time>2026-01-18T09:09:33.017</time></trkpt><trkpt lat="55.7871647" lon="49.2349690"><time>2026-01-18T09:09:35.047</time></trkpt><trkpt lat="55.7871183" lon="49.2350253"><time>2026-01-18T09:09:37.020</time></trkpt><trkpt lat="55.7870747" lon="49.2350705"><time>2026-01-18T09:09:39.020</time></trkpt><trkpt lat="55.7870284" lon="49.2351031"><time>2026-01-18T09:09:41.050</time></trkpt><trkpt lat="55.7869750" lon="49.2351367"><time>2026-01-18T09:09:43.017</time></trkpt><trkpt lat="55.7869255" lon="49.2351770"><time>2026-01-18T09:09:45.020</time></trkpt><trkpt lat="55.7868818" lon="49.2352278"><time>2026-01-18T09:09:47.047</time></trkpt><trkpt lat="55.7868412" lon="49.2352764"><time>2026-01-18T09:09:49.017</time></trkpt><trkpt lat="55.7868013" lon="49.2353299"><time>2026-01-18T09:09:51.020</time></trkpt><trkpt lat="55.7867536" lon="49.2353913"><time>2026-01-18T09:09:53.013</time></trkpt><trkpt lat="55.7867074" lon="49.2354535"><time>2026-01-18T09:09:55.017</time></trkpt><trkpt lat="55.7866629" lon="49.2355024"><time>2026-01-18T09:09:57.020</time></trkpt><trkpt lat="55.7866203" lon="49.2355427"><time>2026-01-18T09:09:59.017</time></trkpt><trkpt lat="55.7865718" lon="49.2355864"><time>2026-01-18T09:10:01.020</time></trkpt><trkpt lat="55.7865196" lon="49.2356372"><time>2026-01-18T09:10:03.050</time></trkpt><trkpt lat="55.7864666" lon="49.2356971"><time>2026-01-18T09:10:05.023</time></trkpt><trkpt lat="55.7864171" lon="49.2357494"><time>2026-01-18T09:10:07.023</time></trkpt><trkpt lat="55.7863668" lon="49.2357964"><time>2026-01-18T09:10:09.020</time></trkpt><trkpt lat="55.7863152" lon="49.2358593"><time>2026-01-18T09:10:11.023</time></trkpt><trkpt lat="55.7862686" lon="49.2359030"><time>2026-01-18T09:10:13.020</time></trkpt><trkpt lat="55.7862226" lon="49.2359508"><time>2026-01-18T09:10:15.023</time></trkpt><trkpt lat="55.7861825" lon="49.2360133"><time>2026-01-18T09:10:17.030</time></trkpt><trkpt lat="55.7861758" lon="49.2361005"><time>2026-01-18T09:10:19.030</time></trkpt><trkpt lat="55.7861873" lon="49.2361854"><time>2026-01-18T09:10:21.037</time></trkpt><trkpt lat="55.7862083" lon="49.2362691"><time>2026-01-18T09:10:23.027</time></trkpt><trkpt lat="55.7862276" lon="49.2363590"><time>2026-01-18T09:10:25.017</time></trkpt><trkpt lat="55.7862479" lon="49.2364511"><time>2026-01-18T09:10:27.013</time></trkpt><trkpt lat="55.7862702" lon="49.2365481"><time>2026-01-18T09:10:29.017</time></trkpt><trkpt lat="55.7862946" lon="49.2366446"><time>2026-01-18T09:10:31.023</time></trkpt><trkpt lat="55.7863158" lon="49.2367325"><time>2026-01-18T09:10:33.040</time></trkpt><trkpt lat="55.7863404" lon="49.2368305"><time>2026-01-18T09:10:35.013</time></trkpt><trkpt lat="55.7863684" lon="49.2369296"><time>2026-01-18T09:10:37.040</time></trkpt><trkpt lat="55.7863934" lon="49.2370164"><time>2026-01-18T09:10:39.027</time></trkpt><trkpt lat="55.7864161" lon="49.2371050"><time>2026-01-18T09:10:41.023</time></trkpt><trkpt lat="55.7864472" lon="49.2371836"><time>2026-01-18T09:10:43.030</time></trkpt><trkpt lat="55.7864805" lon="49.2372588"><time>2026-01-18T09:10:45.037</time></trkpt><trkpt lat="55.7865069" lon="49.2373505"><time>2026-01-18T09:10:47.017</time></trkpt><trkpt lat="55.7865334" lon="49.2374621"><time>2026-01-18T09:10:49.033</time></trkpt><trkpt lat="55.7865580" lon="49.2375716"><time>2026-01-18T09:10:51.020</time></trkpt><trkpt lat="55.7865797" lon="49.2376674"><time>2026-01-18T09:10:53.023</time></trkpt><trkpt lat="55.7866053" lon="49.2377567"><time>2026-01-18T09:10:55.040</time></trkpt><trkpt lat="55.7866355" lon="49.2378575"><time>2026-01-18T09:10:57.037</time></trkpt><trkpt lat="55.7866638" lon="49.2379614"><time>2026-01-18T09:10:59.020</time></trkpt><trkpt lat="55.7866909" lon="49.2380624"><time>2026-01-18T09:11:01.020</time></trkpt><trkpt lat="55.7867204" lon="49.2381416"><time>2026-01-18T09:11:03.050</time></trkpt><trkpt lat="55.7867642" lon="49.2381848"><time>2026-01-18T09:11:05.043</time></trkpt><trkpt lat="55.7868263" lon="49.2381541"><time>2026-01-18T09:11:07.043</time></trkpt><trkpt lat="55.7868648" lon="49.2380842"><time>2026-01-18T09:11:09.047</time></trkpt><trkpt lat="55.7868988" lon="49.2380288"><time>2026-01-18T09:11:12.033</time></trkpt><trkpt lat="55.7869382" lon="49.2379778"><time>2026-01-18T09:11:14.037</time></trkpt><trkpt lat="55.7869898" lon="49.2379160"><time>2026-01-18T09:11:17.037</time></trkpt><trkpt lat="55.7870321" lon="49.2378788"><time>2026-01-18T09:11:19.040</time></trkpt><trkpt lat="55.7870872" lon="49.2378651"><time>2026-01-18T09:11:21.040</time></trkpt><trkpt lat="55.7871666" lon="49.2379042"><time>2026-01-18T09:11:23.033</time></trkpt><trkpt lat="55.7872105" lon="49.2379831"><time>2026-01-18T09:11:25.040</time></trkpt><trkpt lat="55.7872449" lon="49.2380608"><time>2026-01-18T09:11:27.040</time></trkpt><trkpt lat="55.7872786" lon="49.2381314"><time>2026-01-18T09:11:29.040</time></trkpt><trkpt lat="55.7873093" lon="49.2381990"><time>2026-01-18T09:11:31.027</time></trkpt><trkpt lat="55.7873380" lon="49.2382719"><time>2026-01-18T09:11:33.067</time></trkpt><trkpt lat="55.7873702" lon="49.2383742"><time>2026-01-18T09:11:35.050</time></trkpt><trkpt lat="55.7874126" lon="49.2385014"><time>2026-01-18T09:11:37.037</time></trkpt><trkpt lat="55.7874395" lon="49.2385673"><time>2026-01-18T09:11:39.067</time></trkpt><trkpt lat="55.7874743" lon="49.2386681"><time>2026-01-18T09:11:42.047</time></trkpt><trkpt lat="55.7875165" lon="49.2387723"><time>2026-01-18T09:11:44.020</time></trkpt><trkpt lat="55.7875372" lon="49.2388725"><time>2026-01-18T09:11:46.033</time></trkpt><trkpt lat="55.7875745" lon="49.2389280"><time>2026-01-18T09:11:48.037</time></trkpt><trkpt lat="55.7876318" lon="49.2389232"><time>2026-01-18T09:11:51.037</time></trkpt><trkpt lat="55.7876782" lon="49.2388678"><time>2026-01-18T09:11:53.040</time></trkpt><trkpt lat="55.7877250" lon="49.2388058"><time>2026-01-18T09:11:57.047</time></trkpt><trkpt lat="55.7877633" lon="49.2387585"><time>2026-01-18T09:12:01.037</time></trkpt><trkpt lat="55.7878102" lon="49.2387150"><time>2026-01-18T09:12:05.053</time></trkpt><trkpt lat="55.7878631" lon="49.2386935"><time>2026-01-18T09:12:07.053</time></trkpt><trkpt lat="55.7879190" lon="49.2386745"><time>2026-01-18T09:12:09.053</time></trkpt><trkpt lat="55.7879813" lon="49.2386480"><time>2026-01-18T09:12:11.037</time></trkpt><trkpt lat="55.7880349" lon="49.2386193"><time>2026-01-18T09:12:13.023</time></trkpt><trkpt lat="55.7880817" lon="49.2385891"><time>2026-01-18T09:12:15.047</time></trkpt><trkpt lat="55.7881300" lon="49.2385611"><time>2026-01-18T09:12:17.040</time></trkpt><trkpt lat="55.7881801" lon="49.2385263"><time>2026-01-18T09:12:19.047</time></trkpt><trkpt lat="55.7882334" lon="49.2384910"><time>2026-01-18T09:12:21.050</time></trkpt><trkpt lat="55.7882872" lon="49.2384599"><time>2026-01-18T09:12:23.040</time></trkpt><trkpt lat="55.7883372" lon="49.2384197"><time>2026-01-18T09:12:25.073</time></trkpt><trkpt lat="55.7883906" lon="49.2383816"><time>2026-01-18T09:12:27.043</time></trkpt><trkpt lat="55.7884443" lon="49.2383464"><time>2026-01-18T09:12:29.043</time></trkpt><trkpt lat="55.7885007" lon="49.2382943"><time>2026-01-18T09:12:31.077</time></trkpt><trkpt lat="55.7885533" lon="49.2382640"><time>2026-01-18T09:12:33.047</time></trkpt><trkpt lat="55.7886191" lon="49.2382609"><time>2026-01-18T09:12:35.047</time></trkpt><trkpt lat="55.7886799" lon="49.2382965"><time>2026-01-18T09:12:37.077</time></trkpt><trkpt lat="55.7887206" lon="49.2383328"><time>2026-01-18T09:12:39.023</time></trkpt><trkpt lat="55.7886625" lon="49.2383504"><time>2026-01-18T09:12:50.027</time></trkpt><trkpt lat="55.7886893" lon="49.2384148"><time>2026-01-18T09:12:56.040</time></trkpt><trkpt lat="55.7886969" lon="49.2384939"><time>2026-01-18T09:13:01.033</time></trkpt><trkpt lat="55.7886973" lon="49.2384980"><time>2026-01-18T09:13:04.867</time></trkpt><trkpt lat="55.7887265" lon="49.2384106"><time>2026-01-18T09:13:12.033</time></trkpt><trkpt lat="55.7886915" lon="49.2383428"><time>2026-01-18T09:13:17.037</time></trkpt><trkpt lat="55.7887196" lon="49.2382794"><time>2026-01-18T09:13:20.017</time></trkpt><trkpt lat="55.7886698" lon="49.2382987"><time>2026-01-18T09:13:29.030</time></trkpt><trkpt lat="55.7886112" lon="49.2383326"><time>2026-01-18T09:13:31.050</time></trkpt><trkpt lat="55.7885480" lon="49.2383664"><time>2026-01-18T09:13:33.050</time></trkpt><trkpt lat="55.7884951" lon="49.2384104"><time>2026-01-18T09:13:35.047</time></trkpt><trkpt lat="55.7884376" lon="49.2384659"><time>2026-01-18T09:13:37.040</time></trkpt><trkpt lat="55.7883824" lon="49.2385073"><time>2026-01-18T09:13:39.020</time></trkpt><trkpt lat="55.7883230" lon="49.2385368"><time>2026-01-18T09:13:41.047</time></trkpt><trkpt lat="55.7882674" lon="49.2385719"><time>2026-01-18T09:13:43.047</time></trkpt><trkpt lat="55.7882096" lon="49.2385963"><time>2026-01-18T09:13:45.060</time></trkpt><trkpt lat="55.7881594" lon="49.2386331"><time>2026-01-18T09:13:47.037</time></trkpt><trkpt lat="55.7881080" lon="49.2386624"><time>2026-01-18T09:13:49.040</time></trkpt><trkpt lat="55.7880616" lon="49.2386863"><time>2026-01-18T09:13:51.067</time></trkpt><trkpt lat="55.7880184" lon="49.2387179"><time>2026-01-18T09:13:53.047</time></trkpt><trkpt lat="55.7879643" lon="49.2387476"><time>2026-01-18T09:13:55.043</time></trkpt><trkpt lat="55.7878461" lon="49.2387828"><time>2026-01-18T09:13:57.077</time></trkpt><trkpt lat="55.7877791" lon="49.2388218"><time>2026-01-18T09:13:59.050</time></trkpt><trkpt lat="55.7877289" lon="49.2388533"><time>2026-01-18T09:14:01.047</time></trkpt><trkpt lat="55.7876806" lon="49.2388780"><time>2026-01-18T09:14:03.050</time></trkpt><trkpt lat="55.7876399" lon="49.2389209"><time>2026-01-18T09:14:06.020</time></trkpt><trkpt lat="55.7876608" lon="49.2389976"><time>2026-01-18T09:14:10.037</time></trkpt><trkpt lat="55.7876524" lon="49.2390843"><time>2026-01-18T09:14:16.033</time></trkpt><trkpt lat="55.7876644" lon="49.2391670"><time>2026-01-18T09:14:18.047</time></trkpt><trkpt lat="55.7876902" lon="49.2392862"><time>2026-01-18T09:14:21.013</time></trkpt><trkpt lat="55.7877055" lon="49.2394012"><time>2026-01-18T09:14:23.040</time></trkpt><trkpt lat="55.7877238" lon="49.2394990"><time>2026-01-18T09:14:25.020</time></trkpt><trkpt lat="55.7877415" lon="49.2395877"><time>2026-01-18T09:14:27.043</time></trkpt><trkpt lat="55.7877596" lon="49.2396703"><time>2026-01-18T09:14:29.027</time></trkpt><trkpt lat="55.7877811" lon="49.2397437"><time>2026-01-18T09:14:31.023</time></trkpt><trkpt lat="55.7878054" lon="49.2398212"><time>2026-01-18T09:14:33.047</time></trkpt><trkpt lat="55.7878253" lon="49.2399074"><time>2026-01-18T09:14:35.027</time></trkpt><trkpt lat="55.7878494" lon="49.2400313"><time>2026-01-18T09:14:37.053</time></trkpt><trkpt lat="55.7878718" lon="49.2401355"><time>2026-01-18T09:14:39.053</time></trkpt><trkpt lat="55.7879021" lon="49.2402737"><time>2026-01-18T09:14:41.050</time></trkpt><trkpt lat="55.7879087" lon="49.2403645"><time>2026-01-18T09:14:43.047</time></trkpt><trkpt lat="55.7879274" lon="49.2404380"><time>2026-01-18T09:14:45.043</time></trkpt><trkpt lat="55.7879436" lon="49.2405188"><time>2026-01-18T09:14:47.053</time></trkpt><trkpt lat="55.7879578" lon="49.2406020"><time>2026-01-18T09:14:49.053</time></trkpt><trkpt lat="55.7879709" lon="49.2406786"><time>2026-01-18T09:14:51.020</time></trkpt><trkpt lat="55.7879858" lon="49.2407590"><time>2026-01-18T09:14:53.047</time></trkpt><trkpt lat="55.7880007" lon="49.2408472"><time>2026-01-18T09:14:55.027</time></trkpt><trkpt lat="55.7880221" lon="49.2409245"><time>2026-01-18T09:14:57.070</time></trkpt><trkpt lat="55.7880416" lon="49.2410003"><time>2026-01-18T09:14:59.047</time></trkpt><trkpt lat="55.7880534" lon="49.2410804"><time>2026-01-18T09:15:01.053</time></trkpt><trkpt lat="55.7880519" lon="49.2411806"><time>2026-01-18T09:15:03.050</time></trkpt><trkpt lat="55.7880435" lon="49.2412897"><time>2026-01-18T09:15:05.020</time></trkpt><trkpt lat="55.7880155" lon="49.2413593"><time>2026-01-18T09:15:07.057</time></trkpt><trkpt lat="55.7879908" lon="49.2414346"><time>2026-01-18T09:15:09.023</time></trkpt><trkpt lat="55.7879648" lon="49.2415127"><time>2026-01-18T09:15:11.040</time></trkpt><trkpt lat="55.7879422" lon="49.2415824"><time>2026-01-18T09:15:13.047</time></trkpt><trkpt lat="55.7879256" lon="49.2416659"><time>2026-01-18T09:15:15.073</time></trkpt><trkpt lat="55.7879161" lon="49.2417600"><time>2026-01-18T09:15:17.050</time></trkpt><trkpt lat="55.7878910" lon="49.2418633"><time>2026-01-18T09:15:19.053</time></trkpt><trkpt lat="55.7878854" lon="49.2419509"><time>2026-01-18T09:15:21.067</time></trkpt><trkpt lat="55.7878895" lon="49.2420361"><time>2026-01-18T09:15:23.020</time></trkpt><trkpt lat="55.7878992" lon="49.2421556"><time>2026-01-18T09:15:26.047</time></trkpt><trkpt lat="55.7879137" lon="49.2422497"><time>2026-01-18T09:15:28.033</time></trkpt><trkpt lat="55.7879240" lon="49.2423451"><time>2026-01-18T09:15:30.037</time></trkpt><trkpt lat="55.7879297" lon="49.2424365"><time>2026-01-18T09:15:32.047</time></trkpt><trkpt lat="55.7879340" lon="49.2425301"><time>2026-01-18T09:15:34.023</time></trkpt><trkpt lat="55.7879397" lon="49.2426191"><time>2026-01-18T09:15:38.050</time></trkpt><trkpt lat="55.7879505" lon="49.2427037"><time>2026-01-18T09:15:41.037</time></trkpt><trkpt lat="55.7879751" lon="49.2427903"><time>2026-01-18T09:15:43.043</time></trkpt><trkpt lat="55.7879925" lon="49.2429222"><time>2026-01-18T09:15:45.040</time></trkpt><trkpt lat="55.7879876" lon="49.2430463"><time>2026-01-18T09:15:47.053</time></trkpt><trkpt lat="55.7879827" lon="49.2431615"><time>2026-01-18T09:15:49.047</time></trkpt><trkpt lat="55.7879896" lon="49.2432590"><time>2026-01-18T09:15:51.047</time></trkpt><trkpt lat="55.7879914" lon="49.2433613"><time>2026-01-18T09:15:53.040</time></trkpt><trkpt lat="55.7879953" lon="49.2434541"><time>2026-01-18T09:15:55.030</time></trkpt><trkpt lat="55.7879968" lon="49.2435556"><time>2026-01-18T09:15:57.033</time></trkpt><trkpt lat="55.7879940" lon="49.2436655"><time>2026-01-18T09:15:59.040</time></trkpt><trkpt lat="55.7879809" lon="49.2437633"><time>2026-01-18T09:16:01.043</time></trkpt><trkpt lat="55.7879832" lon="49.2438494"><time>2026-01-18T09:16:03.040</time></trkpt><trkpt lat="55.7879897" lon="49.2439407"><time>2026-01-18T09:16:05.040</time></trkpt><trkpt lat="55.7880006" lon="49.2440391"><time>2026-01-18T09:16:07.050</time></trkpt><trkpt lat="55.7880099" lon="49.2441415"><time>2026-01-18T09:16:09.023</time></trkpt><trkpt lat="55.7880134" lon="49.2442626"><time>2026-01-18T09:16:11.040</time></trkpt><trkpt lat="55.7880109" lon="49.2443802"><time>2026-01-18T09:16:13.037</time></trkpt><trkpt lat="55.7880179" lon="49.2444623"><time>2026-01-18T09:16:15.020</time></trkpt><trkpt lat="55.7880308" lon="49.2445455"><time>2026-01-18T09:16:17.050</time></trkpt><trkpt lat="55.7880369" lon="49.2446323"><time>2026-01-18T09:16:19.023</time></trkpt><trkpt lat="55.7880513" lon="49.2447436"><time>2026-01-18T09:16:21.040</time></trkpt><trkpt lat="55.7880743" lon="49.2448526"><time>2026-01-18T09:16:23.043</time></trkpt><trkpt lat="55.7881051" lon="49.2449513"><time>2026-01-18T09:16:25.060</time></trkpt><trkpt lat="55.7881249" lon="49.2450311"><time>2026-01-18T09:16:27.043</time></trkpt><trkpt lat="55.7881428" lon="49.2451063"><time>2026-01-18T09:16:29.027</time></trkpt><trkpt lat="55.7881677" lon="49.2452190"><time>2026-01-18T09:16:32.037</time></trkpt><trkpt lat="55.7881879" lon="49.2453057"><time>2026-01-18T09:16:34.040</time></trkpt><trkpt lat="55.7882046" lon="49.2453895"><time>2026-01-18T09:16:36.050</time></trkpt><trkpt lat="55.7882095" lon="49.2454990"><time>2026-01-18T09:16:39.053</time></trkpt><trkpt lat="55.7881624" lon="49.2455217"><time>2026-01-18T09:16:47.047</time></trkpt><trkpt lat="55.7881203" lon="49.2455639"><time>2026-01-18T09:16:50.047</time></trkpt><trkpt lat="55.7880763" lon="49.2455999"><time>2026-01-18T09:16:52.043</time></trkpt><trkpt lat="55.7880300" lon="49.2456517"><time>2026-01-18T09:16:54.080</time></trkpt><trkpt lat="55.7879791" lon="49.2457089"><time>2026-01-18T09:16:56.023</time></trkpt><trkpt lat="55.7879264" lon="49.2457629"><time>2026-01-18T09:16:58.047</time></trkpt><trkpt lat="55.7878783" lon="49.2458117"><time>2026-01-18T09:17:00.067</time></trkpt><trkpt lat="55.7878355" lon="49.2458609"><time>2026-01-18T09:17:02.057</time></trkpt><trkpt lat="55.7877880" lon="49.2459047"><time>2026-01-18T09:17:04.047</time></trkpt><trkpt lat="55.7877400" lon="49.2459580"><time>2026-01-18T09:17:06.077</time></trkpt><trkpt lat="55.7876975" lon="49.2460023"><time>2026-01-18T09:17:08.050</time></trkpt><trkpt lat="55.7876337" lon="49.2460582"><time>2026-01-18T09:17:10.037</time></trkpt><trkpt lat="55.7875735" lon="49.2461137"><time>2026-01-18T09:17:13.013</time></trkpt><trkpt lat="55.7875326" lon="49.2461659"><time>2026-01-18T09:17:15.053</time></trkpt><trkpt lat="55.7874931" lon="49.2462140"><time>2026-01-18T09:17:17.020</time></trkpt><trkpt lat="55.7874517" lon="49.2462641"><time>2026-01-18T09:17:19.047</time></trkpt><trkpt lat="55.7874121" lon="49.2463127"><time>2026-01-18T09:17:21.050</time></trkpt><trkpt lat="55.7873743" lon="49.2463667"><time>2026-01-18T09:17:23.050</time></trkpt><trkpt lat="55.7873373" lon="49.2464205"><time>2026-01-18T09:17:25.023</time></trkpt><trkpt lat="55.7872860" lon="49.2464833"><time>2026-01-18T09:17:28.057</time></trkpt><trkpt lat="55.7872329" lon="49.2465327"><time>2026-01-18T09:17:30.040</time></trkpt><trkpt lat="55.7871772" lon="49.2465791"><time>2026-01-18T09:17:32.053</time></trkpt><trkpt lat="55.7871299" lon="49.2466183"><time>2026-01-18T09:17:34.047</time></trkpt><trkpt lat="55.7870844" lon="49.2466640"><time>2026-01-18T09:17:36.050</time></trkpt><trkpt lat="55.7870390" lon="49.2467174"><time>2026-01-18T09:17:38.053</time></trkpt><trkpt lat="55.7869933" lon="49.2467644"><time>2026-01-18T09:17:40.043</time></trkpt><trkpt lat="55.7869501" lon="49.2468103"><time>2026-01-18T09:17:42.027</time></trkpt><trkpt lat="55.7869050" lon="49.2468584"><time>2026-01-18T09:17:44.053</time></trkpt><trkpt lat="55.7868499" lon="49.2469235"><time>2026-01-18T09:17:46.047</time></trkpt><trkpt lat="55.7868061" lon="49.2469653"><time>2026-01-18T09:17:48.037</time></trkpt><trkpt lat="55.7867583" lon="49.2470155"><time>2026-01-18T09:17:50.047</time></trkpt><trkpt lat="55.7867082" lon="49.2470523"><time>2026-01-18T09:17:52.033</time></trkpt><trkpt lat="55.7866595" lon="49.2470845"><time>2026-01-18T09:17:54.047</time></trkpt><trkpt lat="55.7866128" lon="49.2471315"><time>2026-01-18T09:17:56.047</time></trkpt><trkpt lat="55.7865647" lon="49.2471673"><time>2026-01-18T09:17:58.050</time></trkpt><trkpt lat="55.7865166" lon="49.2471918"><time>2026-01-18T09:18:00.027</time></trkpt><trkpt lat="55.7864697" lon="49.2472130"><time>2026-01-18T09:18:02.050</time></trkpt><trkpt lat="55.7864204" lon="49.2472439"><time>2026-01-18T09:18:04.040</time></trkpt><trkpt lat="55.7863706" lon="49.2472777"><time>2026-01-18T09:18:06.050</time></trkpt><trkpt lat="55.7863243" lon="49.2473098"><time>2026-01-18T09:18:08.063</time></trkpt><trkpt lat="55.7862758" lon="49.2473379"><time>2026-01-18T09:18:10.050</time></trkpt><trkpt lat="55.7862310" lon="49.2473651"><time>2026-01-18T09:18:12.050</time></trkpt><trkpt lat="55.7861873" lon="49.2473925"><time>2026-01-18T09:18:14.073</time></trkpt><trkpt lat="55.7861406" lon="49.2474137"><time>2026-01-18T09:18:16.050</time></trkpt><trkpt lat="55.7860977" lon="49.2474396"><time>2026-01-18T09:18:18.020</time></trkpt><trkpt lat="55.7860417" lon="49.2474351"><time>2026-01-18T09:18:19.023</time></trkpt><trkpt lat="55.7859946" lon="49.2474561"><time>2026-01-18T09:18:21.040</time></trkpt><trkpt lat="55.7859377" lon="49.2474917"><time>2026-01-18T09:18:24.050</time></trkpt><trkpt lat="55.7858750" lon="49.2475307"><time>2026-01-18T09:18:27.047</time></trkpt><trkpt lat="55.7858296" lon="49.2475650"><time>2026-01-18T09:18:29.057</time></trkpt><trkpt lat="55.7857865" lon="49.2476075"><time>2026-01-18T09:18:31.047</time></trkpt><trkpt lat="55.7857405" lon="49.2476423"><time>2026-01-18T09:18:33.047</time></trkpt><trkpt lat="55.7856910" lon="49.2476696"><time>2026-01-18T09:18:35.027</time></trkpt><trkpt lat="55.7856397" lon="49.2476901"><time>2026-01-18T09:18:37.053</time></trkpt><trkpt lat="55.7855939" lon="49.2477148"><time>2026-01-18T09:18:39.047</time></trkpt><trkpt lat="55.7855377" lon="49.2477302"><time>2026-01-18T09:18:41.037</time></trkpt><trkpt lat="55.7854866" lon="49.2477518"><time>2026-01-18T09:18:43.033</time></trkpt><trkpt lat="55.7854424" lon="49.2477730"><time>2026-01-18T09:18:45.037</time></trkpt><trkpt lat="55.7853972" lon="49.2477656"><time>2026-01-18T09:18:48.063</time></trkpt><trkpt lat="55.7853557" lon="49.2477976"><time>2026-01-18T09:19:07.023</time></trkpt><trkpt lat="55.7853194" lon="49.2478542"><time>2026-01-18T09:19:12.053</time></trkpt><trkpt lat="55.7852654" lon="49.2478705"><time>2026-01-18T09:19:14.027</time></trkpt><trkpt lat="55.7852160" lon="49.2478954"><time>2026-01-18T09:19:16.017</time></trkpt><trkpt lat="55.7851682" lon="49.2479136"><time>2026-01-18T09:19:18.023</time></trkpt><trkpt lat="55.7851251" lon="49.2479418"><time>2026-01-18T09:19:20.023</time></trkpt><trkpt lat="55.7850793" lon="49.2479539"><time>2026-01-18T09:19:22.047</time></trkpt><trkpt lat="55.7850266" lon="49.2479630"><time>2026-01-18T09:19:24.033</time></trkpt><trkpt lat="55.7849794" lon="49.2479824"><time>2026-01-18T09:19:26.027</time></trkpt><trkpt lat="55.7849380" lon="49.2480310"><time>2026-01-18T09:19:29.033</time></trkpt><trkpt lat="55.7848829" lon="49.2480571"><time>2026-01-18T09:19:31.070</time></trkpt><trkpt lat="55.7848193" lon="49.2480856"><time>2026-01-18T09:19:33.030</time></trkpt><trkpt lat="55.7847605" lon="49.2481045"><time>2026-01-18T09:19:35.053</time></trkpt><trkpt lat="55.7847054" lon="49.2481145"><time>2026-01-18T09:19:37.073</time></trkpt><trkpt lat="55.7846473" lon="49.2481304"><time>2026-01-18T09:19:39.053</time></trkpt><trkpt lat="55.7845915" lon="49.2481414"><time>2026-01-18T09:19:41.050</time></trkpt><trkpt lat="55.7845385" lon="49.2481505"><time>2026-01-18T09:19:43.070</time></trkpt><trkpt lat="55.7844897" lon="49.2481476"><time>2026-01-18T09:19:45.047</time></trkpt><trkpt lat="55.7844446" lon="49.2481383"><time>2026-01-18T09:19:47.047</time></trkpt><trkpt lat="55.7843840" lon="49.2480989"><time>2026-01-18T09:19:50.040</time></trkpt><trkpt lat="55.7843406" lon="49.2480690"><time>2026-01-18T09:19:53.040</time></trkpt><trkpt lat="55.7842668" lon="49.2480421"><time>2026-01-18T09:19:56.027</time></trkpt><trkpt lat="55.7842225" lon="49.2480173"><time>2026-01-18T09:19:57.010</time></trkpt><trkpt lat="55.7841703" lon="49.2480098"><time>2026-01-18T09:19:59.057</time></trkpt><trkpt lat="55.7841239" lon="49.2480038"><time>2026-01-18T09:20:01.013</time></trkpt><trkpt lat="55.7840717" lon="49.2479838"><time>2026-01-18T09:20:03.047</time></trkpt><trkpt lat="55.7840160" lon="49.2479639"><time>2026-01-18T09:20:05.033</time></trkpt><trkpt lat="55.7839702" lon="49.2479697"><time>2026-01-18T09:20:07.050</time></trkpt><trkpt lat="55.7839252" lon="49.2479747"><time>2026-01-18T09:20:09.043</time></trkpt><trkpt lat="55.7838752" lon="49.2479758"><time>2026-01-18T09:20:11.047</time></trkpt><trkpt lat="55.7838233" lon="49.2479671"><time>2026-01-18T09:20:13.047</time></trkpt><trkpt lat="55.7837705" lon="49.2479694"><time>2026-01-18T09:20:15.077</time></trkpt><trkpt lat="55.7837140" lon="49.2479640"><time>2026-01-18T09:20:17.050</time></trkpt><trkpt lat="55.7836614" lon="49.2479752"><time>2026-01-18T09:20:19.050</time></trkpt><trkpt lat="55.7836077" lon="49.2479867"><time>2026-01-18T09:20:21.040</time></trkpt><trkpt lat="55.7835532" lon="49.2479823"><time>2026-01-18T09:20:23.043</time></trkpt><trkpt lat="55.7834970" lon="49.2479781"><time>2026-01-18T09:20:25.043</time></trkpt><trkpt lat="55.7834447" lon="49.2479809"><time>2026-01-18T09:20:27.037</time></trkpt><trkpt lat="55.7833956" lon="49.2479848"><time>2026-01-18T09:20:29.050</time></trkpt><trkpt lat="55.7833467" lon="49.2479817"><time>2026-01-18T09:20:31.043</time></trkpt><trkpt lat="55.7832980" lon="49.2479797"><time>2026-01-18T09:20:33.027</time></trkpt><trkpt lat="55.7832468" lon="49.2479833"><time>2026-01-18T09:20:35.047</time></trkpt><trkpt lat="55.7831814" lon="49.2479579"><time>2026-01-18T09:20:36.050</time></trkpt><trkpt lat="55.7831334" lon="49.2479462"><time>2026-01-18T09:20:37.047</time></trkpt><trkpt lat="55.7830833" lon="49.2479477"><time>2026-01-18T09:20:39.047</time></trkpt><trkpt lat="55.7830342" lon="49.2479472"><time>2026-01-18T09:20:41.047</time></trkpt><trkpt lat="55.7829824" lon="49.2479443"><time>2026-01-18T09:20:43.077</time></trkpt><trkpt lat="55.7829284" lon="49.2479417"><time>2026-01-18T09:20:44.047</time></trkpt><trkpt lat="55.7828696" lon="49.2479354"><time>2026-01-18T09:20:46.037</time></trkpt><trkpt lat="55.7828220" lon="49.2479354"><time>2026-01-18T09:20:48.053</time></trkpt><trkpt lat="55.7827609" lon="49.2479174"><time>2026-01-18T09:20:50.023</time></trkpt><trkpt lat="55.7827070" lon="49.2479091"><time>2026-01-18T09:20:52.023</time></trkpt><trkpt lat="55.7826548" lon="49.2479010"><time>2026-01-18T09:20:54.037</time></trkpt><trkpt lat="55.7826081" lon="49.2478933"><time>2026-01-18T09:20:56.047</time></trkpt><trkpt lat="55.7825469" lon="49.2478950"><time>2026-01-18T09:20:59.043</time></trkpt><trkpt lat="55.7824930" lon="49.2478848"><time>2026-01-18T09:21:01.077</time></trkpt><trkpt lat="55.7824411" lon="49.2478756"><time>2026-01-18T09:21:03.050</time></trkpt><trkpt lat="55.7823949" lon="49.2478785"><time>2026-01-18T09:21:05.027</time></trkpt><trkpt lat="55.7823501" lon="49.2478910"><time>2026-01-18T09:21:07.077</time></trkpt><trkpt lat="55.7822898" lon="49.2478987"><time>2026-01-18T09:21:10.040</time></trkpt><trkpt lat="55.7822355" lon="49.2478929"><time>2026-01-18T09:21:13.077</time></trkpt><trkpt lat="55.7821703" lon="49.2478875"><time>2026-01-18T09:21:16.047</time></trkpt><trkpt lat="55.7821087" lon="49.2478890"><time>2026-01-18T09:21:18.047</time></trkpt><trkpt lat="55.7820666" lon="49.2479570"><time>2026-01-18T09:21:21.047</time></trkpt><trkpt lat="55.7820542" lon="49.2480718"><time>2026-01-18T09:21:23.020</time></trkpt><trkpt lat="55.7820556" lon="49.2481747"><time>2026-01-18T09:21:27.017</time></trkpt><trkpt lat="55.7820497" lon="49.2482765"><time>2026-01-18T09:21:30.023</time></trkpt><trkpt lat="55.7820546" lon="49.2483859"><time>2026-01-18T09:21:33.033</time></trkpt><trkpt lat="55.7820512" lon="49.2484340"><time>2026-01-18T09:21:36.490</time></trkpt><trkpt lat="55.7820517" lon="49.2482965"><time>2026-01-18T09:21:45.040</time></trkpt><trkpt lat="55.7820618" lon="49.2482176"><time>2026-01-18T09:21:47.040</time></trkpt><trkpt lat="55.7820646" lon="49.2481245"><time>2026-01-18T09:21:50.047</time></trkpt><trkpt lat="55.7820600" lon="49.2480430"><time>2026-01-18T09:21:51.023</time></trkpt><trkpt lat="55.7820311" lon="49.2479213"><time>2026-01-18T09:21:53.040</time></trkpt><trkpt lat="55.7819613" lon="49.2478340"><time>2026-01-18T09:21:55.033</time></trkpt><trkpt lat="55.7819104" lon="49.2477733"><time>2026-01-18T09:22:01.043</time></trkpt><trkpt lat="55.7818813" lon="49.2476831"><time>2026-01-18T09:22:05.053</time></trkpt><trkpt lat="55.7818796" lon="49.2475972"><time>2026-01-18T09:22:07.080</time></trkpt><trkpt lat="55.7818874" lon="49.2475110"><time>2026-01-18T09:22:09.040</time></trkpt><trkpt lat="55.7818885" lon="49.2473959"><time>2026-01-18T09:22:12.050</time></trkpt><trkpt lat="55.7818870" lon="49.2472964"><time>2026-01-18T09:22:15.020</time></trkpt><trkpt lat="55.7818970" lon="49.2471948"><time>2026-01-18T09:22:18.047</time></trkpt><trkpt lat="55.7819004" lon="49.2471032"><time>2026-01-18T09:22:22.023</time></trkpt><trkpt lat="55.7819072" lon="49.2470003"><time>2026-01-18T09:22:25.073</time></trkpt><trkpt lat="55.7819047" lon="49.2469106"><time>2026-01-18T09:22:26.047</time></trkpt><trkpt lat="55.7818911" lon="49.2468324"><time>2026-01-18T09:22:27.047</time></trkpt><trkpt lat="55.7818760" lon="49.2467332"><time>2026-01-18T09:22:29.047</time></trkpt><trkpt lat="55.7818735" lon="49.2466405"><time>2026-01-18T09:22:31.080</time></trkpt><trkpt lat="55.7818767" lon="49.2465299"><time>2026-01-18T09:22:34.060</time></trkpt><trkpt lat="55.7818895" lon="49.2464438"><time>2026-01-18T09:22:36.050</time></trkpt><trkpt lat="55.7818945" lon="49.2463639"><time>2026-01-18T09:22:38.043</time></trkpt><trkpt lat="55.7819059" lon="49.2462773"><time>2026-01-18T09:22:40.047</time></trkpt><trkpt lat="55.7819120" lon="49.2461922"><time>2026-01-18T09:22:42.083</time></trkpt><trkpt lat="55.7819084" lon="49.2461076"><time>2026-01-18T09:22:44.050</time></trkpt><trkpt lat="55.7819005" lon="49.2460170"><time>2026-01-18T09:22:46.027</time></trkpt><trkpt lat="55.7818964" lon="49.2459159"><time>2026-01-18T09:22:49.050</time></trkpt><trkpt lat="55.7818982" lon="49.2458007"><time>2026-01-18T09:22:52.053</time></trkpt><trkpt lat="55.7818950" lon="49.2457152"><time>2026-01-18T09:22:54.077</time></trkpt><trkpt lat="55.7819006" lon="49.2456224"><time>2026-01-18T09:22:57.050</time></trkpt><trkpt lat="55.7819096" lon="49.2455283"><time>2026-01-18T09:22:59.057</time></trkpt><trkpt lat="55.7819122" lon="49.2454160"><time>2026-01-18T09:23:01.053</time></trkpt><trkpt lat="55.7819119" lon="49.2453031"><time>2026-01-18T09:23:03.047</time></trkpt><trkpt lat="55.7819124" lon="49.2452078"><time>2026-01-18T09:23:06.077</time></trkpt><trkpt lat="55.7819080" lon="49.2451162"><time>2026-01-18T09:23:09.050</time></trkpt><trkpt lat="55.7819005" lon="49.2450106"><time>2026-01-18T09:23:12.077</time></trkpt><trkpt lat="55.7818927" lon="49.2449301"><time>2026-01-18T09:23:14.057</time></trkpt><trkpt lat="55.7818967" lon="49.2448479"><time>2026-01-18T09:23:15.037</time></trkpt><trkpt lat="55.7819107" lon="49.2447366"><time>2026-01-18T09:23:17.027</time></trkpt><trkpt lat="55.7819160" lon="49.2446561"><time>2026-01-18T09:23:19.047</time></trkpt><trkpt lat="55.7819114" lon="49.2445431"><time>2026-01-18T09:23:22.043</time></trkpt><trkpt lat="55.7819141" lon="49.2444333"><time>2026-01-18T09:23:25.033</time></trkpt><trkpt lat="55.7819168" lon="49.2443274"><time>2026-01-18T09:23:28.050</time></trkpt><trkpt lat="55.7819205" lon="49.2442045"><time>2026-01-18T09:23:31.020</time></trkpt><trkpt lat="55.7819217" lon="49.2441128"><time>2026-01-18T09:23:33.013</time></trkpt><trkpt lat="55.7819289" lon="49.2440233"><time>2026-01-18T09:23:35.050</time></trkpt><trkpt lat="55.7819332" lon="49.2439382"><time>2026-01-18T09:23:37.027</time></trkpt><trkpt lat="55.7819318" lon="49.2438577"><time>2026-01-18T09:23:39.023</time></trkpt><trkpt lat="55.7819349" lon="49.2437471"><time>2026-01-18T09:23:42.047</time></trkpt><trkpt lat="55.7819365" lon="49.2436310"><time>2026-01-18T09:23:45.053</time></trkpt><trkpt lat="55.7819324" lon="49.2435197"><time>2026-01-18T09:23:47.047</time></trkpt><trkpt lat="55.7819274" lon="49.2434152"><time>2026-01-18T09:23:49.050</time></trkpt><trkpt lat="55.7819241" lon="49.2433270"><time>2026-01-18T09:23:51.080</time></trkpt><trkpt lat="55.7819318" lon="49.2432322"><time>2026-01-18T09:23:53.047</time></trkpt><trkpt lat="55.7819340" lon="49.2431490"><time>2026-01-18T09:23:55.047</time></trkpt><trkpt lat="55.7819410" lon="49.2430559"><time>2026-01-18T09:23:57.047</time></trkpt><trkpt lat="55.7819451" lon="49.2429763"><time>2026-01-18T09:23:59.053</time></trkpt><trkpt lat="55.7819520" lon="49.2428884"><time>2026-01-18T09:24:01.050</time></trkpt><trkpt lat="55.7819523" lon="49.2428026"><time>2026-01-18T09:24:03.047</time></trkpt><trkpt lat="55.7819489" lon="49.2427188"><time>2026-01-18T09:24:05.043</time></trkpt><trkpt lat="55.7819377" lon="49.2426167"><time>2026-01-18T09:24:07.047</time></trkpt><trkpt lat="55.7819300" lon="49.2425146"><time>2026-01-18T09:24:09.050</time></trkpt><trkpt lat="55.7819248" lon="49.2424255"><time>2026-01-18T09:24:11.040</time></trkpt><trkpt lat="55.7819271" lon="49.2423329"><time>2026-01-18T09:24:13.050</time></trkpt><trkpt lat="55.7819302" lon="49.2422475"><time>2026-01-18T09:24:15.027</time></trkpt><trkpt lat="55.7819329" lon="49.2421555"><time>2026-01-18T09:24:17.033</time></trkpt><trkpt lat="55.7819378" lon="49.2420466"><time>2026-01-18T09:24:19.050</time></trkpt><trkpt lat="55.7819483" lon="49.2419448"><time>2026-01-18T09:24:21.043</time></trkpt><trkpt lat="55.7819443" lon="49.2418321"><time>2026-01-18T09:24:24.050</time></trkpt><trkpt lat="55.7819405" lon="49.2417193"><time>2026-01-18T09:24:27.047</time></trkpt><trkpt lat="55.7819399" lon="49.2416312"><time>2026-01-18T09:24:29.050</time></trkpt><trkpt lat="55.7819351" lon="49.2415337"><time>2026-01-18T09:24:31.047</time></trkpt><trkpt lat="55.7819318" lon="49.2414383"><time>2026-01-18T09:24:33.033</time></trkpt><trkpt lat="55.7819411" lon="49.2413398"><time>2026-01-18T09:24:35.053</time></trkpt><trkpt lat="55.7819508" lon="49.2412490"><time>2026-01-18T09:24:37.073</time></trkpt><trkpt lat="55.7819512" lon="49.2411502"><time>2026-01-18T09:24:39.050</time></trkpt><trkpt lat="55.7819551" lon="49.2410487"><time>2026-01-18T09:24:41.023</time></trkpt><trkpt lat="55.7819595" lon="49.2409423"><time>2026-01-18T09:24:43.047</time></trkpt><trkpt lat="55.7819617" lon="49.2408571"><time>2026-01-18T09:24:45.047</time></trkpt><trkpt lat="55.7819639" lon="49.2407658"><time>2026-01-18T09:24:47.047</time></trkpt><trkpt lat="55.7819656" lon="49.2406768"><time>2026-01-18T09:24:49.040</time></trkpt><trkpt lat="55.7819691" lon="49.2405813"><time>2026-01-18T09:24:51.030</time></trkpt><trkpt lat="55.7819705" lon="49.2404896"><time>2026-01-18T09:24:53.033</time></trkpt><trkpt lat="55.7819764" lon="49.2403928"><time>2026-01-18T09:24:55.023</time></trkpt><trkpt lat="55.7819753" lon="49.2403063"><time>2026-01-18T09:24:57.037</time></trkpt><trkpt lat="55.7819852" lon="49.2401801"><time>2026-01-18T09:25:00.060</time></trkpt><trkpt lat="55.7819990" lon="49.2400877"><time>2026-01-18T09:25:02.050</time></trkpt><trkpt lat="55.7820029" lon="49.2399994"><time>2026-01-18T09:25:04.047</time></trkpt><trkpt lat="55.7820006" lon="49.2399150"><time>2026-01-18T09:25:06.047</time></trkpt><trkpt lat="55.7819943" lon="49.2398357"><time>2026-01-18T09:25:08.047</time></trkpt><trkpt lat="55.7819896" lon="49.2397443"><time>2026-01-18T09:25:10.027</time></trkpt><trkpt lat="55.7819893" lon="49.2396575"><time>2026-01-18T09:25:12.047</time></trkpt><trkpt lat="55.7819911" lon="49.2395445"><time>2026-01-18T09:25:15.033</time></trkpt><trkpt lat="55.7819915" lon="49.2394569"><time>2026-01-18T09:25:18.040</time></trkpt><trkpt lat="55.7819887" lon="49.2393527"><time>2026-01-18T09:25:21.043</time></trkpt><trkpt lat="55.7819763" lon="49.2392470"><time>2026-01-18T09:25:24.047</time></trkpt><trkpt lat="55.7819657" lon="49.2391690"><time>2026-01-18T09:25:26.047</time></trkpt><trkpt lat="55.7819662" lon="49.2390551"><time>2026-01-18T09:25:28.037</time></trkpt><trkpt lat="55.7819638" lon="49.2389732"><time>2026-01-18T09:25:30.053</time></trkpt><trkpt lat="55.7819528" lon="49.2388862"><time>2026-01-18T09:25:32.053</time></trkpt><trkpt lat="55.7819442" lon="49.2387955"><time>2026-01-18T09:25:34.070</time></trkpt><trkpt lat="55.7819433" lon="49.2387048"><time>2026-01-18T09:25:36.053</time></trkpt><trkpt lat="55.7819447" lon="49.2386141"><time>2026-01-18T09:25:38.057</time></trkpt><trkpt lat="55.7819563" lon="49.2385254"><time>2026-01-18T09:25:40.073</time></trkpt><trkpt lat="55.7819566" lon="49.2384425"><time>2026-01-18T09:25:42.053</time></trkpt><trkpt lat="55.7819557" lon="49.2383543"><time>2026-01-18T09:25:44.050</time></trkpt><trkpt lat="55.7819645" lon="49.2382585"><time>2026-01-18T09:25:46.073</time></trkpt><trkpt lat="55.7819684" lon="49.2381746"><time>2026-01-18T09:25:48.047</time></trkpt><trkpt lat="55.7819263" lon="49.2381373"><time>2026-01-18T09:25:51.050</time></trkpt><trkpt lat="55.7818695" lon="49.2381608"><time>2026-01-18T09:25:54.050</time></trkpt><trkpt lat="55.7818046" lon="49.2381937"><time>2026-01-18T09:25:57.070</time></trkpt><trkpt lat="55.7817581" lon="49.2382138"><time>2026-01-18T09:25:59.047</time></trkpt><trkpt lat="55.7817130" lon="49.2382242"><time>2026-01-18T09:26:01.033</time></trkpt><trkpt lat="55.7816642" lon="49.2382295"><time>2026-01-18T09:26:03.057</time></trkpt><trkpt lat="55.7816157" lon="49.2382277"><time>2026-01-18T09:26:05.033</time></trkpt><trkpt lat="55.7815519" lon="49.2382499"><time>2026-01-18T09:26:08.027</time></trkpt><trkpt lat="55.7815080" lon="49.2382673"><time>2026-01-18T09:26:10.023</time></trkpt><trkpt lat="55.7814868" lon="49.2383404"><time>2026-01-18T09:26:13.053</time></trkpt><trkpt lat="55.7815112" lon="49.2384258"><time>2026-01-18T09:26:28.017</time></trkpt><trkpt lat="55.7815185" lon="49.2384455"><time>2026-01-18T09:26:31.647</time></trkpt><trkpt lat="55.7814949" lon="49.2383489"><time>2026-01-18T09:26:46.017</time></trkpt><trkpt lat="55.7814996" lon="49.2382550"><time>2026-01-18T09:26:51.027</time></trkpt><trkpt lat="55.7815244" lon="49.2381820"><time>2026-01-18T09:26:56.047</time></trkpt><trkpt lat="55.7814778" lon="49.2381460"><time>2026-01-18T09:27:00.053</time></trkpt><trkpt lat="55.7814510" lon="49.2380808"><time>2026-01-18T09:27:09.063</time></trkpt><trkpt lat="55.7814032" lon="49.2380612"><time>2026-01-18T09:27:14.050</time></trkpt><trkpt lat="55.7813574" lon="49.2380427"><time>2026-01-18T09:27:17.040</time></trkpt><trkpt lat="55.7813011" lon="49.2379795"><time>2026-01-18T09:27:20.053</time></trkpt><trkpt lat="55.7812572" lon="49.2379374"><time>2026-01-18T09:27:23.047</time></trkpt><trkpt lat="55.7812103" lon="49.2379224"><time>2026-01-18T09:27:26.053</time></trkpt><trkpt lat="55.7811543" lon="49.2379026"><time>2026-01-18T09:27:28.040</time></trkpt><trkpt lat="55.7810704" lon="49.2378935"><time>2026-01-18T09:27:30.050</time></trkpt><trkpt lat="55.7810017" lon="49.2378816"><time>2026-01-18T09:27:32.050</time></trkpt><trkpt lat="55.7809452" lon="49.2378599"><time>2026-01-18T09:27:34.037</time></trkpt><trkpt lat="55.7808640" lon="49.2378015"><time>2026-01-18T09:27:39.077</time></trkpt><trkpt lat="55.7807824" lon="49.2377713"><time>2026-01-18T09:27:41.043</time></trkpt><trkpt lat="55.7807373" lon="49.2377571"><time>2026-01-18T09:27:42.043</time></trkpt><trkpt lat="55.7806628" lon="49.2377786"><time>2026-01-18T09:27:44.043</time></trkpt><trkpt lat="55.7806210" lon="49.2378601"><time>2026-01-18T09:27:46.040</time></trkpt><trkpt lat="55.7805994" lon="49.2379644"><time>2026-01-18T09:27:48.047</time></trkpt><trkpt lat="55.7805886" lon="49.2380594"><time>2026-01-18T09:27:50.080</time></trkpt><trkpt lat="55.7805779" lon="49.2381501"><time>2026-01-18T09:27:52.047</time></trkpt><trkpt lat="55.7805574" lon="49.2382660"><time>2026-01-18T09:27:55.037</time></trkpt><trkpt lat="55.7805255" lon="49.2383336"><time>2026-01-18T09:27:58.030</time></trkpt><trkpt lat="55.7804683" lon="49.2383353"><time>2026-01-18T09:28:01.020</time></trkpt><trkpt lat="55.7804190" lon="49.2383843"><time>2026-01-18T09:28:04.043</time></trkpt><trkpt lat="55.7804034" lon="49.2385044"><time>2026-01-18T09:28:07.027</time></trkpt><trkpt lat="55.7803995" lon="49.2386053"><time>2026-01-18T09:28:09.053</time></trkpt><trkpt lat="55.7803919" lon="49.2387013"><time>2026-01-18T09:28:11.050</time></trkpt><trkpt lat="55.7803864" lon="49.2387928"><time>2026-01-18T09:28:13.047</time></trkpt><trkpt lat="55.7803779" lon="49.2388844"><time>2026-01-18T09:28:15.033</time></trkpt><trkpt lat="55.7803487" lon="49.2389505"><time>2026-01-18T09:28:17.043</time></trkpt><trkpt lat="55.7803068" lon="49.2390089"><time>2026-01-18T09:28:19.047</time></trkpt><trkpt lat="55.7802739" lon="49.2390842"><time>2026-01-18T09:28:21.053</time></trkpt><trkpt lat="55.7802566" lon="49.2391692"><time>2026-01-18T09:28:23.050</time></trkpt><trkpt lat="55.7802236" lon="49.2392965"><time>2026-01-18T09:28:26.043</time></trkpt><trkpt lat="55.7801958" lon="49.2393937"><time>2026-01-18T09:28:28.043</time></trkpt><trkpt lat="55.7801487" lon="49.2394361"><time>2026-01-18T09:28:30.040</time></trkpt><trkpt lat="55.7800955" lon="49.2394647"><time>2026-01-18T09:28:32.047</time></trkpt><trkpt lat="55.7800434" lon="49.2395016"><time>2026-01-18T09:28:34.047</time></trkpt><trkpt lat="55.7799941" lon="49.2395209"><time>2026-01-18T09:28:36.053</time></trkpt><trkpt lat="55.7799411" lon="49.2395193"><time>2026-01-18T09:28:38.047</time></trkpt><trkpt lat="55.7798897" lon="49.2394985"><time>2026-01-18T09:28:40.040</time></trkpt><trkpt lat="55.7798379" lon="49.2394882"><time>2026-01-18T09:28:42.047</time></trkpt><trkpt lat="55.7797830" lon="49.2394788"><time>2026-01-18T09:28:44.047</time></trkpt><trkpt lat="55.7797312" lon="49.2394624"><time>2026-01-18T09:28:46.047</time></trkpt><trkpt lat="55.7796736" lon="49.2394278"><time>2026-01-18T09:28:48.027</time></trkpt><trkpt lat="55.7796168" lon="49.2393702"><time>2026-01-18T09:28:49.057</time></trkpt><trkpt lat="55.7795632" lon="49.2393484"><time>2026-01-18T09:28:51.050</time></trkpt><trkpt lat="55.7795181" lon="49.2393359"><time>2026-01-18T09:28:53.047</time></trkpt><trkpt lat="55.7794852" lon="49.2392760"><time>2026-01-18T09:28:55.043</time></trkpt><trkpt lat="55.7794663" lon="49.2391973"><time>2026-01-18T09:28:57.050</time></trkpt><trkpt lat="55.7794575" lon="49.2390895"><time>2026-01-18T09:29:00.047</time></trkpt><trkpt lat="55.7794659" lon="49.2389963"><time>2026-01-18T09:29:02.047</time></trkpt><trkpt lat="55.7794788" lon="49.2389060"><time>2026-01-18T09:29:04.050</time></trkpt><trkpt lat="55.7794961" lon="49.2388224"><time>2026-01-18T09:29:06.057</time></trkpt><trkpt lat="55.7795138" lon="49.2387444"><time>2026-01-18T09:29:08.050</time></trkpt><trkpt lat="55.7795269" lon="49.2386614"><time>2026-01-18T09:29:10.043</time></trkpt><trkpt lat="55.7795424" lon="49.2385708"><time>2026-01-18T09:29:12.023</time></trkpt><trkpt lat="55.7795488" lon="49.2384846"><time>2026-01-18T09:29:14.050</time></trkpt><trkpt lat="55.7795623" lon="49.2383700"><time>2026-01-18T09:29:17.073</time></trkpt><trkpt lat="55.7795602" lon="49.2382764"><time>2026-01-18T09:29:19.047</time></trkpt><trkpt lat="55.7795263" lon="49.2381972"><time>2026-01-18T09:29:21.047</time></trkpt><trkpt lat="55.7794826" lon="49.2381632"><time>2026-01-18T09:29:23.043</time></trkpt><trkpt lat="55.7794326" lon="49.2381458"><time>2026-01-18T09:29:25.017</time></trkpt><trkpt lat="55.7793806" lon="49.2381150"><time>2026-01-18T09:29:27.027</time></trkpt><trkpt lat="55.7793273" lon="49.2380811"><time>2026-01-18T09:29:29.047</time></trkpt><trkpt lat="55.7792818" lon="49.2380688"><time>2026-01-18T09:29:31.053</time></trkpt><trkpt lat="55.7792367" lon="49.2380654"><time>2026-01-18T09:29:33.030</time></trkpt><trkpt lat="55.7791909" lon="49.2380440"><time>2026-01-18T09:29:35.033</time></trkpt><trkpt lat="55.7791344" lon="49.2380129"><time>2026-01-18T09:29:38.057</time></trkpt><trkpt lat="55.7790814" lon="49.2379838"><time>2026-01-18T09:29:40.077</time></trkpt><trkpt lat="55.7790342" lon="49.2379666"><time>2026-01-18T09:29:42.047</time></trkpt><trkpt lat="55.7789826" lon="49.2379416"><time>2026-01-18T09:29:44.047</time></trkpt><trkpt lat="55.7789255" lon="49.2379164"><time>2026-01-18T09:29:46.067</time></trkpt><trkpt lat="55.7788719" lon="49.2379044"><time>2026-01-18T09:29:48.043</time></trkpt><trkpt lat="55.7788208" lon="49.2379053"><time>2026-01-18T09:29:50.047</time></trkpt><trkpt lat="55.7787751" lon="49.2378818"><time>2026-01-18T09:29:52.070</time></trkpt><trkpt lat="55.7787241" lon="49.2378492"><time>2026-01-18T09:29:54.047</time></trkpt><trkpt lat="55.7786707" lon="49.2378133"><time>2026-01-18T09:29:56.047</time></trkpt><trkpt lat="55.7786241" lon="49.2377818"><time>2026-01-18T09:29:58.073</time></trkpt><trkpt lat="55.7785818" lon="49.2377459"><time>2026-01-18T09:29:59.023</time></trkpt><trkpt lat="55.7785176" lon="49.2377214"><time>2026-01-18T09:30:01.047</time></trkpt><trkpt lat="55.7784639" lon="49.2377434"><time>2026-01-18T09:30:04.073</time></trkpt><trkpt lat="55.7784104" lon="49.2377394"><time>2026-01-18T09:30:07.047</time></trkpt><trkpt lat="55.7783566" lon="49.2377341"><time>2026-01-18T09:30:12.037</time></trkpt><trkpt lat="55.7782878" lon="49.2376913"><time>2026-01-18T09:30:14.040</time></trkpt><trkpt lat="55.7782276" lon="49.2376638"><time>2026-01-18T09:30:16.043</time></trkpt><trkpt lat="55.7781671" lon="49.2376412"><time>2026-01-18T09:30:18.033</time></trkpt><trkpt lat="55.7781258" lon="49.2376055"><time>2026-01-18T09:30:19.030</time></trkpt><trkpt lat="55.7780410" lon="49.2375680"><time>2026-01-18T09:30:21.070</time></trkpt><trkpt lat="55.7779858" lon="49.2375686"><time>2026-01-18T09:30:23.047</time></trkpt><trkpt lat="55.7779333" lon="49.2375439"><time>2026-01-18T09:30:25.063</time></trkpt><trkpt lat="55.7778781" lon="49.2375156"><time>2026-01-18T09:30:27.067</time></trkpt><trkpt lat="55.7778230" lon="49.2374944"><time>2026-01-18T09:30:29.047</time></trkpt><trkpt lat="55.7777785" lon="49.2374805"><time>2026-01-18T09:30:31.027</time></trkpt><trkpt lat="55.7777324" lon="49.2374469"><time>2026-01-18T09:30:34.047</time></trkpt><trkpt lat="55.7776774" lon="49.2374521"><time>2026-01-18T09:30:37.050</time></trkpt><trkpt lat="55.7776285" lon="49.2374728"><time>2026-01-18T09:30:39.047</time></trkpt><trkpt lat="55.7775760" lon="49.2375482"><time>2026-01-18T09:30:42.033</time></trkpt><trkpt lat="55.7775404" lon="49.2376114"><time>2026-01-18T09:30:44.017</time></trkpt><trkpt lat="55.7774867" lon="49.2376588"><time>2026-01-18T09:30:47.040</time></trkpt><trkpt lat="55.7775017" lon="49.2375776"><time>2026-01-18T09:31:09.030</time></trkpt><trkpt lat="55.7775402" lon="49.2375281"><time>2026-01-18T09:31:11.057</time></trkpt><trkpt lat="55.7775863" lon="49.2374873"><time>2026-01-18T09:31:13.043</time></trkpt><trkpt lat="55.7776356" lon="49.2374645"><time>2026-01-18T09:31:15.037</time></trkpt><trkpt lat="55.7776832" lon="49.2374019"><time>2026-01-18T09:31:18.070</time></trkpt><trkpt lat="55.7776850" lon="49.2373150"><time>2026-01-18T09:31:22.053</time></trkpt><trkpt lat="55.7776797" lon="49.2372303"><time>2026-01-18T09:31:29.047</time></trkpt><trkpt lat="55.7776580" lon="49.2371513"><time>2026-01-18T09:31:34.057</time></trkpt><trkpt lat="55.7776331" lon="49.2370823"><time>2026-01-18T09:31:39.050</time></trkpt><trkpt lat="55.7775909" lon="49.2369930"><time>2026-01-18T09:31:42.027</time></trkpt><trkpt lat="55.7775793" lon="49.2370808"><time>2026-01-18T09:31:50.057</time></trkpt><trkpt lat="55.7775691" lon="49.2371696"><time>2026-01-18T09:31:52.027</time></trkpt><trkpt lat="55.7775567" lon="49.2372593"><time>2026-01-18T09:31:55.050</time></trkpt><trkpt lat="55.7775234" lon="49.2373228"><time>2026-01-18T09:32:01.040</time></trkpt><trkpt lat="55.7774968" lon="49.2373901"><time>2026-01-18T09:32:07.047</time></trkpt><trkpt lat="55.7774471" lon="49.2373648"><time>2026-01-18T09:32:10.027</time></trkpt><trkpt lat="55.7773944" lon="49.2373496"><time>2026-01-18T09:32:12.047</time></trkpt><trkpt lat="55.7773454" lon="49.2373439"><time>2026-01-18T09:32:14.047</time></trkpt><trkpt lat="55.7773001" lon="49.2373511"><time>2026-01-18T09:32:16.043</time></trkpt><trkpt lat="55.7772391" lon="49.2373395"><time>2026-01-18T09:32:19.040</time></trkpt><trkpt lat="55.7771933" lon="49.2373106"><time>2026-01-18T09:32:21.040</time></trkpt><trkpt lat="55.7771873" lon="49.2372170"><time>2026-01-18T09:32:25.040</time></trkpt><trkpt lat="55.7771322" lon="49.2371652"><time>2026-01-18T09:32:28.053</time></trkpt><trkpt lat="55.7770722" lon="49.2371739"><time>2026-01-18T09:32:31.027</time></trkpt><trkpt lat="55.7770412" lon="49.2372321"><time>2026-01-18T09:32:35.063</time></trkpt><trkpt lat="55.7770227" lon="49.2373243"><time>2026-01-18T09:32:39.043</time></trkpt><trkpt lat="55.7770012" lon="49.2374267"><time>2026-01-18T09:32:43.040</time></trkpt><trkpt lat="55.7769633" lon="49.2374740"><time>2026-01-18T09:32:46.037</time></trkpt><trkpt lat="55.7769160" lon="49.2374120"><time>2026-01-18T09:33:04.047</time></trkpt><trkpt lat="55.7768660" lon="49.2373658"><time>2026-01-18T09:33:07.037</time></trkpt><trkpt lat="55.7768095" lon="49.2373201"><time>2026-01-18T09:33:10.037</time></trkpt><trkpt lat="55.7767669" lon="49.2372852"><time>2026-01-18T09:33:12.043</time></trkpt><trkpt lat="55.7767138" lon="49.2372454"><time>2026-01-18T09:33:14.067</time></trkpt><trkpt lat="55.7766553" lon="49.2372130"><time>2026-01-18T09:33:17.043</time></trkpt><trkpt lat="55.7765922" lon="49.2371939"><time>2026-01-18T09:33:20.077</time></trkpt><trkpt lat="55.7765406" lon="49.2371879"><time>2026-01-18T09:33:22.043</time></trkpt><trkpt lat="55.7764926" lon="49.2371821"><time>2026-01-18T09:33:24.040</time></trkpt><trkpt lat="55.7764267" lon="49.2371647"><time>2026-01-18T09:33:27.043</time></trkpt><trkpt lat="55.7763645" lon="49.2371474"><time>2026-01-18T09:33:29.043</time></trkpt><trkpt lat="55.7763085" lon="49.2371587"><time>2026-01-18T09:33:31.037</time></trkpt><trkpt lat="55.7762666" lon="49.2372064"><time>2026-01-18T09:33:33.047</time></trkpt><trkpt lat="55.7762272" lon="49.2372487"><time>2026-01-18T09:33:39.047</time></trkpt><trkpt lat="55.7762850" lon="49.2372150"><time>2026-01-18T09:34:09.040</time></trkpt><trkpt lat="55.7763375" lon="49.2372225"><time>2026-01-18T09:34:11.053</time></trkpt><trkpt lat="55.7763906" lon="49.2372503"><time>2026-01-18T09:34:13.047</time></trkpt><trkpt lat="55.7764411" lon="49.2372735"><time>2026-01-18T09:34:15.050</time></trkpt><trkpt lat="55.7764935" lon="49.2372682"><time>2026-01-18T09:34:17.053</time></trkpt><trkpt lat="55.7765558" lon="49.2372718"><time>2026-01-18T09:34:20.053</time></trkpt><trkpt lat="55.7766100" lon="49.2372814"><time>2026-01-18T09:34:23.023</time></trkpt><trkpt lat="55.7766719" lon="49.2373336"><time>2026-01-18T09:34:26.050</time></trkpt><trkpt lat="55.7767042" lon="49.2373959"><time>2026-01-18T09:34:30.070</time></trkpt><trkpt lat="55.7766664" lon="49.2374442"><time>2026-01-18T09:34:59.050</time></trkpt><trkpt lat="55.7767115" lon="49.2374336"><time>2026-01-18T09:35:23.047</time></trkpt><trkpt lat="55.7767593" lon="49.2373728"><time>2026-01-18T09:35:27.073</time></trkpt><trkpt lat="55.7768169" lon="49.2373603"><time>2026-01-18T09:35:30.027</time></trkpt><trkpt lat="55.7768627" lon="49.2374126"><time>2026-01-18T09:35:33.073</time></trkpt><trkpt lat="55.7768921" lon="49.2374763"><time>2026-01-18T09:35:36.047</time></trkpt><trkpt lat="55.7768644" lon="49.2375522"><time>2026-01-18T09:35:40.050</time></trkpt><trkpt lat="55.7768224" lon="49.2376031"><time>2026-01-18T09:35:43.023</time></trkpt><trkpt lat="55.7768046" lon="49.2376070"><time>2026-01-18T09:35:45.930</time></trkpt><trkpt lat="55.7767805" lon="49.2376774"><time>2026-01-18T09:36:07.053</time></trkpt><trkpt lat="55.7767540" lon="49.2377573"><time>2026-01-18T09:36:09.033</time></trkpt><trkpt lat="55.7767290" lon="49.2378356"><time>2026-01-18T09:36:11.060</time></trkpt><trkpt lat="55.7766949" lon="49.2379253"><time>2026-01-18T09:36:13.057</time></trkpt><trkpt lat="55.7766533" lon="49.2380225"><time>2026-01-18T09:36:15.080</time></trkpt><trkpt lat="55.7766491" lon="49.2381321"><time>2026-01-18T09:36:18.043</time></trkpt><trkpt lat="55.7766392" lon="49.2382314"><time>2026-01-18T09:36:20.053</time></trkpt><trkpt lat="55.7766152" lon="49.2383333"><time>2026-01-18T09:36:22.057</time></trkpt><trkpt lat="55.7765931" lon="49.2384086"><time>2026-01-18T09:36:24.037</time></trkpt><trkpt lat="55.7765633" lon="49.2384878"><time>2026-01-18T09:36:26.037</time></trkpt><trkpt lat="55.7765356" lon="49.2385873"><time>2026-01-18T09:36:29.030</time></trkpt><trkpt lat="55.7765192" lon="49.2386665"><time>2026-01-18T09:36:31.057</time></trkpt><trkpt lat="55.7765023" lon="49.2387440"><time>2026-01-18T09:36:33.080</time></trkpt><trkpt lat="55.7764732" lon="49.2389008"><time>2026-01-18T09:36:35.053</time></trkpt><trkpt lat="55.7764574" lon="49.2389926"><time>2026-01-18T09:36:36.057</time></trkpt><trkpt lat="55.7764471" lon="49.2391011"><time>2026-01-18T09:36:38.053</time></trkpt><trkpt lat="55.7764367" lon="49.2391826"><time>2026-01-18T09:36:41.053</time></trkpt><trkpt lat="55.7764154" lon="49.2392721"><time>2026-01-18T09:36:44.047</time></trkpt><trkpt lat="55.7764182" lon="49.2393607"><time>2026-01-18T09:36:46.050</time></trkpt><trkpt lat="55.7764155" lon="49.2394610"><time>2026-01-18T09:36:48.050</time></trkpt><trkpt lat="55.7764421" lon="49.2395478"><time>2026-01-18T09:36:50.053</time></trkpt><trkpt lat="55.7764982" lon="49.2396419"><time>2026-01-18T09:36:53.053</time></trkpt><trkpt lat="55.7765343" lon="49.2396957"><time>2026-01-18T09:36:55.050</time></trkpt><trkpt lat="55.7765692" lon="49.2397509"><time>2026-01-18T09:36:57.047</time></trkpt><trkpt lat="55.7765968" lon="49.2398155"><time>2026-01-18T09:36:59.047</time></trkpt><trkpt lat="55.7766203" lon="49.2399051"><time>2026-01-18T09:37:02.070</time></trkpt><trkpt lat="55.7766343" lon="49.2400001"><time>2026-01-18T09:37:04.033</time></trkpt><trkpt lat="55.7766518" lon="49.2400828"><time>2026-01-18T09:37:06.043</time></trkpt><trkpt lat="55.7766931" lon="49.2401435"><time>2026-01-18T09:37:09.033</time></trkpt><trkpt lat="55.7767290" lon="49.2401958"><time>2026-01-18T09:37:12.053</time></trkpt><trkpt lat="55.7767567" lon="49.2402812"><time>2026-01-18T09:37:15.053</time></trkpt><trkpt lat="55.7767644" lon="49.2403668"><time>2026-01-18T09:37:17.053</time></trkpt><trkpt lat="55.7767589" lon="49.2404782"><time>2026-01-18T09:37:20.050</time></trkpt><trkpt lat="55.7767749" lon="49.2405723"><time>2026-01-18T09:37:31.077</time></trkpt><trkpt lat="55.7767887" lon="49.2406674"><time>2026-01-18T09:37:35.060</time></trkpt><trkpt lat="55.7768039" lon="49.2407442"><time>2026-01-18T09:37:38.047</time></trkpt><trkpt lat="55.7768272" lon="49.2408192"><time>2026-01-18T09:37:40.053</time></trkpt><trkpt lat="55.7768443" lon="49.2409129"><time>2026-01-18T09:37:43.073</time></trkpt><trkpt lat="55.7768516" lon="49.2409928"><time>2026-01-18T09:38:00.077</time></trkpt><trkpt lat="55.7768645" lon="49.2410761"><time>2026-01-18T09:38:07.053</time></trkpt><trkpt lat="55.7768785" lon="49.2411553"><time>2026-01-18T09:38:10.057</time></trkpt><trkpt lat="55.7768741" lon="49.2412511"><time>2026-01-18T09:38:14.053</time></trkpt><trkpt lat="55.7768532" lon="49.2413346"><time>2026-01-18T09:38:18.077</time></trkpt><trkpt lat="55.7768530" lon="49.2414210"><time>2026-01-18T09:38:23.053</time></trkpt><trkpt lat="55.7768656" lon="49.2415313"><time>2026-01-18T09:38:26.053</time></trkpt><trkpt lat="55.7768789" lon="49.2416229"><time>2026-01-18T09:38:30.077</time></trkpt><trkpt lat="55.7769063" lon="49.2417061"><time>2026-01-18T09:38:35.030</time></trkpt><trkpt lat="55.7769294" lon="49.2417833"><time>2026-01-18T09:38:40.023</time></trkpt><trkpt lat="55.7769298" lon="49.2418654"><time>2026-01-18T09:38:44.050</time></trkpt><trkpt lat="55.7769235" lon="49.2419611"><time>2026-01-18T09:38:49.050</time></trkpt><trkpt lat="55.7769340" lon="49.2420430"><time>2026-01-18T09:38:52.053</time></trkpt><trkpt lat="55.7769368" lon="49.2421350"><time>2026-01-18T09:38:56.057</time></trkpt><trkpt lat="55.7769353" lon="49.2422218"><time>2026-01-18T09:39:08.030</time></trkpt><trkpt lat="55.7769420" lon="49.2423154"><time>2026-01-18T09:39:11.030</time></trkpt><trkpt lat="55.7769462" lon="49.2424245"><time>2026-01-18T09:39:14.053</time></trkpt><trkpt lat="55.7769440" lon="49.2425234"><time>2026-01-18T09:39:16.033</time></trkpt><trkpt lat="55.7769302" lon="49.2426064"><time>2026-01-18T09:39:19.030</time></trkpt><trkpt lat="55.7769134" lon="49.2426966"><time>2026-01-18T09:39:22.040</time></trkpt><trkpt lat="55.7769202" lon="49.2427914"><time>2026-01-18T09:39:26.050</time></trkpt><trkpt lat="55.7769358" lon="49.2428700"><time>2026-01-18T09:39:29.047</time></trkpt><trkpt lat="55.7769388" lon="49.2429539"><time>2026-01-18T09:39:33.053</time></trkpt><trkpt lat="55.7769741" lon="49.2430080"><time>2026-01-18T09:39:50.073</time></trkpt><trkpt lat="55.7770221" lon="49.2429808"><time>2026-01-18T09:39:55.047</time></trkpt><trkpt lat="55.7770733" lon="49.2429782"><time>2026-01-18T09:40:01.037</time></trkpt><trkpt lat="55.7771247" lon="49.2429678"><time>2026-01-18T09:40:08.043</time></trkpt><trkpt lat="55.7771702" lon="49.2429551"><time>2026-01-18T09:40:15.047</time></trkpt><trkpt lat="55.7772176" lon="49.2429951"><time>2026-01-18T09:40:21.030</time></trkpt><trkpt lat="55.7772303" lon="49.2430838"><time>2026-01-18T09:40:28.057</time></trkpt><trkpt lat="55.7771951" lon="49.2431900"><time>2026-01-18T09:40:31.053</time></trkpt><trkpt lat="55.7771722" lon="49.2433012"><time>2026-01-18T09:40:33.050</time></trkpt><trkpt lat="55.7771476" lon="49.2433810"><time>2026-01-18T09:40:39.047</time></trkpt><trkpt lat="55.7771175" lon="49.2434543"><time>2026-01-18T09:40:42.030</time></trkpt><trkpt lat="55.7770775" lon="49.2435552"><time>2026-01-18T09:40:44.057</time></trkpt><trkpt lat="55.7770395" lon="49.2436197"><time>2026-01-18T09:40:46.050</time></trkpt><trkpt lat="55.7770015" lon="49.2436851"><time>2026-01-18T09:40:48.057</time></trkpt><trkpt lat="55.7769655" lon="49.2437423"><time>2026-01-18T09:40:50.057</time></trkpt><trkpt lat="55.7769320" lon="49.2437989"><time>2026-01-18T09:40:52.050</time></trkpt><trkpt lat="55.7768935" lon="49.2438590"><time>2026-01-18T09:40:54.027</time></trkpt><trkpt lat="55.7768562" lon="49.2439161"><time>2026-01-18T09:40:56.057</time></trkpt><trkpt lat="55.7768155" lon="49.2439877"><time>2026-01-18T09:40:58.040</time></trkpt><trkpt lat="55.7768077" lon="49.2440003"><time>2026-01-18T09:41:00.413</time></trkpt><trkpt lat="55.7768131" lon="49.2440753"><time>2026-01-18T09:41:08.050</time></trkpt><trkpt lat="55.7768197" lon="49.2441698"><time>2026-01-18T09:41:09.053</time></trkpt><trkpt lat="55.7768187" lon="49.2442669"><time>2026-01-18T09:41:10.053</time></trkpt><trkpt lat="55.7767598" lon="49.2443692"><time>2026-01-18T09:41:12.047</time></trkpt><trkpt lat="55.7767195" lon="49.2444301"><time>2026-01-18T09:41:14.043</time></trkpt><trkpt lat="55.7766594" lon="49.2444857"><time>2026-01-18T09:41:17.053</time></trkpt><trkpt lat="55.7766060" lon="49.2445109"><time>2026-01-18T09:41:19.047</time></trkpt><trkpt lat="55.7765519" lon="49.2445358"><time>2026-01-18T09:41:21.053</time></trkpt><trkpt lat="55.7765052" lon="49.2445774"><time>2026-01-18T09:41:23.047</time></trkpt><trkpt lat="55.7764470" lon="49.2446353"><time>2026-01-18T09:41:25.053</time></trkpt><trkpt lat="55.7764079" lon="49.2447141"><time>2026-01-18T09:41:27.053</time></trkpt><trkpt lat="55.7763935" lon="49.2448021"><time>2026-01-18T09:41:29.057</time></trkpt><trkpt lat="55.7763833" lon="49.2449162"><time>2026-01-18T09:41:32.053</time></trkpt><trkpt lat="55.7763767" lon="49.2450300"><time>2026-01-18T09:41:34.057</time></trkpt><trkpt lat="55.7763819" lon="49.2451558"><time>2026-01-18T09:41:36.080</time></trkpt><trkpt lat="55.7763631" lon="49.2452780"><time>2026-01-18T09:41:38.057</time></trkpt><trkpt lat="55.7763329" lon="49.2454060"><time>2026-01-18T09:41:40.047</time></trkpt><trkpt lat="55.7763023" lon="49.2455238"><time>2026-01-18T09:41:41.057</time></trkpt><trkpt lat="55.7762785" lon="49.2455985"><time>2026-01-18T09:41:42.077</time></trkpt><trkpt lat="55.7762447" lon="49.2456892"><time>2026-01-18T09:41:44.053</time></trkpt><trkpt lat="55.7762075" lon="49.2457637"><time>2026-01-18T09:41:46.047</time></trkpt><trkpt lat="55.7761746" lon="49.2458342"><time>2026-01-18T09:41:48.080</time></trkpt><trkpt lat="55.7761463" lon="49.2459285"><time>2026-01-18T09:41:50.050</time></trkpt><trkpt lat="55.7761182" lon="49.2460010"><time>2026-01-18T09:41:52.043</time></trkpt><trkpt lat="55.7760989" lon="49.2460837"><time>2026-01-18T09:41:54.070</time></trkpt><trkpt lat="55.7760751" lon="49.2461942"><time>2026-01-18T09:41:56.043</time></trkpt><trkpt lat="55.7760651" lon="49.2462749"><time>2026-01-18T09:41:58.043</time></trkpt><trkpt lat="55.7760747" lon="49.2464031"><time>2026-01-18T09:42:00.053</time></trkpt><trkpt lat="55.7760981" lon="49.2464949"><time>2026-01-18T09:42:02.030</time></trkpt><trkpt lat="55.7761045" lon="49.2465841"><time>2026-01-18T09:42:04.050</time></trkpt><trkpt lat="55.7761297" lon="49.2466619"><time>2026-01-18T09:42:12.057</time></trkpt><trkpt lat="55.7761882" lon="49.2467149"><time>2026-01-18T09:42:15.047</time></trkpt><trkpt lat="55.7762372" lon="49.2467597"><time>2026-01-18T09:42:17.077</time></trkpt><trkpt lat="55.7762874" lon="49.2468109"><time>2026-01-18T09:42:19.050</time></trkpt><trkpt lat="55.7763409" lon="49.2468746"><time>2026-01-18T09:42:21.060</time></trkpt><trkpt lat="55.7763896" lon="49.2469217"><time>2026-01-18T09:42:23.070</time></trkpt><trkpt lat="55.7764403" lon="49.2469691"><time>2026-01-18T09:42:25.047</time></trkpt><trkpt lat="55.7764935" lon="49.2470162"><time>2026-01-18T09:42:27.043</time></trkpt><trkpt lat="55.7765431" lon="49.2470493"><time>2026-01-18T09:42:29.050</time></trkpt><trkpt lat="55.7765800" lon="49.2471088"><time>2026-01-18T09:42:31.047</time></trkpt><trkpt lat="55.7765755" lon="49.2472017"><time>2026-01-18T09:42:33.047</time></trkpt><trkpt lat="55.7765491" lon="49.2472764"><time>2026-01-18T09:42:36.053</time></trkpt><trkpt lat="55.7765080" lon="49.2473517"><time>2026-01-18T09:42:40.030</time></trkpt><trkpt lat="55.7764880" lon="49.2474359"><time>2026-01-18T09:42:42.053</time></trkpt><trkpt lat="55.7764703" lon="49.2475444"><time>2026-01-18T09:42:44.053</time></trkpt><trkpt lat="55.7764637" lon="49.2476299"><time>2026-01-18T09:42:46.053</time></trkpt><trkpt lat="55.7764581" lon="49.2477365"><time>2026-01-18T09:42:49.053</time></trkpt><trkpt lat="55.7764641" lon="49.2478198"><time>2026-01-18T09:42:51.053</time></trkpt><trkpt lat="55.7764914" lon="49.2479794"><time>2026-01-18T09:42:53.053</time></trkpt><trkpt lat="55.7765029" lon="49.2480679"><time>2026-01-18T09:42:54.053</time></trkpt><trkpt lat="55.7765154" lon="49.2481728"><time>2026-01-18T09:42:56.033</time></trkpt><trkpt lat="55.7765269" lon="49.2482646"><time>2026-01-18T09:42:58.077</time></trkpt><trkpt lat="55.7765434" lon="49.2483417"><time>2026-01-18T09:43:00.053</time></trkpt><trkpt lat="55.7765574" lon="49.2484301"><time>2026-01-18T09:43:02.057</time></trkpt><trkpt lat="55.7765625" lon="49.2485370"><time>2026-01-18T09:43:04.077</time></trkpt><trkpt lat="55.7765673" lon="49.2486282"><time>2026-01-18T09:43:06.060</time></trkpt><trkpt lat="55.7765851" lon="49.2487213"><time>2026-01-18T09:43:08.053</time></trkpt><trkpt lat="55.7766183" lon="49.2488273"><time>2026-01-18T09:43:10.053</time></trkpt><trkpt lat="55.7766451" lon="49.2489035"><time>2026-01-18T09:43:12.053</time></trkpt><trkpt lat="55.7766535" lon="49.2490064"><time>2026-01-18T09:43:14.057</time></trkpt><trkpt lat="55.7766913" lon="49.2490918"><time>2026-01-18T09:43:17.050</time></trkpt><trkpt lat="55.7767423" lon="49.2491308"><time>2026-01-18T09:43:19.053</time></trkpt><trkpt lat="55.7767835" lon="49.2491657"><time>2026-01-18T09:43:21.053</time></trkpt><trkpt lat="55.7768319" lon="49.2492206"><time>2026-01-18T09:43:24.053</time></trkpt><trkpt lat="55.7768861" lon="49.2493060"><time>2026-01-18T09:43:27.053</time></trkpt><trkpt lat="55.7769238" lon="49.2493639"><time>2026-01-18T09:43:29.053</time></trkpt><trkpt lat="55.7769705" lon="49.2494197"><time>2026-01-18T09:43:32.080</time></trkpt><trkpt lat="55.7770264" lon="49.2494767"><time>2026-01-18T09:43:35.053</time></trkpt><trkpt lat="55.7770894" lon="49.2494981"><time>2026-01-18T09:43:38.080</time></trkpt><trkpt lat="55.7771439" lon="49.2495125"><time>2026-01-18T09:43:40.060</time></trkpt><trkpt lat="55.7771956" lon="49.2495291"><time>2026-01-18T09:43:42.053</time></trkpt><trkpt lat="55.7772499" lon="49.2495555"><time>2026-01-18T09:43:44.047</time></trkpt><trkpt lat="55.7773037" lon="49.2495805"><time>2026-01-18T09:43:46.053</time></trkpt><trkpt lat="55.7773551" lon="49.2495981"><time>2026-01-18T09:43:48.053</time></trkpt><trkpt lat="55.7774022" lon="49.2496097"><time>2026-01-18T09:43:50.057</time></trkpt><trkpt lat="55.7774523" lon="49.2496156"><time>2026-01-18T09:43:52.057</time></trkpt><trkpt lat="55.7775034" lon="49.2496094"><time>2026-01-18T09:43:54.057</time></trkpt><trkpt lat="55.7775700" lon="49.2496086"><time>2026-01-18T09:43:57.030</time></trkpt><trkpt lat="55.7776179" lon="49.2496134"><time>2026-01-18T09:43:59.030</time></trkpt><trkpt lat="55.7776812" lon="49.2495900"><time>2026-01-18T09:44:02.057</time></trkpt><trkpt lat="55.7777282" lon="49.2495705"><time>2026-01-18T09:44:04.050</time></trkpt><trkpt lat="55.7777808" lon="49.2495439"><time>2026-01-18T09:44:06.050</time></trkpt><trkpt lat="55.7778685" lon="49.2494882"><time>2026-01-18T09:44:08.057</time></trkpt><trkpt lat="55.7779140" lon="49.2494514"><time>2026-01-18T09:44:10.030</time></trkpt><trkpt lat="55.7779686" lon="49.2494022"><time>2026-01-18T09:44:13.057</time></trkpt><trkpt lat="55.7780295" lon="49.2493608"><time>2026-01-18T09:44:16.053</time></trkpt><trkpt lat="55.7780900" lon="49.2493237"><time>2026-01-18T09:44:18.053</time></trkpt><trkpt lat="55.7781390" lon="49.2492949"><time>2026-01-18T09:44:20.057</time></trkpt><trkpt lat="55.7781859" lon="49.2492600"><time>2026-01-18T09:44:22.053</time></trkpt><trkpt lat="55.7782398" lon="49.2492130"><time>2026-01-18T09:44:24.057</time></trkpt><trkpt lat="55.7782924" lon="49.2491894"><time>2026-01-18T09:44:26.050</time></trkpt><trkpt lat="55.7783414" lon="49.2491835"><time>2026-01-18T09:44:28.053</time></trkpt><trkpt lat="55.7783957" lon="49.2491772"><time>2026-01-18T09:44:30.050</time></trkpt><trkpt lat="55.7784474" lon="49.2491677"><time>2026-01-18T09:44:32.060</time></trkpt><trkpt lat="55.7784961" lon="49.2491452"><time>2026-01-18T09:44:34.080</time></trkpt><trkpt lat="55.7785426" lon="49.2491320"><time>2026-01-18T09:44:36.057</time></trkpt><trkpt lat="55.7785865" lon="49.2491631"><time>2026-01-18T09:44:38.050</time></trkpt><trkpt lat="55.7786167" lon="49.2492358"><time>2026-01-18T09:44:40.050</time></trkpt><trkpt lat="55.7786334" lon="49.2493139"><time>2026-01-18T09:44:42.057</time></trkpt><trkpt lat="55.7786528" lon="49.2494023"><time>2026-01-18T09:44:44.053</time></trkpt><trkpt lat="55.7786702" lon="49.2494817"><time>2026-01-18T09:44:46.057</time></trkpt><trkpt lat="55.7786450" lon="49.2495715"><time>2026-01-18T09:44:50.083</time></trkpt><trkpt lat="55.7786056" lon="49.2496343"><time>2026-01-18T09:44:53.053</time></trkpt><trkpt lat="55.7785785" lon="49.2497182"><time>2026-01-18T09:44:56.080</time></trkpt><trkpt lat="55.7785505" lon="49.2498050"><time>2026-01-18T09:44:59.053</time></trkpt><trkpt lat="55.7785217" lon="49.2498680"><time>2026-01-18T09:45:01.053</time></trkpt><trkpt lat="55.7784883" lon="49.2499600"><time>2026-01-18T09:45:03.027</time></trkpt><trkpt lat="55.7784703" lon="49.2500558"><time>2026-01-18T09:45:06.033</time></trkpt><trkpt lat="55.7784756" lon="49.2501698"><time>2026-01-18T09:45:09.050</time></trkpt><trkpt lat="55.7784986" lon="49.2502610"><time>2026-01-18T09:45:12.047</time></trkpt><trkpt lat="55.7784943" lon="49.2503559"><time>2026-01-18T09:45:13.073</time></trkpt><trkpt lat="55.7784875" lon="49.2504743"><time>2026-01-18T09:45:15.057</time></trkpt><trkpt lat="55.7784983" lon="49.2505522"><time>2026-01-18T09:45:17.060</time></trkpt><trkpt lat="55.7785039" lon="49.2506427"><time>2026-01-18T09:45:19.077</time></trkpt><trkpt lat="55.7784662" lon="49.2507037"><time>2026-01-18T09:45:22.063</time></trkpt><trkpt lat="55.7784152" lon="49.2507456"><time>2026-01-18T09:45:24.040</time></trkpt><trkpt lat="55.7783660" lon="49.2507668"><time>2026-01-18T09:45:26.057</time></trkpt><trkpt lat="55.7783115" lon="49.2507544"><time>2026-01-18T09:45:28.050</time></trkpt><trkpt lat="55.7782528" lon="49.2507574"><time>2026-01-18T09:45:31.053</time></trkpt><trkpt lat="55.7781945" lon="49.2507573"><time>2026-01-18T09:45:34.033</time></trkpt><trkpt lat="55.7781271" lon="49.2507467"><time>2026-01-18T09:45:37.057</time></trkpt><trkpt lat="55.7780608" lon="49.2507474"><time>2026-01-18T09:45:40.057</time></trkpt><trkpt lat="55.7779934" lon="49.2507419"><time>2026-01-18T09:45:43.057</time></trkpt><trkpt lat="55.7779340" lon="49.2507192"><time>2026-01-18T09:45:45.057</time></trkpt><trkpt lat="55.7778710" lon="49.2506957"><time>2026-01-18T09:45:47.057</time></trkpt><trkpt lat="55.7778039" lon="49.2506707"><time>2026-01-18T09:45:49.057</time></trkpt><trkpt lat="55.7777480" lon="49.2506651"><time>2026-01-18T09:45:51.057</time></trkpt><trkpt lat="55.7776971" lon="49.2506612"><time>2026-01-18T09:45:53.057</time></trkpt><trkpt lat="55.7776503" lon="49.2506643"><time>2026-01-18T09:45:55.057</time></trkpt><trkpt lat="55.7775933" lon="49.2506686"><time>2026-01-18T09:45:57.053</time></trkpt><trkpt lat="55.7775336" lon="49.2506737"><time>2026-01-18T09:45:59.083</time></trkpt><trkpt lat="55.7774787" lon="49.2506726"><time>2026-01-18T09:46:01.037</time></trkpt><trkpt lat="55.7774243" lon="49.2506937"><time>2026-01-18T09:46:03.040</time></trkpt><trkpt lat="55.7773678" lon="49.2507124"><time>2026-01-18T09:46:05.080</time></trkpt><trkpt lat="55.7773143" lon="49.2507195"><time>2026-01-18T09:46:07.053</time></trkpt><trkpt lat="55.7772592" lon="49.2507088"><time>2026-01-18T09:46:09.053</time></trkpt><trkpt lat="55.7772043" lon="49.2507013"><time>2026-01-18T09:46:11.060</time></trkpt><trkpt lat="55.7771499" lon="49.2506985"><time>2026-01-18T09:46:13.050</time></trkpt><trkpt lat="55.7770894" lon="49.2506933"><time>2026-01-18T09:46:14.057</time></trkpt><trkpt lat="55.7770155" lon="49.2507055"><time>2026-01-18T09:46:16.030</time></trkpt><trkpt lat="55.7769562" lon="49.2507186"><time>2026-01-18T09:46:18.033</time></trkpt><trkpt lat="55.7768971" lon="49.2507338"><time>2026-01-18T09:46:21.047</time></trkpt><trkpt lat="55.7768306" lon="49.2507374"><time>2026-01-18T09:46:24.057</time></trkpt><trkpt lat="55.7767406" lon="49.2507303"><time>2026-01-18T09:46:26.060</time></trkpt><trkpt lat="55.7766903" lon="49.2507445"><time>2026-01-18T09:46:28.077</time></trkpt><trkpt lat="55.7766286" lon="49.2507891"><time>2026-01-18T09:46:31.057</time></trkpt><trkpt lat="55.7765833" lon="49.2508081"><time>2026-01-18T09:46:33.053</time></trkpt><trkpt lat="55.7765358" lon="49.2508167"><time>2026-01-18T09:46:35.057</time></trkpt><trkpt lat="55.7764900" lon="49.2508303"><time>2026-01-18T09:46:37.057</time></trkpt><trkpt lat="55.7764387" lon="49.2508513"><time>2026-01-18T09:46:39.027</time></trkpt><trkpt lat="55.7763897" lon="49.2508685"><time>2026-01-18T09:46:41.040</time></trkpt><trkpt lat="55.7763403" lon="49.2508837"><time>2026-01-18T09:46:42.043</time></trkpt><trkpt lat="55.7762944" lon="49.2508806"><time>2026-01-18T09:46:45.023</time></trkpt><trkpt lat="55.7762812" lon="49.2508283"><time>2026-01-18T09:46:48.850</time></trkpt><trkpt lat="55.7762431" lon="49.2509129"><time>2026-01-18T09:47:02.050</time></trkpt><trkpt lat="55.7762210" lon="49.2510057"><time>2026-01-18T09:47:05.040</time></trkpt><trkpt lat="55.7762224" lon="49.2510975"><time>2026-01-18T09:47:08.057</time></trkpt><trkpt lat="55.7762616" lon="49.2511640"><time>2026-01-18T09:47:12.057</time></trkpt><trkpt lat="55.7763098" lon="49.2511956"><time>2026-01-18T09:47:15.057</time></trkpt><trkpt lat="55.7763622" lon="49.2512285"><time>2026-01-18T09:47:19.057</time></trkpt><trkpt lat="55.7764190" lon="49.2512395"><time>2026-01-18T09:47:22.080</time></trkpt><trkpt lat="55.7764825" lon="49.2512369"><time>2026-01-18T09:47:25.053</time></trkpt><trkpt lat="55.7765295" lon="49.2512305"><time>2026-01-18T09:47:27.057</time></trkpt><trkpt lat="55.7765746" lon="49.2512327"><time>2026-01-18T09:47:29.053</time></trkpt><trkpt lat="55.7766278" lon="49.2512416"><time>2026-01-18T09:47:31.053</time></trkpt><trkpt lat="55.7766848" lon="49.2512461"><time>2026-01-18T09:47:33.080</time></trkpt><trkpt lat="55.7767385" lon="49.2512435"><time>2026-01-18T09:47:35.057</time></trkpt><trkpt lat="55.7767968" lon="49.2512424"><time>2026-01-18T09:47:37.060</time></trkpt><trkpt lat="55.7768596" lon="49.2512555"><time>2026-01-18T09:47:39.080</time></trkpt><trkpt lat="55.7769123" lon="49.2512713"><time>2026-01-18T09:47:41.020</time></trkpt><trkpt lat="55.7769622" lon="49.2512848"><time>2026-01-18T09:47:43.027</time></trkpt><trkpt lat="55.7770157" lon="49.2512910"><time>2026-01-18T09:47:45.077</time></trkpt><trkpt lat="55.7770679" lon="49.2512953"><time>2026-01-18T09:47:47.057</time></trkpt><trkpt lat="55.7771204" lon="49.2512986"><time>2026-01-18T09:47:49.030</time></trkpt><trkpt lat="55.7771759" lon="49.2512972"><time>2026-01-18T09:47:51.073</time></trkpt><trkpt lat="55.7772266" lon="49.2512988"><time>2026-01-18T09:47:53.053</time></trkpt><trkpt lat="55.7772762" lon="49.2513019"><time>2026-01-18T09:47:55.053</time></trkpt><trkpt lat="55.7773264" lon="49.2513036"><time>2026-01-18T09:47:57.080</time></trkpt><trkpt lat="55.7773780" lon="49.2513106"><time>2026-01-18T09:47:59.057</time></trkpt><trkpt lat="55.7774318" lon="49.2513199"><time>2026-01-18T09:48:01.057</time></trkpt><trkpt lat="55.7774844" lon="49.2513217"><time>2026-01-18T09:48:03.063</time></trkpt><trkpt lat="55.7775419" lon="49.2513282"><time>2026-01-18T09:48:05.057</time></trkpt><trkpt lat="55.7775957" lon="49.2513366"><time>2026-01-18T09:48:07.053</time></trkpt><trkpt lat="55.7776454" lon="49.2513440"><time>2026-01-18T09:48:09.053</time></trkpt><trkpt lat="55.7777008" lon="49.2513517"><time>2026-01-18T09:48:11.033</time></trkpt><trkpt lat="55.7777522" lon="49.2513533"><time>2026-01-18T09:48:13.057</time></trkpt><trkpt lat="55.7778007" lon="49.2513591"><time>2026-01-18T09:48:15.057</time></trkpt><trkpt lat="55.7778473" lon="49.2513571"><time>2026-01-18T09:48:17.053</time></trkpt><trkpt lat="55.7779083" lon="49.2513532"><time>2026-01-18T09:48:19.023</time></trkpt><trkpt lat="55.7779663" lon="49.2513548"><time>2026-01-18T09:48:21.047</time></trkpt><trkpt lat="55.7780194" lon="49.2513574"><time>2026-01-18T09:48:23.057</time></trkpt><trkpt lat="55.7780661" lon="49.2513666"><time>2026-01-18T09:48:25.057</time></trkpt><trkpt lat="55.7781108" lon="49.2514205"><time>2026-01-18T09:48:27.057</time></trkpt><trkpt lat="55.7781353" lon="49.2515198"><time>2026-01-18T09:48:29.057</time></trkpt><trkpt lat="55.7781440" lon="49.2516176"><time>2026-01-18T09:48:31.057</time></trkpt><trkpt lat="55.7781483" lon="49.2517045"><time>2026-01-18T09:48:33.037</time></trkpt><trkpt lat="55.7781536" lon="49.2517985"><time>2026-01-18T09:48:35.057</time></trkpt><trkpt lat="55.7781600" lon="49.2518979"><time>2026-01-18T09:48:37.053</time></trkpt><trkpt lat="55.7781680" lon="49.2519880"><time>2026-01-18T09:48:39.057</time></trkpt><trkpt lat="55.7781763" lon="49.2520762"><time>2026-01-18T09:48:41.057</time></trkpt><trkpt lat="55.7781798" lon="49.2521681"><time>2026-01-18T09:48:43.057</time></trkpt><trkpt lat="55.7781789" lon="49.2522573"><time>2026-01-18T09:48:45.030</time></trkpt><trkpt lat="55.7781832" lon="49.2523521"><time>2026-01-18T09:48:47.057</time></trkpt><trkpt lat="55.7781880" lon="49.2524328"><time>2026-01-18T09:48:49.033</time></trkpt><trkpt lat="55.7781921" lon="49.2525300"><time>2026-01-18T09:48:51.057</time></trkpt><trkpt lat="55.7782010" lon="49.2526503"><time>2026-01-18T09:48:53.050</time></trkpt><trkpt lat="55.7782031" lon="49.2527487"><time>2026-01-18T09:48:55.057</time></trkpt><trkpt lat="55.7781996" lon="49.2528352"><time>2026-01-18T09:48:57.060</time></trkpt><trkpt lat="55.7782014" lon="49.2529170"><time>2026-01-18T09:48:59.057</time></trkpt><trkpt lat="55.7782049" lon="49.2530045"><time>2026-01-18T09:49:01.057</time></trkpt><trkpt lat="55.7782133" lon="49.2530974"><time>2026-01-18T09:49:03.057</time></trkpt><trkpt lat="55.7782271" lon="49.2532357"><time>2026-01-18T09:49:05.053</time></trkpt><trkpt lat="55.7782325" lon="49.2533524"><time>2026-01-18T09:49:07.057</time></trkpt><trkpt lat="55.7782342" lon="49.2534516"><time>2026-01-18T09:49:09.053</time></trkpt><trkpt lat="55.7782373" lon="49.2535354"><time>2026-01-18T09:49:11.033</time></trkpt><trkpt lat="55.7782408" lon="49.2536254"><time>2026-01-18T09:49:13.053</time></trkpt><trkpt lat="55.7782413" lon="49.2537187"><time>2026-01-18T09:49:15.083</time></trkpt><trkpt lat="55.7782438" lon="49.2538074"><time>2026-01-18T09:49:17.057</time></trkpt><trkpt lat="55.7782554" lon="49.2538904"><time>2026-01-18T09:49:19.053</time></trkpt><trkpt lat="55.7782733" lon="49.2539747"><time>2026-01-18T09:49:21.083</time></trkpt><trkpt lat="55.7782784" lon="49.2540754"><time>2026-01-18T09:49:23.057</time></trkpt><trkpt lat="55.7782790" lon="49.2541640"><time>2026-01-18T09:49:25.057</time></trkpt><trkpt lat="55.7782712" lon="49.2542780"><time>2026-01-18T09:49:28.057</time></trkpt><trkpt lat="55.7782587" lon="49.2543598"><time>2026-01-18T09:49:30.057</time></trkpt><trkpt lat="55.7782501" lon="49.2544506"><time>2026-01-18T09:49:32.043</time></trkpt><trkpt lat="55.7782834" lon="49.2545337"><time>2026-01-18T09:49:35.057</time></trkpt><trkpt lat="55.7783499" lon="49.2545466"><time>2026-01-18T09:49:38.057</time></trkpt><trkpt lat="55.7783936" lon="49.2545691"><time>2026-01-18T09:49:40.043</time></trkpt><trkpt lat="55.7784326" lon="49.2546266"><time>2026-01-18T09:49:42.063</time></trkpt><trkpt lat="55.7784723" lon="49.2546985"><time>2026-01-18T09:49:44.057</time></trkpt><trkpt lat="55.7785135" lon="49.2547507"><time>2026-01-18T09:49:46.057</time></trkpt><trkpt lat="55.7785748" lon="49.2548000"><time>2026-01-18T09:49:49.060</time></trkpt><trkpt lat="55.7786356" lon="49.2548193"><time>2026-01-18T09:49:52.033</time></trkpt><trkpt lat="55.7786950" lon="49.2548273"><time>2026-01-18T09:49:55.053</time></trkpt><trkpt lat="55.7787553" lon="49.2548338"><time>2026-01-18T09:49:58.033</time></trkpt><trkpt lat="55.7788086" lon="49.2548278"><time>2026-01-18T09:50:01.053</time></trkpt><trkpt lat="55.7788681" lon="49.2548101"><time>2026-01-18T09:50:04.057</time></trkpt><trkpt lat="55.7789172" lon="49.2548023"><time>2026-01-18T09:50:06.060</time></trkpt><trkpt lat="55.7789634" lon="49.2547989"><time>2026-01-18T09:50:08.033</time></trkpt><trkpt lat="55.7790087" lon="49.2547899"><time>2026-01-18T09:50:10.037</time></trkpt><trkpt lat="55.7790587" lon="49.2547780"><time>2026-01-18T09:50:12.060</time></trkpt><trkpt lat="55.7791120" lon="49.2547713"><time>2026-01-18T09:50:14.057</time></trkpt><trkpt lat="55.7791674" lon="49.2547708"><time>2026-01-18T09:50:16.053</time></trkpt><trkpt lat="55.7792324" lon="49.2547650"><time>2026-01-18T09:50:18.053</time></trkpt><trkpt lat="55.7792862" lon="49.2547636"><time>2026-01-18T09:50:20.033</time></trkpt><trkpt lat="55.7793393" lon="49.2547651"><time>2026-01-18T09:50:22.060</time></trkpt><trkpt lat="55.7793929" lon="49.2547671"><time>2026-01-18T09:50:24.057</time></trkpt><trkpt lat="55.7794529" lon="49.2547651"><time>2026-01-18T09:50:26.057</time></trkpt><trkpt lat="55.7795119" lon="49.2547633"><time>2026-01-18T09:50:27.057</time></trkpt><trkpt lat="55.7795672" lon="49.2547609"><time>2026-01-18T09:50:29.037</time></trkpt><trkpt lat="55.7796150" lon="49.2547552"><time>2026-01-18T09:50:31.033</time></trkpt><trkpt lat="55.7796643" lon="49.2547500"><time>2026-01-18T09:50:33.050</time></trkpt><trkpt lat="55.7797132" lon="49.2547490"><time>2026-01-18T09:50:35.053</time></trkpt><trkpt lat="55.7797585" lon="49.2547533"><time>2026-01-18T09:50:37.080</time></trkpt><trkpt lat="55.7798069" lon="49.2548080"><time>2026-01-18T09:50:40.057</time></trkpt><trkpt lat="55.7798094" lon="49.2548208"><time>2026-01-18T09:50:45.913</time></trkpt><trkpt lat="55.7798462" lon="49.2547485"><time>2026-01-18T09:50:52.040</time></trkpt><trkpt lat="55.7798925" lon="49.2547162"><time>2026-01-18T09:50:55.040</time></trkpt><trkpt lat="55.7799435" lon="49.2546932"><time>2026-01-18T09:50:57.050</time></trkpt><trkpt lat="55.7799998" lon="49.2546780"><time>2026-01-18T09:50:59.033</time></trkpt><trkpt lat="55.7800562" lon="49.2546741"><time>2026-01-18T09:51:01.057</time></trkpt><trkpt lat="55.7801082" lon="49.2546574"><time>2026-01-18T09:51:03.030</time></trkpt><trkpt lat="55.7801544" lon="49.2546418"><time>2026-01-18T09:51:05.057</time></trkpt><trkpt lat="55.7802153" lon="49.2546158"><time>2026-01-18T09:51:06.033</time></trkpt><trkpt lat="55.7802714" lon="49.2546003"><time>2026-01-18T09:51:08.053</time></trkpt><trkpt lat="55.7803178" lon="49.2545963"><time>2026-01-18T09:51:10.080</time></trkpt><trkpt lat="55.7803763" lon="49.2546071"><time>2026-01-18T09:51:13.030</time></trkpt><trkpt lat="55.7804244" lon="49.2546109"><time>2026-01-18T09:51:15.037</time></trkpt><trkpt lat="55.7804741" lon="49.2546085"><time>2026-01-18T09:51:17.057</time></trkpt><trkpt lat="55.7805276" lon="49.2546085"><time>2026-01-18T09:51:19.033</time></trkpt><trkpt lat="55.7805762" lon="49.2546245"><time>2026-01-18T09:51:21.030</time></trkpt><trkpt lat="55.7806288" lon="49.2546278"><time>2026-01-18T09:51:23.053</time></trkpt><trkpt lat="55.7806839" lon="49.2546197"><time>2026-01-18T09:51:25.047</time></trkpt><trkpt lat="55.7807340" lon="49.2546198"><time>2026-01-18T09:51:27.060</time></trkpt><trkpt lat="55.7807893" lon="49.2546317"><time>2026-01-18T09:51:29.033</time></trkpt><trkpt lat="55.7808487" lon="49.2546517"><time>2026-01-18T09:51:31.053</time></trkpt><trkpt lat="55.7809110" lon="49.2546652"><time>2026-01-18T09:51:33.053</time></trkpt><trkpt lat="55.7810307" lon="49.2546893"><time>2026-01-18T09:51:35.037</time></trkpt><trkpt lat="55.7810867" lon="49.2547059"><time>2026-01-18T09:51:37.037</time></trkpt><trkpt lat="55.7811336" lon="49.2547405"><time>2026-01-18T09:51:41.053</time></trkpt><trkpt lat="55.7811901" lon="49.2547594"><time>2026-01-18T09:51:44.057</time></trkpt><trkpt lat="55.7812411" lon="49.2547329"><time>2026-01-18T09:51:46.077</time></trkpt><trkpt lat="55.7812916" lon="49.2547030"><time>2026-01-18T09:51:48.033</time></trkpt><trkpt lat="55.7813368" lon="49.2546830"><time>2026-01-18T09:51:50.037</time></trkpt><trkpt lat="55.7813856" lon="49.2546663"><time>2026-01-18T09:51:52.080</time></trkpt><trkpt lat="55.7814365" lon="49.2546449"><time>2026-01-18T09:51:54.057</time></trkpt><trkpt lat="55.7814848" lon="49.2546294"><time>2026-01-18T09:51:56.060</time></trkpt><trkpt lat="55.7815370" lon="49.2546031"><time>2026-01-18T09:51:58.080</time></trkpt><trkpt lat="55.7815860" lon="49.2545816"><time>2026-01-18T09:52:00.057</time></trkpt><trkpt lat="55.7816331" lon="49.2545616"><time>2026-01-18T09:52:02.033</time></trkpt><trkpt lat="55.7816840" lon="49.2545382"><time>2026-01-18T09:52:04.087</time></trkpt><trkpt lat="55.7817326" lon="49.2545205"><time>2026-01-18T09:52:06.057</time></trkpt><trkpt lat="55.7817868" lon="49.2545046"><time>2026-01-18T09:52:08.053</time></trkpt><trkpt lat="55.7818432" lon="49.2544755"><time>2026-01-18T09:52:10.070</time></trkpt><trkpt lat="55.7819002" lon="49.2544495"><time>2026-01-18T09:52:12.053</time></trkpt><trkpt lat="55.7819544" lon="49.2544198"><time>2026-01-18T09:52:14.053</time></trkpt><trkpt lat="55.7820074" lon="49.2543820"><time>2026-01-18T09:52:16.057</time></trkpt><trkpt lat="55.7820535" lon="49.2543232"><time>2026-01-18T09:52:18.057</time></trkpt><trkpt lat="55.7821012" lon="49.2542452"><time>2026-01-18T09:52:20.093</time></trkpt><trkpt lat="55.7821652" lon="49.2541962"><time>2026-01-18T09:52:22.060</time></trkpt><trkpt lat="55.7822249" lon="49.2541805"><time>2026-01-18T09:52:24.057</time></trkpt><trkpt lat="55.7822851" lon="49.2541805"><time>2026-01-18T09:52:26.063</time></trkpt><trkpt lat="55.7823475" lon="49.2541892"><time>2026-01-18T09:52:28.037</time></trkpt><trkpt lat="55.7824067" lon="49.2542050"><time>2026-01-18T09:52:30.053</time></trkpt><trkpt lat="55.7824636" lon="49.2542209"><time>2026-01-18T09:52:32.063</time></trkpt><trkpt lat="55.7825148" lon="49.2542361"><time>2026-01-18T09:52:34.027</time></trkpt><trkpt lat="55.7825639" lon="49.2542460"><time>2026-01-18T09:52:36.050</time></trkpt><trkpt lat="55.7826130" lon="49.2542558"><time>2026-01-18T09:52:38.037</time></trkpt><trkpt lat="55.7826638" lon="49.2542719"><time>2026-01-18T09:52:40.053</time></trkpt><trkpt lat="55.7827149" lon="49.2542892"><time>2026-01-18T09:52:42.067</time></trkpt><trkpt lat="55.7827590" lon="49.2543114"><time>2026-01-18T09:52:44.040</time></trkpt><trkpt lat="55.7828247" lon="49.2543428"><time>2026-01-18T09:52:47.070</time></trkpt><trkpt lat="55.7828702" lon="49.2543619"><time>2026-01-18T09:52:49.057</time></trkpt><trkpt lat="55.7829175" lon="49.2543591"><time>2026-01-18T09:52:51.037</time></trkpt><trkpt lat="55.7829723" lon="49.2543237"><time>2026-01-18T09:52:53.057</time></trkpt><trkpt lat="55.7830243" lon="49.2543016"><time>2026-01-18T09:52:55.057</time></trkpt><trkpt lat="55.7830795" lon="49.2542788"><time>2026-01-18T09:52:57.040</time></trkpt><trkpt lat="55.7831370" lon="49.2542582"><time>2026-01-18T09:52:59.057</time></trkpt><trkpt lat="55.7831948" lon="49.2542343"><time>2026-01-18T09:53:01.060</time></trkpt><trkpt lat="55.7832491" lon="49.2542121"><time>2026-01-18T09:53:03.037</time></trkpt><trkpt lat="55.7832971" lon="49.2541839"><time>2026-01-18T09:53:05.033</time></trkpt><trkpt lat="55.7833494" lon="49.2541536"><time>2026-01-18T09:53:07.043</time></trkpt><trkpt lat="55.7834053" lon="49.2541181"><time>2026-01-18T09:53:09.037</time></trkpt><trkpt lat="55.7834591" lon="49.2540917"><time>2026-01-18T09:53:11.057</time></trkpt><trkpt lat="55.7835156" lon="49.2540706"><time>2026-01-18T09:53:13.057</time></trkpt><trkpt lat="55.7835706" lon="49.2540452"><time>2026-01-18T09:53:15.057</time></trkpt><trkpt lat="55.7836233" lon="49.2540249"><time>2026-01-18T09:53:17.057</time></trkpt><trkpt lat="55.7836790" lon="49.2540159"><time>2026-01-18T09:53:19.053</time></trkpt><trkpt lat="55.7837278" lon="49.2540001"><time>2026-01-18T09:53:21.037</time></trkpt><trkpt lat="55.7837784" lon="49.2539877"><time>2026-01-18T09:53:23.050</time></trkpt><trkpt lat="55.7838333" lon="49.2539824"><time>2026-01-18T09:53:25.057</time></trkpt><trkpt lat="55.7838895" lon="49.2539879"><time>2026-01-18T09:53:27.057</time></trkpt><trkpt lat="55.7839427" lon="49.2540044"><time>2026-01-18T09:53:29.083</time></trkpt><trkpt lat="55.7839937" lon="49.2540401"><time>2026-01-18T09:53:31.057</time></trkpt><trkpt lat="55.7840385" lon="49.2541010"><time>2026-01-18T09:53:33.057</time></trkpt><trkpt lat="55.7840858" lon="49.2541735"><time>2026-01-18T09:53:35.073</time></trkpt><trkpt lat="55.7841233" lon="49.2542389"><time>2026-01-18T09:53:37.057</time></trkpt><trkpt lat="55.7841585" lon="49.2543030"><time>2026-01-18T09:53:39.053</time></trkpt><trkpt lat="55.7841900" lon="49.2543631"><time>2026-01-18T09:53:41.033</time></trkpt><trkpt lat="55.7842392" lon="49.2544402"><time>2026-01-18T09:53:44.037</time></trkpt><trkpt lat="55.7842755" lon="49.2545059"><time>2026-01-18T09:53:46.057</time></trkpt><trkpt lat="55.7843098" lon="49.2545801"><time>2026-01-18T09:53:48.057</time></trkpt><trkpt lat="55.7843434" lon="49.2546444"><time>2026-01-18T09:53:50.057</time></trkpt><trkpt lat="55.7843799" lon="49.2547096"><time>2026-01-18T09:53:52.077</time></trkpt><trkpt lat="55.7844152" lon="49.2547803"><time>2026-01-18T09:53:54.037</time></trkpt><trkpt lat="55.7844499" lon="49.2548426"><time>2026-01-18T09:53:56.057</time></trkpt><trkpt lat="55.7844860" lon="49.2548901"><time>2026-01-18T09:53:58.060</time></trkpt><trkpt lat="55.7845243" lon="49.2549488"><time>2026-01-18T09:54:00.060</time></trkpt><trkpt lat="55.7845610" lon="49.2550129"><time>2026-01-18T09:54:02.057</time></trkpt><trkpt lat="55.7846122" lon="49.2550857"><time>2026-01-18T09:54:05.037</time></trkpt><trkpt lat="55.7846492" lon="49.2551482"><time>2026-01-18T09:54:07.057</time></trkpt><trkpt lat="55.7846823" lon="49.2552136"><time>2026-01-18T09:54:08.037</time></trkpt><trkpt lat="55.7847112" lon="49.2552776"><time>2026-01-18T09:54:09.037</time></trkpt><trkpt lat="55.7847355" lon="49.2553504"><time>2026-01-18T09:54:11.060</time></trkpt><trkpt lat="55.7847607" lon="49.2554566"><time>2026-01-18T09:54:14.057</time></trkpt><trkpt lat="55.7848126" lon="49.2555192"><time>2026-01-18T09:54:23.053</time></trkpt><trkpt lat="55.7848625" lon="49.2555535"><time>2026-01-18T09:54:25.063</time></trkpt><trkpt lat="55.7849130" lon="49.2555721"><time>2026-01-18T09:54:27.080</time></trkpt><trkpt lat="55.7849571" lon="49.2555561"><time>2026-01-18T09:54:29.043</time></trkpt><trkpt lat="55.7849920" lon="49.2554797"><time>2026-01-18T09:54:32.137</time></trkpt><trkpt lat="55.7849558" lon="49.2554681"><time>2026-01-18T09:54:36.247</time></trkpt><trkpt lat="55.7849398" lon="49.2555674"><time>2026-01-18T09:54:45.060</time></trkpt><trkpt lat="55.7848829" lon="49.2555914"><time>2026-01-18T09:54:47.057</time></trkpt><trkpt lat="55.7848338" lon="49.2556621"><time>2026-01-18T09:54:49.080</time></trkpt><trkpt lat="55.7848027" lon="49.2557365"><time>2026-01-18T09:54:51.060</time></trkpt><trkpt lat="55.7848001" lon="49.2558540"><time>2026-01-18T09:54:55.080</time></trkpt><trkpt lat="55.7848142" lon="49.2559724"><time>2026-01-18T09:54:58.060</time></trkpt><trkpt lat="55.7848212" lon="49.2560766"><time>2026-01-18T09:55:01.100</time></trkpt><trkpt lat="55.7848449" lon="49.2561758"><time>2026-01-18T09:55:04.037</time></trkpt><trkpt lat="55.7848933" lon="49.2562493"><time>2026-01-18T09:55:07.057</time></trkpt><trkpt lat="55.7849448" lon="49.2563157"><time>2026-01-18T09:55:10.037</time></trkpt><trkpt lat="55.7849843" lon="49.2564059"><time>2026-01-18T09:55:13.067</time></trkpt><trkpt lat="55.7850102" lon="49.2564749"><time>2026-01-18T09:55:15.047</time></trkpt><trkpt lat="55.7850795" lon="49.2565579"><time>2026-01-18T09:55:18.083</time></trkpt><trkpt lat="55.7851221" lon="49.2566264"><time>2026-01-18T09:55:20.060</time></trkpt><trkpt lat="55.7851525" lon="49.2566937"><time>2026-01-18T09:55:22.063</time></trkpt><trkpt lat="55.7851936" lon="49.2567518"><time>2026-01-18T09:55:24.080</time></trkpt><trkpt lat="55.7852414" lon="49.2567954"><time>2026-01-18T09:55:26.060</time></trkpt><trkpt lat="55.7852866" lon="49.2568248"><time>2026-01-18T09:55:28.067</time></trkpt><trkpt lat="55.7853338" lon="49.2568484"><time>2026-01-18T09:55:30.083</time></trkpt><trkpt lat="55.7853777" lon="49.2568785"><time>2026-01-18T09:55:32.063</time></trkpt><trkpt lat="55.7854194" lon="49.2569300"><time>2026-01-18T09:55:34.063</time></trkpt><trkpt lat="55.7854570" lon="49.2569843"><time>2026-01-18T09:55:36.083</time></trkpt><trkpt lat="55.7854949" lon="49.2570339"><time>2026-01-18T09:55:38.063</time></trkpt><trkpt lat="55.7855399" lon="49.2570875"><time>2026-01-18T09:55:40.057</time></trkpt><trkpt lat="55.7855766" lon="49.2571544"><time>2026-01-18T09:55:42.090</time></trkpt><trkpt lat="55.7856146" lon="49.2572004"><time>2026-01-18T09:55:44.063</time></trkpt><trkpt lat="55.7856805" lon="49.2572767"><time>2026-01-18T09:55:46.060</time></trkpt><trkpt lat="55.7857373" lon="49.2573634"><time>2026-01-18T09:55:48.063</time></trkpt><trkpt lat="55.7857757" lon="49.2574422"><time>2026-01-18T09:55:50.067</time></trkpt><trkpt lat="55.7857945" lon="49.2575184"><time>2026-01-18T09:55:52.053</time></trkpt><trkpt lat="55.7858284" lon="49.2576024"><time>2026-01-18T09:55:54.063</time></trkpt><trkpt lat="55.7858735" lon="49.2576239"><time>2026-01-18T09:55:57.047</time></trkpt><trkpt lat="55.7859125" lon="49.2576850"><time>2026-01-18T09:55:59.083</time></trkpt><trkpt lat="55.7859590" lon="49.2577810"><time>2026-01-18T09:56:01.060</time></trkpt><trkpt lat="55.7859890" lon="49.2578507"><time>2026-01-18T09:56:03.057</time></trkpt><trkpt lat="55.7860162" lon="49.2579249"><time>2026-01-18T09:56:05.090</time></trkpt><trkpt lat="55.7860357" lon="49.2580113"><time>2026-01-18T09:56:07.057</time></trkpt><trkpt lat="55.7860601" lon="49.2581163"><time>2026-01-18T09:56:10.033</time></trkpt><trkpt lat="55.7860734" lon="49.2582009"><time>2026-01-18T09:56:12.030</time></trkpt><trkpt lat="55.7860960" lon="49.2583089"><time>2026-01-18T09:56:14.043</time></trkpt><trkpt lat="55.7861214" lon="49.2584200"><time>2026-01-18T09:56:16.027</time></trkpt><trkpt lat="55.7861441" lon="49.2585090"><time>2026-01-18T09:56:19.060</time></trkpt><trkpt lat="55.7861735" lon="49.2585979"><time>2026-01-18T09:56:22.057</time></trkpt><trkpt lat="55.7862056" lon="49.2587019"><time>2026-01-18T09:56:25.077</time></trkpt><trkpt lat="55.7862567" lon="49.2588412"><time>2026-01-18T09:56:28.063</time></trkpt><trkpt lat="55.7862718" lon="49.2589168"><time>2026-01-18T09:56:30.060</time></trkpt><trkpt lat="55.7862780" lon="49.2590109"><time>2026-01-18T09:56:32.057</time></trkpt><trkpt lat="55.7862765" lon="49.2591070"><time>2026-01-18T09:56:34.067</time></trkpt><trkpt lat="55.7862378" lon="49.2592025"><time>2026-01-18T09:56:37.060</time></trkpt><trkpt lat="55.7862129" lon="49.2592824"><time>2026-01-18T09:56:39.053</time></trkpt><trkpt lat="55.7862001" lon="49.2593680"><time>2026-01-18T09:56:41.037</time></trkpt><trkpt lat="55.7862041" lon="49.2594725"><time>2026-01-18T09:56:44.057</time></trkpt><trkpt lat="55.7861781" lon="49.2595500"><time>2026-01-18T09:56:46.037</time></trkpt><trkpt lat="55.7861260" lon="49.2595614"><time>2026-01-18T09:56:49.067</time></trkpt><trkpt lat="55.7861333" lon="49.2596621"><time>2026-01-18T09:56:54.037</time></trkpt><trkpt lat="55.7861477" lon="49.2597551"><time>2026-01-18T09:56:57.037</time></trkpt><trkpt lat="55.7861620" lon="49.2598624"><time>2026-01-18T09:56:59.057</time></trkpt><trkpt lat="55.7861658" lon="49.2599539"><time>2026-01-18T09:57:01.067</time></trkpt><trkpt lat="55.7861722" lon="49.2600360"><time>2026-01-18T09:57:03.063</time></trkpt><trkpt lat="55.7862012" lon="49.2601018"><time>2026-01-18T09:57:05.097</time></trkpt><trkpt lat="55.7862489" lon="49.2601449"><time>2026-01-18T09:57:07.057</time></trkpt><trkpt lat="55.7863081" lon="49.2602041"><time>2026-01-18T09:57:09.060</time></trkpt><trkpt lat="55.7863573" lon="49.2602757"><time>2026-01-18T09:57:11.057</time></trkpt><trkpt lat="55.7863922" lon="49.2603448"><time>2026-01-18T09:57:13.060</time></trkpt><trkpt lat="55.7864254" lon="49.2604181"><time>2026-01-18T09:57:15.063</time></trkpt><trkpt lat="55.7864592" lon="49.2604831"><time>2026-01-18T09:57:17.060</time></trkpt><trkpt lat="55.7864915" lon="49.2605427"><time>2026-01-18T09:57:19.053</time></trkpt><trkpt lat="55.7865236" lon="49.2606042"><time>2026-01-18T09:57:21.060</time></trkpt><trkpt lat="55.7865559" lon="49.2606691"><time>2026-01-18T09:57:23.060</time></trkpt><trkpt lat="55.7865847" lon="49.2607307"><time>2026-01-18T09:57:25.063</time></trkpt><trkpt lat="55.7866154" lon="49.2608285"><time>2026-01-18T09:57:28.087</time></trkpt><trkpt lat="55.7866538" lon="49.2609034"><time>2026-01-18T09:57:31.037</time></trkpt><trkpt lat="55.7867045" lon="49.2609837"><time>2026-01-18T09:57:34.087</time></trkpt><trkpt lat="55.7867331" lon="49.2610840"><time>2026-01-18T09:57:36.053</time></trkpt><trkpt lat="55.7867379" lon="49.2611738"><time>2026-01-18T09:57:38.053</time></trkpt><trkpt lat="55.7867337" lon="49.2612589"><time>2026-01-18T09:57:42.060</time></trkpt><trkpt lat="55.7867299" lon="49.2613443"><time>2026-01-18T09:57:47.057</time></trkpt><trkpt lat="55.7866859" lon="49.2613226"><time>2026-01-18T09:57:54.057</time></trkpt><trkpt lat="55.7866491" lon="49.2613758"><time>2026-01-18T09:58:00.067</time></trkpt><trkpt lat="55.7866087" lon="49.2614208"><time>2026-01-18T09:58:05.047</time></trkpt><trkpt lat="55.7865692" lon="49.2614669"><time>2026-01-18T09:58:10.057</time></trkpt><trkpt lat="55.7865315" lon="49.2615477"><time>2026-01-18T09:58:13.070</time></trkpt><trkpt lat="55.7864796" lon="49.2616289"><time>2026-01-18T09:58:15.087</time></trkpt><trkpt lat="55.7864370" lon="49.2617188"><time>2026-01-18T09:58:18.070</time></trkpt><trkpt lat="55.7864126" lon="49.2617954"><time>2026-01-18T09:58:20.073</time></trkpt><trkpt lat="55.7863843" lon="49.2618807"><time>2026-01-18T09:58:22.060</time></trkpt><trkpt lat="55.7863673" lon="49.2619735"><time>2026-01-18T09:58:24.073</time></trkpt><trkpt lat="55.7863589" lon="49.2620728"><time>2026-01-18T09:58:26.037</time></trkpt><trkpt lat="55.7863457" lon="49.2621668"><time>2026-01-18T09:58:28.060</time></trkpt><trkpt lat="55.7863281" lon="49.2622564"><time>2026-01-18T09:58:30.073</time></trkpt><trkpt lat="55.7863058" lon="49.2623391"><time>2026-01-18T09:58:32.090</time></trkpt><trkpt lat="55.7862816" lon="49.2624161"><time>2026-01-18T09:58:34.067</time></trkpt><trkpt lat="55.7862623" lon="49.2624996"><time>2026-01-18T09:58:36.063</time></trkpt><trkpt lat="55.7862442" lon="49.2625756"><time>2026-01-18T09:58:38.040</time></trkpt><trkpt lat="55.7862280" lon="49.2626716"><time>2026-01-18T09:58:40.057</time></trkpt><trkpt lat="55.7862115" lon="49.2627835"><time>2026-01-18T09:58:42.053</time></trkpt><trkpt lat="55.7861905" lon="49.2628647"><time>2026-01-18T09:58:44.083</time></trkpt><trkpt lat="55.7861709" lon="49.2629436"><time>2026-01-18T09:58:46.053</time></trkpt><trkpt lat="55.7861513" lon="49.2630162"><time>2026-01-18T09:58:48.060</time></trkpt><trkpt lat="55.7861209" lon="49.2631497"><time>2026-01-18T09:58:51.040</time></trkpt><trkpt lat="55.7860983" lon="49.2632303"><time>2026-01-18T09:58:53.063</time></trkpt><trkpt lat="55.7860671" lon="49.2633130"><time>2026-01-18T09:58:56.080</time></trkpt><trkpt lat="55.7860422" lon="49.2633918"><time>2026-01-18T09:59:01.053</time></trkpt><trkpt lat="55.7860311" lon="49.2634895"><time>2026-01-18T09:59:10.067</time></trkpt><trkpt lat="55.7860389" lon="49.2635729"><time>2026-01-18T09:59:13.083</time></trkpt><trkpt lat="55.7860480" lon="49.2636626"><time>2026-01-18T09:59:16.057</time></trkpt><trkpt lat="55.7860519" lon="49.2637470"><time>2026-01-18T09:59:19.063</time></trkpt><trkpt lat="55.7860266" lon="49.2636524"><time>2026-01-18T09:59:22.037</time></trkpt><trkpt lat="55.7860208" lon="49.2635482"><time>2026-01-18T09:59:24.083</time></trkpt><trkpt lat="55.7860207" lon="49.2634586"><time>2026-01-18T09:59:26.053</time></trkpt><trkpt lat="55.7860266" lon="49.2633770"><time>2026-01-18T09:59:28.050</time></trkpt><trkpt lat="55.7860066" lon="49.2632753"><time>2026-01-18T09:59:31.053</time></trkpt><trkpt lat="55.7859943" lon="49.2632264"><time>2026-01-18T09:59:34.153</time></trkpt><trkpt lat="55.7860582" lon="49.2632193"><time>2026-01-18T09:59:42.057</time></trkpt><trkpt lat="55.7860806" lon="49.2631208"><time>2026-01-18T09:59:47.060</time></trkpt><trkpt lat="55.7860946" lon="49.2630188"><time>2026-01-18T09:59:49.083</time></trkpt><trkpt lat="55.7861184" lon="49.2629076"><time>2026-01-18T09:59:51.053</time></trkpt><trkpt lat="55.7861423" lon="49.2628148"><time>2026-01-18T09:59:53.063</time></trkpt><trkpt lat="55.7861712" lon="49.2627258"><time>2026-01-18T09:59:55.080</time></trkpt><trkpt lat="55.7861950" lon="49.2626452"><time>2026-01-18T09:59:57.060</time></trkpt><trkpt lat="55.7862238" lon="49.2625414"><time>2026-01-18T10:00:00.060</time></trkpt><trkpt lat="55.7862485" lon="49.2624523"><time>2026-01-18T10:00:02.037</time></trkpt><trkpt lat="55.7862750" lon="49.2623555"><time>2026-01-18T10:00:04.057</time></trkpt><trkpt lat="55.7862967" lon="49.2622696"><time>2026-01-18T10:00:06.037</time></trkpt><trkpt lat="55.7863219" lon="49.2621808"><time>2026-01-18T10:00:08.060</time></trkpt><trkpt lat="55.7863445" lon="49.2620915"><time>2026-01-18T10:00:10.060</time></trkpt><trkpt lat="55.7863636" lon="49.2620017"><time>2026-01-18T10:00:12.063</time></trkpt><trkpt lat="55.7863802" lon="49.2619129"><time>2026-01-18T10:00:14.060</time></trkpt><trkpt lat="55.7864040" lon="49.2618241"><time>2026-01-18T10:00:16.060</time></trkpt><trkpt lat="55.7864464" lon="49.2617491"><time>2026-01-18T10:00:18.037</time></trkpt><trkpt lat="55.7865011" lon="49.2617216"><time>2026-01-18T10:00:20.037</time></trkpt><trkpt lat="55.7865582" lon="49.2617306"><time>2026-01-18T10:00:22.067</time></trkpt><trkpt lat="55.7866101" lon="49.2617349"><time>2026-01-18T10:00:24.060</time></trkpt><trkpt lat="55.7866600" lon="49.2616546"><time>2026-01-18T10:00:27.060</time></trkpt><trkpt lat="55.7866773" lon="49.2615634"><time>2026-01-18T10:00:29.037</time></trkpt><trkpt lat="55.7866880" lon="49.2614627"><time>2026-01-18T10:00:31.060</time></trkpt><trkpt lat="55.7866881" lon="49.2613267"><time>2026-01-18T10:00:33.057</time></trkpt><trkpt lat="55.7867076" lon="49.2612135"><time>2026-01-18T10:00:35.060</time></trkpt><trkpt lat="55.7867088" lon="49.2611035"><time>2026-01-18T10:00:37.060</time></trkpt><trkpt lat="55.7867042" lon="49.2610064"><time>2026-01-18T10:00:39.073</time></trkpt><trkpt lat="55.7867307" lon="49.2609144"><time>2026-01-18T10:00:42.073</time></trkpt><trkpt lat="55.7867771" lon="49.2609159"><time>2026-01-18T10:00:44.057</time></trkpt><trkpt lat="55.7868256" lon="49.2609513"><time>2026-01-18T10:00:46.060</time></trkpt><trkpt lat="55.7868771" lon="49.2609900"><time>2026-01-18T10:00:48.063</time></trkpt><trkpt lat="55.7869236" lon="49.2610237"><time>2026-01-18T10:00:50.060</time></trkpt><trkpt lat="55.7869658" lon="49.2610630"><time>2026-01-18T10:00:53.083</time></trkpt><trkpt lat="55.7870294" lon="49.2610759"><time>2026-01-18T10:00:56.060</time></trkpt><trkpt lat="55.7870836" lon="49.2610729"><time>2026-01-18T10:00:58.067</time></trkpt><trkpt lat="55.7871347" lon="49.2610660"><time>2026-01-18T10:01:00.063</time></trkpt><trkpt lat="55.7871825" lon="49.2610620"><time>2026-01-18T10:01:02.067</time></trkpt><trkpt lat="55.7872368" lon="49.2610530"><time>2026-01-18T10:01:04.060</time></trkpt><trkpt lat="55.7872964" lon="49.2610403"><time>2026-01-18T10:01:06.073</time></trkpt><trkpt lat="55.7873518" lon="49.2610231"><time>2026-01-18T10:01:08.077</time></trkpt><trkpt lat="55.7874039" lon="49.2610003"><time>2026-01-18T10:01:10.070</time></trkpt><trkpt lat="55.7874564" lon="49.2609828"><time>2026-01-18T10:01:12.057</time></trkpt><trkpt lat="55.7875073" lon="49.2609635"><time>2026-01-18T10:01:14.053</time></trkpt><trkpt lat="55.7875524" lon="49.2609291"><time>2026-01-18T10:01:16.067</time></trkpt><trkpt lat="55.7875892" lon="49.2608782"><time>2026-01-18T10:01:18.053</time></trkpt><trkpt lat="55.7876275" lon="49.2608228"><time>2026-01-18T10:01:20.060</time></trkpt><trkpt lat="55.7876657" lon="49.2607749"><time>2026-01-18T10:01:22.070</time></trkpt><trkpt lat="55.7877070" lon="49.2607359"><time>2026-01-18T10:01:24.067</time></trkpt><trkpt lat="55.7877483" lon="49.2606912"><time>2026-01-18T10:01:26.053</time></trkpt><trkpt lat="55.7877901" lon="49.2606337"><time>2026-01-18T10:01:28.067</time></trkpt><trkpt lat="55.7878291" lon="49.2605832"><time>2026-01-18T10:01:30.057</time></trkpt><trkpt lat="55.7878690" lon="49.2605342"><time>2026-01-18T10:01:32.070</time></trkpt><trkpt lat="55.7879095" lon="49.2604830"><time>2026-01-18T10:01:34.060</time></trkpt><trkpt lat="55.7879504" lon="49.2604287"><time>2026-01-18T10:01:36.057</time></trkpt><trkpt lat="55.7879975" lon="49.2603692"><time>2026-01-18T10:01:38.073</time></trkpt><trkpt lat="55.7880475" lon="49.2602845"><time>2026-01-18T10:01:40.060</time></trkpt><trkpt lat="55.7880895" lon="49.2602334"><time>2026-01-18T10:01:42.070</time></trkpt><trkpt lat="55.7881339" lon="49.2601914"><time>2026-01-18T10:01:44.063</time></trkpt><trkpt lat="55.7881879" lon="49.2601311"><time>2026-01-18T10:01:47.053</time></trkpt><trkpt lat="55.7882261" lon="49.2600862"><time>2026-01-18T10:01:49.060</time></trkpt><trkpt lat="55.7882651" lon="49.2600309"><time>2026-01-18T10:01:51.087</time></trkpt><trkpt lat="55.7883079" lon="49.2599765"><time>2026-01-18T10:01:53.053</time></trkpt><trkpt lat="55.7883455" lon="49.2599328"><time>2026-01-18T10:01:55.073</time></trkpt><trkpt lat="55.7884014" lon="49.2598689"><time>2026-01-18T10:01:58.063</time></trkpt><trkpt lat="55.7884407" lon="49.2598191"><time>2026-01-18T10:02:00.073</time></trkpt><trkpt lat="55.7884753" lon="49.2597608"><time>2026-01-18T10:02:02.073</time></trkpt><trkpt lat="55.7885109" lon="49.2596683"><time>2026-01-18T10:02:05.057</time></trkpt><trkpt lat="55.7885150" lon="49.2595671"><time>2026-01-18T10:02:08.067</time></trkpt><trkpt lat="55.7884856" lon="49.2594788"><time>2026-01-18T10:02:11.057</time></trkpt><trkpt lat="55.7884404" lon="49.2593982"><time>2026-01-18T10:02:14.037</time></trkpt><trkpt lat="55.7883914" lon="49.2593322"><time>2026-01-18T10:02:17.043</time></trkpt><trkpt lat="55.7883422" lon="49.2592588"><time>2026-01-18T10:02:20.063</time></trkpt><trkpt lat="55.7883032" lon="49.2592023"><time>2026-01-18T10:02:22.067</time></trkpt><trkpt lat="55.7882692" lon="49.2591435"><time>2026-01-18T10:02:24.060</time></trkpt><trkpt lat="55.7882358" lon="49.2590725"><time>2026-01-18T10:02:26.060</time></trkpt><trkpt lat="55.7881926" lon="49.2589961"><time>2026-01-18T10:02:28.060</time></trkpt><trkpt lat="55.7881592" lon="49.2589215"><time>2026-01-18T10:02:30.070</time></trkpt><trkpt lat="55.7881254" lon="49.2588486"><time>2026-01-18T10:02:32.060</time></trkpt><trkpt lat="55.7880937" lon="49.2587738"><time>2026-01-18T10:02:34.067</time></trkpt><trkpt lat="55.7880617" lon="49.2587066"><time>2026-01-18T10:02:36.053</time></trkpt><trkpt lat="55.7880146" lon="49.2586501"><time>2026-01-18T10:02:38.067</time></trkpt><trkpt lat="55.7879774" lon="49.2585747"><time>2026-01-18T10:02:40.067</time></trkpt><trkpt lat="55.7879564" lon="49.2584825"><time>2026-01-18T10:02:42.070</time></trkpt><trkpt lat="55.7879529" lon="49.2583963"><time>2026-01-18T10:02:44.067</time></trkpt><trkpt lat="55.7879524" lon="49.2582865"><time>2026-01-18T10:02:46.060</time></trkpt><trkpt lat="55.7879564" lon="49.2581964"><time>2026-01-18T10:02:48.060</time></trkpt><trkpt lat="55.7879653" lon="49.2581139"><time>2026-01-18T10:02:50.060</time></trkpt><trkpt lat="55.7879751" lon="49.2580354"><time>2026-01-18T10:02:52.060</time></trkpt><trkpt lat="55.7879909" lon="49.2579546"><time>2026-01-18T10:02:54.040</time></trkpt><trkpt lat="55.7880043" lon="49.2578741"><time>2026-01-18T10:02:56.063</time></trkpt><trkpt lat="55.7880163" lon="49.2577920"><time>2026-01-18T10:02:59.040</time></trkpt><trkpt lat="55.7880787" lon="49.2577344"><time>2026-01-18T10:03:02.063</time></trkpt><trkpt lat="55.7881260" lon="49.2576995"><time>2026-01-18T10:03:04.053</time></trkpt><trkpt lat="55.7881711" lon="49.2576683"><time>2026-01-18T10:03:06.087</time></trkpt><trkpt lat="55.7882088" lon="49.2575837"><time>2026-01-18T10:03:09.063</time></trkpt><trkpt lat="55.7882062" lon="49.2574994"><time>2026-01-18T10:03:11.037</time></trkpt><trkpt lat="55.7882069" lon="49.2574083"><time>2026-01-18T10:03:14.050</time></trkpt><trkpt lat="55.7881821" lon="49.2573227"><time>2026-01-18T10:03:17.037</time></trkpt><trkpt lat="55.7881711" lon="49.2572373"><time>2026-01-18T10:03:19.060</time></trkpt><trkpt lat="55.7881718" lon="49.2571503"><time>2026-01-18T10:03:21.060</time></trkpt><trkpt lat="55.7881989" lon="49.2570633"><time>2026-01-18T10:03:23.057</time></trkpt><trkpt lat="55.7882278" lon="49.2569873"><time>2026-01-18T10:03:25.053</time></trkpt><trkpt lat="55.7882652" lon="49.2569210"><time>2026-01-18T10:03:27.060</time></trkpt><trkpt lat="55.7883179" lon="49.2568743"><time>2026-01-18T10:03:29.073</time></trkpt><trkpt lat="55.7883668" lon="49.2568279"><time>2026-01-18T10:03:31.067</time></trkpt><trkpt lat="55.7884122" lon="49.2568018"><time>2026-01-18T10:03:33.060</time></trkpt><trkpt lat="55.7884753" lon="49.2567719"><time>2026-01-18T10:03:36.090</time></trkpt><trkpt lat="55.7885391" lon="49.2567532"><time>2026-01-18T10:03:39.067</time></trkpt><trkpt lat="55.7885825" lon="49.2567863"><time>2026-01-18T10:03:41.067</time></trkpt><trkpt lat="55.7886155" lon="49.2568533"><time>2026-01-18T10:03:43.060</time></trkpt><trkpt lat="55.7886509" lon="49.2569352"><time>2026-01-18T10:03:45.063</time></trkpt><trkpt lat="55.7886930" lon="49.2570134"><time>2026-01-18T10:03:47.047</time></trkpt><trkpt lat="55.7887336" lon="49.2570821"><time>2026-01-18T10:03:49.060</time></trkpt><trkpt lat="55.7887710" lon="49.2571578"><time>2026-01-18T10:03:51.063</time></trkpt><trkpt lat="55.7888043" lon="49.2572288"><time>2026-01-18T10:03:53.060</time></trkpt><trkpt lat="55.7888599" lon="49.2572643"><time>2026-01-18T10:03:56.063</time></trkpt><trkpt lat="55.7889075" lon="49.2572226"><time>2026-01-18T10:03:58.073</time></trkpt><trkpt lat="55.7889532" lon="49.2571791"><time>2026-01-18T10:04:00.070</time></trkpt><trkpt lat="55.7889971" lon="49.2571504"><time>2026-01-18T10:04:02.070</time></trkpt><trkpt lat="55.7890567" lon="49.2571160"><time>2026-01-18T10:04:05.093</time></trkpt><trkpt lat="55.7891004" lon="49.2570905"><time>2026-01-18T10:04:07.067</time></trkpt><trkpt lat="55.7891499" lon="49.2570645"><time>2026-01-18T10:04:09.077</time></trkpt><trkpt lat="55.7891955" lon="49.2570417"><time>2026-01-18T10:04:11.070</time></trkpt><trkpt lat="55.7892267" lon="49.2569747"><time>2026-01-18T10:04:14.043</time></trkpt><trkpt lat="55.7892008" lon="49.2569032"><time>2026-01-18T10:04:17.040</time></trkpt><trkpt lat="55.7891839" lon="49.2568286"><time>2026-01-18T10:04:19.067</time></trkpt><trkpt lat="55.7891674" lon="49.2567434"><time>2026-01-18T10:04:22.083</time></trkpt><trkpt lat="55.7891607" lon="49.2566176"><time>2026-01-18T10:04:25.057</time></trkpt><trkpt lat="55.7891572" lon="49.2565199"><time>2026-01-18T10:04:27.067</time></trkpt><trkpt lat="55.7891451" lon="49.2564245"><time>2026-01-18T10:04:29.067</time></trkpt><trkpt lat="55.7891367" lon="49.2563134"><time>2026-01-18T10:04:32.077</time></trkpt><trkpt lat="55.7891331" lon="49.2562226"><time>2026-01-18T10:04:35.037</time></trkpt><trkpt lat="55.7891019" lon="49.2561711"><time>2026-01-18T10:04:41.930</time></trkpt><trkpt lat="55.7891419" lon="49.2561400"><time>2026-01-18T10:05:02.057</time></trkpt><trkpt lat="55.7891395" lon="49.2560389"><time>2026-01-18T10:05:06.077</time></trkpt><trkpt lat="55.7891198" lon="49.2559532"><time>2026-01-18T10:05:12.077</time></trkpt><trkpt lat="55.7891166" lon="49.2558653"><time>2026-01-18T10:05:15.073</time></trkpt><trkpt lat="55.7890831" lon="49.2557691"><time>2026-01-18T10:05:17.067</time></trkpt><trkpt lat="55.7890392" lon="49.2556711"><time>2026-01-18T10:05:19.067</time></trkpt><trkpt lat="55.7890402" lon="49.2555904"><time>2026-01-18T10:05:23.070</time></trkpt><trkpt lat="55.7890163" lon="49.2555049"><time>2026-01-18T10:05:25.043</time></trkpt><trkpt lat="55.7889674" lon="49.2554172"><time>2026-01-18T10:05:27.073</time></trkpt><trkpt lat="55.7889344" lon="49.2553309"><time>2026-01-18T10:05:29.080</time></trkpt><trkpt lat="55.7889071" lon="49.2552552"><time>2026-01-18T10:05:31.077</time></trkpt><trkpt lat="55.7888872" lon="49.2551802"><time>2026-01-18T10:05:33.073</time></trkpt><trkpt lat="55.7888709" lon="49.2550999"><time>2026-01-18T10:05:35.060</time></trkpt><trkpt lat="55.7888551" lon="49.2550240"><time>2026-01-18T10:05:37.077</time></trkpt><trkpt lat="55.7888424" lon="49.2549149"><time>2026-01-18T10:05:40.073</time></trkpt><trkpt lat="55.7888324" lon="49.2548335"><time>2026-01-18T10:05:42.070</time></trkpt><trkpt lat="55.7888245" lon="49.2547189"><time>2026-01-18T10:05:45.073</time></trkpt><trkpt lat="55.7888099" lon="49.2546365"><time>2026-01-18T10:05:47.073</time></trkpt><trkpt lat="55.7887956" lon="49.2545487"><time>2026-01-18T10:05:49.047</time></trkpt><trkpt lat="55.7887836" lon="49.2544628"><time>2026-01-18T10:05:51.040</time></trkpt><trkpt lat="55.7887657" lon="49.2543692"><time>2026-01-18T10:05:53.067</time></trkpt><trkpt lat="55.7887397" lon="49.2542792"><time>2026-01-18T10:05:55.093</time></trkpt><trkpt lat="55.7887174" lon="49.2541899"><time>2026-01-18T10:05:57.053</time></trkpt><trkpt lat="55.7886976" lon="49.2540980"><time>2026-01-18T10:05:59.037</time></trkpt><trkpt lat="55.7886852" lon="49.2540003"><time>2026-01-18T10:06:01.083</time></trkpt><trkpt lat="55.7886741" lon="49.2538924"><time>2026-01-18T10:06:03.070</time></trkpt><trkpt lat="55.7886580" lon="49.2537890"><time>2026-01-18T10:06:05.053</time></trkpt><trkpt lat="55.7886397" lon="49.2536950"><time>2026-01-18T10:06:07.087</time></trkpt><trkpt lat="55.7886388" lon="49.2535973"><time>2026-01-18T10:06:09.047</time></trkpt><trkpt lat="55.7886888" lon="49.2535682"><time>2026-01-18T10:06:11.077</time></trkpt><trkpt lat="55.7887473" lon="49.2535309"><time>2026-01-18T10:06:13.047</time></trkpt><trkpt lat="55.7887897" lon="49.2534586"><time>2026-01-18T10:06:14.070</time></trkpt><trkpt lat="55.7888394" lon="49.2533908"><time>2026-01-18T10:06:16.067</time></trkpt><trkpt lat="55.7888200" lon="49.2532945"><time>2026-01-18T10:06:18.067</time></trkpt><trkpt lat="55.7887911" lon="49.2532032"><time>2026-01-18T10:06:20.043</time></trkpt><trkpt lat="55.7887767" lon="49.2531111"><time>2026-01-18T10:06:22.067</time></trkpt><trkpt lat="55.7887647" lon="49.2530033"><time>2026-01-18T10:06:25.053</time></trkpt><trkpt lat="55.7887337" lon="49.2529124"><time>2026-01-18T10:06:28.067</time></trkpt><trkpt lat="55.7887007" lon="49.2528111"><time>2026-01-18T10:06:31.077</time></trkpt><trkpt lat="55.7886982" lon="49.2526931"><time>2026-01-18T10:06:33.080</time></trkpt><trkpt lat="55.7886843" lon="49.2525914"><time>2026-01-18T10:06:35.073</time></trkpt><trkpt lat="55.7886676" lon="49.2524983"><time>2026-01-18T10:06:37.077</time></trkpt><trkpt lat="55.7886420" lon="49.2524109"><time>2026-01-18T10:06:39.077</time></trkpt><trkpt lat="55.7886140" lon="49.2523187"><time>2026-01-18T10:06:41.097</time></trkpt><trkpt lat="55.7885825" lon="49.2522328"><time>2026-01-18T10:06:43.070</time></trkpt><trkpt lat="55.7885614" lon="49.2521553"><time>2026-01-18T10:06:45.070</time></trkpt><trkpt lat="55.7885422" lon="49.2520654"><time>2026-01-18T10:06:47.093</time></trkpt><trkpt lat="55.7885184" lon="49.2519516"><time>2026-01-18T10:06:50.073</time></trkpt><trkpt lat="55.7885066" lon="49.2518675"><time>2026-01-18T10:06:52.073</time></trkpt><trkpt lat="55.7885014" lon="49.2517837"><time>2026-01-18T10:06:54.047</time></trkpt><trkpt lat="55.7885014" lon="49.2516928"><time>2026-01-18T10:06:56.073</time></trkpt><trkpt lat="55.7885129" lon="49.2515971"><time>2026-01-18T10:06:58.073</time></trkpt><trkpt lat="55.7885581" lon="49.2515451"><time>2026-01-18T10:07:00.043</time></trkpt><trkpt lat="55.7886062" lon="49.2515331"><time>2026-01-18T10:07:02.073</time></trkpt><trkpt lat="55.7886542" lon="49.2515256"><time>2026-01-18T10:07:04.077</time></trkpt><trkpt lat="55.7887052" lon="49.2515218"><time>2026-01-18T10:07:06.060</time></trkpt><trkpt lat="55.7887549" lon="49.2515018"><time>2026-01-18T10:07:08.067</time></trkpt><trkpt lat="55.7888083" lon="49.2514769"><time>2026-01-18T10:07:10.090</time></trkpt><trkpt lat="55.7888599" lon="49.2514490"><time>2026-01-18T10:07:12.070</time></trkpt><trkpt lat="55.7889093" lon="49.2514287"><time>2026-01-18T10:07:14.070</time></trkpt><trkpt lat="55.7889587" lon="49.2514240"><time>2026-01-18T10:07:16.090</time></trkpt><trkpt lat="55.7890097" lon="49.2514217"><time>2026-01-18T10:07:18.043</time></trkpt><trkpt lat="55.7890633" lon="49.2514214"><time>2026-01-18T10:07:20.053</time></trkpt><trkpt lat="55.7891200" lon="49.2514272"><time>2026-01-18T10:07:22.077</time></trkpt><trkpt lat="55.7891729" lon="49.2514204"><time>2026-01-18T10:07:24.067</time></trkpt><trkpt lat="55.7892218" lon="49.2514138"><time>2026-01-18T10:07:26.067</time></trkpt><trkpt lat="55.7892684" lon="49.2514046"><time>2026-01-18T10:07:28.067</time></trkpt><trkpt lat="55.7893145" lon="49.2513915"><time>2026-01-18T10:07:30.070</time></trkpt><trkpt lat="55.7893579" lon="49.2513586"><time>2026-01-18T10:07:32.077</time></trkpt><trkpt lat="55.7893971" lon="49.2513116"><time>2026-01-18T10:07:34.077</time></trkpt><trkpt lat="55.7894228" lon="49.2512436"><time>2026-01-18T10:07:36.070</time></trkpt><trkpt lat="55.7894431" lon="49.2511596"><time>2026-01-18T10:07:38.053</time></trkpt><trkpt lat="55.7894684" lon="49.2510894"><time>2026-01-18T10:07:40.053</time></trkpt><trkpt lat="55.7895215" lon="49.2510277"><time>2026-01-18T10:07:43.073</time></trkpt><trkpt lat="55.7895844" lon="49.2510050"><time>2026-01-18T10:07:46.070</time></trkpt><trkpt lat="55.7896392" lon="49.2509731"><time>2026-01-18T10:07:49.067</time></trkpt><trkpt lat="55.7896863" lon="49.2509416"><time>2026-01-18T10:07:52.073</time></trkpt><trkpt lat="55.7897423" lon="49.2509205"><time>2026-01-18T10:07:55.070</time></trkpt><trkpt lat="55.7898008" lon="49.2508927"><time>2026-01-18T10:07:58.070</time></trkpt><trkpt lat="55.7898618" lon="49.2508608"><time>2026-01-18T10:08:01.047</time></trkpt><trkpt lat="55.7899200" lon="49.2508276"><time>2026-01-18T10:08:04.073</time></trkpt><trkpt lat="55.7899823" lon="49.2507929"><time>2026-01-18T10:08:07.073</time></trkpt><trkpt lat="55.7900266" lon="49.2507576"><time>2026-01-18T10:08:09.067</time></trkpt><trkpt lat="55.7900739" lon="49.2507231"><time>2026-01-18T10:08:11.073</time></trkpt><trkpt lat="55.7901224" lon="49.2506930"><time>2026-01-18T10:08:13.063</time></trkpt><trkpt lat="55.7901697" lon="49.2506568"><time>2026-01-18T10:08:15.060</time></trkpt><trkpt lat="55.7902141" lon="49.2506275"><time>2026-01-18T10:08:17.073</time></trkpt><trkpt lat="55.7902724" lon="49.2505930"><time>2026-01-18T10:08:20.087</time></trkpt><trkpt lat="55.7903278" lon="49.2505533"><time>2026-01-18T10:08:23.077</time></trkpt><trkpt lat="55.7903814" lon="49.2505395"><time>2026-01-18T10:08:26.073</time></trkpt><trkpt lat="55.7904198" lon="49.2505991"><time>2026-01-18T10:08:28.050</time></trkpt><trkpt lat="55.7904565" lon="49.2506835"><time>2026-01-18T10:08:30.067</time></trkpt><trkpt lat="55.7905053" lon="49.2507325"><time>2026-01-18T10:08:32.070</time></trkpt><trkpt lat="55.7905512" lon="49.2507411"><time>2026-01-18T10:08:34.063</time></trkpt><trkpt lat="55.7906067" lon="49.2507279"><time>2026-01-18T10:08:37.090</time></trkpt><trkpt lat="55.7906538" lon="49.2506974"><time>2026-01-18T10:08:40.067</time></trkpt><trkpt lat="55.7907029" lon="49.2506397"><time>2026-01-18T10:08:43.093</time></trkpt><trkpt lat="55.7907484" lon="49.2505734"><time>2026-01-18T10:08:46.073</time></trkpt><trkpt lat="55.7907885" lon="49.2505215"><time>2026-01-18T10:08:49.093</time></trkpt><trkpt lat="55.7908462" lon="49.2504670"><time>2026-01-18T10:08:52.067</time></trkpt><trkpt lat="55.7909053" lon="49.2504155"><time>2026-01-18T10:08:55.093</time></trkpt><trkpt lat="55.7909456" lon="49.2503795"><time>2026-01-18T10:08:57.070</time></trkpt><trkpt lat="55.7910007" lon="49.2503191"><time>2026-01-18T10:09:00.077</time></trkpt><trkpt lat="55.7910542" lon="49.2502568"><time>2026-01-18T10:09:03.070</time></trkpt><trkpt lat="55.7910944" lon="49.2502100"><time>2026-01-18T10:09:05.070</time></trkpt><trkpt lat="55.7911373" lon="49.2501671"><time>2026-01-18T10:09:07.070</time></trkpt><trkpt lat="55.7911932" lon="49.2501122"><time>2026-01-18T10:09:10.067</time></trkpt><trkpt lat="55.7912429" lon="49.2500744"><time>2026-01-18T10:09:13.073</time></trkpt><trkpt lat="55.7912840" lon="49.2500404"><time>2026-01-18T10:09:18.067</time></trkpt><trkpt lat="55.7912938" lon="49.2500176"><time>2026-01-18T10:09:28.550</time></trkpt><trkpt lat="55.7913104" lon="49.2499712"><time>2026-01-18T10:09:32.060</time></trkpt><trkpt lat="55.7913551" lon="49.2500103"><time>2026-01-18T10:09:41.097</time></trkpt><trkpt lat="55.7914029" lon="49.2499987"><time>2026-01-18T10:09:45.070</time></trkpt><trkpt lat="55.7914635" lon="49.2499221"><time>2026-01-18T10:09:47.050</time></trkpt><trkpt lat="55.7915155" lon="49.2498538"><time>2026-01-18T10:09:49.077</time></trkpt><trkpt lat="55.7915628" lon="49.2498045"><time>2026-01-18T10:09:51.060</time></trkpt><trkpt lat="55.7916096" lon="49.2497801"><time>2026-01-18T10:09:54.050</time></trkpt><trkpt lat="55.7916539" lon="49.2497630"><time>2026-01-18T10:09:58.087</time></trkpt><trkpt lat="55.7916949" lon="49.2497023"><time>2026-01-18T10:10:02.073</time></trkpt><trkpt lat="55.7917312" lon="49.2496519"><time>2026-01-18T10:10:06.073</time></trkpt><trkpt lat="55.7917584" lon="49.2497178"><time>2026-01-18T10:10:10.070</time></trkpt><trkpt lat="55.7917641" lon="49.2497978"><time>2026-01-18T10:10:14.067</time></trkpt><trkpt lat="55.7917855" lon="49.2498874"><time>2026-01-18T10:10:18.067</time></trkpt><trkpt lat="55.7918082" lon="49.2499908"><time>2026-01-18T10:10:21.093</time></trkpt><trkpt lat="55.7918374" lon="49.2501001"><time>2026-01-18T10:10:24.070</time></trkpt><trkpt lat="55.7918469" lon="49.2501896"><time>2026-01-18T10:10:28.073</time></trkpt><trkpt lat="55.7919101" lon="49.2502727"><time>2026-01-18T10:10:30.073</time></trkpt><trkpt lat="55.7919550" lon="49.2503527"><time>2026-01-18T10:10:32.080</time></trkpt><trkpt lat="55.7919817" lon="49.2504397"><time>2026-01-18T10:10:34.077</time></trkpt><trkpt lat="55.7920061" lon="49.2505274"><time>2026-01-18T10:10:36.050</time></trkpt><trkpt lat="55.7920335" lon="49.2506093"><time>2026-01-18T10:10:38.060</time></trkpt><trkpt lat="55.7920533" lon="49.2507069"><time>2026-01-18T10:10:40.053</time></trkpt><trkpt lat="55.7920745" lon="49.2508189"><time>2026-01-18T10:10:42.053</time></trkpt><trkpt lat="55.7921050" lon="49.2509178"><time>2026-01-18T10:10:45.060</time></trkpt><trkpt lat="55.7921410" lon="49.2510124"><time>2026-01-18T10:10:48.070</time></trkpt><trkpt lat="55.7921788" lon="49.2510636"><time>2026-01-18T10:10:50.093</time></trkpt><trkpt lat="55.7922026" lon="49.2511369"><time>2026-01-18T10:10:52.073</time></trkpt><trkpt lat="55.7922313" lon="49.2512203"><time>2026-01-18T10:10:55.037</time></trkpt><trkpt lat="55.7922556" lon="49.2513091"><time>2026-01-18T10:10:58.037</time></trkpt><trkpt lat="55.7922916" lon="49.2514062"><time>2026-01-18T10:11:01.080</time></trkpt><trkpt lat="55.7923194" lon="49.2514795"><time>2026-01-18T10:11:03.077</time></trkpt><trkpt lat="55.7923522" lon="49.2515824"><time>2026-01-18T10:11:05.070</time></trkpt><trkpt lat="55.7923809" lon="49.2516715"><time>2026-01-18T10:11:07.070</time></trkpt><trkpt lat="55.7924103" lon="49.2517486"><time>2026-01-18T10:11:09.077</time></trkpt><trkpt lat="55.7924443" lon="49.2518387"><time>2026-01-18T10:11:12.097</time></trkpt><trkpt lat="55.7924793" lon="49.2519229"><time>2026-01-18T10:11:15.053</time></trkpt><trkpt lat="55.7925134" lon="49.2520217"><time>2026-01-18T10:11:18.097</time></trkpt><trkpt lat="55.7925421" lon="49.2520959"><time>2026-01-18T10:11:20.047</time></trkpt><trkpt lat="55.7925703" lon="49.2521750"><time>2026-01-18T10:11:22.050</time></trkpt><trkpt lat="55.7925973" lon="49.2522513"><time>2026-01-18T10:11:24.047</time></trkpt><trkpt lat="55.7926239" lon="49.2523223"><time>2026-01-18T10:11:26.033</time></trkpt><trkpt lat="55.7926521" lon="49.2523896"><time>2026-01-18T10:11:28.057</time></trkpt><trkpt lat="55.7926770" lon="49.2524568"><time>2026-01-18T10:11:30.067</time></trkpt><trkpt lat="55.7927040" lon="49.2525513"><time>2026-01-18T10:11:33.067</time></trkpt><trkpt lat="55.7927325" lon="49.2526518"><time>2026-01-18T10:11:36.077</time></trkpt><trkpt lat="55.7927804" lon="49.2526707"><time>2026-01-18T10:11:40.093</time></trkpt><trkpt lat="55.7928279" lon="49.2525743"><time>2026-01-18T10:11:43.070</time></trkpt><trkpt lat="55.7928639" lon="49.2525169"><time>2026-01-18T10:11:45.067</time></trkpt><trkpt lat="55.7929231" lon="49.2525352"><time>2026-01-18T10:11:48.067</time></trkpt><trkpt lat="55.7929633" lon="49.2525912"><time>2026-01-18T10:11:50.073</time></trkpt><trkpt lat="55.7929993" lon="49.2526581"><time>2026-01-18T10:11:52.093</time></trkpt><trkpt lat="55.7930312" lon="49.2527369"><time>2026-01-18T10:11:54.073</time></trkpt><trkpt lat="55.7930645" lon="49.2528193"><time>2026-01-18T10:11:56.073</time></trkpt><trkpt lat="55.7930952" lon="49.2529097"><time>2026-01-18T10:11:58.097</time></trkpt><trkpt lat="55.7931264" lon="49.2529962"><time>2026-01-18T10:12:00.077</time></trkpt><trkpt lat="55.7931579" lon="49.2530594"><time>2026-01-18T10:12:02.077</time></trkpt><trkpt lat="55.7931876" lon="49.2531298"><time>2026-01-18T10:12:04.097</time></trkpt><trkpt lat="55.7932188" lon="49.2532024"><time>2026-01-18T10:12:06.050</time></trkpt><trkpt lat="55.7932571" lon="49.2532722"><time>2026-01-18T10:12:08.043</time></trkpt><trkpt lat="55.7932958" lon="49.2533418"><time>2026-01-18T10:12:10.050</time></trkpt><trkpt lat="55.7933316" lon="49.2534060"><time>2026-01-18T10:12:12.063</time></trkpt><trkpt lat="55.7933573" lon="49.2534807"><time>2026-01-18T10:12:14.077</time></trkpt><trkpt lat="55.7933833" lon="49.2535635"><time>2026-01-18T10:12:16.083</time></trkpt><trkpt lat="55.7933927" lon="49.2536545"><time>2026-01-18T10:12:18.057</time></trkpt><trkpt lat="55.7933991" lon="49.2537419"><time>2026-01-18T10:12:20.077</time></trkpt><trkpt lat="55.7934270" lon="49.2538496"><time>2026-01-18T10:12:23.047</time></trkpt><trkpt lat="55.7934676" lon="49.2539368"><time>2026-01-18T10:12:26.073</time></trkpt><trkpt lat="55.7935058" lon="49.2538945"><time>2026-01-18T10:12:28.073</time></trkpt><trkpt lat="55.7935391" lon="49.2538323"><time>2026-01-18T10:12:30.077</time></trkpt><trkpt lat="55.7935807" lon="49.2537483"><time>2026-01-18T10:12:33.087</time></trkpt><trkpt lat="55.7936251" lon="49.2536818"><time>2026-01-18T10:12:36.067</time></trkpt><trkpt lat="55.7936963" lon="49.2536681"><time>2026-01-18T10:12:40.057</time></trkpt><trkpt lat="55.7937517" lon="49.2536336"><time>2026-01-18T10:12:42.060</time></trkpt><trkpt lat="55.7938046" lon="49.2535638"><time>2026-01-18T10:12:44.037</time></trkpt><trkpt lat="55.7938507" lon="49.2535393"><time>2026-01-18T10:12:47.040</time></trkpt><trkpt lat="55.7938519" lon="49.2535145"><time>2026-01-18T10:12:51.277</time></trkpt><trkpt lat="55.7938797" lon="49.2534562"><time>2026-01-18T10:12:57.053</time></trkpt><trkpt lat="55.7939225" lon="49.2534293"><time>2026-01-18T10:13:02.053</time></trkpt><trkpt lat="55.7939127" lon="49.2533384"><time>2026-01-18T10:13:06.067</time></trkpt><trkpt lat="55.7939644" lon="49.2533109"><time>2026-01-18T10:13:10.067</time></trkpt><trkpt lat="55.7940453" lon="49.2532968"><time>2026-01-18T10:13:12.063</time></trkpt><trkpt lat="55.7941047" lon="49.2532848"><time>2026-01-18T10:13:13.070</time></trkpt><trkpt lat="55.7941489" lon="49.2532620"><time>2026-01-18T10:13:14.057</time></trkpt><trkpt lat="55.7942224" lon="49.2532124"><time>2026-01-18T10:13:16.063</time></trkpt><trkpt lat="55.7942867" lon="49.2531610"><time>2026-01-18T10:13:18.053</time></trkpt><trkpt lat="55.7943390" lon="49.2531201"><time>2026-01-18T10:13:20.070</time></trkpt><trkpt lat="55.7943759" lon="49.2530660"><time>2026-01-18T10:13:23.053</time></trkpt><trkpt lat="55.7944321" lon="49.2529949"><time>2026-01-18T10:13:25.050</time></trkpt><trkpt lat="55.7944941" lon="49.2529357"><time>2026-01-18T10:13:27.067</time></trkpt><trkpt lat="55.7945554" lon="49.2528840"><time>2026-01-18T10:13:29.067</time></trkpt><trkpt lat="55.7946176" lon="49.2528313"><time>2026-01-18T10:13:31.067</time></trkpt><trkpt lat="55.7946661" lon="49.2527640"><time>2026-01-18T10:13:33.063</time></trkpt><trkpt lat="55.7946956" lon="49.2526935"><time>2026-01-18T10:13:35.060</time></trkpt><trkpt lat="55.7947404" lon="49.2526450"><time>2026-01-18T10:13:37.067</time></trkpt><trkpt lat="55.7947867" lon="49.2526112"><time>2026-01-18T10:13:39.063</time></trkpt><trkpt lat="55.7948363" lon="49.2525886"><time>2026-01-18T10:13:41.057</time></trkpt><trkpt lat="55.7948873" lon="49.2525515"><time>2026-01-18T10:13:43.067</time></trkpt><trkpt lat="55.7949149" lon="49.2524591"><time>2026-01-18T10:13:46.070</time></trkpt><trkpt lat="55.7948788" lon="49.2523758"><time>2026-01-18T10:13:49.067</time></trkpt><trkpt lat="55.7948346" lon="49.2522895"><time>2026-01-18T10:13:52.070</time></trkpt><trkpt lat="55.7948022" lon="49.2522239"><time>2026-01-18T10:13:54.093</time></trkpt><trkpt lat="55.7947627" lon="49.2521517"><time>2026-01-18T10:13:56.057</time></trkpt><trkpt lat="55.7947265" lon="49.2520855"><time>2026-01-18T10:13:58.080</time></trkpt><trkpt lat="55.7946851" lon="49.2519984"><time>2026-01-18T10:14:01.080</time></trkpt><trkpt lat="55.7946512" lon="49.2518926"><time>2026-01-18T10:14:04.063</time></trkpt><trkpt lat="55.7946256" lon="49.2518123"><time>2026-01-18T10:14:06.067</time></trkpt><trkpt lat="55.7945992" lon="49.2517243"><time>2026-01-18T10:14:08.073</time></trkpt><trkpt lat="55.7945677" lon="49.2516472"><time>2026-01-18T10:14:10.063</time></trkpt><trkpt lat="55.7945406" lon="49.2515664"><time>2026-01-18T10:14:12.070</time></trkpt><trkpt lat="55.7945124" lon="49.2514863"><time>2026-01-18T10:14:14.067</time></trkpt><trkpt lat="55.7944880" lon="49.2514073"><time>2026-01-18T10:14:16.047</time></trkpt><trkpt lat="55.7944708" lon="49.2513259"><time>2026-01-18T10:14:18.063</time></trkpt><trkpt lat="55.7944522" lon="49.2512429"><time>2026-01-18T10:14:20.060</time></trkpt><trkpt lat="55.7944423" lon="49.2511629"><time>2026-01-18T10:14:22.073</time></trkpt><trkpt lat="55.7944475" lon="49.2510781"><time>2026-01-18T10:14:24.067</time></trkpt><trkpt lat="55.7944719" lon="49.2509944"><time>2026-01-18T10:14:26.043</time></trkpt><trkpt lat="55.7945055" lon="49.2509209"><time>2026-01-18T10:14:28.067</time></trkpt><trkpt lat="55.7945267" lon="49.2508373"><time>2026-01-18T10:14:30.067</time></trkpt><trkpt lat="55.7944991" lon="49.2507356"><time>2026-01-18T10:14:33.060</time></trkpt><trkpt lat="55.7944685" lon="49.2506498"><time>2026-01-18T10:14:35.043</time></trkpt><trkpt lat="55.7944352" lon="49.2505669"><time>2026-01-18T10:14:37.070</time></trkpt><trkpt lat="55.7943931" lon="49.2504981"><time>2026-01-18T10:14:39.063</time></trkpt><trkpt lat="55.7943456" lon="49.2504098"><time>2026-01-18T10:14:41.063</time></trkpt><trkpt lat="55.7943160" lon="49.2503257"><time>2026-01-18T10:14:43.050</time></trkpt><trkpt lat="55.7942812" lon="49.2502341"><time>2026-01-18T10:14:46.073</time></trkpt><trkpt lat="55.7942574" lon="49.2501588"><time>2026-01-18T10:14:48.067</time></trkpt><trkpt lat="55.7942423" lon="49.2500824"><time>2026-01-18T10:14:50.067</time></trkpt><trkpt lat="55.7942239" lon="49.2499931"><time>2026-01-18T10:14:52.047</time></trkpt><trkpt lat="55.7942019" lon="49.2499114"><time>2026-01-18T10:14:54.067</time></trkpt><trkpt lat="55.7941786" lon="49.2498225"><time>2026-01-18T10:14:56.077</time></trkpt><trkpt lat="55.7941542" lon="49.2497406"><time>2026-01-18T10:14:58.050</time></trkpt><trkpt lat="55.7941286" lon="49.2496617"><time>2026-01-18T10:15:00.077</time></trkpt><trkpt lat="55.7940897" lon="49.2495634"><time>2026-01-18T10:15:03.093</time></trkpt><trkpt lat="55.7940496" lon="49.2494633"><time>2026-01-18T10:15:06.067</time></trkpt><trkpt lat="55.7940222" lon="49.2493841"><time>2026-01-18T10:15:08.053</time></trkpt><trkpt lat="55.7939996" lon="49.2492901"><time>2026-01-18T10:15:10.060</time></trkpt><trkpt lat="55.7939779" lon="49.2492192"><time>2026-01-18T10:15:12.067</time></trkpt><trkpt lat="55.7939434" lon="49.2491138"><time>2026-01-18T10:15:15.087</time></trkpt><trkpt lat="55.7939229" lon="49.2490405"><time>2026-01-18T10:15:17.070</time></trkpt><trkpt lat="55.7939018" lon="49.2489629"><time>2026-01-18T10:15:19.070</time></trkpt><trkpt lat="55.7938799" lon="49.2488922"><time>2026-01-18T10:15:21.073</time></trkpt><trkpt lat="55.7938385" lon="49.2488229"><time>2026-01-18T10:15:24.070</time></trkpt><trkpt lat="55.7938395" lon="49.2487340"><time>2026-01-18T10:15:27.067</time></trkpt><trkpt lat="55.7938107" lon="49.2486656"><time>2026-01-18T10:15:30.037</time></trkpt><trkpt lat="55.7937680" lon="49.2486001"><time>2026-01-18T10:15:33.073</time></trkpt><trkpt lat="55.7937332" lon="49.2485387"><time>2026-01-18T10:15:36.070</time></trkpt><trkpt lat="55.7936897" lon="49.2484794"><time>2026-01-18T10:15:39.077</time></trkpt><trkpt lat="55.7936367" lon="49.2484321"><time>2026-01-18T10:15:42.060</time></trkpt><trkpt lat="55.7936025" lon="49.2483543"><time>2026-01-18T10:15:45.077</time></trkpt><trkpt lat="55.7935763" lon="49.2482526"><time>2026-01-18T10:15:48.073</time></trkpt><trkpt lat="55.7935586" lon="49.2481506"><time>2026-01-18T10:15:51.050</time></trkpt><trkpt lat="55.7935421" lon="49.2480451"><time>2026-01-18T10:15:54.073</time></trkpt><trkpt lat="55.7935483" lon="49.2479179"><time>2026-01-18T10:15:57.077</time></trkpt><trkpt lat="55.7935783" lon="49.2478357"><time>2026-01-18T10:15:59.070</time></trkpt><trkpt lat="55.7936060" lon="49.2477572"><time>2026-01-18T10:16:01.073</time></trkpt><trkpt lat="55.7936071" lon="49.2476765"><time>2026-01-18T10:16:03.077</time></trkpt><trkpt lat="55.7935901" lon="49.2475694"><time>2026-01-18T10:16:06.053</time></trkpt><trkpt lat="55.7935703" lon="49.2474752"><time>2026-01-18T10:16:08.073</time></trkpt><trkpt lat="55.7935285" lon="49.2474118"><time>2026-01-18T10:16:11.073</time></trkpt><trkpt lat="55.7934771" lon="49.2474349"><time>2026-01-18T10:16:14.077</time></trkpt><trkpt lat="55.7934271" lon="49.2474914"><time>2026-01-18T10:16:17.050</time></trkpt><trkpt lat="55.7933824" lon="49.2474530"><time>2026-01-18T10:16:20.077</time></trkpt><trkpt lat="55.7933512" lon="49.2473473"><time>2026-01-18T10:16:23.077</time></trkpt><trkpt lat="55.7933302" lon="49.2472680"><time>2026-01-18T10:16:25.077</time></trkpt><trkpt lat="55.7933061" lon="49.2471596"><time>2026-01-18T10:16:28.070</time></trkpt><trkpt lat="55.7932774" lon="49.2470609"><time>2026-01-18T10:16:31.067</time></trkpt><trkpt lat="55.7932535" lon="49.2469921"><time>2026-01-18T10:16:33.083</time></trkpt><trkpt lat="55.7932325" lon="49.2469144"><time>2026-01-18T10:16:35.053</time></trkpt><trkpt lat="55.7932102" lon="49.2468446"><time>2026-01-18T10:16:37.077</time></trkpt><trkpt lat="55.7931756" lon="49.2467645"><time>2026-01-18T10:16:40.073</time></trkpt><trkpt lat="55.7931490" lon="49.2466970"><time>2026-01-18T10:16:43.097</time></trkpt><trkpt lat="55.7931007" lon="49.2466425"><time>2026-01-18T10:16:47.073</time></trkpt><trkpt lat="55.7930581" lon="49.2465842"><time>2026-01-18T10:16:50.077</time></trkpt><trkpt lat="55.7930101" lon="49.2465258"><time>2026-01-18T10:16:54.080</time></trkpt><trkpt lat="55.7929590" lon="49.2464754"><time>2026-01-18T10:16:58.073</time></trkpt><trkpt lat="55.7929183" lon="49.2464196"><time>2026-01-18T10:17:01.103</time></trkpt><trkpt lat="55.7928842" lon="49.2463378"><time>2026-01-18T10:17:04.050</time></trkpt><trkpt lat="55.7928549" lon="49.2462442"><time>2026-01-18T10:17:07.097</time></trkpt><trkpt lat="55.7928319" lon="49.2461552"><time>2026-01-18T10:17:10.077</time></trkpt><trkpt lat="55.7928299" lon="49.2460477"><time>2026-01-18T10:17:13.097</time></trkpt><trkpt lat="55.7928139" lon="49.2459522"><time>2026-01-18T10:17:16.073</time></trkpt><trkpt lat="55.7928031" lon="49.2458456"><time>2026-01-18T10:17:19.113</time></trkpt><trkpt lat="55.7928406" lon="49.2457736"><time>2026-01-18T10:17:22.067</time></trkpt><trkpt lat="55.7928755" lon="49.2457154"><time>2026-01-18T10:17:24.067</time></trkpt><trkpt lat="55.7929185" lon="49.2455498"><time>2026-01-18T10:17:27.077</time></trkpt><trkpt lat="55.7929380" lon="49.2454671"><time>2026-01-18T10:17:28.077</time></trkpt><trkpt lat="55.7929779" lon="49.2453631"><time>2026-01-18T10:17:30.050</time></trkpt><trkpt lat="55.7930253" lon="49.2453067"><time>2026-01-18T10:17:32.077</time></trkpt><trkpt lat="55.7930806" lon="49.2452463"><time>2026-01-18T10:17:35.067</time></trkpt><trkpt lat="55.7931204" lon="49.2451976"><time>2026-01-18T10:17:38.070</time></trkpt><trkpt lat="55.7931624" lon="49.2451549"><time>2026-01-18T10:17:41.047</time></trkpt><trkpt lat="55.7932079" lon="49.2450920"><time>2026-01-18T10:17:44.050</time></trkpt><trkpt lat="55.7932600" lon="49.2450406"><time>2026-01-18T10:17:48.097</time></trkpt><trkpt lat="55.7933030" lon="49.2449807"><time>2026-01-18T10:17:51.077</time></trkpt><trkpt lat="55.7933536" lon="49.2449129"><time>2026-01-18T10:17:54.107</time></trkpt><trkpt lat="55.7934091" lon="49.2448518"><time>2026-01-18T10:17:57.077</time></trkpt><trkpt lat="55.7934516" lon="49.2448168"><time>2026-01-18T10:17:59.053</time></trkpt><trkpt lat="55.7934918" lon="49.2447723"><time>2026-01-18T10:18:01.077</time></trkpt><trkpt lat="55.7935396" lon="49.2447289"><time>2026-01-18T10:18:04.077</time></trkpt><trkpt lat="55.7935921" lon="49.2446758"><time>2026-01-18T10:18:07.073</time></trkpt><trkpt lat="55.7936321" lon="49.2446344"><time>2026-01-18T10:18:10.070</time></trkpt><trkpt lat="55.7936512" lon="49.2446061"><time>2026-01-18T10:18:17.670</time></trkpt><trkpt lat="55.7936735" lon="49.2445886"><time>2026-01-18T10:18:21.050</time></trkpt><trkpt lat="55.7937235" lon="49.2445615"><time>2026-01-18T10:18:26.043</time></trkpt><trkpt lat="55.7937739" lon="49.2445436"><time>2026-01-18T10:18:30.057</time></trkpt><trkpt lat="55.7938289" lon="49.2445486"><time>2026-01-18T10:18:34.040</time></trkpt><trkpt lat="55.7938876" lon="49.2445325"><time>2026-01-18T10:18:38.037</time></trkpt><trkpt lat="55.7939352" lon="49.2444577"><time>2026-01-18T10:18:41.043</time></trkpt><trkpt lat="55.7939779" lon="49.2443965"><time>2026-01-18T10:18:44.053</time></trkpt><trkpt lat="55.7940276" lon="49.2443691"><time>2026-01-18T10:18:47.053</time></trkpt><trkpt lat="55.7940727" lon="49.2443733"><time>2026-01-18T10:18:49.070</time></trkpt><trkpt lat="55.7941115" lon="49.2444445"><time>2026-01-18T10:18:51.057</time></trkpt><trkpt lat="55.7941507" lon="49.2445470"><time>2026-01-18T10:18:53.050</time></trkpt><trkpt lat="55.7941885" lon="49.2446402"><time>2026-01-18T10:18:55.060</time></trkpt><trkpt lat="55.7942262" lon="49.2447099"><time>2026-01-18T10:18:57.043</time></trkpt><trkpt lat="55.7942554" lon="49.2447993"><time>2026-01-18T10:19:01.090</time></trkpt><trkpt lat="55.7942845" lon="49.2448923"><time>2026-01-18T10:19:04.043</time></trkpt><trkpt lat="55.7943179" lon="49.2449541"><time>2026-01-18T10:19:06.070</time></trkpt><trkpt lat="55.7943673" lon="49.2450171"><time>2026-01-18T10:19:09.063</time></trkpt><trkpt lat="55.7944075" lon="49.2451169"><time>2026-01-18T10:19:12.077</time></trkpt><trkpt lat="55.7944405" lon="49.2451773"><time>2026-01-18T10:19:14.077</time></trkpt><trkpt lat="55.7944750" lon="49.2452309"><time>2026-01-18T10:19:16.070</time></trkpt><trkpt lat="55.7945213" lon="49.2453099"><time>2026-01-18T10:19:19.053</time></trkpt><trkpt lat="55.7945500" lon="49.2453725"><time>2026-01-18T10:19:21.037</time></trkpt><trkpt lat="55.7945786" lon="49.2454436"><time>2026-01-18T10:19:23.070</time></trkpt><trkpt lat="55.7946028" lon="49.2455217"><time>2026-01-18T10:19:25.077</time></trkpt><trkpt lat="55.7946182" lon="49.2456138"><time>2026-01-18T10:19:27.077</time></trkpt><trkpt lat="55.7946470" lon="49.2456856"><time>2026-01-18T10:19:29.073</time></trkpt><trkpt lat="55.7946790" lon="49.2457935"><time>2026-01-18T10:19:32.073</time></trkpt><trkpt lat="55.7946910" lon="49.2458748"><time>2026-01-18T10:19:34.073</time></trkpt><trkpt lat="55.7947104" lon="49.2459587"><time>2026-01-18T10:19:37.073</time></trkpt><trkpt lat="55.7947500" lon="49.2459099"><time>2026-01-18T10:19:39.077</time></trkpt><trkpt lat="55.7948008" lon="49.2458577"><time>2026-01-18T10:19:42.100</time></trkpt><trkpt lat="55.7948443" lon="49.2458089"><time>2026-01-18T10:19:45.073</time></trkpt><trkpt lat="55.7948900" lon="49.2457578"><time>2026-01-18T10:19:48.070</time></trkpt><trkpt lat="55.7949481" lon="49.2456941"><time>2026-01-18T10:19:51.073</time></trkpt><trkpt lat="55.7949872" lon="49.2456418"><time>2026-01-18T10:19:53.100</time></trkpt><trkpt lat="55.7950301" lon="49.2455909"><time>2026-01-18T10:19:55.070</time></trkpt><trkpt lat="55.7950787" lon="49.2455436"><time>2026-01-18T10:19:57.070</time></trkpt><trkpt lat="55.7951261" lon="49.2454954"><time>2026-01-18T10:19:59.097</time></trkpt><trkpt lat="55.7951716" lon="49.2454414"><time>2026-01-18T10:20:01.073</time></trkpt><trkpt lat="55.7952155" lon="49.2453896"><time>2026-01-18T10:20:03.077</time></trkpt><trkpt lat="55.7952578" lon="49.2453455"><time>2026-01-18T10:20:05.097</time></trkpt><trkpt lat="55.7953055" lon="49.2453118"><time>2026-01-18T10:20:07.077</time></trkpt><trkpt lat="55.7953525" lon="49.2452745"><time>2026-01-18T10:20:09.073</time></trkpt><trkpt lat="55.7954013" lon="49.2452398"><time>2026-01-18T10:20:11.097</time></trkpt><trkpt lat="55.7954473" lon="49.2452033"><time>2026-01-18T10:20:13.077</time></trkpt><trkpt lat="55.7955059" lon="49.2451484"><time>2026-01-18T10:20:16.070</time></trkpt><trkpt lat="55.7955482" lon="49.2450994"><time>2026-01-18T10:20:18.077</time></trkpt><trkpt lat="55.7955923" lon="49.2450520"><time>2026-01-18T10:20:20.077</time></trkpt><trkpt lat="55.7956336" lon="49.2450031"><time>2026-01-18T10:20:22.077</time></trkpt><trkpt lat="55.7956744" lon="49.2449567"><time>2026-01-18T10:20:24.073</time></trkpt><trkpt lat="55.7957240" lon="49.2449195"><time>2026-01-18T10:20:26.077</time></trkpt><trkpt lat="55.7957738" lon="49.2448762"><time>2026-01-18T10:20:28.047</time></trkpt><trkpt lat="55.7958226" lon="49.2448313"><time>2026-01-18T10:20:30.077</time></trkpt><trkpt lat="55.7958691" lon="49.2447842"><time>2026-01-18T10:20:32.077</time></trkpt><trkpt lat="55.7959137" lon="49.2447341"><time>2026-01-18T10:20:34.103</time></trkpt><trkpt lat="55.7959594" lon="49.2446859"><time>2026-01-18T10:20:36.077</time></trkpt><trkpt lat="55.7960077" lon="49.2446411"><time>2026-01-18T10:20:38.073</time></trkpt><trkpt lat="55.7960491" lon="49.2445917"><time>2026-01-18T10:20:40.097</time></trkpt><trkpt lat="55.7960920" lon="49.2445463"><time>2026-01-18T10:20:42.080</time></trkpt><trkpt lat="55.7961383" lon="49.2445005"><time>2026-01-18T10:20:44.080</time></trkpt><trkpt lat="55.7961825" lon="49.2444552"><time>2026-01-18T10:20:46.093</time></trkpt><trkpt lat="55.7962234" lon="49.2444113"><time>2026-01-18T10:20:48.070</time></trkpt><trkpt lat="55.7962673" lon="49.2443791"><time>2026-01-18T10:20:50.073</time></trkpt><trkpt lat="55.7963116" lon="49.2443313"><time>2026-01-18T10:20:52.077</time></trkpt><trkpt lat="55.7963547" lon="49.2442824"><time>2026-01-18T10:20:54.053</time></trkpt><trkpt lat="55.7963924" lon="49.2442343"><time>2026-01-18T10:20:56.077</time></trkpt><trkpt lat="55.7964395" lon="49.2441985"><time>2026-01-18T10:20:58.080</time></trkpt><trkpt lat="55.7964868" lon="49.2441597"><time>2026-01-18T10:21:00.080</time></trkpt><trkpt lat="55.7965341" lon="49.2441243"><time>2026-01-18T10:21:02.080</time></trkpt><trkpt lat="55.7965805" lon="49.2440829"><time>2026-01-18T10:21:04.077</time></trkpt><trkpt lat="55.7966229" lon="49.2440416"><time>2026-01-18T10:21:06.087</time></trkpt><trkpt lat="55.7966676" lon="49.2440059"><time>2026-01-18T10:21:08.050</time></trkpt><trkpt lat="55.7967141" lon="49.2439672"><time>2026-01-18T10:21:10.077</time></trkpt><trkpt lat="55.7967591" lon="49.2439212"><time>2026-01-18T10:21:12.083</time></trkpt><trkpt lat="55.7968037" lon="49.2438717"><time>2026-01-18T10:21:14.077</time></trkpt><trkpt lat="55.7968443" lon="49.2438330"><time>2026-01-18T10:21:16.073</time></trkpt><trkpt lat="55.7968868" lon="49.2437939"><time>2026-01-18T10:21:18.073</time></trkpt><trkpt lat="55.7969318" lon="49.2437605"><time>2026-01-18T10:21:20.073</time></trkpt><trkpt lat="55.7969744" lon="49.2437313"><time>2026-01-18T10:21:22.077</time></trkpt><trkpt lat="55.7970164" lon="49.2436928"><time>2026-01-18T10:21:24.077</time></trkpt><trkpt lat="55.7970567" lon="49.2436478"><time>2026-01-18T10:21:26.073</time></trkpt><trkpt lat="55.7971055" lon="49.2436059"><time>2026-01-18T10:21:28.073</time></trkpt><trkpt lat="55.7971534" lon="49.2436187"><time>2026-01-18T10:21:30.077</time></trkpt><trkpt lat="55.7972022" lon="49.2436864"><time>2026-01-18T10:21:32.073</time></trkpt><trkpt lat="55.7972389" lon="49.2437662"><time>2026-01-18T10:21:34.077</time></trkpt><trkpt lat="55.7972718" lon="49.2438286"><time>2026-01-18T10:21:36.077</time></trkpt><trkpt lat="55.7973046" lon="49.2438886"><time>2026-01-18T10:21:38.073</time></trkpt><trkpt lat="55.7973447" lon="49.2439765"><time>2026-01-18T10:21:41.077</time></trkpt><trkpt lat="55.7973886" lon="49.2440622"><time>2026-01-18T10:21:44.080</time></trkpt><trkpt lat="55.7974311" lon="49.2441430"><time>2026-01-18T10:21:47.050</time></trkpt><trkpt lat="55.7974729" lon="49.2442220"><time>2026-01-18T10:21:50.070</time></trkpt><trkpt lat="55.7975149" lon="49.2442706"><time>2026-01-18T10:21:52.073</time></trkpt><trkpt lat="55.7975574" lon="49.2443152"><time>2026-01-18T10:21:54.077</time></trkpt><trkpt lat="55.7976053" lon="49.2443610"><time>2026-01-18T10:21:56.073</time></trkpt><trkpt lat="55.7976502" lon="49.2443892"><time>2026-01-18T10:21:58.077</time></trkpt><trkpt lat="55.7976762" lon="49.2444844"><time>2026-01-18T10:22:01.077</time></trkpt><trkpt lat="55.7976918" lon="49.2445676"><time>2026-01-18T10:22:03.097</time></trkpt><trkpt lat="55.7977191" lon="49.2446713"><time>2026-01-18T10:22:06.077</time></trkpt><trkpt lat="55.7977387" lon="49.2447479"><time>2026-01-18T10:22:08.077</time></trkpt><trkpt lat="55.7977254" lon="49.2448394"><time>2026-01-18T10:22:10.077</time></trkpt><trkpt lat="55.7977106" lon="49.2449435"><time>2026-01-18T10:22:12.077</time></trkpt><trkpt lat="55.7976977" lon="49.2450403"><time>2026-01-18T10:22:14.080</time></trkpt><trkpt lat="55.7977101" lon="49.2451302"><time>2026-01-18T10:22:18.073</time></trkpt><trkpt lat="55.7977285" lon="49.2452125"><time>2026-01-18T10:22:22.077</time></trkpt><trkpt lat="55.7977566" lon="49.2452893"><time>2026-01-18T10:22:25.050</time></trkpt><trkpt lat="55.7978127" lon="49.2453535"><time>2026-01-18T10:22:28.077</time></trkpt><trkpt lat="55.7978364" lon="49.2454377"><time>2026-01-18T10:22:31.080</time></trkpt><trkpt lat="55.7977877" lon="49.2455232"><time>2026-01-18T10:22:33.077</time></trkpt><trkpt lat="55.7977669" lon="49.2455671"><time>2026-01-18T10:22:50.390</time></trkpt><trkpt lat="55.7977653" lon="49.2455942"><time>2026-01-18T10:22:54.057</time></trkpt><trkpt lat="55.7978243" lon="49.2455806"><time>2026-01-18T10:23:04.077</time></trkpt><trkpt lat="55.7978467" lon="49.2456508"><time>2026-01-18T10:23:07.053</time></trkpt><trkpt lat="55.7979116" lon="49.2456277"><time>2026-01-18T10:23:11.080</time></trkpt><trkpt lat="55.7979624" lon="49.2456303"><time>2026-01-18T10:23:14.073</time></trkpt><trkpt lat="55.7980079" lon="49.2456839"><time>2026-01-18T10:23:16.073</time></trkpt><trkpt lat="55.7980504" lon="49.2457544"><time>2026-01-18T10:23:18.063</time></trkpt><trkpt lat="55.7980837" lon="49.2458253"><time>2026-01-18T10:23:19.073</time></trkpt><trkpt lat="55.7981198" lon="49.2459294"><time>2026-01-18T10:23:21.077</time></trkpt><trkpt lat="55.7981292" lon="49.2460469"><time>2026-01-18T10:23:23.073</time></trkpt><trkpt lat="55.7981373" lon="49.2462295"><time>2026-01-18T10:23:25.073</time></trkpt><trkpt lat="55.7981695" lon="49.2463055"><time>2026-01-18T10:23:28.073</time></trkpt><trkpt lat="55.7981968" lon="49.2463713"><time>2026-01-18T10:23:31.077</time></trkpt><trkpt lat="55.7982290" lon="49.2464435"><time>2026-01-18T10:23:34.077</time></trkpt><trkpt lat="55.7982584" lon="49.2465344"><time>2026-01-18T10:23:37.053</time></trkpt><trkpt lat="55.7982941" lon="49.2466231"><time>2026-01-18T10:23:39.077</time></trkpt><trkpt lat="55.7983439" lon="49.2466987"><time>2026-01-18T10:23:42.077</time></trkpt><trkpt lat="55.7983978" lon="49.2467272"><time>2026-01-18T10:23:45.077</time></trkpt><trkpt lat="55.7984213" lon="49.2468358"><time>2026-01-18T10:23:48.077</time></trkpt><trkpt lat="55.7984368" lon="49.2469208"><time>2026-01-18T10:23:50.070</time></trkpt><trkpt lat="55.7984660" lon="49.2470253"><time>2026-01-18T10:23:53.080</time></trkpt><trkpt lat="55.7984999" lon="49.2471221"><time>2026-01-18T10:23:56.077</time></trkpt><trkpt lat="55.7985074" lon="49.2472300"><time>2026-01-18T10:23:59.073</time></trkpt><trkpt lat="55.7984901" lon="49.2473038"><time>2026-01-18T10:24:01.097</time></trkpt><trkpt lat="55.7984694" lon="49.2473794"><time>2026-01-18T10:24:03.077</time></trkpt><trkpt lat="55.7984536" lon="49.2474569"><time>2026-01-18T10:24:05.080</time></trkpt><trkpt lat="55.7984673" lon="49.2475604"><time>2026-01-18T10:24:08.077</time></trkpt><trkpt lat="55.7984953" lon="49.2476331"><time>2026-01-18T10:24:10.077</time></trkpt><trkpt lat="55.7985223" lon="49.2477116"><time>2026-01-18T10:24:12.077</time></trkpt><trkpt lat="55.7985495" lon="49.2477949"><time>2026-01-18T10:24:14.047</time></trkpt><trkpt lat="55.7985683" lon="49.2478701"><time>2026-01-18T10:24:15.077</time></trkpt><trkpt lat="55.7985932" lon="49.2479604"><time>2026-01-18T10:24:17.077</time></trkpt><trkpt lat="55.7986197" lon="49.2480466"><time>2026-01-18T10:24:19.093</time></trkpt><trkpt lat="55.7986600" lon="49.2481014"><time>2026-01-18T10:24:21.077</time></trkpt><trkpt lat="55.7987080" lon="49.2481334"><time>2026-01-18T10:24:23.080</time></trkpt><trkpt lat="55.7987522" lon="49.2481597"><time>2026-01-18T10:24:25.047</time></trkpt><trkpt lat="55.7988176" lon="49.2482025"><time>2026-01-18T10:24:28.077</time></trkpt><trkpt lat="55.7988606" lon="49.2482954"><time>2026-01-18T10:24:31.077</time></trkpt><trkpt lat="55.7988842" lon="49.2483754"><time>2026-01-18T10:24:33.077</time></trkpt><trkpt lat="55.7989118" lon="49.2484482"><time>2026-01-18T10:24:35.077</time></trkpt><trkpt lat="55.7989456" lon="49.2485359"><time>2026-01-18T10:24:37.077</time></trkpt><trkpt lat="55.7989755" lon="49.2486378"><time>2026-01-18T10:24:40.073</time></trkpt><trkpt lat="55.7990041" lon="49.2487439"><time>2026-01-18T10:24:43.073</time></trkpt><trkpt lat="55.7990248" lon="49.2488231"><time>2026-01-18T10:24:45.080</time></trkpt><trkpt lat="55.7990515" lon="49.2489261"><time>2026-01-18T10:24:48.077</time></trkpt><trkpt lat="55.7990795" lon="49.2490248"><time>2026-01-18T10:24:51.077</time></trkpt><trkpt lat="55.7991000" lon="49.2491022"><time>2026-01-18T10:24:53.090</time></trkpt><trkpt lat="55.7991118" lon="49.2491927"><time>2026-01-18T10:24:55.067</time></trkpt><trkpt lat="55.7991313" lon="49.2493117"><time>2026-01-18T10:24:57.050</time></trkpt><trkpt lat="55.7991556" lon="49.2493847"><time>2026-01-18T10:24:59.070</time></trkpt><trkpt lat="55.7991900" lon="49.2494820"><time>2026-01-18T10:25:02.057</time></trkpt><trkpt lat="55.7992174" lon="49.2495907"><time>2026-01-18T10:25:05.060</time></trkpt><trkpt lat="55.7992367" lon="49.2496687"><time>2026-01-18T10:25:07.047</time></trkpt><trkpt lat="55.7992683" lon="49.2497690"><time>2026-01-18T10:25:10.057</time></trkpt><trkpt lat="55.7992903" lon="49.2498432"><time>2026-01-18T10:25:12.063</time></trkpt><trkpt lat="55.7993143" lon="49.2499508"><time>2026-01-18T10:25:15.053</time></trkpt><trkpt lat="55.7993321" lon="49.2500254"><time>2026-01-18T10:25:17.050</time></trkpt><trkpt lat="55.7993560" lon="49.2501265"><time>2026-01-18T10:25:20.073</time></trkpt><trkpt lat="55.7993789" lon="49.2502367"><time>2026-01-18T10:25:23.053</time></trkpt><trkpt lat="55.7994069" lon="49.2503416"><time>2026-01-18T10:25:26.060</time></trkpt><trkpt lat="55.7994282" lon="49.2504128"><time>2026-01-18T10:25:28.050</time></trkpt><trkpt lat="55.7994514" lon="49.2504887"><time>2026-01-18T10:25:30.250</time></trkpt><trkpt lat="55.7994822" lon="49.2505659"><time>2026-01-18T10:25:32.080</time></trkpt><trkpt lat="55.7994982" lon="49.2506606"><time>2026-01-18T10:25:35.087</time></trkpt><trkpt lat="55.7995170" lon="49.2507652"><time>2026-01-18T10:25:38.053</time></trkpt><trkpt lat="55.7995383" lon="49.2508666"><time>2026-01-18T10:25:41.053</time></trkpt><trkpt lat="55.7995665" lon="49.2509629"><time>2026-01-18T10:25:44.040</time></trkpt><trkpt lat="55.7995894" lon="49.2510393"><time>2026-01-18T10:25:46.050</time></trkpt><trkpt lat="55.7996162" lon="49.2511428"><time>2026-01-18T10:25:49.053</time></trkpt><trkpt lat="55.7996467" lon="49.2512467"><time>2026-01-18T10:25:52.050</time></trkpt><trkpt lat="55.7996651" lon="49.2513317"><time>2026-01-18T10:25:54.080</time></trkpt><trkpt lat="55.7996638" lon="49.2514455"><time>2026-01-18T10:25:56.080</time></trkpt><trkpt lat="55.7996773" lon="49.2515280"><time>2026-01-18T10:25:58.073</time></trkpt><trkpt lat="55.7996783" lon="49.2516155"><time>2026-01-18T10:26:00.057</time></trkpt><trkpt lat="55.7996898" lon="49.2516975"><time>2026-01-18T10:26:02.057</time></trkpt><trkpt lat="55.7996987" lon="49.2517880"><time>2026-01-18T10:26:04.100</time></trkpt><trkpt lat="55.7997181" lon="49.2518956"><time>2026-01-18T10:26:07.070</time></trkpt><trkpt lat="55.7997091" lon="49.2520050"><time>2026-01-18T10:26:10.103</time></trkpt><trkpt lat="55.7996864" lon="49.2520964"><time>2026-01-18T10:26:13.053</time></trkpt><trkpt lat="55.7996485" lon="49.2521694"><time>2026-01-18T10:26:16.097</time></trkpt><trkpt lat="55.7996167" lon="49.2522575"><time>2026-01-18T10:26:18.080</time></trkpt><trkpt lat="55.7996012" lon="49.2523551"><time>2026-01-18T10:26:20.077</time></trkpt><trkpt lat="55.7996107" lon="49.2524488"><time>2026-01-18T10:26:23.077</time></trkpt><trkpt lat="55.7996305" lon="49.2525252"><time>2026-01-18T10:26:26.077</time></trkpt><trkpt lat="55.7996397" lon="49.2526044"><time>2026-01-18T10:26:27.077</time></trkpt><trkpt lat="55.7996538" lon="49.2526820"><time>2026-01-18T10:26:30.080</time></trkpt><trkpt lat="55.7996424" lon="49.2527883"><time>2026-01-18T10:26:33.100</time></trkpt><trkpt lat="55.7996226" lon="49.2528713"><time>2026-01-18T10:26:41.043</time></trkpt><trkpt lat="55.7995761" lon="49.2528975"><time>2026-01-18T10:26:48.037</time></trkpt><trkpt lat="55.7995761" lon="49.2528975"><time>2026-01-18T10:26:48.270</time></trkpt><trkpt lat="55.7994231" lon="49.2529776"><time>2026-01-18T10:27:05.053</time></trkpt><trkpt lat="55.7993787" lon="49.2530753"><time>2026-01-18T10:27:06.050</time></trkpt><trkpt lat="55.7994236" lon="49.2530379"><time>2026-01-18T10:27:09.057</time></trkpt><trkpt lat="55.7994543" lon="49.2529764"><time>2026-01-18T10:27:10.047</time></trkpt><trkpt lat="55.7995154" lon="49.2528975"><time>2026-01-18T10:27:12.053</time></trkpt><trkpt lat="55.7995708" lon="49.2528709"><time>2026-01-18T10:27:14.030</time></trkpt><trkpt lat="55.7995124" lon="49.2529562"><time>2026-01-18T10:27:16.057</time></trkpt><trkpt lat="55.7995564" lon="49.2528288"><time>2026-01-18T10:27:18.060</time></trkpt><trkpt lat="55.7996508" lon="49.2528472"><time>2026-01-18T10:27:20.057</time></trkpt><trkpt lat="55.7996720" lon="49.2529270"><time>2026-01-18T10:27:25.093</time></trkpt><trkpt lat="55.7997189" lon="49.2529884"><time>2026-01-18T10:27:28.090</time></trkpt><trkpt lat="55.7997580" lon="49.2530316"><time>2026-01-18T10:27:30.080</time></trkpt><trkpt lat="55.7997423" lon="49.2531065"><time>2026-01-18T10:27:34.073</time></trkpt><trkpt lat="55.7997655" lon="49.2531979"><time>2026-01-18T10:27:37.077</time></trkpt><trkpt lat="55.7997641" lon="49.2532898"><time>2026-01-18T10:27:42.057</time></trkpt><trkpt lat="55.7997950" lon="49.2533541"><time>2026-01-18T10:27:44.080</time></trkpt><trkpt lat="55.7998260" lon="49.2534148"><time>2026-01-18T10:27:46.053</time></trkpt><trkpt lat="55.7998637" lon="49.2535112"><time>2026-01-18T10:27:49.077</time></trkpt><trkpt lat="55.7998959" lon="49.2536531"><time>2026-01-18T10:27:51.073</time></trkpt><trkpt lat="55.7998920" lon="49.2537472"><time>2026-01-18T10:27:52.080</time></trkpt><trkpt lat="55.7998892" lon="49.2538694"><time>2026-01-18T10:27:54.100</time></trkpt><trkpt lat="55.7999041" lon="49.2539844"><time>2026-01-18T10:27:56.077</time></trkpt><trkpt lat="55.7999416" lon="49.2540525"><time>2026-01-18T10:27:58.057</time></trkpt><trkpt lat="55.7999971" lon="49.2540598"><time>2026-01-18T10:28:00.097</time></trkpt><trkpt lat="55.8000490" lon="49.2540225"><time>2026-01-18T10:28:02.057</time></trkpt><trkpt lat="55.8000964" lon="49.2539826"><time>2026-01-18T10:28:04.073</time></trkpt><trkpt lat="55.8001449" lon="49.2540185"><time>2026-01-18T10:28:07.047</time></trkpt><trkpt lat="55.8001554" lon="49.2540965"><time>2026-01-18T10:28:09.070</time></trkpt><trkpt lat="55.8001761" lon="49.2541823"><time>2026-01-18T10:28:11.063</time></trkpt><trkpt lat="55.8001993" lon="49.2542656"><time>2026-01-18T10:28:13.070</time></trkpt><trkpt lat="55.8002209" lon="49.2543409"><time>2026-01-18T10:28:15.077</time></trkpt><trkpt lat="55.8002428" lon="49.2544322"><time>2026-01-18T10:28:18.077</time></trkpt><trkpt lat="55.8002718" lon="49.2545499"><time>2026-01-18T10:28:21.077</time></trkpt><trkpt lat="55.8003026" lon="49.2546226"><time>2026-01-18T10:28:23.103</time></trkpt><trkpt lat="55.8003331" lon="49.2547085"><time>2026-01-18T10:28:25.083</time></trkpt><trkpt lat="55.8003594" lon="49.2548133"><time>2026-01-18T10:28:27.077</time></trkpt><trkpt lat="55.8003766" lon="49.2549111"><time>2026-01-18T10:28:30.057</time></trkpt><trkpt lat="55.8004020" lon="49.2550041"><time>2026-01-18T10:28:33.077</time></trkpt><trkpt lat="55.8004559" lon="49.2551004"><time>2026-01-18T10:28:36.077</time></trkpt><trkpt lat="55.8004264" lon="49.2551787"><time>2026-01-18T10:28:40.077</time></trkpt><trkpt lat="55.8003852" lon="49.2551304"><time>2026-01-18T10:28:42.080</time></trkpt><trkpt lat="55.8003559" lon="49.2550678"><time>2026-01-18T10:28:45.077</time></trkpt><trkpt lat="55.8003395" lon="49.2549744"><time>2026-01-18T10:28:49.080</time></trkpt><trkpt lat="55.8003390" lon="49.2548882"><time>2026-01-18T10:28:53.097</time></trkpt><trkpt lat="55.8003583" lon="49.2547856"><time>2026-01-18T10:28:58.077</time></trkpt><trkpt lat="55.8004035" lon="49.2547483"><time>2026-01-18T10:29:01.073</time></trkpt><trkpt lat="55.8004611" lon="49.2547149"><time>2026-01-18T10:29:06.080</time></trkpt><trkpt lat="55.8005301" lon="49.2546746"><time>2026-01-18T10:29:08.083</time></trkpt><trkpt lat="55.8006035" lon="49.2546586"><time>2026-01-18T10:29:10.097</time></trkpt><trkpt lat="55.8006619" lon="49.2546756"><time>2026-01-18T10:29:12.077</time></trkpt><trkpt lat="55.8006907" lon="49.2547376"><time>2026-01-18T10:29:16.073</time></trkpt><trkpt lat="55.8007157" lon="49.2548125"><time>2026-01-18T10:29:21.077</time></trkpt><trkpt lat="55.8007518" lon="49.2548911"><time>2026-01-18T10:29:23.077</time></trkpt><trkpt lat="55.8007323" lon="49.2548104"><time>2026-01-18T10:29:34.077</time></trkpt><trkpt lat="55.8007201" lon="49.2547094"><time>2026-01-18T10:29:38.077</time></trkpt><trkpt lat="55.8006906" lon="49.2546290"><time>2026-01-18T10:29:42.077</time></trkpt><trkpt lat="55.8006697" lon="49.2545281"><time>2026-01-18T10:29:46.040</time></trkpt><trkpt lat="55.8006532" lon="49.2544228"><time>2026-01-18T10:29:49.077</time></trkpt><trkpt lat="55.8006312" lon="49.2543215"><time>2026-01-18T10:29:52.073</time></trkpt><trkpt lat="55.8006152" lon="49.2542432"><time>2026-01-18T10:29:54.067</time></trkpt><trkpt lat="55.8006003" lon="49.2541503"><time>2026-01-18T10:29:56.077</time></trkpt><trkpt lat="55.8005862" lon="49.2540530"><time>2026-01-18T10:29:58.057</time></trkpt><trkpt lat="55.8005707" lon="49.2539531"><time>2026-01-18T10:30:00.073</time></trkpt><trkpt lat="55.8005573" lon="49.2538616"><time>2026-01-18T10:30:02.077</time></trkpt><trkpt lat="55.8005419" lon="49.2537827"><time>2026-01-18T10:30:04.073</time></trkpt><trkpt lat="55.8005191" lon="49.2537079"><time>2026-01-18T10:30:06.053</time></trkpt><trkpt lat="55.8004923" lon="49.2536308"><time>2026-01-18T10:30:08.073</time></trkpt><trkpt lat="55.8004682" lon="49.2535536"><time>2026-01-18T10:30:10.053</time></trkpt><trkpt lat="55.8004500" lon="49.2534686"><time>2026-01-18T10:30:12.050</time></trkpt><trkpt lat="55.8004348" lon="49.2533838"><time>2026-01-18T10:30:14.050</time></trkpt><trkpt lat="55.8004170" lon="49.2532956"><time>2026-01-18T10:30:16.073</time></trkpt><trkpt lat="55.8003974" lon="49.2532097"><time>2026-01-18T10:30:18.053</time></trkpt><trkpt lat="55.8003745" lon="49.2531277"><time>2026-01-18T10:30:20.073</time></trkpt><trkpt lat="55.8003561" lon="49.2530391"><time>2026-01-18T10:30:22.043</time></trkpt><trkpt lat="55.8003358" lon="49.2529503"><time>2026-01-18T10:30:24.073</time></trkpt><trkpt lat="55.8003124" lon="49.2528600"><time>2026-01-18T10:30:26.070</time></trkpt><trkpt lat="55.8002879" lon="49.2527742"><time>2026-01-18T10:30:28.073</time></trkpt><trkpt lat="55.8002644" lon="49.2526968"><time>2026-01-18T10:30:30.077</time></trkpt><trkpt lat="55.8002462" lon="49.2526117"><time>2026-01-18T10:30:32.053</time></trkpt><trkpt lat="55.8002308" lon="49.2525228"><time>2026-01-18T10:30:34.077</time></trkpt><trkpt lat="55.8002139" lon="49.2524357"><time>2026-01-18T10:30:36.077</time></trkpt><trkpt lat="55.8001885" lon="49.2523384"><time>2026-01-18T10:30:38.063</time></trkpt><trkpt lat="55.8001698" lon="49.2522509"><time>2026-01-18T10:30:40.057</time></trkpt><trkpt lat="55.8001516" lon="49.2521632"><time>2026-01-18T10:30:42.053</time></trkpt><trkpt lat="55.8001295" lon="49.2520763"><time>2026-01-18T10:30:44.037</time></trkpt><trkpt lat="55.8001100" lon="49.2519964"><time>2026-01-18T10:30:46.050</time></trkpt><trkpt lat="55.8000924" lon="49.2519142"><time>2026-01-18T10:30:48.057</time></trkpt><trkpt lat="55.8000771" lon="49.2518262"><time>2026-01-18T10:30:50.067</time></trkpt><trkpt lat="55.8000567" lon="49.2517430"><time>2026-01-18T10:30:52.077</time></trkpt><trkpt lat="55.8000348" lon="49.2516549"><time>2026-01-18T10:30:54.067</time></trkpt><trkpt lat="55.8000124" lon="49.2515675"><time>2026-01-18T10:30:56.053</time></trkpt><trkpt lat="55.7999942" lon="49.2514852"><time>2026-01-18T10:30:58.047</time></trkpt><trkpt lat="55.7999716" lon="49.2514026"><time>2026-01-18T10:31:00.057</time></trkpt><trkpt lat="55.7999513" lon="49.2513133"><time>2026-01-18T10:31:02.067</time></trkpt><trkpt lat="55.7999313" lon="49.2512233"><time>2026-01-18T10:31:04.077</time></trkpt><trkpt lat="55.7999105" lon="49.2511342"><time>2026-01-18T10:31:06.060</time></trkpt><trkpt lat="55.7998906" lon="49.2510568"><time>2026-01-18T10:31:08.047</time></trkpt><trkpt lat="55.7998709" lon="49.2509851"><time>2026-01-18T10:31:10.053</time></trkpt><trkpt lat="55.7998519" lon="49.2509120"><time>2026-01-18T10:31:12.070</time></trkpt><trkpt lat="55.7998343" lon="49.2508051"><time>2026-01-18T10:31:15.070</time></trkpt><trkpt lat="55.7998196" lon="49.2507165"><time>2026-01-18T10:31:17.073</time></trkpt><trkpt lat="55.7998038" lon="49.2506335"><time>2026-01-18T10:31:19.067</time></trkpt><trkpt lat="55.7997789" lon="49.2505223"><time>2026-01-18T10:31:22.073</time></trkpt><trkpt lat="55.7997502" lon="49.2504302"><time>2026-01-18T10:31:24.057</time></trkpt><trkpt lat="55.7997293" lon="49.2503499"><time>2026-01-18T10:31:26.067</time></trkpt><trkpt lat="55.7997139" lon="49.2502740"><time>2026-01-18T10:31:28.070</time></trkpt><trkpt lat="55.7996909" lon="49.2501880"><time>2026-01-18T10:31:31.060</time></trkpt><trkpt lat="55.7996500" lon="49.2500485"><time>2026-01-18T10:31:34.097</time></trkpt><trkpt lat="55.7996367" lon="49.2499262"><time>2026-01-18T10:31:35.053</time></trkpt><trkpt lat="55.7996162" lon="49.2498236"><time>2026-01-18T10:31:37.063</time></trkpt><trkpt lat="55.7995980" lon="49.2497379"><time>2026-01-18T10:31:39.057</time></trkpt><trkpt lat="55.7995806" lon="49.2496545"><time>2026-01-18T10:31:41.040</time></trkpt><trkpt lat="55.7995648" lon="49.2495655"><time>2026-01-18T10:31:43.067</time></trkpt><trkpt lat="55.7995462" lon="49.2494804"><time>2026-01-18T10:31:45.053</time></trkpt><trkpt lat="55.7995288" lon="49.2494024"><time>2026-01-18T10:31:47.063</time></trkpt><trkpt lat="55.7995110" lon="49.2492999"><time>2026-01-18T10:31:50.070</time></trkpt><trkpt lat="55.7994941" lon="49.2492201"><time>2026-01-18T10:31:52.060</time></trkpt><trkpt lat="55.7994780" lon="49.2491297"><time>2026-01-18T10:31:54.070</time></trkpt><trkpt lat="55.7994632" lon="49.2490420"><time>2026-01-18T10:31:56.057</time></trkpt><trkpt lat="55.7994509" lon="49.2489629"><time>2026-01-18T10:31:58.043</time></trkpt><trkpt lat="55.7994399" lon="49.2488842"><time>2026-01-18T10:32:00.070</time></trkpt><trkpt lat="55.7994113" lon="49.2487813"><time>2026-01-18T10:32:03.060</time></trkpt><trkpt lat="55.7993879" lon="49.2487101"><time>2026-01-18T10:32:05.077</time></trkpt><trkpt lat="55.7993598" lon="49.2486082"><time>2026-01-18T10:32:08.067</time></trkpt><trkpt lat="55.7993411" lon="49.2485331"><time>2026-01-18T10:32:10.070</time></trkpt><trkpt lat="55.7993141" lon="49.2484379"><time>2026-01-18T10:32:13.057</time></trkpt><trkpt lat="55.7992911" lon="49.2483379"><time>2026-01-18T10:32:16.057</time></trkpt><trkpt lat="55.7992799" lon="49.2482405"><time>2026-01-18T10:32:18.053</time></trkpt><trkpt lat="55.7992611" lon="49.2481231"><time>2026-01-18T10:32:19.063</time></trkpt><trkpt lat="55.7992598" lon="49.2480228"><time>2026-01-18T10:32:21.067</time></trkpt><trkpt lat="55.7992754" lon="49.2479258"><time>2026-01-18T10:32:24.067</time></trkpt><trkpt lat="55.7993122" lon="49.2478440"><time>2026-01-18T10:32:27.057</time></trkpt><trkpt lat="55.7993486" lon="49.2477966"><time>2026-01-18T10:32:29.043</time></trkpt><trkpt lat="55.7993896" lon="49.2477602"><time>2026-01-18T10:32:31.043</time></trkpt><trkpt lat="55.7994544" lon="49.2477262"><time>2026-01-18T10:32:34.047</time></trkpt><trkpt lat="55.7994996" lon="49.2477066"><time>2026-01-18T10:32:36.053</time></trkpt><trkpt lat="55.7995482" lon="49.2476818"><time>2026-01-18T10:32:38.097</time></trkpt><trkpt lat="55.7995947" lon="49.2476572"><time>2026-01-18T10:32:40.057</time></trkpt><trkpt lat="55.7996551" lon="49.2476247"><time>2026-01-18T10:32:43.077</time></trkpt><trkpt lat="55.7997073" lon="49.2476060"><time>2026-01-18T10:32:46.067</time></trkpt><trkpt lat="55.7997575" lon="49.2475987"><time>2026-01-18T10:32:49.097</time></trkpt><trkpt lat="55.7997945" lon="49.2475484"><time>2026-01-18T10:32:52.077</time></trkpt><trkpt lat="55.7998410" lon="49.2475157"><time>2026-01-18T10:32:56.073</time></trkpt><trkpt lat="55.7998868" lon="49.2474325"><time>2026-01-18T10:32:58.073</time></trkpt><trkpt lat="55.7999022" lon="49.2473356"><time>2026-01-18T10:33:01.097</time></trkpt><trkpt lat="55.7999376" lon="49.2472717"><time>2026-01-18T10:33:04.060</time></trkpt><trkpt lat="55.7999944" lon="49.2472479"><time>2026-01-18T10:33:05.077</time></trkpt><trkpt lat="55.8000651" lon="49.2472060"><time>2026-01-18T10:33:07.093</time></trkpt><trkpt lat="55.8001141" lon="49.2471907"><time>2026-01-18T10:33:10.070</time></trkpt><trkpt lat="55.8001605" lon="49.2471412"><time>2026-01-18T10:33:13.070</time></trkpt><trkpt lat="55.8001944" lon="49.2470844"><time>2026-01-18T10:33:17.067</time></trkpt><trkpt lat="55.8002242" lon="49.2470075"><time>2026-01-18T10:33:22.080</time></trkpt><trkpt lat="55.8002126" lon="49.2468796"><time>2026-01-18T10:33:26.077</time></trkpt><trkpt lat="55.8002075" lon="49.2467941"><time>2026-01-18T10:33:32.073</time></trkpt><trkpt lat="55.8001956" lon="49.2467006"><time>2026-01-18T10:33:35.100</time></trkpt><trkpt lat="55.8001726" lon="49.2466282"><time>2026-01-18T10:33:39.067</time></trkpt><trkpt lat="55.8001667" lon="49.2465008"><time>2026-01-18T10:33:40.070</time></trkpt><trkpt lat="55.8001627" lon="49.2464115"><time>2026-01-18T10:33:42.073</time></trkpt><trkpt lat="55.8001871" lon="49.2463171"><time>2026-01-18T10:33:46.090</time></trkpt><trkpt lat="55.8002275" lon="49.2462579"><time>2026-01-18T10:33:49.067</time></trkpt><trkpt lat="55.8002757" lon="49.2461959"><time>2026-01-18T10:33:52.093</time></trkpt><trkpt lat="55.8003129" lon="49.2461322"><time>2026-01-18T10:33:55.067</time></trkpt><trkpt lat="55.8003652" lon="49.2460734"><time>2026-01-18T10:33:58.067</time></trkpt><trkpt lat="55.8004211" lon="49.2460151"><time>2026-01-18T10:34:01.047</time></trkpt><trkpt lat="55.8004817" lon="49.2460238"><time>2026-01-18T10:34:03.093</time></trkpt><trkpt lat="55.8005388" lon="49.2460038"><time>2026-01-18T10:34:06.063</time></trkpt><trkpt lat="55.8006030" lon="49.2459777"><time>2026-01-18T10:34:09.067</time></trkpt><trkpt lat="55.8006485" lon="49.2459460"><time>2026-01-18T10:34:11.067</time></trkpt><trkpt lat="55.8006875" lon="49.2459055"><time>2026-01-18T10:34:13.070</time></trkpt><trkpt lat="55.8007277" lon="49.2458697"><time>2026-01-18T10:34:15.070</time></trkpt><trkpt lat="55.8007707" lon="49.2458432"><time>2026-01-18T10:34:17.070</time></trkpt><trkpt lat="55.8008173" lon="49.2458028"><time>2026-01-18T10:34:20.047</time></trkpt><trkpt lat="55.8008580" lon="49.2457231"><time>2026-01-18T10:34:23.067</time></trkpt><trkpt lat="55.8008696" lon="49.2456199"><time>2026-01-18T10:34:26.093</time></trkpt><trkpt lat="55.8008812" lon="49.2455277"><time>2026-01-18T10:34:28.077</time></trkpt><trkpt lat="55.8008708" lon="49.2454461"><time>2026-01-18T10:34:31.080</time></trkpt><trkpt lat="55.8008868" lon="49.2453598"><time>2026-01-18T10:34:34.077</time></trkpt><trkpt lat="55.8009284" lon="49.2453212"><time>2026-01-18T10:34:36.073</time></trkpt><trkpt lat="55.8009780" lon="49.2452901"><time>2026-01-18T10:34:39.073</time></trkpt><trkpt lat="55.8009925" lon="49.2452947"><time>2026-01-18T10:34:42.730</time></trkpt><trkpt lat="55.8009318" lon="49.2453067"><time>2026-01-18T10:34:56.093</time></trkpt><trkpt lat="55.8008842" lon="49.2452890"><time>2026-01-18T10:35:00.073</time></trkpt><trkpt lat="55.8008674" lon="49.2451996"><time>2026-01-18T10:35:10.070</time></trkpt><trkpt lat="55.8008545" lon="49.2451137"><time>2026-01-18T10:35:13.073</time></trkpt><trkpt lat="55.8008269" lon="49.2450243"><time>2026-01-18T10:35:15.077</time></trkpt><trkpt lat="55.8007615" lon="49.2450237"><time>2026-01-18T10:35:17.053</time></trkpt><trkpt lat="55.8007043" lon="49.2450480"><time>2026-01-18T10:35:19.053</time></trkpt><trkpt lat="55.8006598" lon="49.2449727"><time>2026-01-18T10:35:23.053</time></trkpt><trkpt lat="55.8006212" lon="49.2448754"><time>2026-01-18T10:35:26.077</time></trkpt><trkpt lat="55.8005824" lon="49.2448132"><time>2026-01-18T10:35:28.077</time></trkpt><trkpt lat="55.8005229" lon="49.2447880"><time>2026-01-18T10:35:30.053</time></trkpt><trkpt lat="55.8004660" lon="49.2448222"><time>2026-01-18T10:35:32.077</time></trkpt><trkpt lat="55.8004116" lon="49.2448685"><time>2026-01-18T10:35:34.087</time></trkpt><trkpt lat="55.8003504" lon="49.2448452"><time>2026-01-18T10:35:36.100</time></trkpt><trkpt lat="55.8003325" lon="49.2447701"><time>2026-01-18T10:35:38.083</time></trkpt><trkpt lat="55.8003086" lon="49.2446585"><time>2026-01-18T10:35:41.077</time></trkpt><trkpt lat="55.8002781" lon="49.2445859"><time>2026-01-18T10:35:43.053</time></trkpt><trkpt lat="55.8002455" lon="49.2445122"><time>2026-01-18T10:35:45.067</time></trkpt><trkpt lat="55.8002054" lon="49.2444566"><time>2026-01-18T10:35:47.070</time></trkpt><trkpt lat="55.8001593" lon="49.2444609"><time>2026-01-18T10:35:50.077</time></trkpt><trkpt lat="55.8001098" lon="49.2444614"><time>2026-01-18T10:35:53.070</time></trkpt><trkpt lat="55.8000865" lon="49.2443579"><time>2026-01-18T10:35:56.073</time></trkpt><trkpt lat="55.8000474" lon="49.2442658"><time>2026-01-18T10:35:59.097</time></trkpt><trkpt lat="55.8000095" lon="49.2441809"><time>2026-01-18T10:36:02.090</time></trkpt><trkpt lat="55.7999689" lon="49.2441005"><time>2026-01-18T10:36:05.100</time></trkpt><trkpt lat="55.7999082" lon="49.2440641"><time>2026-01-18T10:36:08.070</time></trkpt><trkpt lat="55.7998609" lon="49.2440527"><time>2026-01-18T10:36:10.063</time></trkpt><trkpt lat="55.7998076" lon="49.2440732"><time>2026-01-18T10:36:12.070</time></trkpt><trkpt lat="55.7997462" lon="49.2441067"><time>2026-01-18T10:36:15.077</time></trkpt><trkpt lat="55.7996841" lon="49.2441446"><time>2026-01-18T10:36:18.073</time></trkpt><trkpt lat="55.7996405" lon="49.2441837"><time>2026-01-18T10:36:20.077</time></trkpt><trkpt lat="55.7995849" lon="49.2442386"><time>2026-01-18T10:36:23.080</time></trkpt><trkpt lat="55.7995300" lon="49.2442789"><time>2026-01-18T10:36:26.077</time></trkpt><trkpt lat="55.7994954" lon="49.2442277"><time>2026-01-18T10:36:28.100</time></trkpt><trkpt lat="55.7994812" lon="49.2441367"><time>2026-01-18T10:36:30.080</time></trkpt><trkpt lat="55.7994695" lon="49.2440471"><time>2026-01-18T10:36:32.083</time></trkpt><trkpt lat="55.7994522" lon="49.2439690"><time>2026-01-18T10:36:34.100</time></trkpt><trkpt lat="55.7994325" lon="49.2438659"><time>2026-01-18T10:36:37.077</time></trkpt><trkpt lat="55.7994109" lon="49.2437651"><time>2026-01-18T10:36:40.103</time></trkpt><trkpt lat="55.7993941" lon="49.2436629"><time>2026-01-18T10:36:43.077</time></trkpt><trkpt lat="55.7993723" lon="49.2435860"><time>2026-01-18T10:36:45.053</time></trkpt><trkpt lat="55.7993561" lon="49.2435051"><time>2026-01-18T10:36:47.077</time></trkpt><trkpt lat="55.7993418" lon="49.2434133"><time>2026-01-18T10:36:49.093</time></trkpt><trkpt lat="55.7993272" lon="49.2433365"><time>2026-01-18T10:36:51.073</time></trkpt><trkpt lat="55.7993098" lon="49.2432612"><time>2026-01-18T10:36:53.057</time></trkpt><trkpt lat="55.7992883" lon="49.2431821"><time>2026-01-18T10:36:55.080</time></trkpt><trkpt lat="55.7992662" lon="49.2430976"><time>2026-01-18T10:36:57.087</time></trkpt><trkpt lat="55.7992446" lon="49.2430128"><time>2026-01-18T10:36:59.080</time></trkpt><trkpt lat="55.7992144" lon="49.2429383"><time>2026-01-18T10:37:01.077</time></trkpt><trkpt lat="55.7991788" lon="49.2428444"><time>2026-01-18T10:37:04.077</time></trkpt><trkpt lat="55.7991407" lon="49.2427380"><time>2026-01-18T10:37:07.077</time></trkpt><trkpt lat="55.7991146" lon="49.2426534"><time>2026-01-18T10:37:09.100</time></trkpt><trkpt lat="55.7990850" lon="49.2425793"><time>2026-01-18T10:37:11.053</time></trkpt><trkpt lat="55.7990527" lon="49.2425087"><time>2026-01-18T10:37:13.073</time></trkpt><trkpt lat="55.7990180" lon="49.2424307"><time>2026-01-18T10:37:15.103</time></trkpt><trkpt lat="55.7989927" lon="49.2423606"><time>2026-01-18T10:37:17.073</time></trkpt><trkpt lat="55.7989686" lon="49.2422807"><time>2026-01-18T10:37:19.077</time></trkpt><trkpt lat="55.7989467" lon="49.2421933"><time>2026-01-18T10:37:21.100</time></trkpt><trkpt lat="55.7989214" lon="49.2421141"><time>2026-01-18T10:37:23.077</time></trkpt><trkpt lat="55.7988880" lon="49.2420441"><time>2026-01-18T10:37:25.077</time></trkpt><trkpt lat="55.7988580" lon="49.2419677"><time>2026-01-18T10:37:27.103</time></trkpt><trkpt lat="55.7988253" lon="49.2418964"><time>2026-01-18T10:37:29.067</time></trkpt><trkpt lat="55.7987974" lon="49.2418254"><time>2026-01-18T10:37:31.070</time></trkpt><trkpt lat="55.7987722" lon="49.2417498"><time>2026-01-18T10:37:33.100</time></trkpt><trkpt lat="55.7987459" lon="49.2416478"><time>2026-01-18T10:37:36.057</time></trkpt><trkpt lat="55.7987180" lon="49.2415433"><time>2026-01-18T10:37:39.057</time></trkpt><trkpt lat="55.7986918" lon="49.2414375"><time>2026-01-18T10:37:42.080</time></trkpt><trkpt lat="55.7986809" lon="49.2413584"><time>2026-01-18T10:37:44.107</time></trkpt><trkpt lat="55.7986659" lon="49.2412702"><time>2026-01-18T10:37:46.070</time></trkpt><trkpt lat="55.7986526" lon="49.2411771"><time>2026-01-18T10:37:48.077</time></trkpt><trkpt lat="55.7986419" lon="49.2410857"><time>2026-01-18T10:37:50.100</time></trkpt><trkpt lat="55.7986273" lon="49.2410015"><time>2026-01-18T10:37:52.057</time></trkpt><trkpt lat="55.7986073" lon="49.2409077"><time>2026-01-18T10:37:54.083</time></trkpt><trkpt lat="55.7985815" lon="49.2408122"><time>2026-01-18T10:37:56.097</time></trkpt><trkpt lat="55.7985605" lon="49.2407127"><time>2026-01-18T10:37:58.053</time></trkpt><trkpt lat="55.7985383" lon="49.2406256"><time>2026-01-18T10:38:00.077</time></trkpt><trkpt lat="55.7985152" lon="49.2405412"><time>2026-01-18T10:38:02.100</time></trkpt><trkpt lat="55.7984939" lon="49.2404642"><time>2026-01-18T10:38:04.073</time></trkpt><trkpt lat="55.7984754" lon="49.2403913"><time>2026-01-18T10:38:06.077</time></trkpt><trkpt lat="55.7984527" lon="49.2403160"><time>2026-01-18T10:38:08.070</time></trkpt><trkpt lat="55.7984311" lon="49.2402442"><time>2026-01-18T10:38:10.073</time></trkpt><trkpt lat="55.7984041" lon="49.2401610"><time>2026-01-18T10:38:12.080</time></trkpt><trkpt lat="55.7983845" lon="49.2400863"><time>2026-01-18T10:38:14.077</time></trkpt><trkpt lat="55.7983675" lon="49.2400031"><time>2026-01-18T10:38:16.077</time></trkpt><trkpt lat="55.7983454" lon="49.2399180"><time>2026-01-18T10:38:18.073</time></trkpt><trkpt lat="55.7983266" lon="49.2398355"><time>2026-01-18T10:38:20.077</time></trkpt><trkpt lat="55.7982940" lon="49.2397573"><time>2026-01-18T10:38:22.083</time></trkpt><trkpt lat="55.7983018" lon="49.2396767"><time>2026-01-18T10:38:25.100</time></trkpt><trkpt lat="55.7983560" lon="49.2396327"><time>2026-01-18T10:38:28.077</time></trkpt><trkpt lat="55.7984050" lon="49.2395855"><time>2026-01-18T10:38:31.100</time></trkpt><trkpt lat="55.7984523" lon="49.2395322"><time>2026-01-18T10:38:34.077</time></trkpt><trkpt lat="55.7984945" lon="49.2394957"><time>2026-01-18T10:38:36.057</time></trkpt><trkpt lat="55.7985397" lon="49.2394629"><time>2026-01-18T10:38:38.047</time></trkpt><trkpt lat="55.7985840" lon="49.2394243"><time>2026-01-18T10:38:40.073</time></trkpt><trkpt lat="55.7986424" lon="49.2393738"><time>2026-01-18T10:38:43.093</time></trkpt><trkpt lat="55.7986923" lon="49.2393173"><time>2026-01-18T10:38:46.073</time></trkpt><trkpt lat="55.7987364" lon="49.2392985"><time>2026-01-18T10:38:49.067</time></trkpt><trkpt lat="55.7987971" lon="49.2392567"><time>2026-01-18T10:38:52.067</time></trkpt><trkpt lat="55.7988551" lon="49.2392376"><time>2026-01-18T10:38:54.090</time></trkpt><trkpt lat="55.7989110" lon="49.2391919"><time>2026-01-18T10:38:57.060</time></trkpt><trkpt lat="55.7989648" lon="49.2391480"><time>2026-01-18T10:39:00.090</time></trkpt><trkpt lat="55.7990248" lon="49.2391041"><time>2026-01-18T10:39:03.047</time></trkpt><trkpt lat="55.7990725" lon="49.2390804"><time>2026-01-18T10:39:06.093</time></trkpt><trkpt lat="55.7990763" lon="49.2390867"><time>2026-01-18T10:39:08.377</time></trkpt><trkpt lat="55.7990988" lon="49.2390118"><time>2026-01-18T10:39:19.080</time></trkpt><trkpt lat="55.7991531" lon="49.2389766"><time>2026-01-18T10:39:23.073</time></trkpt><trkpt lat="55.7991998" lon="49.2389628"><time>2026-01-18T10:39:31.080</time></trkpt><trkpt lat="55.7992118" lon="49.2388652"><time>2026-01-18T10:39:36.060</time></trkpt><trkpt lat="55.7992080" lon="49.2387843"><time>2026-01-18T10:39:38.077</time></trkpt><trkpt lat="55.7991708" lon="49.2387090"><time>2026-01-18T10:39:42.077</time></trkpt><trkpt lat="55.7991398" lon="49.2386004"><time>2026-01-18T10:39:45.050</time></trkpt><trkpt lat="55.7990991" lon="49.2385455"><time>2026-01-18T10:39:47.080</time></trkpt><trkpt lat="55.7990579" lon="49.2385034"><time>2026-01-18T10:39:49.053</time></trkpt><trkpt lat="55.7990261" lon="49.2384390"><time>2026-01-18T10:39:51.107</time></trkpt><trkpt lat="55.7989963" lon="49.2383577"><time>2026-01-18T10:39:53.080</time></trkpt><trkpt lat="55.7989791" lon="49.2382810"><time>2026-01-18T10:39:55.077</time></trkpt><trkpt lat="55.7989712" lon="49.2381790"><time>2026-01-18T10:39:58.077</time></trkpt><trkpt lat="55.7989751" lon="49.2380695"><time>2026-01-18T10:40:01.077</time></trkpt><trkpt lat="55.7989795" lon="49.2379792"><time>2026-01-18T10:40:03.077</time></trkpt><trkpt lat="55.7989863" lon="49.2378534"><time>2026-01-18T10:40:06.080</time></trkpt><trkpt lat="55.7989897" lon="49.2377680"><time>2026-01-18T10:40:08.060</time></trkpt><trkpt lat="55.7989906" lon="49.2376847"><time>2026-01-18T10:40:10.087</time></trkpt><trkpt lat="55.7989923" lon="49.2375998"><time>2026-01-18T10:40:12.083</time></trkpt><trkpt lat="55.7989986" lon="49.2375104"><time>2026-01-18T10:40:14.073</time></trkpt><trkpt lat="55.7990048" lon="49.2374184"><time>2026-01-18T10:40:16.077</time></trkpt><trkpt lat="55.7990143" lon="49.2373318"><time>2026-01-18T10:40:18.100</time></trkpt><trkpt lat="55.7990326" lon="49.2372520"><time>2026-01-18T10:40:20.077</time></trkpt><trkpt lat="55.7990506" lon="49.2371750"><time>2026-01-18T10:40:22.080</time></trkpt><trkpt lat="55.7990870" lon="49.2370821"><time>2026-01-18T10:40:25.053</time></trkpt><trkpt lat="55.7990992" lon="49.2369912"><time>2026-01-18T10:40:27.077</time></trkpt><trkpt lat="55.7991053" lon="49.2368730"><time>2026-01-18T10:40:30.053</time></trkpt><trkpt lat="55.7991161" lon="49.2367578"><time>2026-01-18T10:40:33.080</time></trkpt><trkpt lat="55.7991327" lon="49.2366817"><time>2026-01-18T10:40:35.080</time></trkpt><trkpt lat="55.7991444" lon="49.2365857"><time>2026-01-18T10:40:38.073</time></trkpt><trkpt lat="55.7991449" lon="49.2364836"><time>2026-01-18T10:40:41.077</time></trkpt><trkpt lat="55.7991565" lon="49.2363950"><time>2026-01-18T10:40:43.080</time></trkpt><trkpt lat="55.7991765" lon="49.2362964"><time>2026-01-18T10:40:45.080</time></trkpt><trkpt lat="55.7991957" lon="49.2362040"><time>2026-01-18T10:40:47.080</time></trkpt><trkpt lat="55.7992220" lon="49.2360956"><time>2026-01-18T10:40:50.053</time></trkpt><trkpt lat="55.7992464" lon="49.2359993"><time>2026-01-18T10:40:53.077</time></trkpt><trkpt lat="55.7992739" lon="49.2358997"><time>2026-01-18T10:40:56.043</time></trkpt><trkpt lat="55.7993299" lon="49.2358192"><time>2026-01-18T10:40:58.060</time></trkpt><trkpt lat="55.7993661" lon="49.2357314"><time>2026-01-18T10:41:01.077</time></trkpt><trkpt lat="55.7993945" lon="49.2356374"><time>2026-01-18T10:41:04.080</time></trkpt><trkpt lat="55.7994385" lon="49.2355188"><time>2026-01-18T10:41:07.087</time></trkpt><trkpt lat="55.7994552" lon="49.2354113"><time>2026-01-18T10:41:10.060</time></trkpt><trkpt lat="55.7994698" lon="49.2353303"><time>2026-01-18T10:41:12.080</time></trkpt><trkpt lat="55.7994867" lon="49.2352554"><time>2026-01-18T10:41:14.050</time></trkpt><trkpt lat="55.7995047" lon="49.2351821"><time>2026-01-18T10:41:16.077</time></trkpt><trkpt lat="55.7995256" lon="49.2350970"><time>2026-01-18T10:41:18.080</time></trkpt><trkpt lat="55.7995476" lon="49.2350151"><time>2026-01-18T10:41:20.083</time></trkpt><trkpt lat="55.7995722" lon="49.2349473"><time>2026-01-18T10:41:22.077</time></trkpt><trkpt lat="55.7996142" lon="49.2348646"><time>2026-01-18T10:41:25.073</time></trkpt><trkpt lat="55.7996545" lon="49.2348200"><time>2026-01-18T10:41:27.077</time></trkpt><trkpt lat="55.7996955" lon="49.2347764"><time>2026-01-18T10:41:29.077</time></trkpt><trkpt lat="55.7997352" lon="49.2347303"><time>2026-01-18T10:41:31.100</time></trkpt><trkpt lat="55.7997884" lon="49.2346765"><time>2026-01-18T10:41:33.060</time></trkpt><trkpt lat="55.7998417" lon="49.2346097"><time>2026-01-18T10:41:36.057</time></trkpt><trkpt lat="55.7998821" lon="49.2345356"><time>2026-01-18T10:41:39.080</time></trkpt><trkpt lat="55.7999242" lon="49.2344563"><time>2026-01-18T10:41:42.080</time></trkpt><trkpt lat="55.7999568" lon="49.2343989"><time>2026-01-18T10:41:44.080</time></trkpt><trkpt lat="55.7999986" lon="49.2343096"><time>2026-01-18T10:41:47.073</time></trkpt><trkpt lat="55.8000301" lon="49.2342450"><time>2026-01-18T10:41:49.100</time></trkpt><trkpt lat="55.8000857" lon="49.2341677"><time>2026-01-18T10:41:51.057</time></trkpt><trkpt lat="55.8001248" lon="49.2341260"><time>2026-01-18T10:41:53.077</time></trkpt><trkpt lat="55.8001685" lon="49.2340997"><time>2026-01-18T10:41:55.100</time></trkpt><trkpt lat="55.8002257" lon="49.2340803"><time>2026-01-18T10:41:57.077</time></trkpt><trkpt lat="55.8002885" lon="49.2340452"><time>2026-01-18T10:42:00.057</time></trkpt><trkpt lat="55.8003532" lon="49.2340541"><time>2026-01-18T10:42:02.057</time></trkpt><trkpt lat="55.8004002" lon="49.2340616"><time>2026-01-18T10:42:04.057</time></trkpt><trkpt lat="55.8004674" lon="49.2340778"><time>2026-01-18T10:42:07.047</time></trkpt><trkpt lat="55.8005280" lon="49.2340961"><time>2026-01-18T10:42:10.057</time></trkpt><trkpt lat="55.8005732" lon="49.2340807"><time>2026-01-18T10:42:13.057</time></trkpt><trkpt lat="55.8006035" lon="49.2339927"><time>2026-01-18T10:42:16.077</time></trkpt><trkpt lat="55.8006295" lon="49.2338965"><time>2026-01-18T10:42:18.077</time></trkpt><trkpt lat="55.8006378" lon="49.2338077"><time>2026-01-18T10:42:21.073</time></trkpt><trkpt lat="55.8006572" lon="49.2337121"><time>2026-01-18T10:42:24.077</time></trkpt><trkpt lat="55.8007051" lon="49.2335928"><time>2026-01-18T10:42:27.077</time></trkpt><trkpt lat="55.8007416" lon="49.2334916"><time>2026-01-18T10:42:29.103</time></trkpt><trkpt lat="55.8007702" lon="49.2334006"><time>2026-01-18T10:42:31.057</time></trkpt><trkpt lat="55.8008122" lon="49.2333648"><time>2026-01-18T10:42:35.103</time></trkpt><trkpt lat="55.8008571" lon="49.2333606"><time>2026-01-18T10:42:39.083</time></trkpt><trkpt lat="55.8009141" lon="49.2333935"><time>2026-01-18T10:42:43.060</time></trkpt><trkpt lat="55.8009698" lon="49.2334607"><time>2026-01-18T10:42:46.070</time></trkpt><trkpt lat="55.8010150" lon="49.2334829"><time>2026-01-18T10:42:51.077</time></trkpt><trkpt lat="55.8010547" lon="49.2334233"><time>2026-01-18T10:42:56.070</time></trkpt><trkpt lat="55.8010915" lon="49.2333752"><time>2026-01-18T10:43:00.077</time></trkpt><trkpt lat="55.8011430" lon="49.2333343"><time>2026-01-18T10:43:02.087</time></trkpt><trkpt lat="55.8011908" lon="49.2333125"><time>2026-01-18T10:43:05.083</time></trkpt><trkpt lat="55.8012084" lon="49.2333338"><time>2026-01-18T10:43:08.897</time></trkpt><trkpt lat="55.8011458" lon="49.2333573"><time>2026-01-18T10:43:16.077</time></trkpt><trkpt lat="55.8010857" lon="49.2333592"><time>2026-01-18T10:43:19.067</time></trkpt><trkpt lat="55.8010464" lon="49.2334230"><time>2026-01-18T10:43:22.077</time></trkpt><trkpt lat="55.8010127" lon="49.2334841"><time>2026-01-18T10:43:24.057</time></trkpt><trkpt lat="55.8009884" lon="49.2335664"><time>2026-01-18T10:43:27.100</time></trkpt><trkpt lat="55.8009657" lon="49.2336443"><time>2026-01-18T10:43:30.083</time></trkpt><trkpt lat="55.8009134" lon="49.2336262"><time>2026-01-18T10:43:34.070</time></trkpt><trkpt lat="55.8009119" lon="49.2337062"><time>2026-01-18T10:43:39.100</time></trkpt><trkpt lat="55.8009414" lon="49.2337995"><time>2026-01-18T10:43:43.063</time></trkpt><trkpt lat="55.8009548" lon="49.2338757"><time>2026-01-18T10:43:45.103</time></trkpt><trkpt lat="55.8009773" lon="49.2339576"><time>2026-01-18T10:43:47.073</time></trkpt><trkpt lat="55.8010269" lon="49.2340231"><time>2026-01-18T10:43:50.083</time></trkpt><trkpt lat="55.8010635" lon="49.2340844"><time>2026-01-18T10:43:53.080</time></trkpt><trkpt lat="55.8011027" lon="49.2341765"><time>2026-01-18T10:43:55.073</time></trkpt><trkpt lat="55.8011322" lon="49.2342497"><time>2026-01-18T10:43:56.107</time></trkpt><trkpt lat="55.8011773" lon="49.2343055"><time>2026-01-18T10:43:58.083</time></trkpt><trkpt lat="55.8012246" lon="49.2343495"><time>2026-01-18T10:44:00.090</time></trkpt><trkpt lat="55.8012704" lon="49.2343765"><time>2026-01-18T10:44:02.097</time></trkpt><trkpt lat="55.8013200" lon="49.2344012"><time>2026-01-18T10:44:04.080</time></trkpt><trkpt lat="55.8013735" lon="49.2344303"><time>2026-01-18T10:44:06.057</time></trkpt><trkpt lat="55.8014319" lon="49.2344513"><time>2026-01-18T10:44:08.053</time></trkpt><trkpt lat="55.8014771" lon="49.2344652"><time>2026-01-18T10:44:10.077</time></trkpt><trkpt lat="55.8015415" lon="49.2344912"><time>2026-01-18T10:44:13.077</time></trkpt><trkpt lat="55.8016011" lon="49.2345161"><time>2026-01-18T10:44:16.083</time></trkpt><trkpt lat="55.8016611" lon="49.2345658"><time>2026-01-18T10:44:19.077</time></trkpt><trkpt lat="55.8017080" lon="49.2346071"><time>2026-01-18T10:44:21.077</time></trkpt><trkpt lat="55.8017516" lon="49.2346416"><time>2026-01-18T10:44:23.073</time></trkpt><trkpt lat="55.8018068" lon="49.2347092"><time>2026-01-18T10:44:26.103</time></trkpt><trkpt lat="55.8018339" lon="49.2347829"><time>2026-01-18T10:44:30.057</time></trkpt><trkpt lat="55.8018531" lon="49.2348600"><time>2026-01-18T10:44:38.100</time></trkpt><trkpt lat="55.8018929" lon="49.2349261"><time>2026-01-18T10:44:46.077</time></trkpt><trkpt lat="55.8019485" lon="49.2349978"><time>2026-01-18T10:44:49.070</time></trkpt><trkpt lat="55.8019855" lon="49.2350523"><time>2026-01-18T10:44:51.070</time></trkpt><trkpt lat="55.8020193" lon="49.2351055"><time>2026-01-18T10:44:53.080</time></trkpt><trkpt lat="55.8020587" lon="49.2351570"><time>2026-01-18T10:44:55.070</time></trkpt><trkpt lat="55.8021019" lon="49.2351864"><time>2026-01-18T10:44:57.073</time></trkpt><trkpt lat="55.8021347" lon="49.2352725"><time>2026-01-18T10:45:02.063</time></trkpt><trkpt lat="55.8021204" lon="49.2353865"><time>2026-01-18T10:45:05.083</time></trkpt><trkpt lat="55.8021583" lon="49.2354436"><time>2026-01-18T10:45:08.087</time></trkpt><trkpt lat="55.8022205" lon="49.2354766"><time>2026-01-18T10:45:11.090</time></trkpt><trkpt lat="55.8022675" lon="49.2354460"><time>2026-01-18T10:45:13.110</time></trkpt><trkpt lat="55.8023121" lon="49.2354268"><time>2026-01-18T10:45:16.067</time></trkpt><trkpt lat="55.8023560" lon="49.2354722"><time>2026-01-18T10:45:19.097</time></trkpt><trkpt lat="55.8023349" lon="49.2355959"><time>2026-01-18T10:45:22.077</time></trkpt><trkpt lat="55.8022964" lon="49.2356884"><time>2026-01-18T10:45:24.077</time></trkpt><trkpt lat="55.8022933" lon="49.2357994"><time>2026-01-18T10:45:27.080</time></trkpt><trkpt lat="55.8022891" lon="49.2359182"><time>2026-01-18T10:45:30.067</time></trkpt><trkpt lat="55.8022572" lon="49.2359942"><time>2026-01-18T10:45:32.093</time></trkpt><trkpt lat="55.8022201" lon="49.2360623"><time>2026-01-18T10:45:34.087</time></trkpt><trkpt lat="55.8021760" lon="49.2361530"><time>2026-01-18T10:45:37.083</time></trkpt><trkpt lat="55.8021424" lon="49.2362263"><time>2026-01-18T10:45:39.087</time></trkpt><trkpt lat="55.8021064" lon="49.2363029"><time>2026-01-18T10:45:41.083</time></trkpt><trkpt lat="55.8020740" lon="49.2363700"><time>2026-01-18T10:45:43.087</time></trkpt><trkpt lat="55.8020346" lon="49.2364484"><time>2026-01-18T10:45:45.057</time></trkpt><trkpt lat="55.8020014" lon="49.2365189"><time>2026-01-18T10:45:47.077</time></trkpt><trkpt lat="55.8019674" lon="49.2365976"><time>2026-01-18T10:45:49.077</time></trkpt><trkpt lat="55.8019446" lon="49.2366807"><time>2026-01-18T10:45:51.083</time></trkpt><trkpt lat="55.8019227" lon="49.2367885"><time>2026-01-18T10:45:54.057</time></trkpt><trkpt lat="55.8019329" lon="49.2369039"><time>2026-01-18T10:45:57.080</time></trkpt><trkpt lat="55.8019682" lon="49.2369636"><time>2026-01-18T10:45:59.100</time></trkpt><trkpt lat="55.8020094" lon="49.2370010"><time>2026-01-18T10:46:01.093</time></trkpt><trkpt lat="55.8020693" lon="49.2370610"><time>2026-01-18T10:46:04.073</time></trkpt><trkpt lat="55.8021228" lon="49.2371135"><time>2026-01-18T10:46:07.063</time></trkpt><trkpt lat="55.8021725" lon="49.2371570"><time>2026-01-18T10:46:10.077</time></trkpt><trkpt lat="55.8022148" lon="49.2371887"><time>2026-01-18T10:46:12.083</time></trkpt><trkpt lat="55.8022791" lon="49.2372287"><time>2026-01-18T10:46:15.083</time></trkpt><trkpt lat="55.8023299" lon="49.2372447"><time>2026-01-18T10:46:17.077</time></trkpt><trkpt lat="55.8023767" lon="49.2372600"><time>2026-01-18T10:46:19.060</time></trkpt><trkpt lat="55.8024403" lon="49.2372812"><time>2026-01-18T10:46:22.060</time></trkpt><trkpt lat="55.8024756" lon="49.2373417"><time>2026-01-18T10:46:25.073</time></trkpt><trkpt lat="55.8025046" lon="49.2374365"><time>2026-01-18T10:46:28.080</time></trkpt><trkpt lat="55.8025231" lon="49.2375151"><time>2026-01-18T10:46:30.080</time></trkpt><trkpt lat="55.8025490" lon="49.2375963"><time>2026-01-18T10:46:34.080</time></trkpt><trkpt lat="55.8025898" lon="49.2376504"><time>2026-01-18T10:46:38.110</time></trkpt><trkpt lat="55.8026405" lon="49.2376994"><time>2026-01-18T10:46:42.087</time></trkpt><trkpt lat="55.8026845" lon="49.2377685"><time>2026-01-18T10:46:45.087</time></trkpt><trkpt lat="55.8027145" lon="49.2378607"><time>2026-01-18T10:46:48.093</time></trkpt><trkpt lat="55.8027592" lon="49.2379054"><time>2026-01-18T10:46:50.100</time></trkpt><trkpt lat="55.8028077" lon="49.2379579"><time>2026-01-18T10:46:52.073</time></trkpt><trkpt lat="55.8028489" lon="49.2380113"><time>2026-01-18T10:46:54.093</time></trkpt><trkpt lat="55.8028895" lon="49.2380846"><time>2026-01-18T10:46:56.107</time></trkpt><trkpt lat="55.8029275" lon="49.2381611"><time>2026-01-18T10:46:58.080</time></trkpt><trkpt lat="55.8029334" lon="49.2382573"><time>2026-01-18T10:47:00.087</time></trkpt><trkpt lat="55.8029146" lon="49.2383441"><time>2026-01-18T10:47:02.080</time></trkpt><trkpt lat="55.8028822" lon="49.2384231"><time>2026-01-18T10:47:04.077</time></trkpt><trkpt lat="55.8028483" lon="49.2384986"><time>2026-01-18T10:47:06.087</time></trkpt><trkpt lat="55.8028131" lon="49.2385695"><time>2026-01-18T10:47:08.090</time></trkpt><trkpt lat="55.8027832" lon="49.2386453"><time>2026-01-18T10:47:10.087</time></trkpt><trkpt lat="55.8027529" lon="49.2387171"><time>2026-01-18T10:47:12.073</time></trkpt><trkpt lat="55.8027090" lon="49.2388252"><time>2026-01-18T10:47:15.077</time></trkpt><trkpt lat="55.8026858" lon="49.2389191"><time>2026-01-18T10:47:17.077</time></trkpt><trkpt lat="55.8027203" lon="49.2389836"><time>2026-01-18T10:47:19.107</time></trkpt><trkpt lat="55.8027672" lon="49.2390449"><time>2026-01-18T10:47:22.077</time></trkpt><trkpt lat="55.8027445" lon="49.2389739"><time>2026-01-18T10:47:44.043</time></trkpt><trkpt lat="55.8027197" lon="49.2388964"><time>2026-01-18T10:47:50.073</time></trkpt><trkpt lat="55.8026220" lon="49.2387600"><time>2026-01-18T10:48:11.067</time></trkpt><trkpt lat="55.8025953" lon="49.2386820"><time>2026-01-18T10:48:14.067</time></trkpt><trkpt lat="55.8025454" lon="49.2386876"><time>2026-01-18T10:48:17.067</time></trkpt><trkpt lat="55.8025061" lon="49.2386296"><time>2026-01-18T10:48:37.087</time></trkpt><trkpt lat="55.8025280" lon="49.2385529"><time>2026-01-18T10:48:44.103</time></trkpt><trkpt lat="55.8025794" lon="49.2385625"><time>2026-01-18T10:48:47.073</time></trkpt><trkpt lat="55.8026310" lon="49.2385874"><time>2026-01-18T10:48:49.077</time></trkpt><trkpt lat="55.8026886" lon="49.2386442"><time>2026-01-18T10:48:51.083</time></trkpt><trkpt lat="55.8027402" lon="49.2385985"><time>2026-01-18T10:48:53.083</time></trkpt><trkpt lat="55.8028120" lon="49.2385540"><time>2026-01-18T10:48:55.057</time></trkpt><trkpt lat="55.8028563" lon="49.2385310"><time>2026-01-18T10:48:56.103</time></trkpt><trkpt lat="55.8029066" lon="49.2385093"><time>2026-01-18T10:48:57.080</time></trkpt><trkpt lat="55.8029557" lon="49.2384802"><time>2026-01-18T10:48:58.057</time></trkpt><trkpt lat="55.8029976" lon="49.2384063"><time>2026-01-18T10:49:00.087</time></trkpt><trkpt lat="55.8030346" lon="49.2383404"><time>2026-01-18T10:49:02.063</time></trkpt><trkpt lat="55.8030688" lon="49.2382593"><time>2026-01-18T10:49:05.080</time></trkpt><trkpt lat="55.8031138" lon="49.2381748"><time>2026-01-18T10:49:08.063</time></trkpt><trkpt lat="55.8031442" lon="49.2381014"><time>2026-01-18T10:49:10.077</time></trkpt><trkpt lat="55.8031742" lon="49.2380272"><time>2026-01-18T10:49:12.093</time></trkpt><trkpt lat="55.8032034" lon="49.2379633"><time>2026-01-18T10:49:14.087</time></trkpt><trkpt lat="55.8032314" lon="49.2378976"><time>2026-01-18T10:49:16.093</time></trkpt><trkpt lat="55.8032759" lon="49.2378106"><time>2026-01-18T10:49:19.107</time></trkpt><trkpt lat="55.8033114" lon="49.2377392"><time>2026-01-18T10:49:21.087</time></trkpt><trkpt lat="55.8033441" lon="49.2376730"><time>2026-01-18T10:49:23.063</time></trkpt><trkpt lat="55.8033757" lon="49.2376046"><time>2026-01-18T10:49:25.063</time></trkpt><trkpt lat="55.8034146" lon="49.2375362"><time>2026-01-18T10:49:27.087</time></trkpt><trkpt lat="55.8034488" lon="49.2374695"><time>2026-01-18T10:49:29.087</time></trkpt><trkpt lat="55.8034868" lon="49.2374013"><time>2026-01-18T10:49:31.107</time></trkpt><trkpt lat="55.8035303" lon="49.2373419"><time>2026-01-18T10:49:33.097</time></trkpt><trkpt lat="55.8035700" lon="49.2372800"><time>2026-01-18T10:49:35.090</time></trkpt><trkpt lat="55.8036056" lon="49.2372178"><time>2026-01-18T10:49:37.110</time></trkpt><trkpt lat="55.8036347" lon="49.2371530"><time>2026-01-18T10:49:39.087</time></trkpt><trkpt lat="55.8036726" lon="49.2370709"><time>2026-01-18T10:49:42.073</time></trkpt><trkpt lat="55.8036718" lon="49.2369737"><time>2026-01-18T10:49:46.087</time></trkpt><trkpt lat="55.8037123" lon="49.2368788"><time>2026-01-18T10:49:49.100</time></trkpt><trkpt lat="55.8037552" lon="49.2367946"><time>2026-01-18T10:49:51.093</time></trkpt><trkpt lat="55.8037851" lon="49.2366944"><time>2026-01-18T10:49:53.093</time></trkpt><trkpt lat="55.8038140" lon="49.2365899"><time>2026-01-18T10:49:55.110</time></trkpt><trkpt lat="55.8038475" lon="49.2364979"><time>2026-01-18T10:49:57.087</time></trkpt><trkpt lat="55.8038778" lon="49.2364132"><time>2026-01-18T10:49:59.090</time></trkpt><trkpt lat="55.8039092" lon="49.2363441"><time>2026-01-18T10:50:01.110</time></trkpt><trkpt lat="55.8039404" lon="49.2362776"><time>2026-01-18T10:50:03.087</time></trkpt><trkpt lat="55.8039743" lon="49.2362128"><time>2026-01-18T10:50:05.090</time></trkpt><trkpt lat="55.8040160" lon="49.2361199"><time>2026-01-18T10:50:08.063</time></trkpt><trkpt lat="55.8040489" lon="49.2360539"><time>2026-01-18T10:50:10.077</time></trkpt><trkpt lat="55.8040835" lon="49.2359773"><time>2026-01-18T10:50:12.107</time></trkpt><trkpt lat="55.8041165" lon="49.2359022"><time>2026-01-18T10:50:14.073</time></trkpt><trkpt lat="55.8041512" lon="49.2358300"><time>2026-01-18T10:50:16.053</time></trkpt><trkpt lat="55.8041792" lon="49.2357597"><time>2026-01-18T10:50:18.077</time></trkpt><trkpt lat="55.8042085" lon="49.2356890"><time>2026-01-18T10:50:20.060</time></trkpt><trkpt lat="55.8042354" lon="49.2356214"><time>2026-01-18T10:50:22.087</time></trkpt><trkpt lat="55.8042602" lon="49.2355521"><time>2026-01-18T10:50:24.080</time></trkpt><trkpt lat="55.8042834" lon="49.2354796"><time>2026-01-18T10:50:26.067</time></trkpt><trkpt lat="55.8043084" lon="49.2354049"><time>2026-01-18T10:50:28.087</time></trkpt><trkpt lat="55.8043421" lon="49.2353411"><time>2026-01-18T10:50:30.083</time></trkpt><trkpt lat="55.8043770" lon="49.2352779"><time>2026-01-18T10:50:32.083</time></trkpt><trkpt lat="55.8044039" lon="49.2352132"><time>2026-01-18T10:50:34.107</time></trkpt><trkpt lat="55.8044509" lon="49.2351561"><time>2026-01-18T10:50:36.087</time></trkpt><trkpt lat="55.8044850" lon="49.2350865"><time>2026-01-18T10:50:38.060</time></trkpt><trkpt lat="55.8045088" lon="49.2350162"><time>2026-01-18T10:50:40.080</time></trkpt><trkpt lat="55.8045390" lon="49.2349467"><time>2026-01-18T10:50:42.073</time></trkpt><trkpt lat="55.8045807" lon="49.2348751"><time>2026-01-18T10:50:44.073</time></trkpt><trkpt lat="55.8046189" lon="49.2347958"><time>2026-01-18T10:50:46.080</time></trkpt><trkpt lat="55.8046488" lon="49.2347192"><time>2026-01-18T10:50:48.073</time></trkpt><trkpt lat="55.8046786" lon="49.2346462"><time>2026-01-18T10:50:50.083</time></trkpt><trkpt lat="55.8047099" lon="49.2345766"><time>2026-01-18T10:50:52.087</time></trkpt><trkpt lat="55.8047410" lon="49.2345048"><time>2026-01-18T10:50:54.077</time></trkpt><trkpt lat="55.8047701" lon="49.2344285"><time>2026-01-18T10:50:56.080</time></trkpt><trkpt lat="55.8048016" lon="49.2343696"><time>2026-01-18T10:50:58.083</time></trkpt><trkpt lat="55.8048464" lon="49.2342828"><time>2026-01-18T10:51:01.060</time></trkpt><trkpt lat="55.8048877" lon="49.2341941"><time>2026-01-18T10:51:04.090</time></trkpt><trkpt lat="55.8049289" lon="49.2341018"><time>2026-01-18T10:51:07.090</time></trkpt><trkpt lat="55.8049668" lon="49.2340041"><time>2026-01-18T10:51:10.060</time></trkpt><trkpt lat="55.8049956" lon="49.2339382"><time>2026-01-18T10:51:12.087</time></trkpt><trkpt lat="55.8050335" lon="49.2338512"><time>2026-01-18T10:51:15.090</time></trkpt><trkpt lat="55.8050659" lon="49.2337753"><time>2026-01-18T10:51:18.083</time></trkpt><trkpt lat="55.8051005" lon="49.2336963"><time>2026-01-18T10:51:21.080</time></trkpt><trkpt lat="55.8051314" lon="49.2336151"><time>2026-01-18T10:51:24.077</time></trkpt><trkpt lat="55.8051701" lon="49.2335340"><time>2026-01-18T10:51:27.080</time></trkpt><trkpt lat="55.8051964" lon="49.2334687"><time>2026-01-18T10:51:29.083</time></trkpt><trkpt lat="55.8052238" lon="49.2333939"><time>2026-01-18T10:51:31.113</time></trkpt><trkpt lat="55.8052535" lon="49.2333190"><time>2026-01-18T10:51:33.090</time></trkpt><trkpt lat="55.8053136" lon="49.2332340"><time>2026-01-18T10:51:35.093</time></trkpt><trkpt lat="55.8053504" lon="49.2331633"><time>2026-01-18T10:51:37.107</time></trkpt><trkpt lat="55.8053799" lon="49.2330942"><time>2026-01-18T10:51:39.090</time></trkpt><trkpt lat="55.8054063" lon="49.2330290"><time>2026-01-18T10:51:41.097</time></trkpt><trkpt lat="55.8054445" lon="49.2329347"><time>2026-01-18T10:51:44.090</time></trkpt><trkpt lat="55.8054711" lon="49.2328692"><time>2026-01-18T10:51:46.093</time></trkpt><trkpt lat="55.8054957" lon="49.2328023"><time>2026-01-18T10:51:48.093</time></trkpt><trkpt lat="55.8055169" lon="49.2327287"><time>2026-01-18T10:51:50.093</time></trkpt><trkpt lat="55.8055339" lon="49.2326491"><time>2026-01-18T10:51:52.097</time></trkpt><trkpt lat="55.8055483" lon="49.2325668"><time>2026-01-18T10:51:54.093</time></trkpt><trkpt lat="55.8055704" lon="49.2324790"><time>2026-01-18T10:51:56.070</time></trkpt><trkpt lat="55.8056198" lon="49.2323851"><time>2026-01-18T10:51:58.090</time></trkpt><trkpt lat="55.8056380" lon="49.2323112"><time>2026-01-18T10:52:01.093</time></trkpt><trkpt lat="55.8056660" lon="49.2322359"><time>2026-01-18T10:52:04.097</time></trkpt><trkpt lat="55.8057296" lon="49.2322163"><time>2026-01-18T10:52:07.067</time></trkpt><trkpt lat="55.8057783" lon="49.2322409"><time>2026-01-18T10:52:09.070</time></trkpt><trkpt lat="55.8058315" lon="49.2322732"><time>2026-01-18T10:52:11.117</time></trkpt><trkpt lat="55.8058837" lon="49.2323274"><time>2026-01-18T10:52:13.083</time></trkpt><trkpt lat="55.8059334" lon="49.2323790"><time>2026-01-18T10:52:15.083</time></trkpt><trkpt lat="55.8059780" lon="49.2323246"><time>2026-01-18T10:52:20.057</time></trkpt><trkpt lat="55.8059986" lon="49.2322242"><time>2026-01-18T10:52:22.083</time></trkpt><trkpt lat="55.8060126" lon="49.2321273"><time>2026-01-18T10:52:24.060</time></trkpt><trkpt lat="55.8060192" lon="49.2320396"><time>2026-01-18T10:52:26.087</time></trkpt><trkpt lat="55.8060389" lon="49.2319312"><time>2026-01-18T10:52:29.103</time></trkpt><trkpt lat="55.8060690" lon="49.2318304"><time>2026-01-18T10:52:32.090</time></trkpt><trkpt lat="55.8060918" lon="49.2317443"><time>2026-01-18T10:52:35.107</time></trkpt><trkpt lat="55.8061119" lon="49.2316581"><time>2026-01-18T10:52:38.077</time></trkpt><trkpt lat="55.8061307" lon="49.2316029"><time>2026-01-18T10:52:42.653</time></trkpt><trkpt lat="55.8061264" lon="49.2315706"><time>2026-01-18T10:52:49.087</time></trkpt><trkpt lat="55.8061168" lon="49.2314860"><time>2026-01-18T10:52:56.120</time></trkpt><trkpt lat="55.8061572" lon="49.2313953"><time>2026-01-18T10:53:02.123</time></trkpt><trkpt lat="55.8062050" lon="49.2313453"><time>2026-01-18T10:53:04.093</time></trkpt><trkpt lat="55.8062367" lon="49.2312732"><time>2026-01-18T10:53:06.093</time></trkpt><trkpt lat="55.8062627" lon="49.2311911"><time>2026-01-18T10:53:08.093</time></trkpt><trkpt lat="55.8062886" lon="49.2311050"><time>2026-01-18T10:53:10.090</time></trkpt><trkpt lat="55.8062993" lon="49.2310131"><time>2026-01-18T10:53:12.100</time></trkpt><trkpt lat="55.8063022" lon="49.2309327"><time>2026-01-18T10:53:14.113</time></trkpt><trkpt lat="55.8063326" lon="49.2308602"><time>2026-01-18T10:53:16.093</time></trkpt><trkpt lat="55.8063952" lon="49.2308432"><time>2026-01-18T10:53:18.097</time></trkpt><trkpt lat="55.8064620" lon="49.2308672"><time>2026-01-18T10:53:20.090</time></trkpt><trkpt lat="55.8065133" lon="49.2308848"><time>2026-01-18T10:53:22.093</time></trkpt><trkpt lat="55.8065578" lon="49.2308964"><time>2026-01-18T10:53:24.087</time></trkpt><trkpt lat="55.8066155" lon="49.2309074"><time>2026-01-18T10:53:27.080</time></trkpt><trkpt lat="55.8066823" lon="49.2309117"><time>2026-01-18T10:53:30.093</time></trkpt><trkpt lat="55.8067277" lon="49.2309151"><time>2026-01-18T10:53:32.097</time></trkpt><trkpt lat="55.8067821" lon="49.2309186"><time>2026-01-18T10:53:35.093</time></trkpt><trkpt lat="55.8068343" lon="49.2309298"><time>2026-01-18T10:53:38.087</time></trkpt><trkpt lat="55.8068636" lon="49.2308406"><time>2026-01-18T10:53:41.090</time></trkpt><trkpt lat="55.8068730" lon="49.2307458"><time>2026-01-18T10:53:44.080</time></trkpt><trkpt lat="55.8068752" lon="49.2306211"><time>2026-01-18T10:53:47.090</time></trkpt><trkpt lat="55.8068837" lon="49.2305426"><time>2026-01-18T10:53:49.093</time></trkpt><trkpt lat="55.8068875" lon="49.2304249"><time>2026-01-18T10:53:52.093</time></trkpt><trkpt lat="55.8069059" lon="49.2303245"><time>2026-01-18T10:53:54.077</time></trkpt><trkpt lat="55.8069366" lon="49.2302565"><time>2026-01-18T10:53:56.080</time></trkpt><trkpt lat="55.8069518" lon="49.2301811"><time>2026-01-18T10:53:58.087</time></trkpt><trkpt lat="55.8069600" lon="49.2301004"><time>2026-01-18T10:54:00.063</time></trkpt><trkpt lat="55.8069679" lon="49.2300086"><time>2026-01-18T10:54:02.100</time></trkpt><trkpt lat="55.8069689" lon="49.2299218"><time>2026-01-18T10:54:04.080</time></trkpt><trkpt lat="55.8069664" lon="49.2297994"><time>2026-01-18T10:54:07.097</time></trkpt><trkpt lat="55.8069709" lon="49.2297137"><time>2026-01-18T10:54:09.093</time></trkpt><trkpt lat="55.8069896" lon="49.2296010"><time>2026-01-18T10:54:11.077</time></trkpt><trkpt lat="55.8070079" lon="49.2295075"><time>2026-01-18T10:54:13.090</time></trkpt><trkpt lat="55.8070188" lon="49.2294249"><time>2026-01-18T10:54:15.083</time></trkpt><trkpt lat="55.8070250" lon="49.2293341"><time>2026-01-18T10:54:17.083</time></trkpt><trkpt lat="55.8070147" lon="49.2292359"><time>2026-01-18T10:54:19.080</time></trkpt><trkpt lat="55.8069996" lon="49.2291485"><time>2026-01-18T10:54:21.083</time></trkpt><trkpt lat="55.8069924" lon="49.2290690"><time>2026-01-18T10:54:23.063</time></trkpt><trkpt lat="55.8069865" lon="49.2289761"><time>2026-01-18T10:54:25.087</time></trkpt><trkpt lat="55.8069849" lon="49.2288829"><time>2026-01-18T10:54:28.107</time></trkpt><trkpt lat="55.8069927" lon="49.2287980"><time>2026-01-18T10:54:31.097</time></trkpt><trkpt lat="55.8070045" lon="49.2286923"><time>2026-01-18T10:54:34.117</time></trkpt><trkpt lat="55.8070155" lon="49.2286030"><time>2026-01-18T10:54:36.097</time></trkpt><trkpt lat="55.8070260" lon="49.2285246"><time>2026-01-18T10:54:38.097</time></trkpt><trkpt lat="55.8070332" lon="49.2284421"><time>2026-01-18T10:54:40.110</time></trkpt><trkpt lat="55.8070366" lon="49.2283566"><time>2026-01-18T10:54:42.087</time></trkpt><trkpt lat="55.8070370" lon="49.2282676"><time>2026-01-18T10:54:44.087</time></trkpt><trkpt lat="55.8070397" lon="49.2281811"><time>2026-01-18T10:54:46.080</time></trkpt><trkpt lat="55.8070423" lon="49.2280923"><time>2026-01-18T10:54:48.090</time></trkpt><trkpt lat="55.8070367" lon="49.2280008"><time>2026-01-18T10:54:50.090</time></trkpt><trkpt lat="55.8070334" lon="49.2279133"><time>2026-01-18T10:54:52.063</time></trkpt><trkpt lat="55.8070329" lon="49.2278101"><time>2026-01-18T10:54:55.063</time></trkpt><trkpt lat="55.8070355" lon="49.2277081"><time>2026-01-18T10:54:58.063</time></trkpt><trkpt lat="55.8070503" lon="49.2275889"><time>2026-01-18T10:55:01.090</time></trkpt><trkpt lat="55.8070673" lon="49.2275004"><time>2026-01-18T10:55:03.087</time></trkpt><trkpt lat="55.8070748" lon="49.2274147"><time>2026-01-18T10:55:05.093</time></trkpt><trkpt lat="55.8070714" lon="49.2273335"><time>2026-01-18T10:55:07.087</time></trkpt><trkpt lat="55.8070666" lon="49.2272152"><time>2026-01-18T10:55:10.077</time></trkpt><trkpt lat="55.8070627" lon="49.2271190"><time>2026-01-18T10:55:12.087</time></trkpt><trkpt lat="55.8070646" lon="49.2270332"><time>2026-01-18T10:55:14.113</time></trkpt><trkpt lat="55.8070628" lon="49.2269327"><time>2026-01-18T10:55:17.083</time></trkpt><trkpt lat="55.8070367" lon="49.2268345"><time>2026-01-18T10:55:20.067</time></trkpt><trkpt lat="55.8070058" lon="49.2267428"><time>2026-01-18T10:55:23.103</time></trkpt><trkpt lat="55.8069927" lon="49.2266581"><time>2026-01-18T10:55:25.063</time></trkpt><trkpt lat="55.8069834" lon="49.2265647"><time>2026-01-18T10:55:27.083</time></trkpt><trkpt lat="55.8069623" lon="49.2264804"><time>2026-01-18T10:55:29.073</time></trkpt><trkpt lat="55.8069182" lon="49.2264231"><time>2026-01-18T10:55:31.077</time></trkpt><trkpt lat="55.8068688" lon="49.2264021"><time>2026-01-18T10:55:33.070</time></trkpt><trkpt lat="55.8068211" lon="49.2263894"><time>2026-01-18T10:55:35.087</time></trkpt><trkpt lat="55.8067598" lon="49.2263574"><time>2026-01-18T10:55:38.087</time></trkpt><trkpt lat="55.8067369" lon="49.2262515"><time>2026-01-18T10:55:41.087</time></trkpt><trkpt lat="55.8067373" lon="49.2261309"><time>2026-01-18T10:55:44.087</time></trkpt><trkpt lat="55.8067372" lon="49.2260505"><time>2026-01-18T10:55:46.087</time></trkpt><trkpt lat="55.8067328" lon="49.2259360"><time>2026-01-18T10:55:49.107</time></trkpt><trkpt lat="55.8067362" lon="49.2258476"><time>2026-01-18T10:55:51.050</time></trkpt><trkpt lat="55.8067332" lon="49.2257316"><time>2026-01-18T10:55:54.073</time></trkpt><trkpt lat="55.8067240" lon="49.2256535"><time>2026-01-18T10:55:56.080</time></trkpt><trkpt lat="55.8066757" lon="49.2256399"><time>2026-01-18T10:55:59.083</time></trkpt><trkpt lat="55.8066553" lon="49.2255490"><time>2026-01-18T10:56:02.087</time></trkpt><trkpt lat="55.8066482" lon="49.2254553"><time>2026-01-18T10:56:04.090</time></trkpt><trkpt lat="55.8066521" lon="49.2253579"><time>2026-01-18T10:56:06.090</time></trkpt><trkpt lat="55.8066576" lon="49.2252725"><time>2026-01-18T10:56:08.090</time></trkpt><trkpt lat="55.8066534" lon="49.2251522"><time>2026-01-18T10:56:11.100</time></trkpt><trkpt lat="55.8066502" lon="49.2250623"><time>2026-01-18T10:56:13.093</time></trkpt><trkpt lat="55.8066500" lon="49.2249452"><time>2026-01-18T10:56:16.093</time></trkpt><trkpt lat="55.8066482" lon="49.2248615"><time>2026-01-18T10:56:18.113</time></trkpt><trkpt lat="55.8066505" lon="49.2247794"><time>2026-01-18T10:56:20.087</time></trkpt><trkpt lat="55.8066477" lon="49.2246920"><time>2026-01-18T10:56:22.090</time></trkpt><trkpt lat="55.8066423" lon="49.2246036"><time>2026-01-18T10:56:24.113</time></trkpt><trkpt lat="55.8066414" lon="49.2245105"><time>2026-01-18T10:56:26.067</time></trkpt><trkpt lat="55.8066411" lon="49.2244216"><time>2026-01-18T10:56:28.093</time></trkpt><trkpt lat="55.8066393" lon="49.2243347"><time>2026-01-18T10:56:30.117</time></trkpt><trkpt lat="55.8066195" lon="49.2242147"><time>2026-01-18T10:56:33.093</time></trkpt><trkpt lat="55.8066146" lon="49.2241211"><time>2026-01-18T10:56:35.087</time></trkpt><trkpt lat="55.8066203" lon="49.2240266"><time>2026-01-18T10:56:37.067</time></trkpt><trkpt lat="55.8066249" lon="49.2239314"><time>2026-01-18T10:56:39.087</time></trkpt><trkpt lat="55.8066236" lon="49.2238268"><time>2026-01-18T10:56:41.073</time></trkpt><trkpt lat="55.8066258" lon="49.2237337"><time>2026-01-18T10:56:43.070</time></trkpt><trkpt lat="55.8066324" lon="49.2236422"><time>2026-01-18T10:56:45.083</time></trkpt><trkpt lat="55.8066329" lon="49.2235552"><time>2026-01-18T10:56:47.087</time></trkpt><trkpt lat="55.8066307" lon="49.2234668"><time>2026-01-18T10:56:49.087</time></trkpt><trkpt lat="55.8066279" lon="49.2233779"><time>2026-01-18T10:56:51.063</time></trkpt><trkpt lat="55.8066301" lon="49.2232912"><time>2026-01-18T10:56:53.087</time></trkpt><trkpt lat="55.8066311" lon="49.2232042"><time>2026-01-18T10:56:55.090</time></trkpt><trkpt lat="55.8066288" lon="49.2231200"><time>2026-01-18T10:56:57.087</time></trkpt><trkpt lat="55.8066278" lon="49.2230066"><time>2026-01-18T10:57:00.087</time></trkpt><trkpt lat="55.8066263" lon="49.2229195"><time>2026-01-18T10:57:02.087</time></trkpt><trkpt lat="55.8066247" lon="49.2228295"><time>2026-01-18T10:57:04.107</time></trkpt><trkpt lat="55.8066214" lon="49.2227382"><time>2026-01-18T10:57:06.083</time></trkpt><trkpt lat="55.8066245" lon="49.2226483"><time>2026-01-18T10:57:08.087</time></trkpt><trkpt lat="55.8066250" lon="49.2225626"><time>2026-01-18T10:57:10.107</time></trkpt><trkpt lat="55.8066333" lon="49.2224787"><time>2026-01-18T10:57:12.077</time></trkpt><trkpt lat="55.8066358" lon="49.2223898"><time>2026-01-18T10:57:14.077</time></trkpt><trkpt lat="55.8066274" lon="49.2223095"><time>2026-01-18T10:57:16.083</time></trkpt><trkpt lat="55.8065944" lon="49.2222202"><time>2026-01-18T10:57:19.073</time></trkpt><trkpt lat="55.8065499" lon="49.2221381"><time>2026-01-18T10:57:22.097</time></trkpt><trkpt lat="55.8064916" lon="49.2220897"><time>2026-01-18T10:57:24.077</time></trkpt><trkpt lat="55.8064397" lon="49.2220452"><time>2026-01-18T10:57:26.083</time></trkpt><trkpt lat="55.8063809" lon="49.2219929"><time>2026-01-18T10:57:29.093</time></trkpt><trkpt lat="55.8063150" lon="49.2219352"><time>2026-01-18T10:57:32.087</time></trkpt><trkpt lat="55.8062567" lon="49.2218744"><time>2026-01-18T10:57:34.073</time></trkpt><trkpt lat="55.8062032" lon="49.2218096"><time>2026-01-18T10:57:37.090</time></trkpt><trkpt lat="55.8061689" lon="49.2217573"><time>2026-01-18T10:57:39.100</time></trkpt><trkpt lat="55.8061328" lon="49.2217045"><time>2026-01-18T10:57:41.080</time></trkpt><trkpt lat="55.8060933" lon="49.2216570"><time>2026-01-18T10:57:43.090</time></trkpt><trkpt lat="55.8060370" lon="49.2215932"><time>2026-01-18T10:57:46.080</time></trkpt><trkpt lat="55.8059808" lon="49.2215349"><time>2026-01-18T10:57:49.063</time></trkpt><trkpt lat="55.8059242" lon="49.2214848"><time>2026-01-18T10:57:52.087</time></trkpt><trkpt lat="55.8058691" lon="49.2214215"><time>2026-01-18T10:57:55.067</time></trkpt><trkpt lat="55.8058163" lon="49.2213496"><time>2026-01-18T10:57:58.087</time></trkpt><trkpt lat="55.8057757" lon="49.2213020"><time>2026-01-18T10:58:00.090</time></trkpt><trkpt lat="55.8057333" lon="49.2212568"><time>2026-01-18T10:58:02.060</time></trkpt><trkpt lat="55.8056897" lon="49.2212239"><time>2026-01-18T10:58:04.077</time></trkpt><trkpt lat="55.8056314" lon="49.2211814"><time>2026-01-18T10:58:07.097</time></trkpt><trkpt lat="55.8055902" lon="49.2211440"><time>2026-01-18T10:58:09.100</time></trkpt><trkpt lat="55.8055330" lon="49.2210975"><time>2026-01-18T10:58:12.087</time></trkpt><trkpt lat="55.8054910" lon="49.2210688"><time>2026-01-18T10:58:14.110</time></trkpt><trkpt lat="55.8054328" lon="49.2210361"><time>2026-01-18T10:58:17.077</time></trkpt><trkpt lat="55.8053705" lon="49.2210204"><time>2026-01-18T10:58:20.103</time></trkpt><trkpt lat="55.8053059" lon="49.2210026"><time>2026-01-18T10:58:23.087</time></trkpt><trkpt lat="55.8052398" lon="49.2210050"><time>2026-01-18T10:58:26.103</time></trkpt><trkpt lat="55.8051925" lon="49.2210019"><time>2026-01-18T10:58:28.087</time></trkpt><trkpt lat="55.8051439" lon="49.2210016"><time>2026-01-18T10:58:30.093</time></trkpt><trkpt lat="55.8050956" lon="49.2210011"><time>2026-01-18T10:58:32.087</time></trkpt><trkpt lat="55.8050314" lon="49.2209961"><time>2026-01-18T10:58:35.093</time></trkpt><trkpt lat="55.8049971" lon="49.2209373"><time>2026-01-18T10:58:37.110</time></trkpt><trkpt lat="55.8049710" lon="49.2208708"><time>2026-01-18T10:58:39.087</time></trkpt><trkpt lat="55.8049629" lon="49.2207918"><time>2026-01-18T10:58:42.063</time></trkpt><trkpt lat="55.8049762" lon="49.2206856"><time>2026-01-18T10:58:47.077</time></trkpt><trkpt lat="55.8049810" lon="49.2206020"><time>2026-01-18T10:58:50.080</time></trkpt><trkpt lat="55.8049918" lon="49.2205016"><time>2026-01-18T10:58:53.083</time></trkpt><trkpt lat="55.8050056" lon="49.2203891"><time>2026-01-18T10:58:56.083</time></trkpt><trkpt lat="55.8050160" lon="49.2203099"><time>2026-01-18T10:58:58.060</time></trkpt><trkpt lat="55.8050297" lon="49.2201964"><time>2026-01-18T10:59:01.090</time></trkpt><trkpt lat="55.8050313" lon="49.2201031"><time>2026-01-18T10:59:03.090</time></trkpt><trkpt lat="55.8050349" lon="49.2200170"><time>2026-01-18T10:59:05.087</time></trkpt><trkpt lat="55.8050368" lon="49.2199280"><time>2026-01-18T10:59:07.067</time></trkpt><trkpt lat="55.8050394" lon="49.2198228"><time>2026-01-18T10:59:09.090</time></trkpt><trkpt lat="55.8050414" lon="49.2197350"><time>2026-01-18T10:59:11.077</time></trkpt><trkpt lat="55.8050424" lon="49.2196536"><time>2026-01-18T10:59:13.087</time></trkpt><trkpt lat="55.8050526" lon="49.2195404"><time>2026-01-18T10:59:16.060</time></trkpt><trkpt lat="55.8050648" lon="49.2194185"><time>2026-01-18T10:59:19.093</time></trkpt><trkpt lat="55.8050702" lon="49.2193284"><time>2026-01-18T10:59:21.087</time></trkpt><trkpt lat="55.8050824" lon="49.2192238"><time>2026-01-18T10:59:24.080</time></trkpt><trkpt lat="55.8051004" lon="49.2191504"><time>2026-01-18T10:59:27.060</time></trkpt><trkpt lat="55.8051556" lon="49.2191435"><time>2026-01-18T10:59:30.087</time></trkpt><trkpt lat="55.8052156" lon="49.2191741"><time>2026-01-18T10:59:33.090</time></trkpt><trkpt lat="55.8052692" lon="49.2192126"><time>2026-01-18T10:59:36.093</time></trkpt><trkpt lat="55.8053306" lon="49.2192422"><time>2026-01-18T10:59:39.090</time></trkpt><trkpt lat="55.8053905" lon="49.2192740"><time>2026-01-18T10:59:42.063</time></trkpt><trkpt lat="55.8054466" lon="49.2192944"><time>2026-01-18T10:59:45.077</time></trkpt><trkpt lat="55.8055043" lon="49.2193218"><time>2026-01-18T10:59:48.090</time></trkpt><trkpt lat="55.8055604" lon="49.2193470"><time>2026-01-18T10:59:51.087</time></trkpt><trkpt lat="55.8056118" lon="49.2193807"><time>2026-01-18T10:59:54.093</time></trkpt><trkpt lat="55.8056748" lon="49.2194113"><time>2026-01-18T10:59:57.087</time></trkpt><trkpt lat="55.8057367" lon="49.2194470"><time>2026-01-18T11:00:00.087</time></trkpt><trkpt lat="55.8057900" lon="49.2194772"><time>2026-01-18T11:00:03.050</time></trkpt><trkpt lat="55.8058529" lon="49.2195207"><time>2026-01-18T11:00:05.113</time></trkpt><trkpt lat="55.8058979" lon="49.2195396"><time>2026-01-18T11:00:07.063</time></trkpt><trkpt lat="55.8059535" lon="49.2195687"><time>2026-01-18T11:00:10.090</time></trkpt><trkpt lat="55.8060093" lon="49.2195972"><time>2026-01-18T11:00:13.093</time></trkpt><trkpt lat="55.8060667" lon="49.2196308"><time>2026-01-18T11:00:16.077</time></trkpt><trkpt lat="55.8061178" lon="49.2196945"><time>2026-01-18T11:00:19.083</time></trkpt><trkpt lat="55.8061706" lon="49.2197378"><time>2026-01-18T11:00:22.067</time></trkpt><trkpt lat="55.8062351" lon="49.2197669"><time>2026-01-18T11:00:25.063</time></trkpt><trkpt lat="55.8062831" lon="49.2197910"><time>2026-01-18T11:00:27.087</time></trkpt><trkpt lat="55.8063396" lon="49.2198252"><time>2026-01-18T11:00:30.087</time></trkpt><trkpt lat="55.8063982" lon="49.2198593"><time>2026-01-18T11:00:33.087</time></trkpt><trkpt lat="55.8064494" lon="49.2198765"><time>2026-01-18T11:00:36.090</time></trkpt><trkpt lat="55.8065009" lon="49.2199071"><time>2026-01-18T11:00:39.087</time></trkpt><trkpt lat="55.8065558" lon="49.2199412"><time>2026-01-18T11:00:42.083</time></trkpt><trkpt lat="55.8066206" lon="49.2199694"><time>2026-01-18T11:00:45.087</time></trkpt><trkpt lat="55.8066850" lon="49.2200024"><time>2026-01-18T11:00:48.087</time></trkpt><trkpt lat="55.8067296" lon="49.2200289"><time>2026-01-18T11:00:50.087</time></trkpt><trkpt lat="55.8067746" lon="49.2200586"><time>2026-01-18T11:00:52.110</time></trkpt><trkpt lat="55.8068225" lon="49.2200829"><time>2026-01-18T11:00:54.090</time></trkpt><trkpt lat="55.8068865" lon="49.2201132"><time>2026-01-18T11:00:57.090</time></trkpt><trkpt lat="55.8069497" lon="49.2201394"><time>2026-01-18T11:01:00.087</time></trkpt><trkpt lat="55.8070084" lon="49.2201752"><time>2026-01-18T11:01:03.087</time></trkpt><trkpt lat="55.8070612" lon="49.2202284"><time>2026-01-18T11:01:06.087</time></trkpt><trkpt lat="55.8071204" lon="49.2202715"><time>2026-01-18T11:01:09.087</time></trkpt><trkpt lat="55.8071641" lon="49.2202964"><time>2026-01-18T11:01:11.093</time></trkpt><trkpt lat="55.8072149" lon="49.2203303"><time>2026-01-18T11:01:14.090</time></trkpt><trkpt lat="55.8072689" lon="49.2203696"><time>2026-01-18T11:01:17.080</time></trkpt><trkpt lat="55.8073124" lon="49.2204111"><time>2026-01-18T11:01:20.107</time></trkpt><trkpt lat="55.8073630" lon="49.2204436"><time>2026-01-18T11:01:24.057</time></trkpt><trkpt lat="55.8074088" lon="49.2205063"><time>2026-01-18T11:01:27.087</time></trkpt><trkpt lat="55.8074563" lon="49.2205471"><time>2026-01-18T11:01:30.083</time></trkpt><trkpt lat="55.8075010" lon="49.2206063"><time>2026-01-18T11:01:33.083</time></trkpt><trkpt lat="55.8075426" lon="49.2206654"><time>2026-01-18T11:01:36.077</time></trkpt><trkpt lat="55.8075844" lon="49.2207270"><time>2026-01-18T11:01:38.093</time></trkpt><trkpt lat="55.8076293" lon="49.2207828"><time>2026-01-18T11:01:41.063</time></trkpt><trkpt lat="55.8076711" lon="49.2208421"><time>2026-01-18T11:01:44.067</time></trkpt><trkpt lat="55.8077094" lon="49.2209090"><time>2026-01-18T11:01:47.063</time></trkpt><trkpt lat="55.8077502" lon="49.2209834"><time>2026-01-18T11:01:50.077</time></trkpt><trkpt lat="55.8077911" lon="49.2210688"><time>2026-01-18T11:01:52.097</time></trkpt><trkpt lat="55.8078300" lon="49.2211291"><time>2026-01-18T11:01:55.087</time></trkpt><trkpt lat="55.8078753" lon="49.2211843"><time>2026-01-18T11:01:58.087</time></trkpt><trkpt lat="55.8079253" lon="49.2212467"><time>2026-01-18T11:02:01.087</time></trkpt><trkpt lat="55.8079758" lon="49.2213072"><time>2026-01-18T11:02:04.100</time></trkpt><trkpt lat="55.8080256" lon="49.2213554"><time>2026-01-18T11:02:07.073</time></trkpt><trkpt lat="55.8080782" lon="49.2213895"><time>2026-01-18T11:02:10.087</time></trkpt><trkpt lat="55.8081317" lon="49.2214162"><time>2026-01-18T11:02:13.090</time></trkpt><trkpt lat="55.8081926" lon="49.2214324"><time>2026-01-18T11:02:16.090</time></trkpt><trkpt lat="55.8082490" lon="49.2214589"><time>2026-01-18T11:02:19.087</time></trkpt><trkpt lat="55.8083093" lon="49.2215106"><time>2026-01-18T11:02:22.107</time></trkpt><trkpt lat="55.8083621" lon="49.2215576"><time>2026-01-18T11:02:25.063</time></trkpt><trkpt lat="55.8084107" lon="49.2216006"><time>2026-01-18T11:02:28.083</time></trkpt><trkpt lat="55.8084551" lon="49.2216377"><time>2026-01-18T11:02:31.063</time></trkpt><trkpt lat="55.8085171" lon="49.2216838"><time>2026-01-18T11:02:34.067</time></trkpt><trkpt lat="55.8085652" lon="49.2217159"><time>2026-01-18T11:02:36.090</time></trkpt><trkpt lat="55.8086081" lon="49.2217453"><time>2026-01-18T11:02:38.090</time></trkpt><trkpt lat="55.8086660" lon="49.2217920"><time>2026-01-18T11:02:41.087</time></trkpt><trkpt lat="55.8087190" lon="49.2218372"><time>2026-01-18T11:02:44.113</time></trkpt><trkpt lat="55.8087694" lon="49.2218727"><time>2026-01-18T11:02:47.090</time></trkpt><trkpt lat="55.8088127" lon="49.2219036"><time>2026-01-18T11:02:49.083</time></trkpt><trkpt lat="55.8088680" lon="49.2219486"><time>2026-01-18T11:02:52.067</time></trkpt><trkpt lat="55.8089200" lon="49.2219773"><time>2026-01-18T11:02:55.060</time></trkpt><trkpt lat="55.8089782" lon="49.2220154"><time>2026-01-18T11:02:57.093</time></trkpt><trkpt lat="55.8090382" lon="49.2220510"><time>2026-01-18T11:02:59.077</time></trkpt><trkpt lat="55.8090962" lon="49.2220849"><time>2026-01-18T11:03:02.087</time></trkpt><trkpt lat="55.8091390" lon="49.2221220"><time>2026-01-18T11:03:04.070</time></trkpt><trkpt lat="55.8091989" lon="49.2221658"><time>2026-01-18T11:03:07.110</time></trkpt><trkpt lat="55.8092655" lon="49.2222056"><time>2026-01-18T11:03:10.087</time></trkpt><trkpt lat="55.8093129" lon="49.2222380"><time>2026-01-18T11:03:12.087</time></trkpt><trkpt lat="55.8093617" lon="49.2222730"><time>2026-01-18T11:03:15.087</time></trkpt><trkpt lat="55.8094133" lon="49.2223096"><time>2026-01-18T11:03:19.110</time></trkpt><trkpt lat="55.8094621" lon="49.2223249"><time>2026-01-18T11:03:23.067</time></trkpt><trkpt lat="55.8095006" lon="49.2222627"><time>2026-01-18T11:03:36.083</time></trkpt><trkpt lat="55.8095149" lon="49.2221734"><time>2026-01-18T11:03:40.087</time></trkpt><trkpt lat="55.8095204" lon="49.2220872"><time>2026-01-18T11:03:45.063</time></trkpt><trkpt lat="55.8095267" lon="49.2221755"><time>2026-01-18T11:03:54.117</time></trkpt><trkpt lat="55.8095007" lon="49.2222510"><time>2026-01-18T11:03:57.087</time></trkpt><trkpt lat="55.8095261" lon="49.2223284"><time>2026-01-18T11:04:01.090</time></trkpt><trkpt lat="55.8095793" lon="49.2223529"><time>2026-01-18T11:04:05.090</time></trkpt><trkpt lat="55.8096125" lon="49.2224104"><time>2026-01-18T11:04:07.090</time></trkpt><trkpt lat="55.8096603" lon="49.2224713"><time>2026-01-18T11:04:09.077</time></trkpt><trkpt lat="55.8097181" lon="49.2225183"><time>2026-01-18T11:04:12.110</time></trkpt><trkpt lat="55.8097746" lon="49.2225699"><time>2026-01-18T11:04:15.083</time></trkpt><trkpt lat="55.8098291" lon="49.2226229"><time>2026-01-18T11:04:18.090</time></trkpt><trkpt lat="55.8098880" lon="49.2226693"><time>2026-01-18T11:04:21.093</time></trkpt><trkpt lat="55.8099500" lon="49.2226911"><time>2026-01-18T11:04:24.087</time></trkpt><trkpt lat="55.8100130" lon="49.2227253"><time>2026-01-18T11:04:26.113</time></trkpt><trkpt lat="55.8100676" lon="49.2227656"><time>2026-01-18T11:04:29.090</time></trkpt><trkpt lat="55.8101216" lon="49.2227938"><time>2026-01-18T11:04:33.070</time></trkpt><trkpt lat="55.8101717" lon="49.2228193"><time>2026-01-18T11:04:37.067</time></trkpt><trkpt lat="55.8102290" lon="49.2228396"><time>2026-01-18T11:04:41.080</time></trkpt><trkpt lat="55.8102761" lon="49.2228590"><time>2026-01-18T11:04:44.063</time></trkpt><trkpt lat="55.8103362" lon="49.2229000"><time>2026-01-18T11:04:46.077</time></trkpt><trkpt lat="55.8102837" lon="49.2228971"><time>2026-01-18T11:04:56.063</time></trkpt><trkpt lat="55.8102281" lon="49.2228427"><time>2026-01-18T11:04:58.070</time></trkpt><trkpt lat="55.8101708" lon="49.2228258"><time>2026-01-18T11:05:01.083</time></trkpt><trkpt lat="55.8101206" lon="49.2227927"><time>2026-01-18T11:05:05.063</time></trkpt><trkpt lat="55.8100741" lon="49.2227465"><time>2026-01-18T11:05:09.070</time></trkpt><trkpt lat="55.8100238" lon="49.2227195"><time>2026-01-18T11:05:13.077</time></trkpt><trkpt lat="55.8099718" lon="49.2226826"><time>2026-01-18T11:05:17.090</time></trkpt><trkpt lat="55.8099235" lon="49.2226527"><time>2026-01-18T11:05:20.077</time></trkpt><trkpt lat="55.8098772" lon="49.2226355"><time>2026-01-18T11:05:29.067</time></trkpt><trkpt lat="55.8098329" lon="49.2226152"><time>2026-01-18T11:05:33.063</time></trkpt><trkpt lat="55.8097942" lon="49.2225662"><time>2026-01-18T11:05:37.090</time></trkpt><trkpt lat="55.8097458" lon="49.2225324"><time>2026-01-18T11:05:41.070</time></trkpt><trkpt lat="55.8096925" lon="49.2224943"><time>2026-01-18T11:05:45.080</time></trkpt><trkpt lat="55.8096502" lon="49.2224603"><time>2026-01-18T11:05:48.077</time></trkpt><trkpt lat="55.8096042" lon="49.2224099"><time>2026-01-18T11:05:52.070</time></trkpt><trkpt lat="55.8095508" lon="49.2223803"><time>2026-01-18T11:05:57.067</time></trkpt><trkpt lat="55.8095069" lon="49.2223375"><time>2026-01-18T11:06:02.057</time></trkpt><trkpt lat="55.8094640" lon="49.2223109"><time>2026-01-18T11:06:06.067</time></trkpt><trkpt lat="55.8094141" lon="49.2222848"><time>2026-01-18T11:06:10.070</time></trkpt><trkpt lat="55.8093638" lon="49.2222533"><time>2026-01-18T11:06:13.060</time></trkpt><trkpt lat="55.8093045" lon="49.2222056"><time>2026-01-18T11:06:16.077</time></trkpt><trkpt lat="55.8092422" lon="49.2221629"><time>2026-01-18T11:06:19.063</time></trkpt><trkpt lat="55.8091979" lon="49.2221381"><time>2026-01-18T11:06:21.090</time></trkpt><trkpt lat="55.8091536" lon="49.2221106"><time>2026-01-18T11:06:23.077</time></trkpt><trkpt lat="55.8090915" lon="49.2220751"><time>2026-01-18T11:06:26.067</time></trkpt><trkpt lat="55.8090371" lon="49.2220444"><time>2026-01-18T11:06:29.060</time></trkpt><trkpt lat="55.8089847" lon="49.2220153"><time>2026-01-18T11:06:32.093</time></trkpt><trkpt lat="55.8089360" lon="49.2219776"><time>2026-01-18T11:06:35.093</time></trkpt><trkpt lat="55.8088843" lon="49.2219335"><time>2026-01-18T11:06:39.117</time></trkpt><trkpt lat="55.8088162" lon="49.2218770"><time>2026-01-18T11:06:41.090</time></trkpt><trkpt lat="55.8087538" lon="49.2218413"><time>2026-01-18T11:06:43.087</time></trkpt><trkpt lat="55.8087041" lon="49.2217947"><time>2026-01-18T11:06:46.090</time></trkpt><trkpt lat="55.8086627" lon="49.2217600"><time>2026-01-18T11:06:48.097</time></trkpt><trkpt lat="55.8086025" lon="49.2217110"><time>2026-01-18T11:06:51.080</time></trkpt><trkpt lat="55.8085566" lon="49.2216744"><time>2026-01-18T11:06:53.090</time></trkpt><trkpt lat="55.8085095" lon="49.2216459"><time>2026-01-18T11:06:55.067</time></trkpt><trkpt lat="55.8084480" lon="49.2216199"><time>2026-01-18T11:06:58.090</time></trkpt><trkpt lat="55.8083960" lon="49.2215801"><time>2026-01-18T11:07:01.120</time></trkpt><trkpt lat="55.8083464" lon="49.2215104"><time>2026-01-18T11:07:04.070</time></trkpt><trkpt lat="55.8083097" lon="49.2214314"><time>2026-01-18T11:07:07.120</time></trkpt><trkpt lat="55.8082723" lon="49.2213426"><time>2026-01-18T11:07:10.093</time></trkpt><trkpt lat="55.8082451" lon="49.2212784"><time>2026-01-18T11:07:14.070</time></trkpt><trkpt lat="55.8082325" lon="49.2212644"><time>2026-01-18T11:07:29.643</time></trkpt><trkpt lat="55.8082127" lon="49.2213365"><time>2026-01-18T11:07:38.090</time></trkpt><trkpt lat="55.8081674" lon="49.2213229"><time>2026-01-18T11:07:41.087</time></trkpt><trkpt lat="55.8081194" lon="49.2213065"><time>2026-01-18T11:07:44.090</time></trkpt><trkpt lat="55.8080329" lon="49.2212916"><time>2026-01-18T11:07:47.090</time></trkpt><trkpt lat="55.8079791" lon="49.2212661"><time>2026-01-18T11:07:50.087</time></trkpt><trkpt lat="55.8079313" lon="49.2212184"><time>2026-01-18T11:07:53.090</time></trkpt><trkpt lat="55.8078830" lon="49.2211712"><time>2026-01-18T11:07:56.063</time></trkpt><trkpt lat="55.8078458" lon="49.2211256"><time>2026-01-18T11:07:58.093</time></trkpt><trkpt lat="55.8078199" lon="49.2210490"><time>2026-01-18T11:08:00.067</time></trkpt><trkpt lat="55.8077901" lon="49.2209849"><time>2026-01-18T11:08:02.097</time></trkpt><trkpt lat="55.8077523" lon="49.2209107"><time>2026-01-18T11:08:05.093</time></trkpt><trkpt lat="55.8077062" lon="49.2208421"><time>2026-01-18T11:08:08.113</time></trkpt><trkpt lat="55.8076680" lon="49.2207894"><time>2026-01-18T11:08:10.100</time></trkpt><trkpt lat="55.8076341" lon="49.2207305"><time>2026-01-18T11:08:12.090</time></trkpt><trkpt lat="55.8076024" lon="49.2206698"><time>2026-01-18T11:08:14.097</time></trkpt><trkpt lat="55.8075575" lon="49.2206073"><time>2026-01-18T11:08:16.077</time></trkpt><trkpt lat="55.8075173" lon="49.2205559"><time>2026-01-18T11:08:18.083</time></trkpt><trkpt lat="55.8074554" lon="49.2204988"><time>2026-01-18T11:08:20.093</time></trkpt><trkpt lat="55.8074040" lon="49.2204651"><time>2026-01-18T11:08:22.093</time></trkpt><trkpt lat="55.8073568" lon="49.2204302"><time>2026-01-18T11:08:24.090</time></trkpt><trkpt lat="55.8073140" lon="49.2203965"><time>2026-01-18T11:08:26.087</time></trkpt><trkpt lat="55.8072718" lon="49.2203655"><time>2026-01-18T11:08:28.093</time></trkpt><trkpt lat="55.8072225" lon="49.2203418"><time>2026-01-18T11:08:30.100</time></trkpt><trkpt lat="55.8071753" lon="49.2203181"><time>2026-01-18T11:08:32.097</time></trkpt><trkpt lat="55.8071328" lon="49.2202873"><time>2026-01-18T11:08:34.113</time></trkpt><trkpt lat="55.8070876" lon="49.2202611"><time>2026-01-18T11:08:36.097</time></trkpt><trkpt lat="55.8070387" lon="49.2202259"><time>2026-01-18T11:08:38.093</time></trkpt><trkpt lat="55.8069935" lon="49.2201989"><time>2026-01-18T11:08:40.117</time></trkpt><trkpt lat="55.8069453" lon="49.2201736"><time>2026-01-18T11:08:42.093</time></trkpt><trkpt lat="55.8068989" lon="49.2201446"><time>2026-01-18T11:08:44.093</time></trkpt><trkpt lat="55.8068518" lon="49.2201130"><time>2026-01-18T11:08:46.067</time></trkpt><trkpt lat="55.8067982" lon="49.2200823"><time>2026-01-18T11:08:48.093</time></trkpt><trkpt lat="55.8067470" lon="49.2200501"><time>2026-01-18T11:08:50.067</time></trkpt><trkpt lat="55.8066991" lon="49.2200231"><time>2026-01-18T11:08:52.090</time></trkpt><trkpt lat="55.8066407" lon="49.2199990"><time>2026-01-18T11:08:54.097</time></trkpt><trkpt lat="55.8065894" lon="49.2199681"><time>2026-01-18T11:08:56.097</time></trkpt><trkpt lat="55.8065419" lon="49.2199370"><time>2026-01-18T11:08:58.093</time></trkpt><trkpt lat="55.8064805" lon="49.2198914"><time>2026-01-18T11:09:01.097</time></trkpt><trkpt lat="55.8064346" lon="49.2198585"><time>2026-01-18T11:09:03.093</time></trkpt><trkpt lat="55.8063891" lon="49.2198278"><time>2026-01-18T11:09:05.097</time></trkpt><trkpt lat="55.8063446" lon="49.2198025"><time>2026-01-18T11:09:07.100</time></trkpt><trkpt lat="55.8062977" lon="49.2197790"><time>2026-01-18T11:09:09.097</time></trkpt><trkpt lat="55.8062511" lon="49.2197484"><time>2026-01-18T11:09:11.080</time></trkpt><trkpt lat="55.8062045" lon="49.2197187"><time>2026-01-18T11:09:13.097</time></trkpt><trkpt lat="55.8061591" lon="49.2196886"><time>2026-01-18T11:09:15.067</time></trkpt><trkpt lat="55.8061145" lon="49.2196592"><time>2026-01-18T11:09:17.097</time></trkpt><trkpt lat="55.8060645" lon="49.2196281"><time>2026-01-18T11:09:19.090</time></trkpt><trkpt lat="55.8060164" lon="49.2196024"><time>2026-01-18T11:09:21.090</time></trkpt><trkpt lat="55.8059652" lon="49.2195699"><time>2026-01-18T11:09:23.093</time></trkpt><trkpt lat="55.8059086" lon="49.2195260"><time>2026-01-18T11:09:25.090</time></trkpt><trkpt lat="55.8058605" lon="49.2195054"><time>2026-01-18T11:09:27.067</time></trkpt><trkpt lat="55.8058065" lon="49.2194851"><time>2026-01-18T11:09:29.067</time></trkpt><trkpt lat="55.8057530" lon="49.2194582"><time>2026-01-18T11:09:31.087</time></trkpt><trkpt lat="55.8057035" lon="49.2194287"><time>2026-01-18T11:09:33.067</time></trkpt><trkpt lat="55.8056517" lon="49.2193983"><time>2026-01-18T11:09:35.093</time></trkpt><trkpt lat="55.8055989" lon="49.2193689"><time>2026-01-18T11:09:37.093</time></trkpt><trkpt lat="55.8055479" lon="49.2193409"><time>2026-01-18T11:09:39.093</time></trkpt><trkpt lat="55.8054966" lon="49.2193152"><time>2026-01-18T11:09:41.083</time></trkpt><trkpt lat="55.8054481" lon="49.2192913"><time>2026-01-18T11:09:43.063</time></trkpt><trkpt lat="55.8053996" lon="49.2192621"><time>2026-01-18T11:09:45.097</time></trkpt><trkpt lat="55.8053552" lon="49.2192383"><time>2026-01-18T11:09:47.090</time></trkpt><trkpt lat="55.8053057" lon="49.2192025"><time>2026-01-18T11:09:49.083</time></trkpt><trkpt lat="55.8052608" lon="49.2191729"><time>2026-01-18T11:09:51.090</time></trkpt><trkpt lat="55.8052001" lon="49.2191455"><time>2026-01-18T11:09:54.067</time></trkpt><trkpt lat="55.8051356" lon="49.2191154"><time>2026-01-18T11:09:57.080</time></trkpt><trkpt lat="55.8050929" lon="49.2190820"><time>2026-01-18T11:09:59.067</time></trkpt><trkpt lat="55.8050301" lon="49.2190381"><time>2026-01-18T11:10:02.097</time></trkpt><trkpt lat="55.8049699" lon="49.2189993"><time>2026-01-18T11:10:05.093</time></trkpt><trkpt lat="55.8049232" lon="49.2189597"><time>2026-01-18T11:10:07.107</time></trkpt><trkpt lat="55.8048753" lon="49.2189139"><time>2026-01-18T11:10:09.097</time></trkpt><trkpt lat="55.8048271" lon="49.2188730"><time>2026-01-18T11:10:11.090</time></trkpt><trkpt lat="55.8047770" lon="49.2188255"><time>2026-01-18T11:10:13.093</time></trkpt><trkpt lat="55.8047332" lon="49.2187738"><time>2026-01-18T11:10:15.097</time></trkpt><trkpt lat="55.8046898" lon="49.2187308"><time>2026-01-18T11:10:17.093</time></trkpt><trkpt lat="55.8046371" lon="49.2186801"><time>2026-01-18T11:10:20.093</time></trkpt><trkpt lat="55.8045885" lon="49.2186216"><time>2026-01-18T11:10:23.097</time></trkpt><trkpt lat="55.8045512" lon="49.2185701"><time>2026-01-18T11:10:25.093</time></trkpt><trkpt lat="55.8044958" lon="49.2185038"><time>2026-01-18T11:10:28.093</time></trkpt><trkpt lat="55.8044391" lon="49.2184471"><time>2026-01-18T11:10:31.093</time></trkpt><trkpt lat="55.8043984" lon="49.2184040"><time>2026-01-18T11:10:33.100</time></trkpt><trkpt lat="55.8043590" lon="49.2183554"><time>2026-01-18T11:10:35.097</time></trkpt><trkpt lat="55.8043162" lon="49.2183143"><time>2026-01-18T11:10:37.097</time></trkpt><trkpt lat="55.8042599" lon="49.2182555"><time>2026-01-18T11:10:40.070</time></trkpt><trkpt lat="55.8042054" lon="49.2181885"><time>2026-01-18T11:10:43.093</time></trkpt><trkpt lat="55.8041640" lon="49.2181427"><time>2026-01-18T11:10:45.090</time></trkpt><trkpt lat="55.8041199" lon="49.2180915"><time>2026-01-18T11:10:47.090</time></trkpt><trkpt lat="55.8040591" lon="49.2180279"><time>2026-01-18T11:10:49.070</time></trkpt><trkpt lat="55.8040159" lon="49.2179882"><time>2026-01-18T11:10:51.093</time></trkpt><trkpt lat="55.8039630" lon="49.2179341"><time>2026-01-18T11:10:54.097</time></trkpt><trkpt lat="55.8039099" lon="49.2178719"><time>2026-01-18T11:10:57.087</time></trkpt><trkpt lat="55.8038539" lon="49.2178228"><time>2026-01-18T11:10:59.067</time></trkpt><trkpt lat="55.8038051" lon="49.2177713"><time>2026-01-18T11:11:02.093</time></trkpt><trkpt lat="55.8037646" lon="49.2177234"><time>2026-01-18T11:11:05.097</time></trkpt><trkpt lat="55.8037237" lon="49.2176682"><time>2026-01-18T11:11:08.087</time></trkpt><trkpt lat="55.8036857" lon="49.2176163"><time>2026-01-18T11:11:11.070</time></trkpt><trkpt lat="55.8036289" lon="49.2175293"><time>2026-01-18T11:11:13.093</time></trkpt><trkpt lat="55.8035843" lon="49.2174834"><time>2026-01-18T11:11:15.090</time></trkpt><trkpt lat="55.8035297" lon="49.2174109"><time>2026-01-18T11:11:18.093</time></trkpt><trkpt lat="55.8034915" lon="49.2173484"><time>2026-01-18T11:11:20.093</time></trkpt><trkpt lat="55.8034479" lon="49.2172539"><time>2026-01-18T11:11:22.097</time></trkpt><trkpt lat="55.8033994" lon="49.2171940"><time>2026-01-18T11:11:25.097</time></trkpt><trkpt lat="55.8033614" lon="49.2171426"><time>2026-01-18T11:11:27.120</time></trkpt><trkpt lat="55.8033186" lon="49.2170847"><time>2026-01-18T11:11:29.093</time></trkpt><trkpt lat="55.8032697" lon="49.2170189"><time>2026-01-18T11:11:31.067</time></trkpt><trkpt lat="55.8032208" lon="49.2169646"><time>2026-01-18T11:11:33.070</time></trkpt><trkpt lat="55.8031779" lon="49.2169015"><time>2026-01-18T11:11:35.070</time></trkpt><trkpt lat="55.8031355" lon="49.2168406"><time>2026-01-18T11:11:37.070</time></trkpt><trkpt lat="55.8030838" lon="49.2167766"><time>2026-01-18T11:11:40.067</time></trkpt><trkpt lat="55.8030340" lon="49.2167245"><time>2026-01-18T11:11:43.070</time></trkpt><trkpt lat="55.8029919" lon="49.2166864"><time>2026-01-18T11:11:45.093</time></trkpt><trkpt lat="55.8029468" lon="49.2166389"><time>2026-01-18T11:11:47.077</time></trkpt><trkpt lat="55.8029047" lon="49.2165893"><time>2026-01-18T11:11:49.077</time></trkpt><trkpt lat="55.8028591" lon="49.2165366"><time>2026-01-18T11:11:51.067</time></trkpt><trkpt lat="55.8028131" lon="49.2164948"><time>2026-01-18T11:11:53.067</time></trkpt><trkpt lat="55.8027521" lon="49.2164725"><time>2026-01-18T11:11:56.077</time></trkpt><trkpt lat="55.8027012" lon="49.2164734"><time>2026-01-18T11:11:58.067</time></trkpt><trkpt lat="55.8026359" lon="49.2164495"><time>2026-01-18T11:12:01.060</time></trkpt><trkpt lat="55.8026009" lon="49.2163944"><time>2026-01-18T11:12:03.067</time></trkpt><trkpt lat="55.8025674" lon="49.2163253"><time>2026-01-18T11:12:05.070</time></trkpt><trkpt lat="55.8025349" lon="49.2162648"><time>2026-01-18T11:12:07.070</time></trkpt><trkpt lat="55.8025024" lon="49.2161951"><time>2026-01-18T11:12:09.070</time></trkpt><trkpt lat="55.8024690" lon="49.2161275"><time>2026-01-18T11:12:11.067</time></trkpt><trkpt lat="55.8024390" lon="49.2160643"><time>2026-01-18T11:12:13.067</time></trkpt><trkpt lat="55.8024098" lon="49.2159995"><time>2026-01-18T11:12:15.070</time></trkpt><trkpt lat="55.8023750" lon="49.2159423"><time>2026-01-18T11:12:17.067</time></trkpt><trkpt lat="55.8023448" lon="49.2158827"><time>2026-01-18T11:12:19.067</time></trkpt><trkpt lat="55.8023141" lon="49.2158156"><time>2026-01-18T11:12:21.070</time></trkpt><trkpt lat="55.8022849" lon="49.2157510"><time>2026-01-18T11:12:23.053</time></trkpt><trkpt lat="55.8022483" lon="49.2156608"><time>2026-01-18T11:12:26.080</time></trkpt><trkpt lat="55.8022093" lon="49.2155598"><time>2026-01-18T11:12:29.083</time></trkpt><trkpt lat="55.8021729" lon="49.2154612"><time>2026-01-18T11:12:32.083</time></trkpt><trkpt lat="55.8021389" lon="49.2153899"><time>2026-01-18T11:12:34.077</time></trkpt><trkpt lat="55.8021072" lon="49.2153126"><time>2026-01-18T11:12:36.070</time></trkpt><trkpt lat="55.8020852" lon="49.2152197"><time>2026-01-18T11:12:40.080</time></trkpt><trkpt lat="55.8020734" lon="49.2151378"><time>2026-01-18T11:12:44.070</time></trkpt><trkpt lat="55.8020688" lon="49.2151260"><time>2026-01-18T11:12:45.873</time></trkpt><trkpt lat="55.8020722" lon="49.2152178"><time>2026-01-18T11:12:58.077</time></trkpt><trkpt lat="55.8020420" lon="49.2152888"><time>2026-01-18T11:13:01.090</time></trkpt><trkpt lat="55.8020019" lon="49.2153698"><time>2026-01-18T11:13:18.093</time></trkpt><trkpt lat="55.8019542" lon="49.2154515"><time>2026-01-18T11:13:22.097</time></trkpt><trkpt lat="55.8019255" lon="49.2155331"><time>2026-01-18T11:13:25.097</time></trkpt><trkpt lat="55.8019035" lon="49.2156194"><time>2026-01-18T11:13:27.093</time></trkpt><trkpt lat="55.8018899" lon="49.2157216"><time>2026-01-18T11:13:29.117</time></trkpt><trkpt lat="55.8018738" lon="49.2158259"><time>2026-01-18T11:13:31.097</time></trkpt><trkpt lat="55.8018494" lon="49.2159162"><time>2026-01-18T11:13:34.100</time></trkpt><trkpt lat="55.8018193" lon="49.2159950"><time>2026-01-18T11:13:36.097</time></trkpt><trkpt lat="55.8017977" lon="49.2160781"><time>2026-01-18T11:13:38.100</time></trkpt><trkpt lat="55.8017799" lon="49.2161562"><time>2026-01-18T11:13:40.100</time></trkpt><trkpt lat="55.8017537" lon="49.2162609"><time>2026-01-18T11:13:43.100</time></trkpt><trkpt lat="55.8017187" lon="49.2163726"><time>2026-01-18T11:13:46.100</time></trkpt><trkpt lat="55.8016848" lon="49.2164709"><time>2026-01-18T11:13:49.097</time></trkpt><trkpt lat="55.8016536" lon="49.2165532"><time>2026-01-18T11:13:52.097</time></trkpt><trkpt lat="55.8016459" lon="49.2166494"><time>2026-01-18T11:13:55.093</time></trkpt><trkpt lat="55.8016225" lon="49.2167265"><time>2026-01-18T11:13:57.093</time></trkpt><trkpt lat="55.8016042" lon="49.2168024"><time>2026-01-18T11:13:59.113</time></trkpt><trkpt lat="55.8015958" lon="49.2169184"><time>2026-01-18T11:14:02.097</time></trkpt><trkpt lat="55.8015718" lon="49.2170415"><time>2026-01-18T11:14:05.120</time></trkpt><trkpt lat="55.8015555" lon="49.2171358"><time>2026-01-18T11:14:07.070</time></trkpt><trkpt lat="55.8015416" lon="49.2172227"><time>2026-01-18T11:14:09.097</time></trkpt><trkpt lat="55.8015276" lon="49.2173044"><time>2026-01-18T11:14:11.120</time></trkpt><trkpt lat="55.8015168" lon="49.2173848"><time>2026-01-18T11:14:13.097</time></trkpt><trkpt lat="55.8015045" lon="49.2174686"><time>2026-01-18T11:14:15.093</time></trkpt><trkpt lat="55.8014852" lon="49.2175621"><time>2026-01-18T11:14:17.123</time></trkpt><trkpt lat="55.8014659" lon="49.2176622"><time>2026-01-18T11:14:19.093</time></trkpt><trkpt lat="55.8014486" lon="49.2177378"><time>2026-01-18T11:14:21.093</time></trkpt><trkpt lat="55.8014397" lon="49.2178203"><time>2026-01-18T11:14:23.070</time></trkpt><trkpt lat="55.8014303" lon="49.2179037"><time>2026-01-18T11:14:25.090</time></trkpt><trkpt lat="55.8014172" lon="49.2180133"><time>2026-01-18T11:14:28.097</time></trkpt><trkpt lat="55.8014049" lon="49.2180947"><time>2026-01-18T11:14:30.097</time></trkpt><trkpt lat="55.8013881" lon="49.2181745"><time>2026-01-18T11:14:32.097</time></trkpt><trkpt lat="55.8013715" lon="49.2182539"><time>2026-01-18T11:14:34.097</time></trkpt><trkpt lat="55.8013564" lon="49.2183354"><time>2026-01-18T11:14:36.093</time></trkpt><trkpt lat="55.8013217" lon="49.2184319"><time>2026-01-18T11:14:38.063</time></trkpt><trkpt lat="55.8013084" lon="49.2185227"><time>2026-01-18T11:14:40.123</time></trkpt><trkpt lat="55.8013059" lon="49.2186374"><time>2026-01-18T11:14:42.097</time></trkpt><trkpt lat="55.8012880" lon="49.2187515"><time>2026-01-18T11:14:44.100</time></trkpt><trkpt lat="55.8012737" lon="49.2188520"><time>2026-01-18T11:14:46.120</time></trkpt><trkpt lat="55.8012558" lon="49.2189406"><time>2026-01-18T11:14:49.100</time></trkpt><trkpt lat="55.8012338" lon="49.2190527"><time>2026-01-18T11:14:52.117</time></trkpt><trkpt lat="55.8012205" lon="49.2191300"><time>2026-01-18T11:14:54.100</time></trkpt><trkpt lat="55.8012009" lon="49.2192455"><time>2026-01-18T11:14:57.097</time></trkpt><trkpt lat="55.8011767" lon="49.2193583"><time>2026-01-18T11:14:59.097</time></trkpt><trkpt lat="55.8011621" lon="49.2194405"><time>2026-01-18T11:15:01.097</time></trkpt><trkpt lat="55.8011435" lon="49.2195428"><time>2026-01-18T11:15:04.117</time></trkpt><trkpt lat="55.8011206" lon="49.2196406"><time>2026-01-18T11:15:07.100</time></trkpt><trkpt lat="55.8011065" lon="49.2197358"><time>2026-01-18T11:15:10.113</time></trkpt><trkpt lat="55.8010931" lon="49.2198215"><time>2026-01-18T11:15:12.100</time></trkpt><trkpt lat="55.8010701" lon="49.2199326"><time>2026-01-18T11:15:15.097</time></trkpt><trkpt lat="55.8010511" lon="49.2200444"><time>2026-01-18T11:15:17.093</time></trkpt><trkpt lat="55.8010350" lon="49.2201234"><time>2026-01-18T11:15:19.093</time></trkpt><trkpt lat="55.8010248" lon="49.2202314"><time>2026-01-18T11:15:22.070</time></trkpt><trkpt lat="55.8010039" lon="49.2203429"><time>2026-01-18T11:15:25.097</time></trkpt><trkpt lat="55.8009864" lon="49.2204615"><time>2026-01-18T11:15:28.097</time></trkpt><trkpt lat="55.8009777" lon="49.2205502"><time>2026-01-18T11:15:30.077</time></trkpt><trkpt lat="55.8009740" lon="49.2206355"><time>2026-01-18T11:15:32.073</time></trkpt><trkpt lat="55.8009670" lon="49.2207148"><time>2026-01-18T11:15:34.097</time></trkpt><trkpt lat="55.8009607" lon="49.2208084"><time>2026-01-18T11:15:36.073</time></trkpt><trkpt lat="55.8009456" lon="49.2208945"><time>2026-01-18T11:15:38.097</time></trkpt><trkpt lat="55.8009361" lon="49.2209825"><time>2026-01-18T11:15:40.093</time></trkpt><trkpt lat="55.8009302" lon="49.2210645"><time>2026-01-18T11:15:42.097</time></trkpt><trkpt lat="55.8009200" lon="49.2211849"><time>2026-01-18T11:15:44.097</time></trkpt><trkpt lat="55.8009040" lon="49.2212953"><time>2026-01-18T11:15:47.097</time></trkpt><trkpt lat="55.8008871" lon="49.2213870"><time>2026-01-18T11:15:50.097</time></trkpt><trkpt lat="55.8008602" lon="49.2214799"><time>2026-01-18T11:15:53.093</time></trkpt><trkpt lat="55.8008369" lon="49.2215699"><time>2026-01-18T11:15:56.097</time></trkpt><trkpt lat="55.8008251" lon="49.2216724"><time>2026-01-18T11:15:58.097</time></trkpt><trkpt lat="55.8008073" lon="49.2217691"><time>2026-01-18T11:16:00.100</time></trkpt><trkpt lat="55.8007867" lon="49.2218972"><time>2026-01-18T11:16:02.110</time></trkpt><trkpt lat="55.8007918" lon="49.2220106"><time>2026-01-18T11:16:04.100</time></trkpt><trkpt lat="55.8008293" lon="49.2220781"><time>2026-01-18T11:16:07.093</time></trkpt><trkpt lat="55.8008744" lon="49.2221515"><time>2026-01-18T11:16:10.097</time></trkpt><trkpt lat="55.8009115" lon="49.2222119"><time>2026-01-18T11:16:12.097</time></trkpt><trkpt lat="55.8009601" lon="49.2222685"><time>2026-01-18T11:16:15.097</time></trkpt><trkpt lat="55.8009875" lon="49.2223593"><time>2026-01-18T11:16:18.070</time></trkpt><trkpt lat="55.8010257" lon="49.2224220"><time>2026-01-18T11:16:21.097</time></trkpt><trkpt lat="55.8010721" lon="49.2224795"><time>2026-01-18T11:16:24.097</time></trkpt><trkpt lat="55.8011116" lon="49.2225421"><time>2026-01-18T11:16:26.117</time></trkpt><trkpt lat="55.8011538" lon="49.2225998"><time>2026-01-18T11:16:29.100</time></trkpt><trkpt lat="55.8011859" lon="49.2226565"><time>2026-01-18T11:16:33.097</time></trkpt><trkpt lat="55.8012292" lon="49.2227303"><time>2026-01-18T11:16:37.097</time></trkpt><trkpt lat="55.8012601" lon="49.2228074"><time>2026-01-18T11:16:39.097</time></trkpt><trkpt lat="55.8012906" lon="49.2228676"><time>2026-01-18T11:16:41.093</time></trkpt><trkpt lat="55.8013328" lon="49.2229326"><time>2026-01-18T11:16:44.097</time></trkpt><trkpt lat="55.8013780" lon="49.2230108"><time>2026-01-18T11:16:47.103</time></trkpt><trkpt lat="55.8014228" lon="49.2230930"><time>2026-01-18T11:16:50.093</time></trkpt><trkpt lat="55.8014713" lon="49.2231742"><time>2026-01-18T11:16:53.103</time></trkpt><trkpt lat="55.8015038" lon="49.2232315"><time>2026-01-18T11:16:55.117</time></trkpt><trkpt lat="55.8015390" lon="49.2232875"><time>2026-01-18T11:16:57.097</time></trkpt><trkpt lat="55.8015732" lon="49.2233471"><time>2026-01-18T11:16:59.103</time></trkpt><trkpt lat="55.8016250" lon="49.2234099"><time>2026-01-18T11:17:01.117</time></trkpt><trkpt lat="55.8016668" lon="49.2234616"><time>2026-01-18T11:17:03.093</time></trkpt><trkpt lat="55.8017030" lon="49.2235223"><time>2026-01-18T11:17:05.097</time></trkpt><trkpt lat="55.8017385" lon="49.2236136"><time>2026-01-18T11:17:08.097</time></trkpt><trkpt lat="55.8017651" lon="49.2237214"><time>2026-01-18T11:17:11.100</time></trkpt><trkpt lat="55.8017846" lon="49.2238051"><time>2026-01-18T11:17:15.097</time></trkpt><trkpt lat="55.8017928" lon="49.2238852"><time>2026-01-18T11:17:18.060</time></trkpt><trkpt lat="55.8017873" lon="49.2239651"><time>2026-01-18T11:17:27.077</time></trkpt><trkpt lat="55.8018065" lon="49.2240426"><time>2026-01-18T11:17:30.100</time></trkpt><trkpt lat="55.8018233" lon="49.2241290"><time>2026-01-18T11:17:33.097</time></trkpt><trkpt lat="55.8018418" lon="49.2242121"><time>2026-01-18T11:17:36.103</time></trkpt><trkpt lat="55.8018620" lon="49.2242965"><time>2026-01-18T11:17:38.077</time></trkpt><trkpt lat="55.8018657" lon="49.2244259"><time>2026-01-18T11:17:41.073</time></trkpt><trkpt lat="55.8018597" lon="49.2245203"><time>2026-01-18T11:17:43.100</time></trkpt><trkpt lat="55.8018662" lon="49.2246024"><time>2026-01-18T11:17:45.113</time></trkpt><trkpt lat="55.8018594" lon="49.2246923"><time>2026-01-18T11:17:47.100</time></trkpt><trkpt lat="55.8018541" lon="49.2247828"><time>2026-01-18T11:17:50.087</time></trkpt><trkpt lat="55.8018569" lon="49.2248807"><time>2026-01-18T11:17:51.117</time></trkpt><trkpt lat="55.8018459" lon="49.2249918"><time>2026-01-18T11:17:53.097</time></trkpt><trkpt lat="55.8018456" lon="49.2250825"><time>2026-01-18T11:17:55.103</time></trkpt><trkpt lat="55.8018514" lon="49.2251729"><time>2026-01-18T11:17:57.120</time></trkpt><trkpt lat="55.8018555" lon="49.2252661"><time>2026-01-18T11:17:59.097</time></trkpt><trkpt lat="55.8018585" lon="49.2253579"><time>2026-01-18T11:18:01.097</time></trkpt><trkpt lat="55.8018610" lon="49.2254398"><time>2026-01-18T11:18:03.133</time></trkpt><trkpt lat="55.8018601" lon="49.2255253"><time>2026-01-18T11:18:05.077</time></trkpt><trkpt lat="55.8018631" lon="49.2256060"><time>2026-01-18T11:18:07.097</time></trkpt><trkpt lat="55.8018669" lon="49.2257291"><time>2026-01-18T11:18:10.097</time></trkpt><trkpt lat="55.8018633" lon="49.2258495"><time>2026-01-18T11:18:13.097</time></trkpt><trkpt lat="55.8018553" lon="49.2259481"><time>2026-01-18T11:18:15.117</time></trkpt><trkpt lat="55.8018536" lon="49.2260355"><time>2026-01-18T11:18:17.097</time></trkpt><trkpt lat="55.8018522" lon="49.2261233"><time>2026-01-18T11:18:19.063</time></trkpt><trkpt lat="55.8018527" lon="49.2262102"><time>2026-01-18T11:18:21.103</time></trkpt><trkpt lat="55.8018557" lon="49.2262950"><time>2026-01-18T11:18:23.073</time></trkpt><trkpt lat="55.8018543" lon="49.2263924"><time>2026-01-18T11:18:25.093</time></trkpt><trkpt lat="55.8018359" lon="49.2264904"><time>2026-01-18T11:18:27.100</time></trkpt><trkpt lat="55.8018318" lon="49.2265893"><time>2026-01-18T11:18:29.100</time></trkpt><trkpt lat="55.8018339" lon="49.2266827"><time>2026-01-18T11:18:31.100</time></trkpt><trkpt lat="55.8018301" lon="49.2268013"><time>2026-01-18T11:18:34.093</time></trkpt><trkpt lat="55.8018282" lon="49.2268813"><time>2026-01-18T11:18:36.097</time></trkpt><trkpt lat="55.8018217" lon="49.2269823"><time>2026-01-18T11:18:39.067</time></trkpt><trkpt lat="55.8018109" lon="49.2271031"><time>2026-01-18T11:18:42.103</time></trkpt><trkpt lat="55.8018014" lon="49.2271934"><time>2026-01-18T11:18:44.097</time></trkpt><trkpt lat="55.8017925" lon="49.2272800"><time>2026-01-18T11:18:46.073</time></trkpt><trkpt lat="55.8017829" lon="49.2273968"><time>2026-01-18T11:18:49.120</time></trkpt><trkpt lat="55.8017756" lon="49.2275065"><time>2026-01-18T11:18:52.100</time></trkpt><trkpt lat="55.8017661" lon="49.2275867"><time>2026-01-18T11:18:54.113</time></trkpt><trkpt lat="55.8017564" lon="49.2276929"><time>2026-01-18T11:18:57.097</time></trkpt><trkpt lat="55.8017435" lon="49.2278003"><time>2026-01-18T11:19:00.093</time></trkpt><trkpt lat="55.8017252" lon="49.2279033"><time>2026-01-18T11:19:03.097</time></trkpt><trkpt lat="55.8017167" lon="49.2280068"><time>2026-01-18T11:19:06.097</time></trkpt><trkpt lat="55.8017055" lon="49.2280869"><time>2026-01-18T11:19:08.097</time></trkpt><trkpt lat="55.8016943" lon="49.2281707"><time>2026-01-18T11:19:10.093</time></trkpt><trkpt lat="55.8016712" lon="49.2282710"><time>2026-01-18T11:19:13.097</time></trkpt><trkpt lat="55.8016430" lon="49.2283682"><time>2026-01-18T11:19:15.100</time></trkpt><trkpt lat="55.8016274" lon="49.2284491"><time>2026-01-18T11:19:17.107</time></trkpt><trkpt lat="55.8016147" lon="49.2285260"><time>2026-01-18T11:19:19.100</time></trkpt><trkpt lat="55.8016043" lon="49.2286087"><time>2026-01-18T11:19:21.100</time></trkpt><trkpt lat="55.8015937" lon="49.2286907"><time>2026-01-18T11:19:23.100</time></trkpt><trkpt lat="55.8015767" lon="49.2287720"><time>2026-01-18T11:19:25.100</time></trkpt><trkpt lat="55.8015593" lon="49.2288539"><time>2026-01-18T11:19:27.090</time></trkpt><trkpt lat="55.8015455" lon="49.2289364"><time>2026-01-18T11:19:29.080</time></trkpt><trkpt lat="55.8015270" lon="49.2290133"><time>2026-01-18T11:19:31.087</time></trkpt><trkpt lat="55.8015085" lon="49.2290911"><time>2026-01-18T11:19:33.090</time></trkpt><trkpt lat="55.8014933" lon="49.2291710"><time>2026-01-18T11:19:35.093</time></trkpt><trkpt lat="55.8014717" lon="49.2292647"><time>2026-01-18T11:19:37.093</time></trkpt><trkpt lat="55.8014517" lon="49.2293553"><time>2026-01-18T11:19:39.070</time></trkpt><trkpt lat="55.8014251" lon="49.2294486"><time>2026-01-18T11:19:41.083</time></trkpt><trkpt lat="55.8013987" lon="49.2295442"><time>2026-01-18T11:19:43.077</time></trkpt><trkpt lat="55.8013719" lon="49.2296397"><time>2026-01-18T11:19:45.080</time></trkpt><trkpt lat="55.8013446" lon="49.2297272"><time>2026-01-18T11:19:47.080</time></trkpt><trkpt lat="55.8013174" lon="49.2298237"><time>2026-01-18T11:19:49.080</time></trkpt><trkpt lat="55.8012870" lon="49.2299315"><time>2026-01-18T11:19:51.087</time></trkpt><trkpt lat="55.8012617" lon="49.2300241"><time>2026-01-18T11:19:53.110</time></trkpt><trkpt lat="55.8012362" lon="49.2301071"><time>2026-01-18T11:19:55.097</time></trkpt><trkpt lat="55.8012054" lon="49.2301971"><time>2026-01-18T11:19:57.083</time></trkpt><trkpt lat="55.8011645" lon="49.2303185"><time>2026-01-18T11:19:59.097</time></trkpt><trkpt lat="55.8011435" lon="49.2304085"><time>2026-01-18T11:20:01.103</time></trkpt><trkpt lat="55.8011201" lon="49.2305077"><time>2026-01-18T11:20:04.100</time></trkpt><trkpt lat="55.8010875" lon="49.2305922"><time>2026-01-18T11:20:07.103</time></trkpt><trkpt lat="55.8010579" lon="49.2306809"><time>2026-01-18T11:20:11.080</time></trkpt><trkpt lat="55.8010325" lon="49.2307611"><time>2026-01-18T11:20:23.080</time></trkpt><trkpt lat="55.8010699" lon="49.2308183"><time>2026-01-18T11:20:28.093</time></trkpt><trkpt lat="55.8010699" lon="49.2308183"><time>2026-01-18T11:20:28.740</time></trkpt><trkpt lat="55.8010162" lon="49.2307798"><time>2026-01-18T11:20:35.067</time></trkpt><trkpt lat="55.8009620" lon="49.2308295"><time>2026-01-18T11:20:38.080</time></trkpt><trkpt lat="55.8009239" lon="49.2309218"><time>2026-01-18T11:20:41.100</time></trkpt><trkpt lat="55.8008944" lon="49.2309837"><time>2026-01-18T11:20:43.100</time></trkpt><trkpt lat="55.8008545" lon="49.2310517"><time>2026-01-18T11:20:45.120</time></trkpt><trkpt lat="55.8008111" lon="49.2311368"><time>2026-01-18T11:20:47.097</time></trkpt><trkpt lat="55.8007676" lon="49.2312122"><time>2026-01-18T11:20:50.097</time></trkpt><trkpt lat="55.8007311" lon="49.2312787"><time>2026-01-18T11:21:00.100</time></trkpt><trkpt lat="55.8006503" lon="49.2314350"><time>2026-01-18T11:21:02.073</time></trkpt><trkpt lat="55.8006106" lon="49.2315081"><time>2026-01-18T11:21:04.100</time></trkpt><trkpt lat="55.8005750" lon="49.2315819"><time>2026-01-18T11:21:06.087</time></trkpt><trkpt lat="55.8005337" lon="49.2316625"><time>2026-01-18T11:21:08.090</time></trkpt><trkpt lat="55.8004963" lon="49.2317237"><time>2026-01-18T11:21:10.073</time></trkpt><trkpt lat="55.8004529" lon="49.2317446"><time>2026-01-18T11:21:12.100</time></trkpt><trkpt lat="55.8004103" lon="49.2317184"><time>2026-01-18T11:21:14.070</time></trkpt><trkpt lat="55.8003687" lon="49.2316829"><time>2026-01-18T11:21:16.100</time></trkpt><trkpt lat="55.8003258" lon="49.2316419"><time>2026-01-18T11:21:18.097</time></trkpt><trkpt lat="55.8002729" lon="49.2315774"><time>2026-01-18T11:21:21.093</time></trkpt><trkpt lat="55.8002196" lon="49.2315225"><time>2026-01-18T11:21:24.103</time></trkpt><trkpt lat="55.8001754" lon="49.2314788"><time>2026-01-18T11:21:26.097</time></trkpt><trkpt lat="55.8001334" lon="49.2314095"><time>2026-01-18T11:21:28.093</time></trkpt><trkpt lat="55.8000778" lon="49.2313671"><time>2026-01-18T11:21:30.100</time></trkpt><trkpt lat="55.8000343" lon="49.2313283"><time>2026-01-18T11:21:32.097</time></trkpt><trkpt lat="55.7999821" lon="49.2312561"><time>2026-01-18T11:21:35.123</time></trkpt><trkpt lat="55.7999491" lon="49.2311763"><time>2026-01-18T11:21:37.097</time></trkpt><trkpt lat="55.7999094" lon="49.2311002"><time>2026-01-18T11:21:39.097</time></trkpt><trkpt lat="55.7998708" lon="49.2310336"><time>2026-01-18T11:21:41.107</time></trkpt><trkpt lat="55.7998334" lon="49.2309660"><time>2026-01-18T11:21:44.097</time></trkpt><trkpt lat="55.7997931" lon="49.2308966"><time>2026-01-18T11:21:47.073</time></trkpt><trkpt lat="55.7997505" lon="49.2308231"><time>2026-01-18T11:21:50.103</time></trkpt><trkpt lat="55.7997088" lon="49.2307284"><time>2026-01-18T11:21:53.097</time></trkpt><trkpt lat="55.7996981" lon="49.2305734"><time>2026-01-18T11:21:55.100</time></trkpt><trkpt lat="55.7997176" lon="49.2304883"><time>2026-01-18T11:21:57.117</time></trkpt><trkpt lat="55.7997411" lon="49.2304110"><time>2026-01-18T11:21:59.097</time></trkpt><trkpt lat="55.7997676" lon="49.2303360"><time>2026-01-18T11:22:01.097</time></trkpt><trkpt lat="55.7997951" lon="49.2302595"><time>2026-01-18T11:22:03.113</time></trkpt><trkpt lat="55.7998197" lon="49.2301780"><time>2026-01-18T11:22:05.093</time></trkpt><trkpt lat="55.7998402" lon="49.2301004"><time>2026-01-18T11:22:07.097</time></trkpt><trkpt lat="55.7998728" lon="49.2299983"><time>2026-01-18T11:22:09.097</time></trkpt><trkpt lat="55.7998693" lon="49.2298901"><time>2026-01-18T11:22:12.097</time></trkpt><trkpt lat="55.7998477" lon="49.2297934"><time>2026-01-18T11:22:15.090</time></trkpt><trkpt lat="55.7998230" lon="49.2297030"><time>2026-01-18T11:22:17.103</time></trkpt><trkpt lat="55.7997829" lon="49.2296150"><time>2026-01-18T11:22:19.097</time></trkpt><trkpt lat="55.7997248" lon="49.2295430"><time>2026-01-18T11:22:22.100</time></trkpt><trkpt lat="55.7996809" lon="49.2294965"><time>2026-01-18T11:22:24.097</time></trkpt><trkpt lat="55.7996301" lon="49.2294421"><time>2026-01-18T11:22:26.093</time></trkpt><trkpt lat="55.7995774" lon="49.2293866"><time>2026-01-18T11:22:28.100</time></trkpt><trkpt lat="55.7995364" lon="49.2293406"><time>2026-01-18T11:22:29.097</time></trkpt><trkpt lat="55.7994801" lon="49.2292785"><time>2026-01-18T11:22:31.087</time></trkpt><trkpt lat="55.7994250" lon="49.2292146"><time>2026-01-18T11:22:34.103</time></trkpt><trkpt lat="55.7993707" lon="49.2291486"><time>2026-01-18T11:22:37.097</time></trkpt><trkpt lat="55.7993165" lon="49.2290887"><time>2026-01-18T11:22:40.100</time></trkpt><trkpt lat="55.7992616" lon="49.2290663"><time>2026-01-18T11:22:43.123</time></trkpt><trkpt lat="55.7992177" lon="49.2290851"><time>2026-01-18T11:22:46.097</time></trkpt><trkpt lat="55.7991854" lon="49.2290223"><time>2026-01-18T11:22:53.077</time></trkpt><trkpt lat="55.7991632" lon="49.2290021"><time>2026-01-18T11:22:57.190</time></trkpt><trkpt lat="55.7992160" lon="49.2290916"><time>2026-01-18T11:23:04.087</time></trkpt><trkpt lat="55.7992640" lon="49.2291173"><time>2026-01-18T11:23:09.097</time></trkpt><trkpt lat="55.7993196" lon="49.2291120"><time>2026-01-18T11:23:11.120</time></trkpt><trkpt lat="55.7993624" lon="49.2291485"><time>2026-01-18T11:23:13.097</time></trkpt><trkpt lat="55.7994043" lon="49.2292127"><time>2026-01-18T11:23:16.067</time></trkpt><trkpt lat="55.7994653" lon="49.2292773"><time>2026-01-18T11:23:18.073</time></trkpt><trkpt lat="55.7995058" lon="49.2293278"><time>2026-01-18T11:23:20.083</time></trkpt><trkpt lat="55.7995466" lon="49.2293780"><time>2026-01-18T11:23:22.100</time></trkpt><trkpt lat="55.7995943" lon="49.2294301"><time>2026-01-18T11:23:24.103</time></trkpt><trkpt lat="55.7996428" lon="49.2294761"><time>2026-01-18T11:23:26.077</time></trkpt><trkpt lat="55.7996821" lon="49.2295200"><time>2026-01-18T11:23:28.073</time></trkpt><trkpt lat="55.7997254" lon="49.2295748"><time>2026-01-18T11:23:30.110</time></trkpt><trkpt lat="55.7997842" lon="49.2296490"><time>2026-01-18T11:23:33.100</time></trkpt><trkpt lat="55.7998273" lon="49.2297031"><time>2026-01-18T11:23:35.097</time></trkpt><trkpt lat="55.7998650" lon="49.2297684"><time>2026-01-18T11:23:37.077</time></trkpt><trkpt lat="55.7998857" lon="49.2298674"><time>2026-01-18T11:23:39.103</time></trkpt><trkpt lat="55.7998815" lon="49.2299769"><time>2026-01-18T11:23:42.097</time></trkpt><trkpt lat="55.7998594" lon="49.2300897"><time>2026-01-18T11:23:45.100</time></trkpt><trkpt lat="55.7998362" lon="49.2301673"><time>2026-01-18T11:23:47.103</time></trkpt><trkpt lat="55.7998130" lon="49.2302407"><time>2026-01-18T11:23:49.077</time></trkpt><trkpt lat="55.7997751" lon="49.2303243"><time>2026-01-18T11:23:51.083</time></trkpt><trkpt lat="55.7997511" lon="49.2304032"><time>2026-01-18T11:23:52.113</time></trkpt><trkpt lat="55.7997203" lon="49.2304793"><time>2026-01-18T11:23:54.080</time></trkpt><trkpt lat="55.7996948" lon="49.2305515"><time>2026-01-18T11:23:56.063</time></trkpt><trkpt lat="55.7996842" lon="49.2306381"><time>2026-01-18T11:23:58.083</time></trkpt><trkpt lat="55.7997010" lon="49.2307128"><time>2026-01-18T11:24:00.077</time></trkpt><trkpt lat="55.7997439" lon="49.2307920"><time>2026-01-18T11:24:02.083</time></trkpt><trkpt lat="55.7997837" lon="49.2308592"><time>2026-01-18T11:24:04.087</time></trkpt><trkpt lat="55.7998175" lon="49.2309299"><time>2026-01-18T11:24:06.080</time></trkpt><trkpt lat="55.7998464" lon="49.2309998"><time>2026-01-18T11:24:08.083</time></trkpt><trkpt lat="55.7998782" lon="49.2310616"><time>2026-01-18T11:24:10.073</time></trkpt><trkpt lat="55.7999109" lon="49.2311230"><time>2026-01-18T11:24:12.077</time></trkpt><trkpt lat="55.7999482" lon="49.2311911"><time>2026-01-18T11:24:14.080</time></trkpt><trkpt lat="55.7999919" lon="49.2312676"><time>2026-01-18T11:24:16.060</time></trkpt><trkpt lat="55.8000286" lon="49.2313243"><time>2026-01-18T11:24:18.063</time></trkpt><trkpt lat="55.8000777" lon="49.2313976"><time>2026-01-18T11:24:21.103</time></trkpt><trkpt lat="55.8001201" lon="49.2314510"><time>2026-01-18T11:24:23.077</time></trkpt><trkpt lat="55.8001651" lon="49.2315072"><time>2026-01-18T11:24:25.063</time></trkpt><trkpt lat="55.8002087" lon="49.2315668"><time>2026-01-18T11:24:27.067</time></trkpt><trkpt lat="55.8002524" lon="49.2316176"><time>2026-01-18T11:24:29.077</time></trkpt><trkpt lat="55.8002994" lon="49.2316726"><time>2026-01-18T11:24:31.093</time></trkpt><trkpt lat="55.8003445" lon="49.2317209"><time>2026-01-18T11:24:33.093</time></trkpt><trkpt lat="55.8003866" lon="49.2317738"><time>2026-01-18T11:24:35.110</time></trkpt><trkpt lat="55.8004214" lon="49.2318434"><time>2026-01-18T11:24:37.097</time></trkpt><trkpt lat="55.8004296" lon="49.2319235"><time>2026-01-18T11:24:39.083</time></trkpt><trkpt lat="55.8004026" lon="49.2319874"><time>2026-01-18T11:24:41.090</time></trkpt><trkpt lat="55.8003699" lon="49.2320527"><time>2026-01-18T11:24:43.100</time></trkpt><trkpt lat="55.8003352" lon="49.2321277"><time>2026-01-18T11:24:45.100</time></trkpt><trkpt lat="55.8003019" lon="49.2321975"><time>2026-01-18T11:24:47.097</time></trkpt><trkpt lat="55.8002685" lon="49.2322713"><time>2026-01-18T11:24:49.110</time></trkpt><trkpt lat="55.8002365" lon="49.2323362"><time>2026-01-18T11:24:51.097</time></trkpt><trkpt lat="55.8002031" lon="49.2324094"><time>2026-01-18T11:24:53.090</time></trkpt><trkpt lat="55.8001714" lon="49.2324874"><time>2026-01-18T11:24:55.097</time></trkpt><trkpt lat="55.8001417" lon="49.2325579"><time>2026-01-18T11:24:57.093</time></trkpt><trkpt lat="55.8001085" lon="49.2326259"><time>2026-01-18T11:24:59.097</time></trkpt><trkpt lat="55.8000721" lon="49.2327004"><time>2026-01-18T11:25:01.117</time></trkpt><trkpt lat="55.8000367" lon="49.2327773"><time>2026-01-18T11:25:03.097</time></trkpt><trkpt lat="55.7999999" lon="49.2328609"><time>2026-01-18T11:25:05.103</time></trkpt><trkpt lat="55.7999628" lon="49.2329393"><time>2026-01-18T11:25:07.123</time></trkpt><trkpt lat="55.7999248" lon="49.2330151"><time>2026-01-18T11:25:09.097</time></trkpt><trkpt lat="55.7998863" lon="49.2330886"><time>2026-01-18T11:25:11.093</time></trkpt><trkpt lat="55.7998530" lon="49.2331561"><time>2026-01-18T11:25:13.123</time></trkpt><trkpt lat="55.7998234" lon="49.2332234"><time>2026-01-18T11:25:15.100</time></trkpt><trkpt lat="55.7997959" lon="49.2332988"><time>2026-01-18T11:25:17.093</time></trkpt><trkpt lat="55.7997704" lon="49.2333851"><time>2026-01-18T11:25:19.120</time></trkpt><trkpt lat="55.7997428" lon="49.2334649"><time>2026-01-18T11:25:21.093</time></trkpt><trkpt lat="55.7997135" lon="49.2335410"><time>2026-01-18T11:25:23.097</time></trkpt><trkpt lat="55.7996861" lon="49.2336193"><time>2026-01-18T11:25:25.117</time></trkpt><trkpt lat="55.7996479" lon="49.2337300"><time>2026-01-18T11:25:27.093</time></trkpt><trkpt lat="55.7996152" lon="49.2338030"><time>2026-01-18T11:25:29.100</time></trkpt><trkpt lat="55.7995900" lon="49.2338740"><time>2026-01-18T11:25:31.120</time></trkpt><trkpt lat="55.7995664" lon="49.2339425"><time>2026-01-18T11:25:33.103</time></trkpt><trkpt lat="55.7995387" lon="49.2340152"><time>2026-01-18T11:25:35.093</time></trkpt><trkpt lat="55.7995090" lon="49.2340941"><time>2026-01-18T11:25:37.083</time></trkpt><trkpt lat="55.7994790" lon="49.2341752"><time>2026-01-18T11:25:39.097</time></trkpt><trkpt lat="55.7994515" lon="49.2342514"><time>2026-01-18T11:25:41.073</time></trkpt><trkpt lat="55.7994191" lon="49.2343192"><time>2026-01-18T11:25:43.077</time></trkpt><trkpt lat="55.7993816" lon="49.2343775"><time>2026-01-18T11:25:45.077</time></trkpt><trkpt lat="55.7993399" lon="49.2344444"><time>2026-01-18T11:25:47.117</time></trkpt><trkpt lat="55.7993009" lon="49.2345088"><time>2026-01-18T11:25:49.093</time></trkpt><trkpt lat="55.7992611" lon="49.2345736"><time>2026-01-18T11:25:51.097</time></trkpt><trkpt lat="55.7992230" lon="49.2346341"><time>2026-01-18T11:25:53.120</time></trkpt><trkpt lat="55.7991851" lon="49.2346890"><time>2026-01-18T11:25:55.097</time></trkpt><trkpt lat="55.7991422" lon="49.2347496"><time>2026-01-18T11:25:57.093</time></trkpt><trkpt lat="55.7990997" lon="49.2348151"><time>2026-01-18T11:25:59.093</time></trkpt><trkpt lat="55.7990597" lon="49.2348743"><time>2026-01-18T11:26:01.080</time></trkpt><trkpt lat="55.7990141" lon="49.2349302"><time>2026-01-18T11:26:03.087</time></trkpt><trkpt lat="55.7989716" lon="49.2349854"><time>2026-01-18T11:26:05.107</time></trkpt><trkpt lat="55.7989306" lon="49.2350323"><time>2026-01-18T11:26:07.097</time></trkpt><trkpt lat="55.7988887" lon="49.2350682"><time>2026-01-18T11:26:09.103</time></trkpt><trkpt lat="55.7988457" lon="49.2351007"><time>2026-01-18T11:26:11.103</time></trkpt><trkpt lat="55.7988006" lon="49.2351253"><time>2026-01-18T11:26:13.093</time></trkpt><trkpt lat="55.7987361" lon="49.2351474"><time>2026-01-18T11:26:16.100</time></trkpt><trkpt lat="55.7986913" lon="49.2351593"><time>2026-01-18T11:26:18.097</time></trkpt><trkpt lat="55.7986306" lon="49.2351852"><time>2026-01-18T11:26:21.123</time></trkpt><trkpt lat="55.7985638" lon="49.2352110"><time>2026-01-18T11:26:24.097</time></trkpt><trkpt lat="55.7985131" lon="49.2352300"><time>2026-01-18T11:26:26.100</time></trkpt><trkpt lat="55.7984570" lon="49.2352539"><time>2026-01-18T11:26:28.103</time></trkpt><trkpt lat="55.7984035" lon="49.2352786"><time>2026-01-18T11:26:30.103</time></trkpt><trkpt lat="55.7983517" lon="49.2352994"><time>2026-01-18T11:26:32.110</time></trkpt><trkpt lat="55.7982958" lon="49.2353193"><time>2026-01-18T11:26:34.107</time></trkpt><trkpt lat="55.7982413" lon="49.2353375"><time>2026-01-18T11:26:36.103</time></trkpt><trkpt lat="55.7981894" lon="49.2353581"><time>2026-01-18T11:26:38.097</time></trkpt><trkpt lat="55.7981400" lon="49.2353803"><time>2026-01-18T11:26:40.077</time></trkpt><trkpt lat="55.7980920" lon="49.2353938"><time>2026-01-18T11:26:42.100</time></trkpt><trkpt lat="55.7980451" lon="49.2354073"><time>2026-01-18T11:26:44.100</time></trkpt><trkpt lat="55.7979844" lon="49.2353921"><time>2026-01-18T11:26:47.107</time></trkpt><trkpt lat="55.7979394" lon="49.2353484"><time>2026-01-18T11:26:50.100</time></trkpt><trkpt lat="55.7978968" lon="49.2353066"><time>2026-01-18T11:26:52.090</time></trkpt><trkpt lat="55.7978588" lon="49.2352432"><time>2026-01-18T11:26:53.107</time></trkpt><trkpt lat="55.7978162" lon="49.2351859"><time>2026-01-18T11:26:55.127</time></trkpt><trkpt lat="55.7977840" lon="49.2351028"><time>2026-01-18T11:26:58.097</time></trkpt><trkpt lat="55.7977879" lon="49.2350187"><time>2026-01-18T11:26:59.097</time></trkpt><trkpt lat="55.7978378" lon="49.2349460"><time>2026-01-18T11:27:02.097</time></trkpt><trkpt lat="55.7978801" lon="49.2348884"><time>2026-01-18T11:27:05.103</time></trkpt><trkpt lat="55.7979167" lon="49.2348323"><time>2026-01-18T11:27:08.110</time></trkpt><trkpt lat="55.7979407" lon="49.2347403"><time>2026-01-18T11:27:11.100</time></trkpt><trkpt lat="55.7979706" lon="49.2346703"><time>2026-01-18T11:27:14.100</time></trkpt><trkpt lat="55.7980176" lon="49.2346102"><time>2026-01-18T11:27:18.073</time></trkpt><trkpt lat="55.7980342" lon="49.2345665"><time>2026-01-18T11:27:20.093</time></trkpt><trkpt lat="55.7979786" lon="49.2346639"><time>2026-01-18T11:27:27.077</time></trkpt><trkpt lat="55.7979490" lon="49.2347459"><time>2026-01-18T11:27:30.067</time></trkpt><trkpt lat="55.7979285" lon="49.2348253"><time>2026-01-18T11:27:33.067</time></trkpt><trkpt lat="55.7978703" lon="49.2348668"><time>2026-01-18T11:27:37.097</time></trkpt><trkpt lat="55.7978239" lon="49.2348648"><time>2026-01-18T11:27:39.077</time></trkpt><trkpt lat="55.7977858" lon="49.2349205"><time>2026-01-18T11:27:41.120</time></trkpt><trkpt lat="55.7977482" lon="49.2350059"><time>2026-01-18T11:27:43.117</time></trkpt><trkpt lat="55.7976972" lon="49.2351131"><time>2026-01-18T11:27:45.110</time></trkpt><trkpt lat="55.7976570" lon="49.2351616"><time>2026-01-18T11:27:48.097</time></trkpt><trkpt lat="55.7976091" lon="49.2352072"><time>2026-01-18T11:27:51.097</time></trkpt><trkpt lat="55.7975698" lon="49.2352618"><time>2026-01-18T11:27:53.077</time></trkpt><trkpt lat="55.7975277" lon="49.2353080"><time>2026-01-18T11:27:56.113</time></trkpt><trkpt lat="55.7974843" lon="49.2353662"><time>2026-01-18T11:27:59.077</time></trkpt><trkpt lat="55.7974351" lon="49.2354421"><time>2026-01-18T11:28:02.077</time></trkpt><trkpt lat="55.7974000" lon="49.2354926"><time>2026-01-18T11:28:04.120</time></trkpt><trkpt lat="55.7973419" lon="49.2355567"><time>2026-01-18T11:28:07.103</time></trkpt><trkpt lat="55.7973022" lon="49.2355992"><time>2026-01-18T11:28:09.107</time></trkpt><trkpt lat="55.7972638" lon="49.2356436"><time>2026-01-18T11:28:11.103</time></trkpt><trkpt lat="55.7972210" lon="49.2356936"><time>2026-01-18T11:28:13.097</time></trkpt><trkpt lat="55.7971770" lon="49.2357385"><time>2026-01-18T11:28:15.093</time></trkpt><trkpt lat="55.7971346" lon="49.2357853"><time>2026-01-18T11:28:17.103</time></trkpt><trkpt lat="55.7970961" lon="49.2358296"><time>2026-01-18T11:28:19.097</time></trkpt><trkpt lat="55.7970388" lon="49.2358813"><time>2026-01-18T11:28:22.103</time></trkpt><trkpt lat="55.7969856" lon="49.2359241"><time>2026-01-18T11:28:25.107</time></trkpt><trkpt lat="55.7969308" lon="49.2359757"><time>2026-01-18T11:28:28.100</time></trkpt><trkpt lat="55.7968833" lon="49.2360053"><time>2026-01-18T11:28:31.100</time></trkpt><trkpt lat="55.7968212" lon="49.2360491"><time>2026-01-18T11:28:35.103</time></trkpt><trkpt lat="55.7967605" lon="49.2360922"><time>2026-01-18T11:28:39.123</time></trkpt><trkpt lat="55.7967104" lon="49.2361181"><time>2026-01-18T11:28:41.097</time></trkpt><trkpt lat="55.7966621" lon="49.2361288"><time>2026-01-18T11:28:43.097</time></trkpt><trkpt lat="55.7966172" lon="49.2360624"><time>2026-01-18T11:28:46.100</time></trkpt><trkpt lat="55.7966069" lon="49.2359525"><time>2026-01-18T11:28:49.100</time></trkpt><trkpt lat="55.7966030" lon="49.2358684"><time>2026-01-18T11:28:51.097</time></trkpt><trkpt lat="55.7965961" lon="49.2357568"><time>2026-01-18T11:28:54.103</time></trkpt><trkpt lat="55.7965801" lon="49.2356457"><time>2026-01-18T11:28:57.083</time></trkpt><trkpt lat="55.7965749" lon="49.2355258"><time>2026-01-18T11:29:00.100</time></trkpt><trkpt lat="55.7965643" lon="49.2354412"><time>2026-01-18T11:29:03.093</time></trkpt><trkpt lat="55.7965539" lon="49.2353610"><time>2026-01-18T11:29:05.093</time></trkpt><trkpt lat="55.7965437" lon="49.2354591"><time>2026-01-18T11:29:12.097</time></trkpt><trkpt lat="55.7965403" lon="49.2355388"><time>2026-01-18T11:29:16.097</time></trkpt><trkpt lat="55.7965305" lon="49.2356334"><time>2026-01-18T11:29:18.097</time></trkpt><trkpt lat="55.7964843" lon="49.2356670"><time>2026-01-18T11:29:27.093</time></trkpt><trkpt lat="55.7964299" lon="49.2356886"><time>2026-01-18T11:29:29.093</time></trkpt><trkpt lat="55.7963694" lon="49.2356990"><time>2026-01-18T11:29:32.097</time></trkpt><trkpt lat="55.7962763" lon="49.2357123"><time>2026-01-18T11:29:35.097</time></trkpt><trkpt lat="55.7962209" lon="49.2357145"><time>2026-01-18T11:29:38.080</time></trkpt><trkpt lat="55.7961881" lon="49.2356502"><time>2026-01-18T11:29:44.080</time></trkpt><trkpt lat="55.7961831" lon="49.2355625"><time>2026-01-18T11:29:51.097</time></trkpt><trkpt lat="55.7961351" lon="49.2356091"><time>2026-01-18T11:29:56.097</time></trkpt><trkpt lat="55.7961232" lon="49.2356912"><time>2026-01-18T11:29:59.097</time></trkpt><trkpt lat="55.7961256" lon="49.2358081"><time>2026-01-18T11:30:02.090</time></trkpt><trkpt lat="55.7961295" lon="49.2359254"><time>2026-01-18T11:30:05.120</time></trkpt><trkpt lat="55.7961333" lon="49.2360101"><time>2026-01-18T11:30:07.093</time></trkpt><trkpt lat="55.7961383" lon="49.2360906"><time>2026-01-18T11:30:09.097</time></trkpt><trkpt lat="55.7961425" lon="49.2361703"><time>2026-01-18T11:30:11.123</time></trkpt><trkpt lat="55.7961503" lon="49.2362892"><time>2026-01-18T11:30:14.100</time></trkpt><trkpt lat="55.7961664" lon="49.2363755"><time>2026-01-18T11:30:16.093</time></trkpt><trkpt lat="55.7961744" lon="49.2364774"><time>2026-01-18T11:30:18.093</time></trkpt><trkpt lat="55.7961603" lon="49.2365912"><time>2026-01-18T11:30:21.097</time></trkpt><trkpt lat="55.7961274" lon="49.2366585"><time>2026-01-18T11:30:23.100</time></trkpt><trkpt lat="55.7960692" lon="49.2367128"><time>2026-01-18T11:30:25.100</time></trkpt><trkpt lat="55.7960204" lon="49.2367221"><time>2026-01-18T11:30:29.087</time></trkpt><trkpt lat="55.7959660" lon="49.2367405"><time>2026-01-18T11:30:56.067</time></trkpt><trkpt lat="55.7959178" lon="49.2367276"><time>2026-01-18T11:31:00.090</time></trkpt><trkpt lat="55.7958659" lon="49.2366991"><time>2026-01-18T11:31:05.080</time></trkpt><trkpt lat="55.7958169" lon="49.2366964"><time>2026-01-18T11:31:09.097</time></trkpt><trkpt lat="55.7957728" lon="49.2367196"><time>2026-01-18T11:31:11.077</time></trkpt><trkpt lat="55.7957197" lon="49.2367208"><time>2026-01-18T11:31:15.100</time></trkpt><trkpt lat="55.7956554" lon="49.2367358"><time>2026-01-18T11:31:18.097</time></trkpt><trkpt lat="55.7956023" lon="49.2367067"><time>2026-01-18T11:31:21.093</time></trkpt><trkpt lat="55.7955439" lon="49.2366774"><time>2026-01-18T11:31:24.087</time></trkpt><trkpt lat="55.7954820" lon="49.2366393"><time>2026-01-18T11:31:27.090</time></trkpt><trkpt lat="55.7954116" lon="49.2365921"><time>2026-01-18T11:31:30.103</time></trkpt><trkpt lat="55.7953602" lon="49.2365564"><time>2026-01-18T11:31:32.093</time></trkpt><trkpt lat="55.7953144" lon="49.2365168"><time>2026-01-18T11:31:34.090</time></trkpt><trkpt lat="55.7952668" lon="49.2364770"><time>2026-01-18T11:31:36.087</time></trkpt><trkpt lat="55.7952195" lon="49.2364513"><time>2026-01-18T11:31:38.080</time></trkpt><trkpt lat="55.7951772" lon="49.2364237"><time>2026-01-18T11:31:40.107</time></trkpt><trkpt lat="55.7951344" lon="49.2363827"><time>2026-01-18T11:31:43.083</time></trkpt><trkpt lat="55.7950732" lon="49.2363327"><time>2026-01-18T11:31:46.080</time></trkpt><trkpt lat="55.7950255" lon="49.2362764"><time>2026-01-18T11:31:49.097</time></trkpt><trkpt lat="55.7949917" lon="49.2362151"><time>2026-01-18T11:31:51.093</time></trkpt><trkpt lat="55.7949307" lon="49.2361581"><time>2026-01-18T11:31:54.100</time></trkpt><trkpt lat="55.7948949" lon="49.2361072"><time>2026-01-18T11:31:55.100</time></trkpt><trkpt lat="55.7948484" lon="49.2360668"><time>2026-01-18T11:31:57.100</time></trkpt><trkpt lat="55.7948030" lon="49.2360379"><time>2026-01-18T11:31:59.103</time></trkpt><trkpt lat="55.7947580" lon="49.2360080"><time>2026-01-18T11:32:01.077</time></trkpt><trkpt lat="55.7947127" lon="49.2359733"><time>2026-01-18T11:32:03.100</time></trkpt><trkpt lat="55.7946653" lon="49.2359396"><time>2026-01-18T11:32:05.100</time></trkpt><trkpt lat="55.7946226" lon="49.2359128"><time>2026-01-18T11:32:07.097</time></trkpt><trkpt lat="55.7945782" lon="49.2358848"><time>2026-01-18T11:32:09.100</time></trkpt><trkpt lat="55.7945270" lon="49.2358732"><time>2026-01-18T11:32:11.097</time></trkpt><trkpt lat="55.7944752" lon="49.2358510"><time>2026-01-18T11:32:13.120</time></trkpt><trkpt lat="55.7944245" lon="49.2358246"><time>2026-01-18T11:32:15.100</time></trkpt><trkpt lat="55.7943775" lon="49.2358014"><time>2026-01-18T11:32:17.097</time></trkpt><trkpt lat="55.7943332" lon="49.2357797"><time>2026-01-18T11:32:19.127</time></trkpt><trkpt lat="55.7942855" lon="49.2357566"><time>2026-01-18T11:32:21.103</time></trkpt><trkpt lat="55.7942349" lon="49.2357308"><time>2026-01-18T11:32:23.097</time></trkpt><trkpt lat="55.7941884" lon="49.2357127"><time>2026-01-18T11:32:25.123</time></trkpt><trkpt lat="55.7941398" lon="49.2356988"><time>2026-01-18T11:32:27.097</time></trkpt><trkpt lat="55.7940912" lon="49.2356873"><time>2026-01-18T11:32:29.077</time></trkpt><trkpt lat="55.7940411" lon="49.2356828"><time>2026-01-18T11:32:31.097</time></trkpt><trkpt lat="55.7939748" lon="49.2356809"><time>2026-01-18T11:32:34.097</time></trkpt><trkpt lat="55.7939253" lon="49.2356803"><time>2026-01-18T11:32:36.123</time></trkpt><trkpt lat="55.7938792" lon="49.2356820"><time>2026-01-18T11:32:38.097</time></trkpt><trkpt lat="55.7938142" lon="49.2356903"><time>2026-01-18T11:32:40.100</time></trkpt><trkpt lat="55.7937484" lon="49.2356997"><time>2026-01-18T11:32:42.123</time></trkpt><trkpt lat="55.7936964" lon="49.2357162"><time>2026-01-18T11:32:44.097</time></trkpt><trkpt lat="55.7936451" lon="49.2357287"><time>2026-01-18T11:32:46.080</time></trkpt><trkpt lat="55.7935944" lon="49.2357416"><time>2026-01-18T11:32:48.127</time></trkpt><trkpt lat="55.7935432" lon="49.2357595"><time>2026-01-18T11:32:50.097</time></trkpt><trkpt lat="55.7934927" lon="49.2357800"><time>2026-01-18T11:32:52.107</time></trkpt><trkpt lat="55.7934454" lon="49.2358041"><time>2026-01-18T11:32:54.077</time></trkpt><trkpt lat="55.7933939" lon="49.2358262"><time>2026-01-18T11:32:56.077</time></trkpt><trkpt lat="55.7933409" lon="49.2358518"><time>2026-01-18T11:32:58.100</time></trkpt><trkpt lat="55.7932841" lon="49.2358771"><time>2026-01-18T11:33:00.123</time></trkpt><trkpt lat="55.7932340" lon="49.2358964"><time>2026-01-18T11:33:02.117</time></trkpt><trkpt lat="55.7931659" lon="49.2359085"><time>2026-01-18T11:33:05.080</time></trkpt><trkpt lat="55.7931158" lon="49.2359195"><time>2026-01-18T11:33:07.100</time></trkpt><trkpt lat="55.7930682" lon="49.2359378"><time>2026-01-18T11:33:09.073</time></trkpt><trkpt lat="55.7930097" lon="49.2359512"><time>2026-01-18T11:33:12.107</time></trkpt><trkpt lat="55.7929792" lon="49.2360193"><time>2026-01-18T11:33:15.103</time></trkpt><trkpt lat="55.7929834" lon="49.2361154"><time>2026-01-18T11:33:18.103</time></trkpt><trkpt lat="55.7929871" lon="49.2362308"><time>2026-01-18T11:33:21.107</time></trkpt><trkpt lat="55.7929805" lon="49.2363367"><time>2026-01-18T11:33:24.103</time></trkpt><trkpt lat="55.7929682" lon="49.2364536"><time>2026-01-18T11:33:27.097</time></trkpt><trkpt lat="55.7929602" lon="49.2365666"><time>2026-01-18T11:33:29.127</time></trkpt><trkpt lat="55.7929424" lon="49.2366708"><time>2026-01-18T11:33:31.107</time></trkpt><trkpt lat="55.7929280" lon="49.2367708"><time>2026-01-18T11:33:33.100</time></trkpt><trkpt lat="55.7929208" lon="49.2368642"><time>2026-01-18T11:33:35.097</time></trkpt><trkpt lat="55.7929174" lon="49.2369452"><time>2026-01-18T11:33:37.097</time></trkpt><trkpt lat="55.7929123" lon="49.2370621"><time>2026-01-18T11:33:40.123</time></trkpt><trkpt lat="55.7928977" lon="49.2371681"><time>2026-01-18T11:33:43.107</time></trkpt><trkpt lat="55.7928946" lon="49.2372689"><time>2026-01-18T11:33:46.117</time></trkpt><trkpt lat="55.7928957" lon="49.2373649"><time>2026-01-18T11:33:49.087</time></trkpt><trkpt lat="55.7928959" lon="49.2374670"><time>2026-01-18T11:33:51.103</time></trkpt><trkpt lat="55.7928975" lon="49.2375594"><time>2026-01-18T11:33:53.103</time></trkpt><trkpt lat="55.7929007" lon="49.2376514"><time>2026-01-18T11:33:55.097</time></trkpt><trkpt lat="55.7929058" lon="49.2377356"><time>2026-01-18T11:33:57.080</time></trkpt><trkpt lat="55.7929144" lon="49.2378441"><time>2026-01-18T11:34:00.083</time></trkpt><trkpt lat="55.7929189" lon="49.2379688"><time>2026-01-18T11:34:03.110</time></trkpt><trkpt lat="55.7929190" lon="49.2380553"><time>2026-01-18T11:34:05.087</time></trkpt><trkpt lat="55.7929277" lon="49.2381423"><time>2026-01-18T11:34:07.080</time></trkpt><trkpt lat="55.7929400" lon="49.2382228"><time>2026-01-18T11:34:09.083</time></trkpt><trkpt lat="55.7929487" lon="49.2383047"><time>2026-01-18T11:34:11.073</time></trkpt><trkpt lat="55.7929640" lon="49.2383916"><time>2026-01-18T11:34:13.080</time></trkpt><trkpt lat="55.7929865" lon="49.2384701"><time>2026-01-18T11:34:15.110</time></trkpt><trkpt lat="55.7930096" lon="49.2385440"><time>2026-01-18T11:34:17.083</time></trkpt><trkpt lat="55.7930434" lon="49.2386438"><time>2026-01-18T11:34:20.083</time></trkpt><trkpt lat="55.7930732" lon="49.2387478"><time>2026-01-18T11:34:23.080</time></trkpt><trkpt lat="55.7930934" lon="49.2388209"><time>2026-01-18T11:34:25.080</time></trkpt><trkpt lat="55.7931094" lon="49.2389072"><time>2026-01-18T11:34:27.080</time></trkpt><trkpt lat="55.7931186" lon="49.2389991"><time>2026-01-18T11:34:29.083</time></trkpt><trkpt lat="55.7931288" lon="49.2390884"><time>2026-01-18T11:34:31.087</time></trkpt><trkpt lat="55.7931340" lon="49.2391825"><time>2026-01-18T11:34:33.087</time></trkpt><trkpt lat="55.7931398" lon="49.2392803"><time>2026-01-18T11:34:35.083</time></trkpt><trkpt lat="55.7931411" lon="49.2393716"><time>2026-01-18T11:34:37.083</time></trkpt><trkpt lat="55.7931352" lon="49.2394645"><time>2026-01-18T11:34:39.073</time></trkpt><trkpt lat="55.7931294" lon="49.2395558"><time>2026-01-18T11:34:41.090</time></trkpt><trkpt lat="55.7931248" lon="49.2396619"><time>2026-01-18T11:34:44.143</time></trkpt><trkpt lat="55.7931370" lon="49.2397479"><time>2026-01-18T11:34:49.093</time></trkpt><trkpt lat="55.7931112" lon="49.2396751"><time>2026-01-18T11:34:57.083</time></trkpt><trkpt lat="55.7931077" lon="49.2395949"><time>2026-01-18T11:35:00.093</time></trkpt><trkpt lat="55.7931244" lon="49.2394888"><time>2026-01-18T11:35:02.100</time></trkpt><trkpt lat="55.7931454" lon="49.2394048"><time>2026-01-18T11:35:04.090</time></trkpt><trkpt lat="55.7931534" lon="49.2392962"><time>2026-01-18T11:35:06.080</time></trkpt><trkpt lat="55.7931553" lon="49.2391801"><time>2026-01-18T11:35:09.093</time></trkpt><trkpt lat="55.7931486" lon="49.2390961"><time>2026-01-18T11:35:11.103</time></trkpt><trkpt lat="55.7931260" lon="49.2390197"><time>2026-01-18T11:35:12.080</time></trkpt><trkpt lat="55.7931140" lon="49.2389312"><time>2026-01-18T11:35:14.097</time></trkpt><trkpt lat="55.7930993" lon="49.2388552"><time>2026-01-18T11:35:17.103</time></trkpt><trkpt lat="55.7930780" lon="49.2387625"><time>2026-01-18T11:35:20.077</time></trkpt><trkpt lat="55.7930512" lon="49.2386805"><time>2026-01-18T11:35:23.087</time></trkpt><trkpt lat="55.7930203" lon="49.2386080"><time>2026-01-18T11:35:26.097</time></trkpt><trkpt lat="55.7929961" lon="49.2385163"><time>2026-01-18T11:35:29.097</time></trkpt><trkpt lat="55.7929856" lon="49.2384387"><time>2026-01-18T11:35:31.100</time></trkpt><trkpt lat="55.7929747" lon="49.2383520"><time>2026-01-18T11:35:33.123</time></trkpt><trkpt lat="55.7929687" lon="49.2382633"><time>2026-01-18T11:35:35.103</time></trkpt><trkpt lat="55.7929662" lon="49.2381743"><time>2026-01-18T11:35:37.080</time></trkpt><trkpt lat="55.7929637" lon="49.2380722"><time>2026-01-18T11:35:39.120</time></trkpt><trkpt lat="55.7929634" lon="49.2379907"><time>2026-01-18T11:35:41.090</time></trkpt><trkpt lat="55.7929622" lon="49.2378842"><time>2026-01-18T11:35:43.097</time></trkpt><trkpt lat="55.7929394" lon="49.2377499"><time>2026-01-18T11:35:45.130</time></trkpt><trkpt lat="55.7929217" lon="49.2376150"><time>2026-01-18T11:35:47.103</time></trkpt><trkpt lat="55.7929150" lon="49.2375121"><time>2026-01-18T11:35:49.103</time></trkpt><trkpt lat="55.7929100" lon="49.2374244"><time>2026-01-18T11:35:51.130</time></trkpt><trkpt lat="55.7928825" lon="49.2373268"><time>2026-01-18T11:35:54.077</time></trkpt><trkpt lat="55.7928852" lon="49.2372091"><time>2026-01-18T11:35:57.127</time></trkpt><trkpt lat="55.7928879" lon="49.2370918"><time>2026-01-18T11:36:00.103</time></trkpt><trkpt lat="55.7928903" lon="49.2370037"><time>2026-01-18T11:36:02.103</time></trkpt><trkpt lat="55.7929031" lon="49.2368938"><time>2026-01-18T11:36:04.100</time></trkpt><trkpt lat="55.7929080" lon="49.2367921"><time>2026-01-18T11:36:07.097</time></trkpt><trkpt lat="55.7929203" lon="49.2367036"><time>2026-01-18T11:36:09.133</time></trkpt><trkpt lat="55.7929271" lon="49.2366177"><time>2026-01-18T11:36:11.087</time></trkpt><trkpt lat="55.7929318" lon="49.2364922"><time>2026-01-18T11:36:14.087</time></trkpt><trkpt lat="55.7929353" lon="49.2364032"><time>2026-01-18T11:36:16.083</time></trkpt><trkpt lat="55.7929435" lon="49.2363061"><time>2026-01-18T11:36:18.083</time></trkpt><trkpt lat="55.7929590" lon="49.2362038"><time>2026-01-18T11:36:21.083</time></trkpt><trkpt lat="55.7929715" lon="49.2360716"><time>2026-01-18T11:36:24.083</time></trkpt><trkpt lat="55.7929707" lon="49.2359867"><time>2026-01-18T11:36:26.087</time></trkpt><trkpt lat="55.7929685" lon="49.2358980"><time>2026-01-18T11:36:28.100</time></trkpt><trkpt lat="55.7929681" lon="49.2358035"><time>2026-01-18T11:36:30.110</time></trkpt><trkpt lat="55.7929623" lon="49.2357170"><time>2026-01-18T11:36:32.113</time></trkpt><trkpt lat="55.7929609" lon="49.2356070"><time>2026-01-18T11:36:35.113</time></trkpt><trkpt lat="55.7929562" lon="49.2354749"><time>2026-01-18T11:36:38.113</time></trkpt><trkpt lat="55.7929532" lon="49.2353954"><time>2026-01-18T11:36:40.107</time></trkpt><trkpt lat="55.7929558" lon="49.2352923"><time>2026-01-18T11:36:43.100</time></trkpt><trkpt lat="55.7929622" lon="49.2351959"><time>2026-01-18T11:36:46.100</time></trkpt><trkpt lat="55.7929619" lon="49.2350951"><time>2026-01-18T11:36:48.127</time></trkpt><trkpt lat="55.7929562" lon="49.2349862"><time>2026-01-18T11:36:51.107</time></trkpt><trkpt lat="55.7929541" lon="49.2348759"><time>2026-01-18T11:36:54.130</time></trkpt><trkpt lat="55.7929581" lon="49.2347657"><time>2026-01-18T11:36:57.103</time></trkpt><trkpt lat="55.7929585" lon="49.2346758"><time>2026-01-18T11:36:59.107</time></trkpt><trkpt lat="55.7929593" lon="49.2345885"><time>2026-01-18T11:37:01.110</time></trkpt><trkpt lat="55.7929626" lon="49.2344938"><time>2026-01-18T11:37:03.107</time></trkpt><trkpt lat="55.7929648" lon="49.2343980"><time>2026-01-18T11:37:05.110</time></trkpt><trkpt lat="55.7929659" lon="49.2343025"><time>2026-01-18T11:37:07.110</time></trkpt><trkpt lat="55.7929688" lon="49.2342219"><time>2026-01-18T11:37:09.107</time></trkpt><trkpt lat="55.7929719" lon="49.2341358"><time>2026-01-18T11:37:11.110</time></trkpt><trkpt lat="55.7929772" lon="49.2340358"><time>2026-01-18T11:37:13.103</time></trkpt><trkpt lat="55.7929841" lon="49.2339398"><time>2026-01-18T11:37:15.113</time></trkpt><trkpt lat="55.7929926" lon="49.2338541"><time>2026-01-18T11:37:17.117</time></trkpt><trkpt lat="55.7930002" lon="49.2337742"><time>2026-01-18T11:37:19.080</time></trkpt><trkpt lat="55.7930117" lon="49.2336756"><time>2026-01-18T11:37:21.103</time></trkpt><trkpt lat="55.7930264" lon="49.2335612"><time>2026-01-18T11:37:24.110</time></trkpt><trkpt lat="55.7930364" lon="49.2334705"><time>2026-01-18T11:37:26.100</time></trkpt><trkpt lat="55.7930545" lon="49.2333862"><time>2026-01-18T11:37:27.100</time></trkpt><trkpt lat="55.7930695" lon="49.2332928"><time>2026-01-18T11:37:29.127</time></trkpt><trkpt lat="55.7930761" lon="49.2331981"><time>2026-01-18T11:37:31.107</time></trkpt><trkpt lat="55.7930889" lon="49.2331076"><time>2026-01-18T11:37:33.110</time></trkpt><trkpt lat="55.7931044" lon="49.2330299"><time>2026-01-18T11:37:35.130</time></trkpt><trkpt lat="55.7931244" lon="49.2329325"><time>2026-01-18T11:37:38.083</time></trkpt><trkpt lat="55.7931327" lon="49.2328541"><time>2026-01-18T11:37:40.113</time></trkpt><trkpt lat="55.7931423" lon="49.2327715"><time>2026-01-18T11:37:42.083</time></trkpt><trkpt lat="55.7931632" lon="49.2326754"><time>2026-01-18T11:37:44.090</time></trkpt><trkpt lat="55.7931901" lon="49.2325697"><time>2026-01-18T11:37:47.130</time></trkpt><trkpt lat="55.7932062" lon="49.2324928"><time>2026-01-18T11:37:49.107</time></trkpt><trkpt lat="55.7932243" lon="49.2324097"><time>2026-01-18T11:37:51.103</time></trkpt><trkpt lat="55.7932448" lon="49.2323219"><time>2026-01-18T11:37:53.127</time></trkpt><trkpt lat="55.7932684" lon="49.2322348"><time>2026-01-18T11:37:55.107</time></trkpt><trkpt lat="55.7932936" lon="49.2321474"><time>2026-01-18T11:37:57.107</time></trkpt><trkpt lat="55.7933212" lon="49.2320546"><time>2026-01-18T11:37:59.133</time></trkpt><trkpt lat="55.7933512" lon="49.2319636"><time>2026-01-18T11:38:01.110</time></trkpt><trkpt lat="55.7933816" lon="49.2318825"><time>2026-01-18T11:38:03.113</time></trkpt><trkpt lat="55.7934100" lon="49.2318083"><time>2026-01-18T11:38:05.127</time></trkpt><trkpt lat="55.7934453" lon="49.2317050"><time>2026-01-18T11:38:08.107</time></trkpt><trkpt lat="55.7934744" lon="49.2316226"><time>2026-01-18T11:38:10.093</time></trkpt><trkpt lat="55.7935100" lon="49.2315431"><time>2026-01-18T11:38:12.110</time></trkpt><trkpt lat="55.7935364" lon="49.2314765"><time>2026-01-18T11:38:14.117</time></trkpt><trkpt lat="55.7935645" lon="49.2314084"><time>2026-01-18T11:38:16.103</time></trkpt><trkpt lat="55.7936041" lon="49.2313127"><time>2026-01-18T11:38:19.110</time></trkpt><trkpt lat="55.7936373" lon="49.2312425"><time>2026-01-18T11:38:21.103</time></trkpt><trkpt lat="55.7936764" lon="49.2311724"><time>2026-01-18T11:38:23.110</time></trkpt><trkpt lat="55.7937124" lon="49.2310970"><time>2026-01-18T11:38:25.100</time></trkpt><trkpt lat="55.7937460" lon="49.2310286"><time>2026-01-18T11:38:27.083</time></trkpt><trkpt lat="55.7937919" lon="49.2309447"><time>2026-01-18T11:38:30.113</time></trkpt><trkpt lat="55.7938275" lon="49.2308942"><time>2026-01-18T11:38:32.107</time></trkpt><trkpt lat="55.7938665" lon="49.2308500"><time>2026-01-18T11:38:34.130</time></trkpt><trkpt lat="55.7938695" lon="49.2307686"><time>2026-01-18T11:38:37.083</time></trkpt><trkpt lat="55.7938240" lon="49.2307200"><time>2026-01-18T11:38:40.130</time></trkpt><trkpt lat="55.7938297" lon="49.2306162"><time>2026-01-18T11:38:43.113</time></trkpt><trkpt lat="55.7938742" lon="49.2305294"><time>2026-01-18T11:38:46.127</time></trkpt><trkpt lat="55.7939198" lon="49.2304842"><time>2026-01-18T11:38:48.107</time></trkpt><trkpt lat="55.7939822" lon="49.2305057"><time>2026-01-18T11:38:51.100</time></trkpt><trkpt lat="55.7940393" lon="49.2305607"><time>2026-01-18T11:38:54.113</time></trkpt><trkpt lat="55.7940983" lon="49.2306081"><time>2026-01-18T11:38:57.107</time></trkpt><trkpt lat="55.7941620" lon="49.2306475"><time>2026-01-18T11:39:00.093</time></trkpt><trkpt lat="55.7942106" lon="49.2306776"><time>2026-01-18T11:39:02.113</time></trkpt><trkpt lat="55.7942559" lon="49.2307058"><time>2026-01-18T11:39:04.110</time></trkpt><trkpt lat="55.7943040" lon="49.2307362"><time>2026-01-18T11:39:06.083</time></trkpt><trkpt lat="55.7943521" lon="49.2307635"><time>2026-01-18T11:39:08.107</time></trkpt><trkpt lat="55.7943966" lon="49.2307910"><time>2026-01-18T11:39:10.083</time></trkpt><trkpt lat="55.7944373" lon="49.2308266"><time>2026-01-18T11:39:12.110</time></trkpt><trkpt lat="55.7944994" lon="49.2308733"><time>2026-01-18T11:39:15.127</time></trkpt><trkpt lat="55.7945449" lon="49.2309040"><time>2026-01-18T11:39:17.107</time></trkpt><trkpt lat="55.7945941" lon="49.2309346"><time>2026-01-18T11:39:19.110</time></trkpt><trkpt lat="55.7946482" lon="49.2309718"><time>2026-01-18T11:39:21.123</time></trkpt><trkpt lat="55.7947073" lon="49.2309783"><time>2026-01-18T11:39:24.103</time></trkpt><trkpt lat="55.7947350" lon="49.2308793"><time>2026-01-18T11:39:27.123</time></trkpt><trkpt lat="55.7947428" lon="49.2307985"><time>2026-01-18T11:39:29.100</time></trkpt><trkpt lat="55.7947479" lon="49.2306823"><time>2026-01-18T11:39:32.100</time></trkpt><trkpt lat="55.7947654" lon="49.2306024"><time>2026-01-18T11:39:35.113</time></trkpt><trkpt lat="55.7948115" lon="49.2305982"><time>2026-01-18T11:39:37.110</time></trkpt><trkpt lat="55.7948619" lon="49.2306210"><time>2026-01-18T11:39:39.130</time></trkpt><trkpt lat="55.7949082" lon="49.2306434"><time>2026-01-18T11:39:41.103</time></trkpt><trkpt lat="55.7949545" lon="49.2306665"><time>2026-01-18T11:39:43.103</time></trkpt><trkpt lat="55.7950069" lon="49.2306825"><time>2026-01-18T11:39:46.113</time></trkpt><trkpt lat="55.7949617" lon="49.2306442"><time>2026-01-18T11:39:57.123</time></trkpt><trkpt lat="55.7949002" lon="49.2305855"><time>2026-01-18T11:40:00.103</time></trkpt><trkpt lat="55.7948481" lon="49.2305446"><time>2026-01-18T11:40:02.107</time></trkpt><trkpt lat="55.7948185" lon="49.2304640"><time>2026-01-18T11:40:04.107</time></trkpt><trkpt lat="55.7948080" lon="49.2303815"><time>2026-01-18T11:40:06.110</time></trkpt><trkpt lat="55.7947894" lon="49.2302680"><time>2026-01-18T11:40:09.110</time></trkpt><trkpt lat="55.7947939" lon="49.2301873"><time>2026-01-18T11:40:11.097</time></trkpt><trkpt lat="55.7947891" lon="49.2300728"><time>2026-01-18T11:40:14.077</time></trkpt><trkpt lat="55.7947828" lon="49.2299511"><time>2026-01-18T11:40:17.077</time></trkpt><trkpt lat="55.7947782" lon="49.2298579"><time>2026-01-18T11:40:19.120</time></trkpt><trkpt lat="55.7947761" lon="49.2297725"><time>2026-01-18T11:40:21.093</time></trkpt><trkpt lat="55.7947723" lon="49.2296893"><time>2026-01-18T11:40:23.107</time></trkpt><trkpt lat="55.7947650" lon="49.2296035"><time>2026-01-18T11:40:25.127</time></trkpt><trkpt lat="55.7947583" lon="49.2295220"><time>2026-01-18T11:40:27.110</time></trkpt><trkpt lat="55.7947837" lon="49.2294446"><time>2026-01-18T11:40:29.103</time></trkpt><trkpt lat="55.7947948" lon="49.2293225"><time>2026-01-18T11:40:32.103</time></trkpt><trkpt lat="55.7948029" lon="49.2292203"><time>2026-01-18T11:40:34.110</time></trkpt><trkpt lat="55.7948108" lon="49.2291179"><time>2026-01-18T11:40:36.127</time></trkpt><trkpt lat="55.7948158" lon="49.2290281"><time>2026-01-18T11:40:38.083</time></trkpt><trkpt lat="55.7948103" lon="49.2289405"><time>2026-01-18T11:40:40.107</time></trkpt><trkpt lat="55.7948072" lon="49.2288539"><time>2026-01-18T11:40:42.130</time></trkpt><trkpt lat="55.7948367" lon="49.2287905"><time>2026-01-18T11:40:44.080</time></trkpt><trkpt lat="55.7949043" lon="49.2288010"><time>2026-01-18T11:40:47.097</time></trkpt><trkpt lat="55.7949557" lon="49.2288137"><time>2026-01-18T11:40:49.107</time></trkpt><trkpt lat="55.7950152" lon="49.2288197"><time>2026-01-18T11:40:51.097</time></trkpt><trkpt lat="55.7950724" lon="49.2288263"><time>2026-01-18T11:40:53.113</time></trkpt><trkpt lat="55.7951238" lon="49.2288360"><time>2026-01-18T11:40:55.107</time></trkpt><trkpt lat="55.7951745" lon="49.2288416"><time>2026-01-18T11:40:57.110</time></trkpt><trkpt lat="55.7952397" lon="49.2288656"><time>2026-01-18T11:40:59.130</time></trkpt><trkpt lat="55.7952944" lon="49.2288636"><time>2026-01-18T11:41:01.110</time></trkpt><trkpt lat="55.7953525" lon="49.2288615"><time>2026-01-18T11:41:03.100</time></trkpt><trkpt lat="55.7954016" lon="49.2288754"><time>2026-01-18T11:41:05.117</time></trkpt><trkpt lat="55.7954644" lon="49.2288871"><time>2026-01-18T11:41:07.090</time></trkpt><trkpt lat="55.7955088" lon="49.2289164"><time>2026-01-18T11:41:09.110</time></trkpt><trkpt lat="55.7955184" lon="49.2290267"><time>2026-01-18T11:41:12.077</time></trkpt><trkpt lat="55.7955183" lon="49.2291092"><time>2026-01-18T11:41:14.093</time></trkpt><trkpt lat="55.7955095" lon="49.2291950"><time>2026-01-18T11:41:18.103</time></trkpt><trkpt lat="55.7955038" lon="49.2292560"><time>2026-01-18T11:41:23.203</time></trkpt><trkpt lat="55.7955392" lon="49.2290609"><time>2026-01-18T11:41:31.080</time></trkpt><trkpt lat="55.7955579" lon="49.2289667"><time>2026-01-18T11:41:33.093</time></trkpt><trkpt lat="55.7955488" lon="49.2288512"><time>2026-01-18T11:41:36.087</time></trkpt><trkpt lat="55.7955556" lon="49.2287698"><time>2026-01-18T11:41:38.077</time></trkpt><trkpt lat="55.7955459" lon="49.2286306"><time>2026-01-18T11:41:40.087</time></trkpt><trkpt lat="55.7955350" lon="49.2284981"><time>2026-01-18T11:41:44.073</time></trkpt><trkpt lat="55.7955331" lon="49.2283959"><time>2026-01-18T11:41:46.090</time></trkpt><trkpt lat="55.7955254" lon="49.2282717"><time>2026-01-18T11:41:49.097</time></trkpt><trkpt lat="55.7955228" lon="49.2281774"><time>2026-01-18T11:41:51.093</time></trkpt><trkpt lat="55.7955160" lon="49.2280610"><time>2026-01-18T11:41:54.077</time></trkpt><trkpt lat="55.7955136" lon="49.2279504"><time>2026-01-18T11:41:58.080</time></trkpt><trkpt lat="55.7955191" lon="49.2278607"><time>2026-01-18T11:42:01.097</time></trkpt><trkpt lat="55.7955161" lon="49.2277728"><time>2026-01-18T11:42:04.093</time></trkpt><trkpt lat="55.7955098" lon="49.2276916"><time>2026-01-18T11:42:06.103</time></trkpt><trkpt lat="55.7954993" lon="49.2276095"><time>2026-01-18T11:42:08.110</time></trkpt><trkpt lat="55.7954995" lon="49.2275296"><time>2026-01-18T11:42:10.100</time></trkpt><trkpt lat="55.7955034" lon="49.2274313"><time>2026-01-18T11:42:13.130</time></trkpt><trkpt lat="55.7955061" lon="49.2273081"><time>2026-01-18T11:42:16.113</time></trkpt><trkpt lat="55.7954875" lon="49.2271616"><time>2026-01-18T11:42:18.117</time></trkpt><trkpt lat="55.7954871" lon="49.2270540"><time>2026-01-18T11:42:20.113</time></trkpt><trkpt lat="55.7955218" lon="49.2269557"><time>2026-01-18T11:42:22.110</time></trkpt><trkpt lat="55.7955639" lon="49.2268908"><time>2026-01-18T11:42:24.087</time></trkpt><trkpt lat="55.7956203" lon="49.2268539"><time>2026-01-18T11:42:26.107</time></trkpt><trkpt lat="55.7956803" lon="49.2268286"><time>2026-01-18T11:42:28.100</time></trkpt><trkpt lat="55.7957253" lon="49.2268066"><time>2026-01-18T11:42:30.107</time></trkpt><trkpt lat="55.7957907" lon="49.2267681"><time>2026-01-18T11:42:33.113</time></trkpt><trkpt lat="55.7958735" lon="49.2267253"><time>2026-01-18T11:42:35.080</time></trkpt><trkpt lat="55.7959279" lon="49.2266770"><time>2026-01-18T11:42:37.130</time></trkpt><trkpt lat="55.7959796" lon="49.2266247"><time>2026-01-18T11:42:39.107</time></trkpt><trkpt lat="55.7960153" lon="49.2265535"><time>2026-01-18T11:42:41.107</time></trkpt><trkpt lat="55.7960371" lon="49.2264602"><time>2026-01-18T11:42:43.113</time></trkpt><trkpt lat="55.7960413" lon="49.2263541"><time>2026-01-18T11:42:45.113</time></trkpt><trkpt lat="55.7960392" lon="49.2262586"><time>2026-01-18T11:42:47.097</time></trkpt><trkpt lat="55.7960314" lon="49.2261791"><time>2026-01-18T11:42:49.077</time></trkpt><trkpt lat="55.7960119" lon="49.2260737"><time>2026-01-18T11:42:53.100</time></trkpt><trkpt lat="55.7960073" lon="49.2259840"><time>2026-01-18T11:42:55.077</time></trkpt><trkpt lat="55.7960025" lon="49.2258925"><time>2026-01-18T11:42:57.093</time></trkpt><trkpt lat="55.7960022" lon="49.2257905"><time>2026-01-18T11:42:59.097</time></trkpt><trkpt lat="55.7960056" lon="49.2256811"><time>2026-01-18T11:43:01.100</time></trkpt><trkpt lat="55.7960084" lon="49.2255924"><time>2026-01-18T11:43:02.097</time></trkpt><trkpt lat="55.7960171" lon="49.2254434"><time>2026-01-18T11:43:04.107</time></trkpt><trkpt lat="55.7960131" lon="49.2253424"><time>2026-01-18T11:43:06.137</time></trkpt><trkpt lat="55.7959948" lon="49.2252335"><time>2026-01-18T11:43:08.103</time></trkpt><trkpt lat="55.7959874" lon="49.2251248"><time>2026-01-18T11:43:10.083</time></trkpt><trkpt lat="55.7959917" lon="49.2250035"><time>2026-01-18T11:43:12.133</time></trkpt><trkpt lat="55.7959942" lon="49.2248976"><time>2026-01-18T11:43:14.100</time></trkpt><trkpt lat="55.7960034" lon="49.2247711"><time>2026-01-18T11:43:16.113</time></trkpt><trkpt lat="55.7960158" lon="49.2246719"><time>2026-01-18T11:43:18.130</time></trkpt><trkpt lat="55.7960323" lon="49.2245801"><time>2026-01-18T11:43:20.077</time></trkpt><trkpt lat="55.7960461" lon="49.2244721"><time>2026-01-18T11:43:22.107</time></trkpt><trkpt lat="55.7960587" lon="49.2243594"><time>2026-01-18T11:43:24.127</time></trkpt><trkpt lat="55.7960643" lon="49.2242534"><time>2026-01-18T11:43:26.117</time></trkpt><trkpt lat="55.7960668" lon="49.2241578"><time>2026-01-18T11:43:28.113</time></trkpt><trkpt lat="55.7960740" lon="49.2240691"><time>2026-01-18T11:43:30.127</time></trkpt><trkpt lat="55.7960998" lon="49.2239853"><time>2026-01-18T11:43:32.110</time></trkpt><trkpt lat="55.7961240" lon="49.2238901"><time>2026-01-18T11:43:34.110</time></trkpt><trkpt lat="55.7961380" lon="49.2237828"><time>2026-01-18T11:43:36.133</time></trkpt><trkpt lat="55.7961456" lon="49.2236844"><time>2026-01-18T11:43:38.117</time></trkpt><trkpt lat="55.7961499" lon="49.2235954"><time>2026-01-18T11:43:40.107</time></trkpt><trkpt lat="55.7961370" lon="49.2235013"><time>2026-01-18T11:43:43.110</time></trkpt><trkpt lat="55.7961506" lon="49.2233838"><time>2026-01-18T11:43:48.107</time></trkpt><trkpt lat="55.7961337" lon="49.2232680"><time>2026-01-18T11:43:50.107</time></trkpt><trkpt lat="55.7961162" lon="49.2231737"><time>2026-01-18T11:43:52.107</time></trkpt><trkpt lat="55.7961658" lon="49.2231297"><time>2026-01-18T11:43:57.097</time></trkpt><trkpt lat="55.7962113" lon="49.2231368"><time>2026-01-18T11:43:59.120</time></trkpt><trkpt lat="55.7962571" lon="49.2231420"><time>2026-01-18T11:44:01.090</time></trkpt><trkpt lat="55.7963236" lon="49.2231394"><time>2026-01-18T11:44:04.087</time></trkpt><trkpt lat="55.7963528" lon="49.2230708"><time>2026-01-18T11:44:07.103</time></trkpt><trkpt lat="55.7964734" lon="49.2231515"><time>2026-01-18T11:44:09.110</time></trkpt><trkpt lat="55.7965098" lon="49.2230808"><time>2026-01-18T11:44:10.107</time></trkpt><trkpt lat="55.7965418" lon="49.2230005"><time>2026-01-18T11:44:12.097</time></trkpt><trkpt lat="55.7965510" lon="49.2229196"><time>2026-01-18T11:44:14.110</time></trkpt><trkpt lat="55.7965819" lon="49.2228087"><time>2026-01-18T11:44:17.103</time></trkpt><trkpt lat="55.7965761" lon="49.2227159"><time>2026-01-18T11:44:19.077</time></trkpt><trkpt lat="55.7965769" lon="49.2226267"><time>2026-01-18T11:44:21.093</time></trkpt><trkpt lat="55.7965880" lon="49.2225459"><time>2026-01-18T11:44:23.090</time></trkpt><trkpt lat="55.7965699" lon="49.2224328"><time>2026-01-18T11:44:26.100</time></trkpt><trkpt lat="55.7965426" lon="49.2224271"><time>2026-01-18T11:44:31.137</time></trkpt><trkpt lat="55.7965817" lon="49.2225489"><time>2026-01-18T11:44:40.087</time></trkpt><trkpt lat="55.7965761" lon="49.2226464"><time>2026-01-18T11:44:42.093</time></trkpt><trkpt lat="55.7965713" lon="49.2227439"><time>2026-01-18T11:44:44.087</time></trkpt><trkpt lat="55.7965546" lon="49.2228356"><time>2026-01-18T11:44:46.087</time></trkpt><trkpt lat="55.7965323" lon="49.2229356"><time>2026-01-18T11:44:49.120</time></trkpt><trkpt lat="55.7965311" lon="49.2230197"><time>2026-01-18T11:44:55.100</time></trkpt><trkpt lat="55.7965395" lon="49.2231082"><time>2026-01-18T11:44:59.093</time></trkpt><trkpt lat="55.7965073" lon="49.2231651"><time>2026-01-18T11:45:02.090</time></trkpt><trkpt lat="55.7964628" lon="49.2231889"><time>2026-01-18T11:45:04.080</time></trkpt><trkpt lat="55.7964131" lon="49.2232146"><time>2026-01-18T11:45:06.073</time></trkpt><trkpt lat="55.7963674" lon="49.2232381"><time>2026-01-18T11:45:08.110</time></trkpt><trkpt lat="55.7963070" lon="49.2232331"><time>2026-01-18T11:45:11.090</time></trkpt><trkpt lat="55.7962595" lon="49.2232956"><time>2026-01-18T11:45:14.113</time></trkpt><trkpt lat="55.7962257" lon="49.2233960"><time>2026-01-18T11:45:16.070</time></trkpt><trkpt lat="55.7961874" lon="49.2234724"><time>2026-01-18T11:45:18.093</time></trkpt><trkpt lat="55.7961711" lon="49.2236040"><time>2026-01-18T11:45:23.090</time></trkpt><trkpt lat="55.7961532" lon="49.2237325"><time>2026-01-18T11:45:25.127</time></trkpt><trkpt lat="55.7961317" lon="49.2238063"><time>2026-01-18T11:45:26.117</time></trkpt><trkpt lat="55.7961113" lon="49.2239108"><time>2026-01-18T11:45:28.113</time></trkpt><trkpt lat="55.7960917" lon="49.2240067"><time>2026-01-18T11:45:30.113</time></trkpt><trkpt lat="55.7960631" lon="49.2240749"><time>2026-01-18T11:45:32.113</time></trkpt><trkpt lat="55.7960099" lon="49.2240984"><time>2026-01-18T11:45:34.113</time></trkpt><trkpt lat="55.7959613" lon="49.2240585"><time>2026-01-18T11:45:36.117</time></trkpt><trkpt lat="55.7959072" lon="49.2240640"><time>2026-01-18T11:45:39.100</time></trkpt><trkpt lat="55.7959023" lon="49.2241529"><time>2026-01-18T11:45:43.093</time></trkpt><trkpt lat="55.7958657" lon="49.2242137"><time>2026-01-18T11:45:47.107</time></trkpt><trkpt lat="55.7958247" lon="49.2242706"><time>2026-01-18T11:45:57.090</time></trkpt></trkseg></trk></gpx>